<?xml version='1.0' encoding='UTF-8'?><gpx version="1.1" creator="JPX - https://github.com/jenetics/jpx" xmlns="http://www.topografix.com/GPX/1/1"><trk><trkseg><trkpt lat="46.15479953498247" lon="9.76175462304958"><ele>271.0</ele><time>2026-04-04T11:40:54.531Z</time></trkpt><trkpt lat="46.15484702217465" lon="9.761693008635806"><ele>271.0</ele><time>2026-04-04T11:41:22Z</time></trkpt><trkpt lat="46.15478890622361" lon="9.761791775371728"><ele>271.0</ele><time>2026-04-04T11:41:55.999Z</time></trkpt><trkpt lat="46.15485372762946" lon="9.761754151985778"><ele>271.0</ele><time>2026-04-04T11:42:28.999Z</time></trkpt><trkpt lat="46.15476850813861" lon="9.761832545198967"><ele>271.0</ele><time>2026-04-04T11:43:35Z</time></trkpt><trkpt lat="46.1547042320586" lon="9.761825460147643"><ele>271.0</ele><time>2026-04-04T11:43:36Z</time></trkpt><trkpt lat="46.15459878592899" lon="9.76178610271719"><ele>271.0</ele><time>2026-04-04T11:43:37Z</time></trkpt><trkpt lat="46.15447287578389" lon="9.761785542033481"><ele>271.0</ele><time>2026-04-04T11:43:38Z</time></trkpt><trkpt lat="46.15434381068508" lon="9.761795571462802"><ele>271.0</ele><time>2026-04-04T11:43:39Z</time></trkpt><trkpt lat="46.154236428970684" lon="9.761797412751058"><ele>271.0</ele><time>2026-04-04T11:43:40Z</time></trkpt><trkpt lat="46.15413428798296" lon="9.761790454619193"><ele>271.0</ele><time>2026-04-04T11:43:41Z</time></trkpt><trkpt lat="46.15404590769408" lon="9.761780415840835"><ele>271.0</ele><time>2026-04-04T11:43:42Z</time></trkpt><trkpt lat="46.15396561980829" lon="9.761771151358111"><ele>271.0</ele><time>2026-04-04T11:43:43Z</time></trkpt><trkpt lat="46.15389607694924" lon="9.761779339474124"><ele>271.0</ele><time>2026-04-04T11:43:44Z</time></trkpt><trkpt lat="46.15380891595227" lon="9.761676810694038"><ele>271.0</ele><time>2026-04-04T11:43:46Z</time></trkpt><trkpt lat="46.15381957888907" lon="9.761542846213517"><ele>271.0</ele><time>2026-04-04T11:43:47Z</time></trkpt><trkpt lat="46.15383369719404" lon="9.761400036088014"><ele>271.5</ele><time>2026-04-04T11:43:48Z</time></trkpt><trkpt lat="46.153829253569775" lon="9.76122172188285"><ele>272.0</ele><time>2026-04-04T11:43:49Z</time></trkpt><trkpt lat="46.153836457879784" lon="9.76106407298865"><ele>272.5</ele><time>2026-04-04T11:43:50Z</time></trkpt><trkpt lat="46.153836905694284" lon="9.760908638619865"><ele>273.0</ele><time>2026-04-04T11:43:51Z</time></trkpt><trkpt lat="46.15384370502462" lon="9.760740598908672"><ele>273.0</ele><time>2026-04-04T11:43:51.999Z</time></trkpt><trkpt lat="46.15387894755829" lon="9.760582050907217"><ele>273.0</ele><time>2026-04-04T11:43:52.999Z</time></trkpt><trkpt lat="46.15390405871861" lon="9.760409569653984"><ele>273.0</ele><time>2026-04-04T11:43:53.999Z</time></trkpt><trkpt lat="46.15393228375233" lon="9.760246935940083"><ele>273.0</ele><time>2026-04-04T11:43:54.999Z</time></trkpt><trkpt lat="46.15398570450532" lon="9.760089800579957"><ele>272.6</ele><time>2026-04-04T11:43:55.999Z</time></trkpt><trkpt lat="46.154028935010196" lon="9.759936425925993"><ele>272.20000000000005</ele><time>2026-04-04T11:43:56.999Z</time></trkpt><trkpt lat="46.15405770661929" lon="9.759787097111479"><ele>271.8</ele><time>2026-04-04T11:43:57.999Z</time></trkpt><trkpt lat="46.15408215900111" lon="9.759641914994146"><ele>271.40000000000003</ele><time>2026-04-04T11:43:58.999Z</time></trkpt><trkpt lat="46.154106328322364" lon="9.759513579665017"><ele>271.0</ele><time>2026-04-04T11:43:59.999Z</time></trkpt><trkpt lat="46.15412477589753" lon="9.759405362690227"><ele>270.8</ele><time>2026-04-04T11:44:00.999Z</time></trkpt><trkpt lat="46.15416931815321" lon="9.759308344866499"><ele>270.6</ele><time>2026-04-04T11:44:01.999Z</time></trkpt><trkpt lat="46.15423584247233" lon="9.759207417494512"><ele>270.4</ele><time>2026-04-04T11:44:02.999Z</time></trkpt><trkpt lat="46.15429943788961" lon="9.759077901693693"><ele>270.2</ele><time>2026-04-04T11:44:03.999Z</time></trkpt><trkpt lat="46.15434843632455" lon="9.758965889364323"><ele>270.0</ele><time>2026-04-04T11:44:04.999Z</time></trkpt><trkpt lat="46.154387215981465" lon="9.758875213632034"><ele>270.0</ele><time>2026-04-04T11:44:05.999Z</time></trkpt><trkpt lat="46.15441082607476" lon="9.758775433743608"><ele>270.0</ele><time>2026-04-04T11:44:06.999Z</time></trkpt><trkpt lat="46.15440920122504" lon="9.758658034395562"><ele>270.0</ele><time>2026-04-04T11:44:07.999Z</time></trkpt><trkpt lat="46.15441228151232" lon="9.758539993026051"><ele>270.0</ele><time>2026-04-04T11:44:08.999Z</time></trkpt><trkpt lat="46.15441427882094" lon="9.758432123927488"><ele>270.0</ele><time>2026-04-04T11:44:09.999Z</time></trkpt><trkpt lat="46.15442129849733" lon="9.758298517811546"><ele>270.0</ele><time>2026-04-04T11:44:10.999Z</time></trkpt><trkpt lat="46.154425992563276" lon="9.758154877289867"><ele>270.0</ele><time>2026-04-04T11:44:11.999Z</time></trkpt><trkpt lat="46.15442010543054" lon="9.758014048520216"><ele>270.0</ele><time>2026-04-04T11:44:12.999Z</time></trkpt><trkpt lat="46.154413182386506" lon="9.7578965659641"><ele>270.0</ele><time>2026-04-04T11:44:13.999Z</time></trkpt><trkpt lat="46.15440956828229" lon="9.757790561031262"><ele>270.0</ele><time>2026-04-04T11:44:14.999Z</time></trkpt><trkpt lat="46.154389875840444" lon="9.757599919189676"><ele>270.0</ele><time>2026-04-04T11:44:16.999Z</time></trkpt><trkpt lat="46.15436893966269" lon="9.757458882121222"><ele>270.0</ele><time>2026-04-04T11:44:17.999Z</time></trkpt><trkpt lat="46.15434420824297" lon="9.75729352420432"><ele>270.0</ele><time>2026-04-04T11:44:18.999Z</time></trkpt><trkpt lat="46.15431772838354" lon="9.757122169936402"><ele>270.0</ele><time>2026-04-04T11:44:19.999Z</time></trkpt><trkpt lat="46.15428272186195" lon="9.756948739118583"><ele>270.0</ele><time>2026-04-04T11:44:20.999Z</time></trkpt><trkpt lat="46.15424617448629" lon="9.756789306585784"><ele>269.75</ele><time>2026-04-04T11:44:21.999Z</time></trkpt><trkpt lat="46.15421330955724" lon="9.756626105925823"><ele>269.5</ele><time>2026-04-04T11:44:22.999Z</time></trkpt><trkpt lat="46.154191820395496" lon="9.756462516380957"><ele>269.25</ele><time>2026-04-04T11:44:23.999Z</time></trkpt><trkpt lat="46.15417341271334" lon="9.756257980036763"><ele>269.0</ele><time>2026-04-04T11:44:24.999Z</time></trkpt><trkpt lat="46.15415277632422" lon="9.756048279139826"><ele>269.0</ele><time>2026-04-04T11:44:25.999Z</time></trkpt><trkpt lat="46.154124704429506" lon="9.755847444086593"><ele>269.0</ele><time>2026-04-04T11:44:26.999Z</time></trkpt><trkpt lat="46.154101317613616" lon="9.755640542263043"><ele>269.0</ele><time>2026-04-04T11:44:27.999Z</time></trkpt><trkpt lat="46.154086849980764" lon="9.755456699453461"><ele>269.0</ele><time>2026-04-04T11:44:28.999Z</time></trkpt><trkpt lat="46.154085984635124" lon="9.755273065863149"><ele>269.0</ele><time>2026-04-04T11:44:29.999Z</time></trkpt><trkpt lat="46.154078721756804" lon="9.755093572121712"><ele>269.0</ele><time>2026-04-04T11:44:30.999Z</time></trkpt><trkpt lat="46.15409491276544" lon="9.754914427898173"><ele>269.0</ele><time>2026-04-04T11:44:31.999Z</time></trkpt><trkpt lat="46.15409181359714" lon="9.754738251286525"><ele>269.0</ele><time>2026-04-04T11:44:32.999Z</time></trkpt><trkpt lat="46.15409324501404" lon="9.75458130783073"><ele>269.0</ele><time>2026-04-04T11:44:33.999Z</time></trkpt><trkpt lat="46.154092014452154" lon="9.754450355043259"><ele>269.0</ele><time>2026-04-04T11:44:34.999Z</time></trkpt><trkpt lat="46.15410558913789" lon="9.754327574721588"><ele>269.0</ele><time>2026-04-04T11:44:35.999Z</time></trkpt><trkpt lat="46.15412514177256" lon="9.754206170578389"><ele>269.0</ele><time>2026-04-04T11:44:36.999Z</time></trkpt><trkpt lat="46.15413975503659" lon="9.754095360732094"><ele>269.0</ele><time>2026-04-04T11:44:37.999Z</time></trkpt><trkpt lat="46.15420362271506" lon="9.753978082310272"><ele>269.0</ele><time>2026-04-04T11:44:39.999Z</time></trkpt><trkpt lat="46.15427428884813" lon="9.753995927482132"><ele>269.0</ele><time>2026-04-04T11:44:40.999Z</time></trkpt><trkpt lat="46.15436081741724" lon="9.75403470405974"><ele>269.0</ele><time>2026-04-04T11:44:41.999Z</time></trkpt><trkpt lat="46.15447291833915" lon="9.754063582036466"><ele>269.0</ele><time>2026-04-04T11:44:42.999Z</time></trkpt><trkpt lat="46.15461136527234" lon="9.754087959468137"><ele>269.0</ele><time>2026-04-04T11:44:43.999Z</time></trkpt><trkpt lat="46.15475365442479" lon="9.754114279358646"><ele>269.25</ele><time>2026-04-04T11:44:44.999Z</time></trkpt><trkpt lat="46.15489487432855" lon="9.75413108957694"><ele>269.5</ele><time>2026-04-04T11:44:45.999Z</time></trkpt><trkpt lat="46.155017951161476" lon="9.754142845724862"><ele>269.75</ele><time>2026-04-04T11:44:46.999Z</time></trkpt><trkpt lat="46.155131237111576" lon="9.754159074367989"><ele>270.0</ele><time>2026-04-04T11:44:47.999Z</time></trkpt><trkpt lat="46.15523338736681" lon="9.75417553589216"><ele>270.0</ele><time>2026-04-04T11:44:48.999Z</time></trkpt><trkpt lat="46.155330935082944" lon="9.754173447082819"><ele>270.0</ele><time>2026-04-04T11:44:49.999Z</time></trkpt><trkpt lat="46.155415069682995" lon="9.75411807977015"><ele>270.0</ele><time>2026-04-04T11:44:50.999Z</time></trkpt><trkpt lat="46.15548574315202" lon="9.754006938962734"><ele>270.0</ele><time>2026-04-04T11:44:51.999Z</time></trkpt><trkpt lat="46.15555443069538" lon="9.753852520867303"><ele>270.0</ele><time>2026-04-04T11:44:52.999Z</time></trkpt><trkpt lat="46.15563655724462" lon="9.753667348126559"><ele>270.0</ele><time>2026-04-04T11:44:53.999Z</time></trkpt><trkpt lat="46.15573065703082" lon="9.753464922720473"><ele>270.0</ele><time>2026-04-04T11:44:54.999Z</time></trkpt><trkpt lat="46.15582847022705" lon="9.753288816647643"><ele>270.0</ele><time>2026-04-04T11:44:55.999Z</time></trkpt><trkpt lat="46.1559250841682" lon="9.75312983764745"><ele>270.0</ele><time>2026-04-04T11:44:56.999Z</time></trkpt><trkpt lat="46.1560028953571" lon="9.752975350450553"><ele>270.0</ele><time>2026-04-04T11:44:57.999Z</time></trkpt><trkpt lat="46.156080522134694" lon="9.752837484371108"><ele>270.0</ele><time>2026-04-04T11:44:58.999Z</time></trkpt><trkpt lat="46.15614267244377" lon="9.752708237677982"><ele>270.0</ele><time>2026-04-04T11:44:59.999Z</time></trkpt><trkpt lat="46.15619744713159" lon="9.752594929143369"><ele>269.8</ele><time>2026-04-04T11:45:00.999Z</time></trkpt><trkpt lat="46.15623240540797" lon="9.752475264000854"><ele>269.6</ele><time>2026-04-04T11:45:01.999Z</time></trkpt><trkpt lat="46.156253189777786" lon="9.7523671099007"><ele>269.4</ele><time>2026-04-04T11:45:02.999Z</time></trkpt><trkpt lat="46.15625774498056" lon="9.75224175597509"><ele>269.2</ele><time>2026-04-04T11:45:03.999Z</time></trkpt><trkpt lat="46.15625855161028" lon="9.752098267523058"><ele>269.0</ele><time>2026-04-04T11:45:04.999Z</time></trkpt><trkpt lat="46.15626362541595" lon="9.75191915894805"><ele>269.0</ele><time>2026-04-04T11:45:05.999Z</time></trkpt><trkpt lat="46.156276843411206" lon="9.751705843146734"><ele>269.0</ele><time>2026-04-04T11:45:06.999Z</time></trkpt><trkpt lat="46.1562904800027" lon="9.751478594407079"><ele>269.0</ele><time>2026-04-04T11:45:07.999Z</time></trkpt><trkpt lat="46.15629999339287" lon="9.751252229478803"><ele>269.33333333333337</ele><time>2026-04-04T11:45:08.999Z</time></trkpt><trkpt lat="46.156314973942365" lon="9.750996986620718"><ele>269.6666666666667</ele><time>2026-04-04T11:45:09.999Z</time></trkpt><trkpt lat="46.15633985401405" lon="9.750751720167491"><ele>270.0</ele><time>2026-04-04T11:45:10.999Z</time></trkpt><trkpt lat="46.15635952744438" lon="9.750542000869627"><ele>270.0</ele><time>2026-04-04T11:45:11.999Z</time></trkpt><trkpt lat="46.15635205793227" lon="9.750345677495295"><ele>270.0</ele><time>2026-04-04T11:45:12.999Z</time></trkpt><trkpt lat="46.15633038286951" lon="9.750141310226919"><ele>270.0</ele><time>2026-04-04T11:45:13.999Z</time></trkpt><trkpt lat="46.15633267189514" lon="9.749920441771962"><ele>270.0</ele><time>2026-04-04T11:45:14.999Z</time></trkpt><trkpt lat="46.15636743226046" lon="9.749706412428853"><ele>269.6666666666667</ele><time>2026-04-04T11:45:15.999Z</time></trkpt><trkpt lat="46.15640779829501" lon="9.749468786243813"><ele>269.33333333333337</ele><time>2026-04-04T11:45:16.999Z</time></trkpt><trkpt lat="46.156420295583416" lon="9.749234149022607"><ele>269.0</ele><time>2026-04-04T11:45:17.999Z</time></trkpt><trkpt lat="46.15642846805535" lon="9.749034344794952"><ele>268.75</ele><time>2026-04-04T11:45:18.999Z</time></trkpt><trkpt lat="46.15645417440595" lon="9.748829577516643"><ele>268.5</ele><time>2026-04-04T11:45:19.999Z</time></trkpt><trkpt lat="46.156473003658654" lon="9.748613818160692"><ele>268.25</ele><time>2026-04-04T11:45:20.999Z</time></trkpt><trkpt lat="46.156479885274344" lon="9.748393651267987"><ele>268.0</ele><time>2026-04-04T11:45:21.999Z</time></trkpt><trkpt lat="46.15648756757756" lon="9.748175055089414"><ele>268.0</ele><time>2026-04-04T11:45:22.999Z</time></trkpt><trkpt lat="46.156516018391386" lon="9.747958764741906"><ele>268.0</ele><time>2026-04-04T11:45:23.999Z</time></trkpt><trkpt lat="46.15657224017867" lon="9.747760736181048"><ele>268.0</ele><time>2026-04-04T11:45:24.999Z</time></trkpt><trkpt lat="46.156612859137006" lon="9.747571091791041"><ele>268.0</ele><time>2026-04-04T11:45:25.999Z</time></trkpt><trkpt lat="46.1566423393982" lon="9.747400978989566"><ele>268.5</ele><time>2026-04-04T11:45:26.999Z</time></trkpt><trkpt lat="46.15668618532311" lon="9.747235401932699"><ele>269.0</ele><time>2026-04-04T11:45:27.999Z</time></trkpt><trkpt lat="46.156722380949624" lon="9.747051712580383"><ele>269.5</ele><time>2026-04-04T11:45:28.999Z</time></trkpt><trkpt lat="46.15675845438182" lon="9.746886591255114"><ele>270.0</ele><time>2026-04-04T11:45:29.999Z</time></trkpt><trkpt lat="46.156791985080375" lon="9.746727162465621"><ele>270.0</ele><time>2026-04-04T11:45:30.999Z</time></trkpt><trkpt lat="46.15681996598364" lon="9.746588745866216"><ele>270.0</ele><time>2026-04-04T11:45:31.999Z</time></trkpt><trkpt lat="46.15684987390296" lon="9.746462098832632"><ele>270.0</ele><time>2026-04-04T11:45:32.999Z</time></trkpt><trkpt lat="46.15686544488195" lon="9.74635102319573"><ele>270.0</ele><time>2026-04-04T11:45:33.999Z</time></trkpt><trkpt lat="46.15686009722249" lon="9.746250383580618"><ele>270.0</ele><time>2026-04-04T11:45:34.999Z</time></trkpt><trkpt lat="46.15681391011739" lon="9.746174015521854"><ele>270.0</ele><time>2026-04-04T11:45:35.999Z</time></trkpt><trkpt lat="46.15673915471721" lon="9.746124896014697"><ele>270.0</ele><time>2026-04-04T11:45:36.999Z</time></trkpt><trkpt lat="46.15665795344366" lon="9.746088264285428"><ele>270.0</ele><time>2026-04-04T11:45:37.999Z</time></trkpt><trkpt lat="46.15660964588751" lon="9.746012445128345"><ele>270.0</ele><time>2026-04-04T11:45:38.999Z</time></trkpt><trkpt lat="46.15661519131027" lon="9.745906380075915"><ele>270.0</ele><time>2026-04-04T11:45:39.999Z</time></trkpt><trkpt lat="46.15666615746413" lon="9.74578843306895"><ele>270.0</ele><time>2026-04-04T11:45:40.999Z</time></trkpt><trkpt lat="46.15672363642743" lon="9.745642426569791"><ele>270.0</ele><time>2026-04-04T11:45:41.999Z</time></trkpt><trkpt lat="46.15678404657934" lon="9.745475275933163"><ele>270.0</ele><time>2026-04-04T11:45:42.999Z</time></trkpt><trkpt lat="46.15682772392787" lon="9.745300418506034"><ele>270.0</ele><time>2026-04-04T11:45:43.999Z</time></trkpt><trkpt lat="46.156870319558394" lon="9.745123408330139"><ele>270.0</ele><time>2026-04-04T11:45:44.998Z</time></trkpt><trkpt lat="46.15691677162128" lon="9.744940262749212"><ele>270.0</ele><time>2026-04-04T11:45:45.998Z</time></trkpt><trkpt lat="46.15695132881032" lon="9.744756269906539"><ele>270.0</ele><time>2026-04-04T11:45:46.998Z</time></trkpt><trkpt lat="46.156980536727666" lon="9.744577419308966"><ele>270.0</ele><time>2026-04-04T11:45:47.998Z</time></trkpt><trkpt lat="46.15701281858807" lon="9.744404946487531"><ele>270.0</ele><time>2026-04-04T11:45:48.998Z</time></trkpt><trkpt lat="46.15703896750787" lon="9.744251365926273"><ele>270.0</ele><time>2026-04-04T11:45:49.998Z</time></trkpt><trkpt lat="46.15706283470126" lon="9.744131491598624"><ele>270.0</ele><time>2026-04-04T11:45:50.998Z</time></trkpt><trkpt lat="46.15708123299522" lon="9.744025437421703"><ele>270.0</ele><time>2026-04-04T11:45:51.998Z</time></trkpt><trkpt lat="46.15706948669109" lon="9.743925998569027"><ele>270.0</ele><time>2026-04-04T11:45:52.998Z</time></trkpt><trkpt lat="46.157024846117295" lon="9.743846634320784"><ele>270.0</ele><time>2026-04-04T11:45:53.998Z</time></trkpt><trkpt lat="46.15696622000435" lon="9.743785929889292"><ele>270.0</ele><time>2026-04-04T11:45:54.998Z</time></trkpt><trkpt lat="46.1569012109021" lon="9.743748132855254"><ele>270.0</ele><time>2026-04-04T11:45:55.998Z</time></trkpt><trkpt lat="46.15681918366296" lon="9.743718113093175"><ele>270.0</ele><time>2026-04-04T11:45:56.998Z</time></trkpt><trkpt lat="46.156760019572765" lon="9.743680714603375"><ele>270.0</ele><time>2026-04-04T11:45:57.998Z</time></trkpt><trkpt lat="46.15670153653805" lon="9.743531357298533"><ele>270.0</ele><time>2026-04-04T11:45:59.998Z</time></trkpt><trkpt lat="46.156722344699475" lon="9.743416888465667"><ele>270.0</ele><time>2026-04-04T11:46:00.998Z</time></trkpt><trkpt lat="46.156754994815174" lon="9.743272553439875"><ele>270.0</ele><time>2026-04-04T11:46:01.998Z</time></trkpt><trkpt lat="46.156768754130496" lon="9.743135507198769"><ele>270.0</ele><time>2026-04-04T11:46:02.998Z</time></trkpt><trkpt lat="46.1567820746021" lon="9.743014445326713"><ele>270.0</ele><time>2026-04-04T11:46:03.998Z</time></trkpt><trkpt lat="46.156791545305275" lon="9.742922494700887"><ele>270.0</ele><time>2026-04-04T11:46:04.998Z</time></trkpt><trkpt lat="46.156807531446276" lon="9.742813425737216"><ele>270.0</ele><time>2026-04-04T11:46:06.998Z</time></trkpt><trkpt lat="46.15688641063483" lon="9.742736569462945"><ele>270.0</ele><time>2026-04-04T11:46:08.998Z</time></trkpt><trkpt lat="46.156977082005675" lon="9.742724801726903"><ele>270.0</ele><time>2026-04-04T11:46:09.998Z</time></trkpt><trkpt lat="46.15708593348209" lon="9.742726653845407"><ele>270.0</ele><time>2026-04-04T11:46:10.998Z</time></trkpt><trkpt lat="46.157188843396796" lon="9.742734573563004"><ele>270.0</ele><time>2026-04-04T11:46:11.998Z</time></trkpt><trkpt lat="46.15730051862163" lon="9.74274883555941"><ele>269.75</ele><time>2026-04-04T11:46:12.998Z</time></trkpt><trkpt lat="46.15742816268479" lon="9.742768606638007"><ele>269.5</ele><time>2026-04-04T11:46:13.998Z</time></trkpt><trkpt lat="46.1575707268552" lon="9.742784483781817"><ele>269.25</ele><time>2026-04-04T11:46:14.998Z</time></trkpt><trkpt lat="46.157723638995584" lon="9.742809148328742"><ele>269.0</ele><time>2026-04-04T11:46:15.998Z</time></trkpt><trkpt lat="46.157888398571906" lon="9.742834577160668"><ele>269.0</ele><time>2026-04-04T11:46:16.998Z</time></trkpt><trkpt lat="46.158046249374735" lon="9.742864491316645"><ele>269.0</ele><time>2026-04-04T11:46:17.998Z</time></trkpt><trkpt lat="46.158197046116484" lon="9.742892799647036"><ele>269.0</ele><time>2026-04-04T11:46:18.998Z</time></trkpt><trkpt lat="46.15833831291998" lon="9.74292008075053"><ele>269.0</ele><time>2026-04-04T11:46:19.998Z</time></trkpt><trkpt lat="46.15847975305774" lon="9.742948118508155"><ele>269.0</ele><time>2026-04-04T11:46:20.998Z</time></trkpt><trkpt lat="46.15862112823711" lon="9.742972658136823"><ele>269.0</ele><time>2026-04-04T11:46:21.998Z</time></trkpt><trkpt lat="46.15876368967989" lon="9.74300412370053"><ele>269.0</ele><time>2026-04-04T11:46:22.998Z</time></trkpt><trkpt lat="46.158916974350326" lon="9.743037317319338"><ele>268.33333333333337</ele><time>2026-04-04T11:46:23.998Z</time></trkpt><trkpt lat="46.15906897422846" lon="9.74307141000816"><ele>267.6666666666667</ele><time>2026-04-04T11:46:24.998Z</time></trkpt><trkpt lat="46.15922305039874" lon="9.743102588054006"><ele>267.0</ele><time>2026-04-04T11:46:25.998Z</time></trkpt><trkpt lat="46.1593683891232" lon="9.74314082401767"><ele>267.0</ele><time>2026-04-04T11:46:26.998Z</time></trkpt><trkpt lat="46.159503934689134" lon="9.743178101167233"><ele>267.0</ele><time>2026-04-04T11:46:27.998Z</time></trkpt><trkpt lat="46.15963178454392" lon="9.743203360644701"><ele>267.0</ele><time>2026-04-04T11:46:28.998Z</time></trkpt><trkpt lat="46.15975179390531" lon="9.743232457059372"><ele>267.0</ele><time>2026-04-04T11:46:29.998Z</time></trkpt><trkpt lat="46.159869461945014" lon="9.743263533743727"><ele>267.5</ele><time>2026-04-04T11:46:30.998Z</time></trkpt><trkpt lat="46.15999950471919" lon="9.743302519765441"><ele>268.0</ele><time>2026-04-04T11:46:31.998Z</time></trkpt><trkpt lat="46.160137722930386" lon="9.743348901999884"><ele>268.5</ele><time>2026-04-04T11:46:32.998Z</time></trkpt><trkpt lat="46.16026504369511" lon="9.743402649190818"><ele>269.0</ele><time>2026-04-04T11:46:33.998Z</time></trkpt><trkpt lat="46.16039069861944" lon="9.743459745553558"><ele>269.0</ele><time>2026-04-04T11:46:34.998Z</time></trkpt><trkpt lat="46.160508990942745" lon="9.743509205308778"><ele>269.0</ele><time>2026-04-04T11:46:35.998Z</time></trkpt><trkpt lat="46.16061220828478" lon="9.743577152719196"><ele>269.0</ele><time>2026-04-04T11:46:36.998Z</time></trkpt><trkpt lat="46.160705902315755" lon="9.74364312084349"><ele>269.0</ele><time>2026-04-04T11:46:37.998Z</time></trkpt><trkpt lat="46.16078989045621" lon="9.743685192731347"><ele>269.0</ele><time>2026-04-04T11:46:38.998Z</time></trkpt><trkpt lat="46.160863435832844" lon="9.743669679426416"><ele>269.2</ele><time>2026-04-04T11:46:39.998Z</time></trkpt><trkpt lat="46.16092594349412" lon="9.743597941470401"><ele>269.4</ele><time>2026-04-04T11:46:40.998Z</time></trkpt><trkpt lat="46.16095831893751" lon="9.743480994392044"><ele>269.6</ele><time>2026-04-04T11:46:41.998Z</time></trkpt><trkpt lat="46.16096561626947" lon="9.743329866711042"><ele>269.8</ele><time>2026-04-04T11:46:42.998Z</time></trkpt><trkpt lat="46.16096911521134" lon="9.74313968703387"><ele>270.0</ele><time>2026-04-04T11:46:43.998Z</time></trkpt><trkpt lat="46.16098285009092" lon="9.74290504504819"><ele>270.0</ele><time>2026-04-04T11:46:44.998Z</time></trkpt><trkpt lat="46.161003399003754" lon="9.742628871974594"><ele>270.0</ele><time>2026-04-04T11:46:45.998Z</time></trkpt><trkpt lat="46.161022923147875" lon="9.742328461642341"><ele>270.0</ele><time>2026-04-04T11:46:46.998Z</time></trkpt><trkpt lat="46.161053959281446" lon="9.742044762303102"><ele>269.6666666666667</ele><time>2026-04-04T11:46:47.998Z</time></trkpt><trkpt lat="46.161042943189685" lon="9.741782197990318"><ele>269.33333333333337</ele><time>2026-04-04T11:46:48.998Z</time></trkpt><trkpt lat="46.161025141222325" lon="9.741553518120408"><ele>269.0</ele><time>2026-04-04T11:46:49.998Z</time></trkpt><trkpt lat="46.16102083535775" lon="9.741326406101734"><ele>269.0</ele><time>2026-04-04T11:46:50.998Z</time></trkpt><trkpt lat="46.161029599938594" lon="9.741100036186753"><ele>269.0</ele><time>2026-04-04T11:46:51.998Z</time></trkpt><trkpt lat="46.16105248995894" lon="9.740850727395506"><ele>269.0</ele><time>2026-04-04T11:46:52.998Z</time></trkpt><trkpt lat="46.16107718836601" lon="9.74062816464961"><ele>269.33333333333337</ele><time>2026-04-04T11:46:53.998Z</time></trkpt><trkpt lat="46.161094467628836" lon="9.740402356033531"><ele>269.6666666666667</ele><time>2026-04-04T11:46:54.998Z</time></trkpt><trkpt lat="46.161110444636705" lon="9.74018672342657"><ele>270.0</ele><time>2026-04-04T11:46:55.998Z</time></trkpt><trkpt lat="46.161130153649275" lon="9.739969927860498"><ele>270.0</ele><time>2026-04-04T11:46:56.998Z</time></trkpt><trkpt lat="46.16116642680439" lon="9.73975971013009"><ele>270.0</ele><time>2026-04-04T11:46:57.998Z</time></trkpt><trkpt lat="46.16120814162204" lon="9.739540441141177"><ele>270.0</ele><time>2026-04-04T11:46:58.998Z</time></trkpt><trkpt lat="46.16124673343649" lon="9.73932013973013"><ele>269.6666666666667</ele><time>2026-04-04T11:46:59.998Z</time></trkpt><trkpt lat="46.16128323956172" lon="9.739100883207403"><ele>269.33333333333337</ele><time>2026-04-04T11:47:00.998Z</time></trkpt><trkpt lat="46.16131440243338" lon="9.738882582829746"><ele>269.0</ele><time>2026-04-04T11:47:01.998Z</time></trkpt><trkpt lat="46.161332104223455" lon="9.738673816976616"><ele>268.6666666666667</ele><time>2026-04-04T11:47:02.998Z</time></trkpt><trkpt lat="46.16132818983605" lon="9.738459642280958"><ele>268.3333333333333</ele><time>2026-04-04T11:47:03.998Z</time></trkpt><trkpt lat="46.16130227364634" lon="9.738235927677247"><ele>268.0</ele><time>2026-04-04T11:47:04.998Z</time></trkpt><trkpt lat="46.16126538346443" lon="9.738009934106435"><ele>268.0</ele><time>2026-04-04T11:47:05.998Z</time></trkpt><trkpt lat="46.16121779025197" lon="9.737794046297411"><ele>268.0</ele><time>2026-04-04T11:47:06.998Z</time></trkpt><trkpt lat="46.161164383439896" lon="9.737580708115352"><ele>268.0</ele><time>2026-04-04T11:47:07.998Z</time></trkpt><trkpt lat="46.161117962619514" lon="9.737367670950876"><ele>267.66666666666663</ele><time>2026-04-04T11:47:08.998Z</time></trkpt><trkpt lat="46.16107140346425" lon="9.737149824255775"><ele>267.3333333333333</ele><time>2026-04-04T11:47:09.998Z</time></trkpt><trkpt lat="46.16102671855239" lon="9.736913663365803"><ele>267.0</ele><time>2026-04-04T11:47:10.998Z</time></trkpt><trkpt lat="46.16098192745899" lon="9.736667714127146"><ele>267.0</ele><time>2026-04-04T11:47:11.998Z</time></trkpt><trkpt lat="46.16093616076266" lon="9.7364507897773"><ele>267.0</ele><time>2026-04-04T11:47:12.998Z</time></trkpt><trkpt lat="46.160895909946184" lon="9.736250573536553"><ele>267.0</ele><time>2026-04-04T11:47:13.998Z</time></trkpt><trkpt lat="46.160872659003644" lon="9.736070624403402"><ele>267.0</ele><time>2026-04-04T11:47:14.998Z</time></trkpt><trkpt lat="46.16087251025286" lon="9.735900775251507"><ele>267.25</ele><time>2026-04-04T11:47:15.998Z</time></trkpt><trkpt lat="46.160901561145316" lon="9.735737038536222"><ele>267.5</ele><time>2026-04-04T11:47:16.998Z</time></trkpt><trkpt lat="46.16097235177941" lon="9.73559858214085"><ele>267.75</ele><time>2026-04-04T11:47:17.998Z</time></trkpt><trkpt lat="46.16106469676883" lon="9.73548639953602"><ele>268.0</ele><time>2026-04-04T11:47:18.998Z</time></trkpt><trkpt lat="46.161178739175526" lon="9.735410889968275"><ele>268.0</ele><time>2026-04-04T11:47:19.998Z</time></trkpt><trkpt lat="46.16130921993331" lon="9.735377841052662"><ele>268.0</ele><time>2026-04-04T11:47:20.998Z</time></trkpt><trkpt lat="46.16144724816681" lon="9.735413506151112"><ele>268.0</ele><time>2026-04-04T11:47:21.998Z</time></trkpt><trkpt lat="46.1616042698775" lon="9.73545167364892"><ele>268.0</ele><time>2026-04-04T11:47:22.998Z</time></trkpt><trkpt lat="46.161767621269725" lon="9.735527270011264"><ele>267.66666666666663</ele><time>2026-04-04T11:47:23.998Z</time></trkpt><trkpt lat="46.16195517873396" lon="9.735591378548476"><ele>267.3333333333333</ele><time>2026-04-04T11:47:24.998Z</time></trkpt><trkpt lat="46.16212886531946" lon="9.735648896028657"><ele>267.0</ele><time>2026-04-04T11:47:25.998Z</time></trkpt><trkpt lat="46.16229580832808" lon="9.735705739207667"><ele>267.25</ele><time>2026-04-04T11:47:26.998Z</time></trkpt><trkpt lat="46.16244809743668" lon="9.735760535172167"><ele>267.5</ele><time>2026-04-04T11:47:27.998Z</time></trkpt><trkpt lat="46.16259262788599" lon="9.735805817801591"><ele>267.75</ele><time>2026-04-04T11:47:28.998Z</time></trkpt><trkpt lat="46.162733836170446" lon="9.735825328179402"><ele>268.0</ele><time>2026-04-04T11:47:29.998Z</time></trkpt><trkpt lat="46.16286827553844" lon="9.735815867819017"><ele>268.0</ele><time>2026-04-04T11:47:30.998Z</time></trkpt><trkpt lat="46.162986628116016" lon="9.735780644031191"><ele>268.0</ele><time>2026-04-04T11:47:31.998Z</time></trkpt><trkpt lat="46.16310784422973" lon="9.735756987273735"><ele>268.0</ele><time>2026-04-04T11:47:32.998Z</time></trkpt><trkpt lat="46.16323094005027" lon="9.735758607807298"><ele>268.0</ele><time>2026-04-04T11:47:33.998Z</time></trkpt><trkpt lat="46.16334078697155" lon="9.73581527633092"><ele>268.0</ele><time>2026-04-04T11:47:34.997Z</time></trkpt><trkpt lat="46.16343111930121" lon="9.73592351906418"><ele>268.0</ele><time>2026-04-04T11:47:35.997Z</time></trkpt><trkpt lat="46.16350701927263" lon="9.736055742001412"><ele>268.0</ele><time>2026-04-04T11:47:36.997Z</time></trkpt><trkpt lat="46.1635633656952" lon="9.736204197963204"><ele>268.0</ele><time>2026-04-04T11:47:37.997Z</time></trkpt><trkpt lat="46.16363066792951" lon="9.736346926027794"><ele>267.75</ele><time>2026-04-04T11:47:38.997Z</time></trkpt><trkpt lat="46.163726946536144" lon="9.736479878579106"><ele>267.5</ele><time>2026-04-04T11:47:39.997Z</time></trkpt><trkpt lat="46.16383386598988" lon="9.736636432609222"><ele>267.25</ele><time>2026-04-04T11:47:40.997Z</time></trkpt><trkpt lat="46.16393285974633" lon="9.736809460886533"><ele>267.0</ele><time>2026-04-04T11:47:41.997Z</time></trkpt><trkpt lat="46.164018640950815" lon="9.736980124788097"><ele>268.25</ele><time>2026-04-04T11:47:42.997Z</time></trkpt><trkpt lat="46.1640723348146" lon="9.737150680969588"><ele>269.5</ele><time>2026-04-04T11:47:43.997Z</time></trkpt><trkpt lat="46.16419418289339" lon="9.737260832702445"><ele>270.75</ele><time>2026-04-04T11:47:44.997Z</time></trkpt><trkpt lat="46.16428985555325" lon="9.737386569118037"><ele>272.0</ele><time>2026-04-04T11:47:45.997Z</time></trkpt><trkpt lat="46.16438484151083" lon="9.737510565391494"><ele>272.0</ele><time>2026-04-04T11:47:46.997Z</time></trkpt><trkpt lat="46.164471136466865" lon="9.737618656046472"><ele>272.0</ele><time>2026-04-04T11:47:47.997Z</time></trkpt><trkpt lat="46.16453753836996" lon="9.737705241584123"><ele>272.0</ele><time>2026-04-04T11:47:48.997Z</time></trkpt><trkpt lat="46.16458460292354" lon="9.73778588414821"><ele>272.0</ele><time>2026-04-04T11:47:49.997Z</time></trkpt><trkpt lat="46.16453785272872" lon="9.73794466151544"><ele>272.0</ele><time>2026-04-04T11:47:51.997Z</time></trkpt><trkpt lat="46.16449875778797" lon="9.738065336369587"><ele>273.0</ele><time>2026-04-04T11:47:52.997Z</time></trkpt><trkpt lat="46.164459846580314" lon="9.73819011152805"><ele>274.0</ele><time>2026-04-04T11:47:53.997Z</time></trkpt><trkpt lat="46.16444137033636" lon="9.738301270491808"><ele>275.0</ele><time>2026-04-04T11:47:54.997Z</time></trkpt><trkpt lat="46.16446787719372" lon="9.73844448153825"><ele>276.0</ele><time>2026-04-04T11:47:56.997Z</time></trkpt><trkpt lat="46.164611042703086" lon="9.738459712883534"><ele>277.0</ele><time>2026-04-04T11:47:57.997Z</time></trkpt><trkpt lat="46.16472362360745" lon="9.73848949855955"><ele>277.0</ele><time>2026-04-04T11:47:58.997Z</time></trkpt><trkpt lat="46.16482477049413" lon="9.738528140159747"><ele>277.0</ele><time>2026-04-04T11:47:59.997Z</time></trkpt><trkpt lat="46.16490983931032" lon="9.738564058241163"><ele>277.0</ele><time>2026-04-04T11:48:00.997Z</time></trkpt><trkpt lat="46.164974268801856" lon="9.738597458367167"><ele>277.0</ele><time>2026-04-04T11:48:01.997Z</time></trkpt><trkpt lat="46.165048762753706" lon="9.738704758806831"><ele>277.0</ele><time>2026-04-04T11:48:03.997Z</time></trkpt><trkpt lat="46.164981116686896" lon="9.73895379864852"><ele>279.5</ele><time>2026-04-04T11:48:05.997Z</time></trkpt><trkpt lat="46.16494623429423" lon="9.739151922670574"><ele>282.0</ele><time>2026-04-04T11:48:06.997Z</time></trkpt><trkpt lat="46.1649205021282" lon="9.739363054980489"><ele>284.5</ele><time>2026-04-04T11:48:07.997Z</time></trkpt><trkpt lat="46.16490683405891" lon="9.739546138135287"><ele>287.0</ele><time>2026-04-04T11:48:08.997Z</time></trkpt><trkpt lat="46.164938030029276" lon="9.739689012831182"><ele>289.5</ele><time>2026-04-04T11:48:09.997Z</time></trkpt><trkpt lat="46.16493218680878" lon="9.739846802434196"><ele>292.0</ele><time>2026-04-04T11:48:10.997Z</time></trkpt><trkpt lat="46.164980487529135" lon="9.740045914607213"><ele>294.5</ele><time>2026-04-04T11:48:11.997Z</time></trkpt><trkpt lat="46.16502020883903" lon="9.740278770910063"><ele>297.0</ele><time>2026-04-04T11:48:12.997Z</time></trkpt><trkpt lat="46.16503861541306" lon="9.740539547892467"><ele>298.5</ele><time>2026-04-04T11:48:13.997Z</time></trkpt><trkpt lat="46.16502410149137" lon="9.740759239334531"><ele>300.0</ele><time>2026-04-04T11:48:14.997Z</time></trkpt><trkpt lat="46.16503857224517" lon="9.740903155639977"><ele>301.5</ele><time>2026-04-04T11:48:15.997Z</time></trkpt><trkpt lat="46.165072135191586" lon="9.741026970249921"><ele>303.0</ele><time>2026-04-04T11:48:17.997Z</time></trkpt><trkpt lat="46.16519460682997" lon="9.741028172251362"><ele>303.0</ele><time>2026-04-04T11:48:19.997Z</time></trkpt><trkpt lat="46.16527873616148" lon="9.740987539661942"><ele>303.0</ele><time>2026-04-04T11:48:20.997Z</time></trkpt><trkpt lat="46.16538547372395" lon="9.74098873275019"><ele>303.0</ele><time>2026-04-04T11:48:21.997Z</time></trkpt><trkpt lat="46.165504873330065" lon="9.74097534298491"><ele>303.0</ele><time>2026-04-04T11:48:22.997Z</time></trkpt><trkpt lat="46.16557882778904" lon="9.740988687255294"><ele>303.0</ele><time>2026-04-04T11:48:23.997Z</time></trkpt><trkpt lat="46.16564988418421" lon="9.741123229852883"><ele>304.6</ele><time>2026-04-04T11:48:25.997Z</time></trkpt><trkpt lat="46.16569980089848" lon="9.741245428895324"><ele>306.20000000000005</ele><time>2026-04-04T11:48:26.997Z</time></trkpt><trkpt lat="46.16570056207616" lon="9.741381347527737"><ele>307.8</ele><time>2026-04-04T11:48:27.997Z</time></trkpt><trkpt lat="46.16565286777919" lon="9.74149778447073"><ele>309.40000000000003</ele><time>2026-04-04T11:48:28.997Z</time></trkpt><trkpt lat="46.165641111230094" lon="9.741636187394455"><ele>311.0</ele><time>2026-04-04T11:48:29.997Z</time></trkpt><trkpt lat="46.16561003550873" lon="9.741765109633937"><ele>311.0</ele><time>2026-04-04T11:48:30.997Z</time></trkpt><trkpt lat="46.165594030997894" lon="9.74186321501682"><ele>311.0</ele><time>2026-04-04T11:48:31.997Z</time></trkpt><trkpt lat="46.16561588383146" lon="9.74202522259234"><ele>311.0</ele><time>2026-04-04T11:48:33.997Z</time></trkpt><trkpt lat="46.16563264611227" lon="9.742125834431947"><ele>311.0</ele><time>2026-04-04T11:48:34.997Z</time></trkpt><trkpt lat="46.16565995168434" lon="9.742225448211714"><ele>311.0</ele><time>2026-04-04T11:48:35.997Z</time></trkpt><trkpt lat="46.16569892964111" lon="9.742305313585877"><ele>311.0</ele><time>2026-04-04T11:48:36.997Z</time></trkpt><trkpt lat="46.165751172418204" lon="9.742357667065514"><ele>313.5</ele><time>2026-04-04T11:48:37.997Z</time></trkpt><trkpt lat="46.16582534431515" lon="9.742364383086553"><ele>316.0</ele><time>2026-04-04T11:48:38.997Z</time></trkpt><trkpt lat="46.16591549732847" lon="9.742355511329496"><ele>318.5</ele><time>2026-04-04T11:48:39.997Z</time></trkpt><trkpt lat="46.16599001460072" lon="9.7423639207006"><ele>321.0</ele><time>2026-04-04T11:48:40.997Z</time></trkpt><trkpt lat="46.16605759863445" lon="9.742359206391397"><ele>323.5</ele><time>2026-04-04T11:48:42.997Z</time></trkpt><trkpt lat="46.166161507522624" lon="9.742233439646585"><ele>326.0</ele><time>2026-04-04T11:48:45.997Z</time></trkpt><trkpt lat="46.16620375420526" lon="9.74212120214105"><ele>326.0</ele><time>2026-04-04T11:48:46.997Z</time></trkpt><trkpt lat="46.16625887131453" lon="9.742050329019225"><ele>326.0</ele><time>2026-04-04T11:48:47.997Z</time></trkpt><trkpt lat="46.16633352537631" lon="9.742021889286761"><ele>326.0</ele><time>2026-04-04T11:48:48.997Z</time></trkpt><trkpt lat="46.16640909329281" lon="9.742061931473641"><ele>326.0</ele><time>2026-04-04T11:48:49.997Z</time></trkpt><trkpt lat="46.16647653838017" lon="9.742132224253574"><ele>326.0</ele><time>2026-04-04T11:48:50.997Z</time></trkpt><trkpt lat="46.16654536616061" lon="9.742157161551656"><ele>326.0</ele><time>2026-04-04T11:48:51.997Z</time></trkpt><trkpt lat="46.166619508278984" lon="9.742126555399249"><ele>331.5</ele><time>2026-04-04T11:48:52.997Z</time></trkpt><trkpt lat="46.16667841825684" lon="9.742033705266879"><ele>337.0</ele><time>2026-04-04T11:48:53.997Z</time></trkpt><trkpt lat="46.166732845191554" lon="9.741896563054834"><ele>342.5</ele><time>2026-04-04T11:48:54.997Z</time></trkpt><trkpt lat="46.16678976229404" lon="9.741733952630208"><ele>348.0</ele><time>2026-04-04T11:48:55.997Z</time></trkpt><trkpt lat="46.16688228311225" lon="9.741591579667709"><ele>348.0</ele><time>2026-04-04T11:48:56.997Z</time></trkpt><trkpt lat="46.166980147158874" lon="9.741423638315036"><ele>348.0</ele><time>2026-04-04T11:48:57.997Z</time></trkpt><trkpt lat="46.1670356838609" lon="9.741251108406324"><ele>348.0</ele><time>2026-04-04T11:48:58.997Z</time></trkpt><trkpt lat="46.16707455135437" lon="9.741100735382126"><ele>348.0</ele><time>2026-04-04T11:48:59.997Z</time></trkpt><trkpt lat="46.16712333496193" lon="9.740973096706808"><ele>349.2</ele><time>2026-04-04T11:49:00.997Z</time></trkpt><trkpt lat="46.167178745871865" lon="9.740877026477687"><ele>350.4</ele><time>2026-04-04T11:49:01.997Z</time></trkpt><trkpt lat="46.16722452809134" lon="9.740782744018507"><ele>351.59999999999997</ele><time>2026-04-04T11:49:03.997Z</time></trkpt><trkpt lat="46.16735682467801" lon="9.74094322641126"><ele>352.79999999999995</ele><time>2026-04-04T11:49:04.997Z</time></trkpt><trkpt lat="46.16738869026579" lon="9.741048143650227"><ele>354.0</ele><time>2026-04-04T11:49:05.997Z</time></trkpt><trkpt lat="46.167407265345524" lon="9.741157633505374"><ele>354.79999999999995</ele><time>2026-04-04T11:49:06.997Z</time></trkpt><trkpt lat="46.16740572596177" lon="9.741270198499233"><ele>355.59999999999997</ele><time>2026-04-04T11:49:07.997Z</time></trkpt><trkpt lat="46.1673775048619" lon="9.741376425389"><ele>356.4</ele><time>2026-04-04T11:49:08.997Z</time></trkpt><trkpt lat="46.16732785619552" lon="9.74148858049691"><ele>357.2</ele><time>2026-04-04T11:49:09.997Z</time></trkpt><trkpt lat="46.16726153909114" lon="9.741625673761554"><ele>358.0</ele><time>2026-04-04T11:49:10.997Z</time></trkpt><trkpt lat="46.1671870220411" lon="9.741799759943731"><ele>355.5</ele><time>2026-04-04T11:49:11.997Z</time></trkpt><trkpt lat="46.167120169266745" lon="9.74197661667789"><ele>353.0</ele><time>2026-04-04T11:49:12.997Z</time></trkpt><trkpt lat="46.16706831888872" lon="9.742173324470773"><ele>350.5</ele><time>2026-04-04T11:49:13.997Z</time></trkpt><trkpt lat="46.16703625454392" lon="9.742380908685607"><ele>348.0</ele><time>2026-04-04T11:49:14.997Z</time></trkpt><trkpt lat="46.16701672719386" lon="9.742571681011386"><ele>348.4</ele><time>2026-04-04T11:49:15.997Z</time></trkpt><trkpt lat="46.16700316075753" lon="9.742740167889838"><ele>348.79999999999995</ele><time>2026-04-04T11:49:16.997Z</time></trkpt><trkpt lat="46.166992368633885" lon="9.74289990062043"><ele>349.2</ele><time>2026-04-04T11:49:17.997Z</time></trkpt><trkpt lat="46.16700492987287" lon="9.74304484749242"><ele>349.6</ele><time>2026-04-04T11:49:18.997Z</time></trkpt><trkpt lat="46.16704813874467" lon="9.74316889723564"><ele>350.0</ele><time>2026-04-04T11:49:19.997Z</time></trkpt><trkpt lat="46.16711950313872" lon="9.74327201502591"><ele>350.0</ele><time>2026-04-04T11:49:20.997Z</time></trkpt><trkpt lat="46.16721297692932" lon="9.743356955606007"><ele>350.0</ele><time>2026-04-04T11:49:21.997Z</time></trkpt><trkpt lat="46.167302489953386" lon="9.743478652373582"><ele>350.0</ele><time>2026-04-04T11:49:22.997Z</time></trkpt><trkpt lat="46.16740321928051" lon="9.743616893895236"><ele>350.0</ele><time>2026-04-04T11:49:23.996Z</time></trkpt><trkpt lat="46.1675100724917" lon="9.74373630726213"><ele>354.25</ele><time>2026-04-04T11:49:24.996Z</time></trkpt><trkpt lat="46.167609293354644" lon="9.74386467520484"><ele>358.5</ele><time>2026-04-04T11:49:25.996Z</time></trkpt><trkpt lat="46.167731624618156" lon="9.743950633000974"><ele>362.75</ele><time>2026-04-04T11:49:26.996Z</time></trkpt><trkpt lat="46.16787954343874" lon="9.743997445388246"><ele>367.0</ele><time>2026-04-04T11:49:27.996Z</time></trkpt><trkpt lat="46.16805067969447" lon="9.744043958655496"><ele>369.5</ele><time>2026-04-04T11:49:28.996Z</time></trkpt><trkpt lat="46.16820128183568" lon="9.744087296509678"><ele>372.0</ele><time>2026-04-04T11:49:29.996Z</time></trkpt><trkpt lat="46.168329077868975" lon="9.744122569746985"><ele>374.5</ele><time>2026-04-04T11:49:30.996Z</time></trkpt><trkpt lat="46.16844048567928" lon="9.744146264807146"><ele>377.0</ele><time>2026-04-04T11:49:31.996Z</time></trkpt><trkpt lat="46.168534814844534" lon="9.7441667385719"><ele>377.0</ele><time>2026-04-04T11:49:32.996Z</time></trkpt><trkpt lat="46.168601984242535" lon="9.744186660916586"><ele>377.0</ele><time>2026-04-04T11:49:33.996Z</time></trkpt><trkpt lat="46.168665349143836" lon="9.744217686143209"><ele>377.0</ele><time>2026-04-04T11:49:35.996Z</time></trkpt><trkpt lat="46.16869205624717" lon="9.744030511354056"><ele>377.0</ele><time>2026-04-04T11:49:36.996Z</time></trkpt><trkpt lat="46.168658340955716" lon="9.743912302278135"><ele>377.0</ele><time>2026-04-04T11:49:37.996Z</time></trkpt><trkpt lat="46.168644451464566" lon="9.743801864081775"><ele>377.0</ele><time>2026-04-04T11:49:38.996Z</time></trkpt><trkpt lat="46.16865350923599" lon="9.743684396934643"><ele>377.0</ele><time>2026-04-04T11:49:39.996Z</time></trkpt><trkpt lat="46.16869460731903" lon="9.74357388970662"><ele>377.0</ele><time>2026-04-04T11:49:40.996Z</time></trkpt><trkpt lat="46.16871933652344" lon="9.7434657985644"><ele>377.0</ele><time>2026-04-04T11:49:41.996Z</time></trkpt><trkpt lat="46.16874920999266" lon="9.743362514034828"><ele>377.0</ele><time>2026-04-04T11:49:42.996Z</time></trkpt><trkpt lat="46.16876279136193" lon="9.743254731238677"><ele>377.0</ele><time>2026-04-04T11:49:43.996Z</time></trkpt><trkpt lat="46.16879877754865" lon="9.743160118198178"><ele>377.0</ele><time>2026-04-04T11:49:44.996Z</time></trkpt><trkpt lat="46.16881705554026" lon="9.743061014672437"><ele>376.83333333333337</ele><time>2026-04-04T11:49:45.996Z</time></trkpt><trkpt lat="46.168835772519806" lon="9.742967652024218"><ele>376.6666666666667</ele><time>2026-04-04T11:49:46.996Z</time></trkpt><trkpt lat="46.16885805607813" lon="9.742872854878232"><ele>376.5</ele><time>2026-04-04T11:49:47.996Z</time></trkpt><trkpt lat="46.168881172293894" lon="9.742787352240704"><ele>376.3333333333333</ele><time>2026-04-04T11:49:48.996Z</time></trkpt><trkpt lat="46.16891351285567" lon="9.742640452549127"><ele>376.16666666666663</ele><time>2026-04-04T11:49:50.996Z</time></trkpt><trkpt lat="46.16895740616911" lon="9.74251268443151"><ele>376.0</ele><time>2026-04-04T11:49:52.996Z</time></trkpt><trkpt lat="46.16897902798379" lon="9.742423290233745"><ele>376.0</ele><time>2026-04-04T11:49:55.996Z</time></trkpt><trkpt lat="46.16890219135088" lon="9.742469195756723"><ele>376.0</ele><time>2026-04-04T11:54:53.993Z</time></trkpt><trkpt lat="46.16885777581913" lon="9.742598595012929"><ele>376.0</ele><time>2026-04-04T12:12:07.989Z</time></trkpt><trkpt lat="46.16877123777548" lon="9.742762419206633"><ele>376.0</ele><time>2026-04-04T12:12:09.989Z</time></trkpt><trkpt lat="46.16898599090601" lon="9.74276347717117"><ele>378.20000000000005</ele><time>2026-04-04T12:12:12.989Z</time></trkpt><trkpt lat="46.16909857486624" lon="9.74277227543192"><ele>380.40000000000003</ele><time>2026-04-04T12:12:13.989Z</time></trkpt><trkpt lat="46.16920622082117" lon="9.742794988833078"><ele>382.6</ele><time>2026-04-04T12:12:14.989Z</time></trkpt><trkpt lat="46.16918819297775" lon="9.742913235519607"><ele>384.8</ele><time>2026-04-04T12:12:15.989Z</time></trkpt><trkpt lat="46.169259029986165" lon="9.74300074507758"><ele>387.0</ele><time>2026-04-04T12:12:16.989Z</time></trkpt><trkpt lat="46.169323712574155" lon="9.74305867331756"><ele>387.0</ele><time>2026-04-04T12:12:17.989Z</time></trkpt><trkpt lat="46.16938702099975" lon="9.74310871568745"><ele>387.0</ele><time>2026-04-04T12:12:19.989Z</time></trkpt><trkpt lat="46.1694800280019" lon="9.74312201382485"><ele>387.0</ele><time>2026-04-04T12:12:20.989Z</time></trkpt><trkpt lat="46.16959407222965" lon="9.743125143008202"><ele>387.0</ele><time>2026-04-04T12:12:21.989Z</time></trkpt><trkpt lat="46.16969825793195" lon="9.743150877035585"><ele>387.0</ele><time>2026-04-04T12:12:22.989Z</time></trkpt><trkpt lat="46.16977105984615" lon="9.743201734327059"><ele>387.0</ele><time>2026-04-04T12:12:23.989Z</time></trkpt><trkpt lat="46.169846775334655" lon="9.743197408230918"><ele>387.0</ele><time>2026-04-04T12:12:24.989Z</time></trkpt><trkpt lat="46.16993029656825" lon="9.743187014615527"><ele>387.0</ele><time>2026-04-04T12:12:25.988Z</time></trkpt><trkpt lat="46.17000586316407" lon="9.743185176383323"><ele>387.0</ele><time>2026-04-04T12:12:26.988Z</time></trkpt><trkpt lat="46.17006825362872" lon="9.743220592457355"><ele>387.0</ele><time>2026-04-04T12:12:27.989Z</time></trkpt><trkpt lat="46.17012705549366" lon="9.743266193028035"><ele>387.0</ele><time>2026-04-04T12:12:28.988Z</time></trkpt><trkpt lat="46.170202083749516" lon="9.743335918757467"><ele>389.1666666666667</ele><time>2026-04-04T12:12:29.988Z</time></trkpt><trkpt lat="46.17027654494179" lon="9.743384660007257"><ele>391.33333333333337</ele><time>2026-04-04T12:12:30.988Z</time></trkpt><trkpt lat="46.17037759791691" lon="9.743409064529983"><ele>393.5</ele><time>2026-04-04T12:12:31.988Z</time></trkpt><trkpt lat="46.170466906107045" lon="9.743435146779825"><ele>395.6666666666667</ele><time>2026-04-04T12:12:32.988Z</time></trkpt><trkpt lat="46.17055353407394" lon="9.743442548710567"><ele>397.83333333333337</ele><time>2026-04-04T12:12:33.988Z</time></trkpt><trkpt lat="46.17062198867461" lon="9.743428681669627"><ele>400.0</ele><time>2026-04-04T12:12:34.988Z</time></trkpt><trkpt lat="46.170693175692605" lon="9.743410598513224"><ele>402.50000000000006</ele><time>2026-04-04T12:12:35.988Z</time></trkpt><trkpt lat="46.17075201443721" lon="9.743342111859224"><ele>405.0</ele><time>2026-04-04T12:12:36.988Z</time></trkpt><trkpt lat="46.17080244863799" lon="9.74326317377847"><ele>407.5</ele><time>2026-04-04T12:12:37.987Z</time></trkpt><trkpt lat="46.17086692509988" lon="9.74324456247123"><ele>410.0</ele><time>2026-04-04T12:12:38.987Z</time></trkpt><trkpt lat="46.170949034651024" lon="9.743283852697438"><ele>412.50000000000006</ele><time>2026-04-04T12:12:39.987Z</time></trkpt><trkpt lat="46.171029481091416" lon="9.743344624728785"><ele>415.0</ele><time>2026-04-04T12:12:40.987Z</time></trkpt><trkpt lat="46.17112411547251" lon="9.743432811173149"><ele>415.0</ele><time>2026-04-04T12:12:41.987Z</time></trkpt><trkpt lat="46.17121627267285" lon="9.74349663956834"><ele>415.0</ele><time>2026-04-04T12:12:42.987Z</time></trkpt><trkpt lat="46.171306326100584" lon="9.743564165690975"><ele>415.0</ele><time>2026-04-04T12:12:43.987Z</time></trkpt><trkpt lat="46.171386158470746" lon="9.743649772701787"><ele>415.0</ele><time>2026-04-04T12:12:44.987Z</time></trkpt><trkpt lat="46.171427187962195" lon="9.743725956764353"><ele>415.0</ele><time>2026-04-04T12:12:45.987Z</time></trkpt><trkpt lat="46.17153988151497" lon="9.743767008685067"><ele>420.0</ele><time>2026-04-04T12:12:47.987Z</time></trkpt><trkpt lat="46.17163268161917" lon="9.743745162477937"><ele>425.0</ele><time>2026-04-04T12:12:48.987Z</time></trkpt><trkpt lat="46.17175963182571" lon="9.743736727484743"><ele>430.0</ele><time>2026-04-04T12:12:49.987Z</time></trkpt><trkpt lat="46.17188574717827" lon="9.74372843574673"><ele>435.0</ele><time>2026-04-04T12:12:50.987Z</time></trkpt><trkpt lat="46.17198879688266" lon="9.74370687009841"><ele>435.0</ele><time>2026-04-04T12:12:51.987Z</time></trkpt><trkpt lat="46.172071814239466" lon="9.743670192136374"><ele>435.0</ele><time>2026-04-04T12:12:52.987Z</time></trkpt><trkpt lat="46.17214377710021" lon="9.743620026310593"><ele>435.0</ele><time>2026-04-04T12:12:53.987Z</time></trkpt><trkpt lat="46.17222949420731" lon="9.743572909296535"><ele>435.0</ele><time>2026-04-04T12:12:54.987Z</time></trkpt><trkpt lat="46.17232576282964" lon="9.74361729289388"><ele>435.0</ele><time>2026-04-04T12:12:55.987Z</time></trkpt><trkpt lat="46.17240873079906" lon="9.743718258181133"><ele>438.25</ele><time>2026-04-04T12:12:56.987Z</time></trkpt><trkpt lat="46.1725021893291" lon="9.74383368895363"><ele>441.5</ele><time>2026-04-04T12:12:57.987Z</time></trkpt><trkpt lat="46.17261046113787" lon="9.743941415179275"><ele>444.75</ele><time>2026-04-04T12:12:58.987Z</time></trkpt><trkpt lat="46.172711643740186" lon="9.744081944970091"><ele>448.0</ele><time>2026-04-04T12:12:59.987Z</time></trkpt><trkpt lat="46.17279561343161" lon="9.74422883451018"><ele>448.0</ele><time>2026-04-04T12:13:00.987Z</time></trkpt><trkpt lat="46.17285785237901" lon="9.744378003999445"><ele>448.0</ele><time>2026-04-04T12:13:01.987Z</time></trkpt><trkpt lat="46.17290183828701" lon="9.744535000663026"><ele>448.0</ele><time>2026-04-04T12:13:02.987Z</time></trkpt><trkpt lat="46.17292460367958" lon="9.744702002500324"><ele>448.0</ele><time>2026-04-04T12:13:03.987Z</time></trkpt><trkpt lat="46.172951448858846" lon="9.744881975740961"><ele>451.25</ele><time>2026-04-04T12:13:04.987Z</time></trkpt><trkpt lat="46.17301018502668" lon="9.745034038468754"><ele>454.5</ele><time>2026-04-04T12:13:05.987Z</time></trkpt><trkpt lat="46.173094352896754" lon="9.745169903122324"><ele>457.75</ele><time>2026-04-04T12:13:06.987Z</time></trkpt><trkpt lat="46.17318731726178" lon="9.74525478777267"><ele>461.0</ele><time>2026-04-04T12:13:07.987Z</time></trkpt><trkpt lat="46.1733017892906" lon="9.745310806011249"><ele>464.75</ele><time>2026-04-04T12:13:08.987Z</time></trkpt><trkpt lat="46.17342800326047" lon="9.745356178027711"><ele>468.5</ele><time>2026-04-04T12:13:09.987Z</time></trkpt><trkpt lat="46.17354700227657" lon="9.745426626741036"><ele>472.25</ele><time>2026-04-04T12:13:10.987Z</time></trkpt><trkpt lat="46.173656299375146" lon="9.745493186331228"><ele>476.0</ele><time>2026-04-04T12:13:11.987Z</time></trkpt><trkpt lat="46.173739271087015" lon="9.745543180260126"><ele>476.0</ele><time>2026-04-04T12:13:12.987Z</time></trkpt><trkpt lat="46.173809100908464" lon="9.745621788421904"><ele>476.0</ele><time>2026-04-04T12:13:14.987Z</time></trkpt><trkpt lat="46.17384538705648" lon="9.745715881420631"><ele>476.0</ele><time>2026-04-04T12:13:17.987Z</time></trkpt><trkpt lat="46.173819160383765" lon="9.745845470671979"><ele>476.0</ele><time>2026-04-04T12:13:20.987Z</time></trkpt><trkpt lat="46.17374754107999" lon="9.745887421019264"><ele>476.0</ele><time>2026-04-04T12:13:22.987Z</time></trkpt><trkpt lat="46.17362325017734" lon="9.74591415720035"><ele>476.0</ele><time>2026-04-04T12:13:24.987Z</time></trkpt><trkpt lat="46.173488676718925" lon="9.745936808181616"><ele>476.0</ele><time>2026-04-04T12:13:26.987Z</time></trkpt><trkpt lat="46.17339588517387" lon="9.745918551041814"><ele>476.0</ele><time>2026-04-04T12:13:27.987Z</time></trkpt><trkpt lat="46.173305965988796" lon="9.745906526703205"><ele>476.0</ele><time>2026-04-04T12:13:28.987Z</time></trkpt><trkpt lat="46.173237359495566" lon="9.745909825497643"><ele>476.0</ele><time>2026-04-04T12:13:29.987Z</time></trkpt><trkpt lat="46.173177702652254" lon="9.745946473363789"><ele>476.0</ele><time>2026-04-04T12:13:31.987Z</time></trkpt><trkpt lat="46.17323855505009" lon="9.746035954654534"><ele>476.0</ele><time>2026-04-04T12:13:34.987Z</time></trkpt><trkpt lat="46.17330107534271" lon="9.746062894861785"><ele>476.0</ele><time>2026-04-04T12:13:35.987Z</time></trkpt><trkpt lat="46.17338689682423" lon="9.74612217728629"><ele>476.0</ele><time>2026-04-04T12:13:36.987Z</time></trkpt><trkpt lat="46.17348459256639" lon="9.746191122609224"><ele>476.0</ele><time>2026-04-04T12:13:37.987Z</time></trkpt><trkpt lat="46.17357490933217" lon="9.74628319484858"><ele>480.0</ele><time>2026-04-04T12:13:38.987Z</time></trkpt><trkpt lat="46.173669260563436" lon="9.746374408063295"><ele>484.0</ele><time>2026-04-04T12:13:39.987Z</time></trkpt><trkpt lat="46.17377519773744" lon="9.746484305823058"><ele>488.0</ele><time>2026-04-04T12:13:40.987Z</time></trkpt><trkpt lat="46.17385012984423" lon="9.746593624523305"><ele>492.0</ele><time>2026-04-04T12:13:41.987Z</time></trkpt><trkpt lat="46.173891700634975" lon="9.746703325092485"><ele>496.0</ele><time>2026-04-04T12:13:42.987Z</time></trkpt><trkpt lat="46.17392942096652" lon="9.746800668334824"><ele>498.8</ele><time>2026-04-04T12:13:43.987Z</time></trkpt><trkpt lat="46.173981644391205" lon="9.74691613642762"><ele>501.6</ele><time>2026-04-04T12:13:45.987Z</time></trkpt><trkpt lat="46.17408089120211" lon="9.746968918074078"><ele>504.4</ele><time>2026-04-04T12:13:47.987Z</time></trkpt><trkpt lat="46.17416126186266" lon="9.747032312444013"><ele>507.2</ele><time>2026-04-04T12:13:49.987Z</time></trkpt><trkpt lat="46.174206985512434" lon="9.747099522684653"><ele>510.0</ele><time>2026-04-04T12:13:53.987Z</time></trkpt><trkpt lat="46.17425892695248" lon="9.747215296630573"><ele>510.0</ele><time>2026-04-04T12:13:56.987Z</time></trkpt><trkpt lat="46.17428656586578" lon="9.74729924312666"><ele>510.0</ele><time>2026-04-04T12:14:00.987Z</time></trkpt><trkpt lat="46.17433265879021" lon="9.747370031993956"><ele>510.0</ele><time>2026-04-04T12:14:03.987Z</time></trkpt><trkpt lat="46.17427009752794" lon="9.747387577681678"><ele>510.0</ele><time>2026-04-04T12:14:06.987Z</time></trkpt><trkpt lat="46.17416446325898" lon="9.747362789253701"><ele>510.0</ele><time>2026-04-04T12:14:08.987Z</time></trkpt><trkpt lat="46.174042333902996" lon="9.747358968118043"><ele>510.0</ele><time>2026-04-04T12:14:10.987Z</time></trkpt><trkpt lat="46.17393349358131" lon="9.747461051412738"><ele>510.0</ele><time>2026-04-04T12:14:12.987Z</time></trkpt><trkpt lat="46.173879631300686" lon="9.747528852001647"><ele>510.0</ele><time>2026-04-04T12:14:13.987Z</time></trkpt><trkpt lat="46.17379674014785" lon="9.747629965124721"><ele>510.0</ele><time>2026-04-04T12:14:15.987Z</time></trkpt><trkpt lat="46.173778116017694" lon="9.74779382270138"><ele>510.0</ele><time>2026-04-04T12:14:17.987Z</time></trkpt><trkpt lat="46.17382514060835" lon="9.747991682191492"><ele>510.0</ele><time>2026-04-04T12:14:19.987Z</time></trkpt><trkpt lat="46.17384835849275" lon="9.748117631305533"><ele>512.0</ele><time>2026-04-04T12:14:20.987Z</time></trkpt><trkpt lat="46.173888366467764" lon="9.748226520062346"><ele>514.0</ele><time>2026-04-04T12:14:21.987Z</time></trkpt><trkpt lat="46.17391743368067" lon="9.748355056133908"><ele>516.0</ele><time>2026-04-04T12:14:22.987Z</time></trkpt><trkpt lat="46.17394272304616" lon="9.748462108107015"><ele>518.0</ele><time>2026-04-04T12:14:23.987Z</time></trkpt><trkpt lat="46.173967448007524" lon="9.748608440073207"><ele>520.0</ele><time>2026-04-04T12:14:24.987Z</time></trkpt><trkpt lat="46.17401195629891" lon="9.748757594658814"><ele>525.5</ele><time>2026-04-04T12:14:25.987Z</time></trkpt><trkpt lat="46.17404742657906" lon="9.74889386665177"><ele>531.0</ele><time>2026-04-04T12:14:26.987Z</time></trkpt><trkpt lat="46.17408402652362" lon="9.74900811684102"><ele>536.5</ele><time>2026-04-04T12:14:27.987Z</time></trkpt><trkpt lat="46.17411750456955" lon="9.74911557067975"><ele>542.0</ele><time>2026-04-04T12:14:28.987Z</time></trkpt><trkpt lat="46.17411358729196" lon="9.749216774417333"><ele>547.5</ele><time>2026-04-04T12:14:29.987Z</time></trkpt><trkpt lat="46.174113983315195" lon="9.749324890653979"><ele>553.0</ele><time>2026-04-04T12:14:30.986Z</time></trkpt><trkpt lat="46.174132846816015" lon="9.749442604953769"><ele>553.0</ele><time>2026-04-04T12:14:31.986Z</time></trkpt><trkpt lat="46.17414179816747" lon="9.749555481476984"><ele>553.0</ele><time>2026-04-04T12:14:32.986Z</time></trkpt><trkpt lat="46.17415330715092" lon="9.74965828090271"><ele>553.0</ele><time>2026-04-04T12:14:33.987Z</time></trkpt><trkpt lat="46.17416731718167" lon="9.749760246673542"><ele>553.0</ele><time>2026-04-04T12:14:34.986Z</time></trkpt><trkpt lat="46.17420486554032" lon="9.749856796565034"><ele>553.0</ele><time>2026-04-04T12:14:35.986Z</time></trkpt><trkpt lat="46.174260829929665" lon="9.749953768846414"><ele>553.0</ele><time>2026-04-04T12:14:36.987Z</time></trkpt><trkpt lat="46.17431049797391" lon="9.75006339447143"><ele>553.0</ele><time>2026-04-04T12:14:37.986Z</time></trkpt><trkpt lat="46.17435466372549" lon="9.750174173930647"><ele>553.0</ele><time>2026-04-04T12:14:38.986Z</time></trkpt><trkpt lat="46.17438959845398" lon="9.750306637718149"><ele>553.0</ele><time>2026-04-04T12:14:39.987Z</time></trkpt><trkpt lat="46.17437278555382" lon="9.750458785412821"><ele>553.0</ele><time>2026-04-04T12:14:40.986Z</time></trkpt><trkpt lat="46.17432332856686" lon="9.750591430094834"><ele>553.0</ele><time>2026-04-04T12:14:41.986Z</time></trkpt><trkpt lat="46.17426332556091" lon="9.750701333017165"><ele>553.8</ele><time>2026-04-04T12:14:42.986Z</time></trkpt><trkpt lat="46.17418705907706" lon="9.750747034925752"><ele>554.5999999999999</ele><time>2026-04-04T12:14:43.986Z</time></trkpt><trkpt lat="46.17411601995961" lon="9.750821114227323"><ele>555.4000000000001</ele><time>2026-04-04T12:14:44.986Z</time></trkpt><trkpt lat="46.174034529158895" lon="9.750903654405793"><ele>556.2</ele><time>2026-04-04T12:14:45.986Z</time></trkpt><trkpt lat="46.1739672895977" lon="9.751019839657406"><ele>557.0</ele><time>2026-04-04T12:14:46.986Z</time></trkpt><trkpt lat="46.17389020787892" lon="9.751119896531835"><ele>549.8000000000001</ele><time>2026-04-04T12:14:47.986Z</time></trkpt><trkpt lat="46.17381624525841" lon="9.751201435750009"><ele>542.6</ele><time>2026-04-04T12:14:48.986Z</time></trkpt><trkpt lat="46.173758891069056" lon="9.75129554721814"><ele>535.4000000000001</ele><time>2026-04-04T12:14:49.986Z</time></trkpt><trkpt lat="46.17370198727587" lon="9.751417240544932"><ele>528.2</ele><time>2026-04-04T12:14:50.986Z</time></trkpt><trkpt lat="46.1736692261875" lon="9.751538393401137"><ele>521.0</ele><time>2026-04-04T12:14:51.986Z</time></trkpt><trkpt lat="46.173640412223136" lon="9.751666683276403"><ele>521.0</ele><time>2026-04-04T12:14:52.986Z</time></trkpt><trkpt lat="46.17365396640889" lon="9.751832895334715"><ele>521.0</ele><time>2026-04-04T12:14:53.986Z</time></trkpt><trkpt lat="46.17366449832123" lon="9.752006132475701"><ele>521.0</ele><time>2026-04-04T12:14:54.986Z</time></trkpt><trkpt lat="46.17367896046149" lon="9.752193167871148"><ele>521.0</ele><time>2026-04-04T12:14:55.986Z</time></trkpt><trkpt lat="46.17368940939029" lon="9.752366053473375"><ele>520.8</ele><time>2026-04-04T12:14:56.986Z</time></trkpt><trkpt lat="46.17369827734296" lon="9.75252502832851"><ele>520.6</ele><time>2026-04-04T12:14:57.986Z</time></trkpt><trkpt lat="46.173696142292364" lon="9.752667695852606"><ele>520.4</ele><time>2026-04-04T12:14:58.986Z</time></trkpt><trkpt lat="46.17368838319153" lon="9.75282425672445"><ele>520.2</ele><time>2026-04-04T12:14:59.986Z</time></trkpt><trkpt lat="46.17366903724426" lon="9.753012181779834"><ele>520.0</ele><time>2026-04-04T12:15:00.986Z</time></trkpt><trkpt lat="46.17367280745739" lon="9.753200750691247"><ele>517.75</ele><time>2026-04-04T12:15:01.986Z</time></trkpt><trkpt lat="46.17369278153159" lon="9.753407906341291"><ele>515.5</ele><time>2026-04-04T12:15:02.986Z</time></trkpt><trkpt lat="46.173731487455164" lon="9.753605721467995"><ele>513.25</ele><time>2026-04-04T12:15:03.986Z</time></trkpt><trkpt lat="46.17376052239925" lon="9.753799250339137"><ele>511.0</ele><time>2026-04-04T12:15:04.986Z</time></trkpt><trkpt lat="46.17379136255326" lon="9.753969792895354"><ele>508.25</ele><time>2026-04-04T12:15:05.986Z</time></trkpt><trkpt lat="46.17382349761095" lon="9.754139965143299"><ele>505.5</ele><time>2026-04-04T12:15:06.986Z</time></trkpt><trkpt lat="46.173855860693195" lon="9.75433542190312"><ele>502.75</ele><time>2026-04-04T12:15:07.986Z</time></trkpt><trkpt lat="46.17388673251602" lon="9.75452884808333"><ele>500.0</ele><time>2026-04-04T12:15:08.986Z</time></trkpt><trkpt lat="46.17392156647435" lon="9.754722577631876"><ele>499.5</ele><time>2026-04-04T12:15:09.986Z</time></trkpt><trkpt lat="46.17395392876262" lon="9.754901334463996"><ele>499.0</ele><time>2026-04-04T12:15:10.986Z</time></trkpt><trkpt lat="46.17398752963" lon="9.755072138081248"><ele>498.5</ele><time>2026-04-04T12:15:11.986Z</time></trkpt><trkpt lat="46.17401134416163" lon="9.755248141231313"><ele>498.0</ele><time>2026-04-04T12:15:12.986Z</time></trkpt><trkpt lat="46.17403281209721" lon="9.755418754863"><ele>498.0</ele><time>2026-04-04T12:15:13.986Z</time></trkpt><trkpt lat="46.17404454307601" lon="9.755611037654823"><ele>498.0</ele><time>2026-04-04T12:15:14.986Z</time></trkpt><trkpt lat="46.17403184048105" lon="9.755804081844067"><ele>498.0</ele><time>2026-04-04T12:15:15.986Z</time></trkpt><trkpt lat="46.17399747320926" lon="9.755975783535057"><ele>498.0</ele><time>2026-04-04T12:15:16.986Z</time></trkpt><trkpt lat="46.173946928568675" lon="9.756133199793373"><ele>499.25</ele><time>2026-04-04T12:15:17.986Z</time></trkpt><trkpt lat="46.173899225618804" lon="9.756279029780773"><ele>500.5</ele><time>2026-04-04T12:15:18.986Z</time></trkpt><trkpt lat="46.17385210182727" lon="9.756417174866659"><ele>501.75</ele><time>2026-04-04T12:15:19.986Z</time></trkpt><trkpt lat="46.173784375453245" lon="9.756537797168033"><ele>503.0</ele><time>2026-04-04T12:15:20.986Z</time></trkpt><trkpt lat="46.17366627891221" lon="9.756639010284424"><ele>503.0</ele><time>2026-04-04T12:15:21.986Z</time></trkpt><trkpt lat="46.17356148696828" lon="9.756717923969628"><ele>502.99999999999994</ele><time>2026-04-04T12:15:22.986Z</time></trkpt><trkpt lat="46.17347741056398" lon="9.756746404611889"><ele>502.99999999999994</ele><time>2026-04-04T12:15:23.986Z</time></trkpt><trkpt lat="46.17338796073305" lon="9.756857122419998"><ele>503.0</ele><time>2026-04-04T12:15:25.986Z</time></trkpt><trkpt lat="46.17335072848531" lon="9.756932195287204"><ele>503.0</ele><time>2026-04-04T12:15:27.986Z</time></trkpt><trkpt lat="46.17336599708819" lon="9.757076061724053"><ele>504.25</ele><time>2026-04-04T12:15:29.986Z</time></trkpt><trkpt lat="46.17339502543879" lon="9.757236858535649"><ele>505.5</ele><time>2026-04-04T12:15:30.986Z</time></trkpt><trkpt lat="46.173394989471774" lon="9.75743631729454"><ele>506.75</ele><time>2026-04-04T12:15:31.986Z</time></trkpt><trkpt lat="46.17335455710974" lon="9.757638414230469"><ele>508.0</ele><time>2026-04-04T12:15:32.986Z</time></trkpt><trkpt lat="46.173300304769555" lon="9.757795941256465"><ele>510.59999999999997</ele><time>2026-04-04T12:15:33.986Z</time></trkpt><trkpt lat="46.17323836426569" lon="9.757895163124738"><ele>513.1999999999999</ele><time>2026-04-04T12:15:34.986Z</time></trkpt><trkpt lat="46.17316910148714" lon="9.757948847161563"><ele>515.8</ele><time>2026-04-04T12:15:35.986Z</time></trkpt><trkpt lat="46.173072235015546" lon="9.757989291333796"><ele>518.4</ele><time>2026-04-04T12:15:37.986Z</time></trkpt><trkpt lat="46.17303406224422" lon="9.758185470299452"><ele>521.0</ele><time>2026-04-04T12:15:39.986Z</time></trkpt><trkpt lat="46.17299844229155" lon="9.758353393710411"><ele>514.8</ele><time>2026-04-04T12:15:40.986Z</time></trkpt><trkpt lat="46.17297358558678" lon="9.758503840079195"><ele>508.6</ele><time>2026-04-04T12:15:41.986Z</time></trkpt><trkpt lat="46.17293691542507" lon="9.758632467754358"><ele>502.4</ele><time>2026-04-04T12:15:42.986Z</time></trkpt><trkpt lat="46.17289726757274" lon="9.758768547579606"><ele>496.2</ele><time>2026-04-04T12:15:43.986Z</time></trkpt><trkpt lat="46.1728473248656" lon="9.758898657221824"><ele>490.0</ele><time>2026-04-04T12:15:44.986Z</time></trkpt><trkpt lat="46.17279130669148" lon="9.759023799021904"><ele>488.5</ele><time>2026-04-04T12:15:45.986Z</time></trkpt><trkpt lat="46.17270928678634" lon="9.759150280959135"><ele>487.0</ele><time>2026-04-04T12:15:46.986Z</time></trkpt><trkpt lat="46.172636502623156" lon="9.759279957282398"><ele>485.5</ele><time>2026-04-04T12:15:47.986Z</time></trkpt><trkpt lat="46.17255174205201" lon="9.759397278288377"><ele>484.0</ele><time>2026-04-04T12:15:48.986Z</time></trkpt><trkpt lat="46.17245501216768" lon="9.759507496167606"><ele>479.0</ele><time>2026-04-04T12:15:49.986Z</time></trkpt><trkpt lat="46.17235448526687" lon="9.759620563148827"><ele>474.0</ele><time>2026-04-04T12:15:50.986Z</time></trkpt><trkpt lat="46.17226458493849" lon="9.75972559520797"><ele>469.0</ele><time>2026-04-04T12:15:51.986Z</time></trkpt><trkpt lat="46.17217433829106" lon="9.759812764254454"><ele>464.0</ele><time>2026-04-04T12:15:52.986Z</time></trkpt><trkpt lat="46.17211197373462" lon="9.759908590866091"><ele>459.0</ele><time>2026-04-04T12:15:53.986Z</time></trkpt><trkpt lat="46.17206886556312" lon="9.760028401267947"><ele>459.0</ele><time>2026-04-04T12:15:54.986Z</time></trkpt><trkpt lat="46.17204582925025" lon="9.760191702916167"><ele>459.0</ele><time>2026-04-04T12:15:55.986Z</time></trkpt><trkpt lat="46.17199791109729" lon="9.760307618037501"><ele>459.0</ele><time>2026-04-04T12:15:56.986Z</time></trkpt><trkpt lat="46.171947206525076" lon="9.760433164821425"><ele>459.0</ele><time>2026-04-04T12:15:57.986Z</time></trkpt><trkpt lat="46.17191982552288" lon="9.760615842461085"><ele>459.0</ele><time>2026-04-04T12:15:58.986Z</time></trkpt><trkpt lat="46.171891359614065" lon="9.760821704711534"><ele>459.3333333333333</ele><time>2026-04-04T12:15:59.986Z</time></trkpt><trkpt lat="46.17188260563564" lon="9.7609811022127"><ele>459.66666666666663</ele><time>2026-04-04T12:16:00.986Z</time></trkpt><trkpt lat="46.17187972407702" lon="9.761105527263684"><ele>460.0</ele><time>2026-04-04T12:16:01.986Z</time></trkpt><trkpt lat="46.17187580332501" lon="9.761210608889717"><ele>460.3333333333333</ele><time>2026-04-04T12:16:02.986Z</time></trkpt><trkpt lat="46.171863853581534" lon="9.761324746086112"><ele>460.66666666666663</ele><time>2026-04-04T12:16:03.986Z</time></trkpt><trkpt lat="46.171849973196025" lon="9.761432435262826"><ele>461.0</ele><time>2026-04-04T12:16:04.986Z</time></trkpt><trkpt lat="46.171841334478856" lon="9.761552578022792"><ele>462.0</ele><time>2026-04-04T12:16:05.986Z</time></trkpt><trkpt lat="46.17183101309328" lon="9.761664387912614"><ele>463.0</ele><time>2026-04-04T12:16:06.986Z</time></trkpt><trkpt lat="46.17182213589115" lon="9.761785270376484"><ele>464.0</ele><time>2026-04-04T12:16:07.986Z</time></trkpt><trkpt lat="46.17181872545452" lon="9.761927324681306"><ele>465.0</ele><time>2026-04-04T12:16:08.986Z</time></trkpt><trkpt lat="46.17180901057539" lon="9.762082865690026"><ele>466.0</ele><time>2026-04-04T12:16:09.986Z</time></trkpt><trkpt lat="46.171775539668545" lon="9.762225159459629"><ele>467.20000000000005</ele><time>2026-04-04T12:16:10.986Z</time></trkpt><trkpt lat="46.17173081353902" lon="9.762380060756845"><ele>468.40000000000003</ele><time>2026-04-04T12:16:11.986Z</time></trkpt><trkpt lat="46.17166578936448" lon="9.762528186874393"><ele>469.6</ele><time>2026-04-04T12:16:12.986Z</time></trkpt><trkpt lat="46.171605183554945" lon="9.76265787586833"><ele>470.8</ele><time>2026-04-04T12:16:13.986Z</time></trkpt><trkpt lat="46.171562446841286" lon="9.762778010536481"><ele>472.0</ele><time>2026-04-04T12:16:14.986Z</time></trkpt><trkpt lat="46.17155327694008" lon="9.762871648517804"><ele>473.75</ele><time>2026-04-04T12:16:15.986Z</time></trkpt><trkpt lat="46.1715789346854" lon="9.762968119183423"><ele>475.5</ele><time>2026-04-04T12:16:16.986Z</time></trkpt><trkpt lat="46.17160653924382" lon="9.763167987476875"><ele>477.25</ele><time>2026-04-04T12:16:17.986Z</time></trkpt><trkpt lat="46.17160428887686" lon="9.763371305148466"><ele>479.0</ele><time>2026-04-04T12:16:18.986Z</time></trkpt><trkpt lat="46.17158424422116" lon="9.763559005250267"><ele>479.5</ele><time>2026-04-04T12:16:19.986Z</time></trkpt><trkpt lat="46.17155163326526" lon="9.763733001482306"><ele>480.0</ele><time>2026-04-04T12:16:20.986Z</time></trkpt><trkpt lat="46.17153413697216" lon="9.763906885693942"><ele>480.5</ele><time>2026-04-04T12:16:21.986Z</time></trkpt><trkpt lat="46.17150162659076" lon="9.764066201061803"><ele>481.0</ele><time>2026-04-04T12:16:22.986Z</time></trkpt><trkpt lat="46.171448372032096" lon="9.764205255118659"><ele>471.25</ele><time>2026-04-04T12:16:23.986Z</time></trkpt><trkpt lat="46.17141576688784" lon="9.764335767069428"><ele>461.5</ele><time>2026-04-04T12:16:24.986Z</time></trkpt><trkpt lat="46.17139217094708" lon="9.764477105453715"><ele>451.75</ele><time>2026-04-04T12:16:25.985Z</time></trkpt><trkpt lat="46.171375147650025" lon="9.764656134879557"><ele>442.0</ele><time>2026-04-04T12:16:26.985Z</time></trkpt><trkpt lat="46.17138915516192" lon="9.764843176856289"><ele>442.0</ele><time>2026-04-04T12:16:27.985Z</time></trkpt><trkpt lat="46.17139637663599" lon="9.765039083894255"><ele>442.0</ele><time>2026-04-04T12:16:28.985Z</time></trkpt><trkpt lat="46.1714195716865" lon="9.765248172461579"><ele>442.0</ele><time>2026-04-04T12:16:29.985Z</time></trkpt><trkpt lat="46.1714385752873" lon="9.765450989194328"><ele>442.0</ele><time>2026-04-04T12:16:30.985Z</time></trkpt><trkpt lat="46.17144507832589" lon="9.765638211316801"><ele>443.6</ele><time>2026-04-04T12:16:31.985Z</time></trkpt><trkpt lat="46.17144617033987" lon="9.765800700833395"><ele>445.20000000000005</ele><time>2026-04-04T12:16:32.985Z</time></trkpt><trkpt lat="46.171422423445456" lon="9.765957539214542"><ele>446.8</ele><time>2026-04-04T12:16:33.985Z</time></trkpt><trkpt lat="46.17140210654979" lon="9.766073312037987"><ele>448.4</ele><time>2026-04-04T12:16:34.985Z</time></trkpt><trkpt lat="46.17133423072776" lon="9.766210463509932"><ele>450.0</ele><time>2026-04-04T12:16:36.985Z</time></trkpt><trkpt lat="46.17130059332875" lon="9.766307018502921"><ele>450.0</ele><time>2026-04-04T12:16:37.985Z</time></trkpt><trkpt lat="46.17125594366825" lon="9.766452561621797"><ele>450.0</ele><time>2026-04-04T12:16:38.985Z</time></trkpt><trkpt lat="46.17120679305222" lon="9.766591342727073"><ele>450.0</ele><time>2026-04-04T12:16:39.985Z</time></trkpt><trkpt lat="46.17117762257176" lon="9.766724207089034"><ele>450.0</ele><time>2026-04-04T12:16:40.984Z</time></trkpt><trkpt lat="46.17115973561023" lon="9.766829201850214"><ele>450.0</ele><time>2026-04-04T12:16:41.984Z</time></trkpt><trkpt lat="46.171173075187035" lon="9.766939491770174"><ele>449.5</ele><time>2026-04-04T12:16:42.985Z</time></trkpt><trkpt lat="46.17121289138249" lon="9.767089161643861"><ele>449.0</ele><time>2026-04-04T12:16:43.985Z</time></trkpt><trkpt lat="46.171253854819746" lon="9.767267600996417"><ele>448.5</ele><time>2026-04-04T12:16:44.985Z</time></trkpt><trkpt lat="46.1712979607446" lon="9.76744784356227"><ele>448.0</ele><time>2026-04-04T12:16:45.985Z</time></trkpt><trkpt lat="46.1713155258669" lon="9.767624855702387"><ele>448.2</ele><time>2026-04-04T12:16:46.985Z</time></trkpt><trkpt lat="46.17132747555225" lon="9.76778492897359"><ele>448.4</ele><time>2026-04-04T12:16:47.985Z</time></trkpt><trkpt lat="46.17133369059416" lon="9.767897608311024"><ele>448.59999999999997</ele><time>2026-04-04T12:16:48.984Z</time></trkpt><trkpt lat="46.17132880893788" lon="9.768024508740812"><ele>448.79999999999995</ele><time>2026-04-04T12:16:50.985Z</time></trkpt><trkpt lat="46.17135535355714" lon="9.768161328886631"><ele>449.0</ele><time>2026-04-04T12:16:52.985Z</time></trkpt><trkpt lat="46.171377876992636" lon="9.768298006550825"><ele>448.99999999999994</ele><time>2026-04-04T12:16:54.985Z</time></trkpt><trkpt lat="46.17138991451695" lon="9.768388449063004"><ele>449.0</ele><time>2026-04-04T12:16:55.985Z</time></trkpt><trkpt lat="46.17141999041059" lon="9.768496413108014"><ele>449.0</ele><time>2026-04-04T12:16:56.985Z</time></trkpt><trkpt lat="46.17144035741738" lon="9.768611203096423"><ele>449.0</ele><time>2026-04-04T12:16:57.985Z</time></trkpt><trkpt lat="46.1714669231292" lon="9.768715582050493"><ele>448.99999999999994</ele><time>2026-04-04T12:16:58.985Z</time></trkpt><trkpt lat="46.17149489681583" lon="9.768819467178128"><ele>449.0</ele><time>2026-04-04T12:16:59.985Z</time></trkpt><trkpt lat="46.17153095645689" lon="9.768925606039648"><ele>449.25</ele><time>2026-04-04T12:17:00.985Z</time></trkpt><trkpt lat="46.17152478052061" lon="9.769076785049496"><ele>449.5</ele><time>2026-04-04T12:17:01.985Z</time></trkpt><trkpt lat="46.17151742043805" lon="9.769246979917849"><ele>449.75</ele><time>2026-04-04T12:17:02.985Z</time></trkpt><trkpt lat="46.17149788383457" lon="9.769407612447877"><ele>450.0</ele><time>2026-04-04T12:17:03.985Z</time></trkpt><trkpt lat="46.17145284052059" lon="9.769561848070841"><ele>450.5</ele><time>2026-04-04T12:17:04.985Z</time></trkpt><trkpt lat="46.17138549934952" lon="9.769713257262827"><ele>451.0</ele><time>2026-04-04T12:17:05.985Z</time></trkpt><trkpt lat="46.171311010014115" lon="9.769828477373022"><ele>451.5</ele><time>2026-04-04T12:17:06.985Z</time></trkpt><trkpt lat="46.17122250148733" lon="9.769939570931689"><ele>452.0</ele><time>2026-04-04T12:17:07.985Z</time></trkpt><trkpt lat="46.17115069090744" lon="9.77005899083279"><ele>452.0</ele><time>2026-04-04T12:17:08.985Z</time></trkpt><trkpt lat="46.171106197932495" lon="9.77017698596451"><ele>452.00000000000006</ele><time>2026-04-04T12:17:09.985Z</time></trkpt><trkpt lat="46.17107005678864" lon="9.770325772006808"><ele>452.00000000000006</ele><time>2026-04-04T12:17:10.985Z</time></trkpt><trkpt lat="46.171040736310125" lon="9.77046329162473"><ele>452.0</ele><time>2026-04-04T12:17:11.985Z</time></trkpt><trkpt lat="46.17102677644456" lon="9.770604671220655"><ele>452.0</ele><time>2026-04-04T12:17:12.985Z</time></trkpt><trkpt lat="46.17100360473419" lon="9.77072027955004"><ele>452.6</ele><time>2026-04-04T12:17:13.985Z</time></trkpt><trkpt lat="46.17098759550107" lon="9.770827495250614"><ele>453.20000000000005</ele><time>2026-04-04T12:17:14.985Z</time></trkpt><trkpt lat="46.171017616126214" lon="9.770942548494453"><ele>453.8</ele><time>2026-04-04T12:17:15.985Z</time></trkpt><trkpt lat="46.17106551290301" lon="9.771043820374969"><ele>454.4</ele><time>2026-04-04T12:17:16.985Z</time></trkpt><trkpt lat="46.17112880409009" lon="9.77117272230783"><ele>455.0</ele><time>2026-04-04T12:17:17.985Z</time></trkpt><trkpt lat="46.1711595095471" lon="9.771318802416484"><ele>454.99999999999994</ele><time>2026-04-04T12:17:18.985Z</time></trkpt><trkpt lat="46.17116281459753" lon="9.771456778138704"><ele>455.0</ele><time>2026-04-04T12:17:19.985Z</time></trkpt><trkpt lat="46.17116020062014" lon="9.771574506863029"><ele>455.0</ele><time>2026-04-04T12:17:20.985Z</time></trkpt><trkpt lat="46.171162247839256" lon="9.771684484861208"><ele>455.0</ele><time>2026-04-04T12:17:21.985Z</time></trkpt><trkpt lat="46.17117607680356" lon="9.771777285339782"><ele>454.99999999999994</ele><time>2026-04-04T12:17:22.985Z</time></trkpt><trkpt lat="46.17119767108943" lon="9.771891912869151"><ele>455.0</ele><time>2026-04-04T12:17:23.985Z</time></trkpt><trkpt lat="46.17123376068278" lon="9.771986303388337"><ele>454.57142857142856</ele><time>2026-04-04T12:17:24.985Z</time></trkpt><trkpt lat="46.17126260442334" lon="9.77207092798183"><ele>454.1428571428571</ele><time>2026-04-04T12:17:25.985Z</time></trkpt><trkpt lat="46.1712853612047" lon="9.772179446097605"><ele>453.7142857142857</ele><time>2026-04-04T12:17:26.985Z</time></trkpt><trkpt lat="46.17131254152704" lon="9.772301765279057"><ele>453.2857142857143</ele><time>2026-04-04T12:17:27.985Z</time></trkpt><trkpt lat="46.171335244435035" lon="9.772401521967224"><ele>452.85714285714283</ele><time>2026-04-04T12:17:28.985Z</time></trkpt><trkpt lat="46.171363012717045" lon="9.772486772535355"><ele>452.42857142857144</ele><time>2026-04-04T12:17:29.984Z</time></trkpt><trkpt lat="46.1713841510718" lon="9.77257574461324"><ele>452.0</ele><time>2026-04-04T12:17:30.984Z</time></trkpt><trkpt lat="46.17144417003756" lon="9.772743094850437"><ele>451.8333333333333</ele><time>2026-04-04T12:17:32.984Z</time></trkpt><trkpt lat="46.17147423062157" lon="9.772844837043905"><ele>451.66666666666663</ele><time>2026-04-04T12:17:33.984Z</time></trkpt><trkpt lat="46.17148793976389" lon="9.772953016052869"><ele>451.5</ele><time>2026-04-04T12:17:34.984Z</time></trkpt><trkpt lat="46.171490750721425" lon="9.773078689976488"><ele>451.33333333333337</ele><time>2026-04-04T12:17:35.984Z</time></trkpt><trkpt lat="46.17149623027741" lon="9.773220983840316"><ele>451.1666666666667</ele><time>2026-04-04T12:17:36.984Z</time></trkpt><trkpt lat="46.17149703124992" lon="9.773365636286858"><ele>451.0</ele><time>2026-04-04T12:17:37.984Z</time></trkpt><trkpt lat="46.17147668354178" lon="9.773495860237691"><ele>451.00000000000006</ele><time>2026-04-04T12:17:38.984Z</time></trkpt><trkpt lat="46.17145254268453" lon="9.773629726643827"><ele>451.0</ele><time>2026-04-04T12:17:39.984Z</time></trkpt><trkpt lat="46.17143911282339" lon="9.773762461479576"><ele>451.0</ele><time>2026-04-04T12:17:40.984Z</time></trkpt><trkpt lat="46.1714423812655" lon="9.773875500722376"><ele>451.0</ele><time>2026-04-04T12:17:41.984Z</time></trkpt><trkpt lat="46.171461761698595" lon="9.773964062282268"><ele>451.00000000000006</ele><time>2026-04-04T12:17:42.984Z</time></trkpt><trkpt lat="46.17150803516438" lon="9.774105685996922"><ele>451.0</ele><time>2026-04-04T12:17:44.984Z</time></trkpt><trkpt lat="46.171542152505424" lon="9.774187112977"><ele>452.8</ele><time>2026-04-04T12:17:45.984Z</time></trkpt><trkpt lat="46.17161021317256" lon="9.774267016146629"><ele>454.6</ele><time>2026-04-04T12:17:46.984Z</time></trkpt><trkpt lat="46.17169493373172" lon="9.774355902679979"><ele>456.4</ele><time>2026-04-04T12:17:47.984Z</time></trkpt><trkpt lat="46.17179401681301" lon="9.774452317843457"><ele>458.2</ele><time>2026-04-04T12:17:48.984Z</time></trkpt><trkpt lat="46.17191107852066" lon="9.77455336433806"><ele>460.0</ele><time>2026-04-04T12:17:49.984Z</time></trkpt><trkpt lat="46.17204356360182" lon="9.77464438402689"><ele>460.0</ele><time>2026-04-04T12:17:50.984Z</time></trkpt><trkpt lat="46.172189682762586" lon="9.77473924221378"><ele>460.0</ele><time>2026-04-04T12:17:51.984Z</time></trkpt><trkpt lat="46.1723151294935" lon="9.774845459932976"><ele>460.0</ele><time>2026-04-04T12:17:52.984Z</time></trkpt><trkpt lat="46.17242966820097" lon="9.774942510913611"><ele>460.0</ele><time>2026-04-04T12:17:53.984Z</time></trkpt><trkpt lat="46.1725395139177" lon="9.775038874258417"><ele>460.6</ele><time>2026-04-04T12:17:54.984Z</time></trkpt><trkpt lat="46.17264898542775" lon="9.775132008001842"><ele>461.2</ele><time>2026-04-04T12:17:55.984Z</time></trkpt><trkpt lat="46.17273042546494" lon="9.775231025376087"><ele>461.79999999999995</ele><time>2026-04-04T12:17:56.984Z</time></trkpt><trkpt lat="46.172803828628034" lon="9.775335060981355"><ele>462.4</ele><time>2026-04-04T12:17:57.984Z</time></trkpt><trkpt lat="46.172858451562114" lon="9.775429403778148"><ele>463.0</ele><time>2026-04-04T12:17:58.984Z</time></trkpt><trkpt lat="46.1729164313599" lon="9.77553655933041"><ele>463.0</ele><time>2026-04-04T12:17:59.984Z</time></trkpt><trkpt lat="46.17296969359064" lon="9.775649426201712"><ele>462.99999999999994</ele><time>2026-04-04T12:18:00.984Z</time></trkpt><trkpt lat="46.173014283436004" lon="9.775781111446408"><ele>462.99999999999994</ele><time>2026-04-04T12:18:01.984Z</time></trkpt><trkpt lat="46.17301579135942" lon="9.775940893140142"><ele>463.0</ele><time>2026-04-04T12:18:02.984Z</time></trkpt><trkpt lat="46.17298935108235" lon="9.776105622694706"><ele>463.0</ele><time>2026-04-04T12:18:03.984Z</time></trkpt><trkpt lat="46.172979326306574" lon="9.776262350733044"><ele>462.2</ele><time>2026-04-04T12:18:04.984Z</time></trkpt><trkpt lat="46.17298197764331" lon="9.776391011761824"><ele>461.4</ele><time>2026-04-04T12:18:05.984Z</time></trkpt><trkpt lat="46.172968007951695" lon="9.776502390871961"><ele>460.59999999999997</ele><time>2026-04-04T12:18:06.984Z</time></trkpt><trkpt lat="46.17288454491517" lon="9.776607734520056"><ele>459.79999999999995</ele><time>2026-04-04T12:18:08.984Z</time></trkpt><trkpt lat="46.172802497160625" lon="9.776645890273292"><ele>459.0</ele><time>2026-04-04T12:18:09.984Z</time></trkpt><trkpt lat="46.17271687100097" lon="9.77669185839574"><ele>459.0</ele><time>2026-04-04T12:18:10.984Z</time></trkpt><trkpt lat="46.172629396577975" lon="9.776711314698227"><ele>459.0</ele><time>2026-04-04T12:18:11.984Z</time></trkpt><trkpt lat="46.17251964796822" lon="9.776746020869176"><ele>459.0</ele><time>2026-04-04T12:18:12.984Z</time></trkpt><trkpt lat="46.17243349562906" lon="9.776835895011619"><ele>459.0</ele><time>2026-04-04T12:18:13.984Z</time></trkpt><trkpt lat="46.17235272469436" lon="9.776907244464974"><ele>459.0</ele><time>2026-04-04T12:18:14.984Z</time></trkpt><trkpt lat="46.172276332796" lon="9.776928588285793"><ele>456.8333333333333</ele><time>2026-04-04T12:18:15.984Z</time></trkpt><trkpt lat="46.1722160310076" lon="9.77689028523865"><ele>454.66666666666663</ele><time>2026-04-04T12:18:16.984Z</time></trkpt><trkpt lat="46.17215244602614" lon="9.776807556009741"><ele>452.5</ele><time>2026-04-04T12:18:17.984Z</time></trkpt><trkpt lat="46.17205665494672" lon="9.776738954761209"><ele>450.3333333333333</ele><time>2026-04-04T12:18:18.984Z</time></trkpt><trkpt lat="46.171974918157694" lon="9.776735961241412"><ele>448.16666666666663</ele><time>2026-04-04T12:18:19.984Z</time></trkpt><trkpt lat="46.17190776272277" lon="9.776787788657975"><ele>446.0</ele><time>2026-04-04T12:18:20.984Z</time></trkpt><trkpt lat="46.171841057021695" lon="9.776866079378406"><ele>445.25</ele><time>2026-04-04T12:18:21.984Z</time></trkpt><trkpt lat="46.17175881169103" lon="9.77697404911166"><ele>444.5</ele><time>2026-04-04T12:18:22.984Z</time></trkpt><trkpt lat="46.171636699938276" lon="9.77708349450091"><ele>443.75</ele><time>2026-04-04T12:18:23.984Z</time></trkpt><trkpt lat="46.17151919133137" lon="9.777184872783335"><ele>443.0</ele><time>2026-04-04T12:18:24.984Z</time></trkpt><trkpt lat="46.17143459951707" lon="9.777291080758703"><ele>440.4</ele><time>2026-04-04T12:18:25.984Z</time></trkpt><trkpt lat="46.17134799134827" lon="9.77740144791621"><ele>437.79999999999995</ele><time>2026-04-04T12:18:26.984Z</time></trkpt><trkpt lat="46.17125503957823" lon="9.777499424666027"><ele>435.2</ele><time>2026-04-04T12:18:27.984Z</time></trkpt><trkpt lat="46.17115646182291" lon="9.777565515722065"><ele>432.6</ele><time>2026-04-04T12:18:28.984Z</time></trkpt><trkpt lat="46.17106101935399" lon="9.777628559438773"><ele>430.0</ele><time>2026-04-04T12:18:29.984Z</time></trkpt><trkpt lat="46.17100886466554" lon="9.777713713456262"><ele>429.1666666666667</ele><time>2026-04-04T12:18:30.984Z</time></trkpt><trkpt lat="46.170955745276075" lon="9.777824109107863"><ele>428.33333333333337</ele><time>2026-04-04T12:18:31.984Z</time></trkpt><trkpt lat="46.17090857945134" lon="9.77792256050121"><ele>427.5</ele><time>2026-04-04T12:18:32.984Z</time></trkpt><trkpt lat="46.17086979983436" lon="9.777999769674679"><ele>426.66666666666663</ele><time>2026-04-04T12:18:33.984Z</time></trkpt><trkpt lat="46.170793789465264" lon="9.778045821111078"><ele>425.8333333333333</ele><time>2026-04-04T12:18:34.984Z</time></trkpt><trkpt lat="46.17069719354115" lon="9.778070899293319"><ele>425.0</ele><time>2026-04-04T12:18:35.984Z</time></trkpt><trkpt lat="46.17057089603233" lon="9.77807993764845"><ele>420.5</ele><time>2026-04-04T12:18:36.984Z</time></trkpt><trkpt lat="46.17045594533687" lon="9.778120451974631"><ele>416.0</ele><time>2026-04-04T12:18:37.984Z</time></trkpt><trkpt lat="46.17033314307557" lon="9.778154103167697"><ele>411.5</ele><time>2026-04-04T12:18:38.984Z</time></trkpt><trkpt lat="46.1702114454596" lon="9.778225787157147"><ele>407.0</ele><time>2026-04-04T12:18:39.984Z</time></trkpt><trkpt lat="46.17010256427421" lon="9.778315637470413"><ele>407.0</ele><time>2026-04-04T12:18:40.984Z</time></trkpt><trkpt lat="46.1699821529323" lon="9.778360375627402"><ele>407.0</ele><time>2026-04-04T12:18:41.984Z</time></trkpt><trkpt lat="46.16984022702974" lon="9.778382159477312"><ele>407.0</ele><time>2026-04-04T12:18:42.984Z</time></trkpt><trkpt lat="46.16971018156031" lon="9.778402484634636"><ele>407.0</ele><time>2026-04-04T12:18:43.983Z</time></trkpt><trkpt lat="46.1696000044254" lon="9.778417521012521"><ele>403.0</ele><time>2026-04-04T12:18:44.983Z</time></trkpt><trkpt lat="46.16948105444304" lon="9.778476317678223"><ele>399.0</ele><time>2026-04-04T12:18:45.984Z</time></trkpt><trkpt lat="46.16937878103321" lon="9.77857427545892"><ele>395.0</ele><time>2026-04-04T12:18:46.983Z</time></trkpt><trkpt lat="46.169271583779505" lon="9.778699670483162"><ele>391.0</ele><time>2026-04-04T12:18:47.983Z</time></trkpt><trkpt lat="46.169159483516495" lon="9.778830538429776"><ele>390.0</ele><time>2026-04-04T12:18:48.984Z</time></trkpt><trkpt lat="46.169059314426804" lon="9.778987440487041"><ele>389.0</ele><time>2026-04-04T12:18:49.983Z</time></trkpt><trkpt lat="46.16895035774395" lon="9.779154953862779"><ele>388.0</ele><time>2026-04-04T12:18:50.983Z</time></trkpt><trkpt lat="46.168838613169136" lon="9.77932757726438"><ele>383.5</ele><time>2026-04-04T12:18:51.983Z</time></trkpt><trkpt lat="46.1687145006976" lon="9.779452137826672"><ele>379.0</ele><time>2026-04-04T12:18:52.984Z</time></trkpt><trkpt lat="46.168587780920234" lon="9.77955587871326"><ele>374.5</ele><time>2026-04-04T12:18:53.984Z</time></trkpt><trkpt lat="46.168474790314626" lon="9.779678599382557"><ele>370.0</ele><time>2026-04-04T12:18:54.983Z</time></trkpt><trkpt lat="46.16835996096354" lon="9.779796936773336"><ele>370.0</ele><time>2026-04-04T12:18:55.983Z</time></trkpt><trkpt lat="46.16820432574687" lon="9.77991692310184"><ele>370.0</ele><time>2026-04-04T12:18:56.983Z</time></trkpt><trkpt lat="46.1680661470524" lon="9.780000565405626"><ele>370.0</ele><time>2026-04-04T12:18:57.983Z</time></trkpt><trkpt lat="46.167925000943036" lon="9.780106717443582"><ele>365.75</ele><time>2026-04-04T12:18:58.983Z</time></trkpt><trkpt lat="46.167805417488175" lon="9.780199667100016"><ele>361.5</ele><time>2026-04-04T12:18:59.983Z</time></trkpt><trkpt lat="46.16770902714131" lon="9.780293972438697"><ele>357.25</ele><time>2026-04-04T12:19:00.983Z</time></trkpt><trkpt lat="46.16761819201471" lon="9.780394870127566"><ele>353.0</ele><time>2026-04-04T12:19:01.983Z</time></trkpt><trkpt lat="46.16754254719041" lon="9.780521234858345"><ele>353.0</ele><time>2026-04-04T12:19:02.983Z</time></trkpt><trkpt lat="46.1674714640216" lon="9.780666144985316"><ele>353.0</ele><time>2026-04-04T12:19:03.983Z</time></trkpt><trkpt lat="46.167419058606264" lon="9.780829590639415"><ele>353.0</ele><time>2026-04-04T12:19:04.983Z</time></trkpt><trkpt lat="46.16735421509431" lon="9.78097847694857"><ele>353.0</ele><time>2026-04-04T12:19:05.983Z</time></trkpt><trkpt lat="46.16726218349973" lon="9.781092239949865"><ele>351.0</ele><time>2026-04-04T12:19:06.983Z</time></trkpt><trkpt lat="46.167170215718315" lon="9.781161640351657"><ele>349.0</ele><time>2026-04-04T12:19:07.983Z</time></trkpt><trkpt lat="46.16710323651282" lon="9.781204742311338"><ele>347.0</ele><time>2026-04-04T12:19:08.983Z</time></trkpt><trkpt lat="46.16708081443087" lon="9.78131645714979"><ele>345.0</ele><time>2026-04-04T12:19:10.983Z</time></trkpt><trkpt lat="46.16711800165488" lon="9.781390951810794"><ele>343.0</ele><time>2026-04-04T12:19:11.983Z</time></trkpt><trkpt lat="46.16719429417855" lon="9.781492570824968"><ele>341.0</ele><time>2026-04-04T12:19:12.983Z</time></trkpt><trkpt lat="46.167294958185465" lon="9.78158048001727"><ele>343.25</ele><time>2026-04-04T12:19:13.983Z</time></trkpt><trkpt lat="46.16738765882774" lon="9.781637453054147"><ele>345.5</ele><time>2026-04-04T12:19:14.983Z</time></trkpt><trkpt lat="46.16750827863471" lon="9.781626440231054"><ele>347.75</ele><time>2026-04-04T12:19:15.983Z</time></trkpt><trkpt lat="46.16763989817166" lon="9.78161396940757"><ele>350.0</ele><time>2026-04-04T12:19:16.983Z</time></trkpt><trkpt lat="46.167787906243525" lon="9.781622992008929"><ele>350.0</ele><time>2026-04-04T12:19:17.983Z</time></trkpt><trkpt lat="46.16791809627199" lon="9.781667440133296"><ele>350.0</ele><time>2026-04-04T12:19:18.983Z</time></trkpt><trkpt lat="46.16803907274586" lon="9.781747508078677"><ele>350.0</ele><time>2026-04-04T12:19:19.983Z</time></trkpt><trkpt lat="46.16811631772422" lon="9.781838071707176"><ele>350.0</ele><time>2026-04-04T12:19:20.983Z</time></trkpt><trkpt lat="46.16816650191716" lon="9.781951331720032"><ele>353.6</ele><time>2026-04-04T12:19:21.983Z</time></trkpt><trkpt lat="46.16822121766023" lon="9.782084279386687"><ele>357.2</ele><time>2026-04-04T12:19:22.983Z</time></trkpt><trkpt lat="46.1682756655809" lon="9.782234986429899"><ele>360.79999999999995</ele><time>2026-04-04T12:19:23.983Z</time></trkpt><trkpt lat="46.16832199643189" lon="9.782352716777936"><ele>364.4</ele><time>2026-04-04T12:19:24.983Z</time></trkpt><trkpt lat="46.16840257052163" lon="9.782438998116469"><ele>368.0</ele><time>2026-04-04T12:19:25.983Z</time></trkpt><trkpt lat="46.16846979069167" lon="9.782499524806303"><ele>368.0</ele><time>2026-04-04T12:19:26.983Z</time></trkpt><trkpt lat="46.16854633762742" lon="9.782516368089157"><ele>368.0</ele><time>2026-04-04T12:19:27.983Z</time></trkpt><trkpt lat="46.168630116112624" lon="9.782491324915261"><ele>368.0</ele><time>2026-04-04T12:19:28.983Z</time></trkpt><trkpt lat="46.16875174789951" lon="9.782421325502872"><ele>368.0</ele><time>2026-04-04T12:19:29.983Z</time></trkpt><trkpt lat="46.16886513778711" lon="9.782338342690279"><ele>368.0</ele><time>2026-04-04T12:19:30.983Z</time></trkpt><trkpt lat="46.168974293499254" lon="9.782260566664238"><ele>370.33333333333337</ele><time>2026-04-04T12:19:31.982Z</time></trkpt><trkpt lat="46.169075598055606" lon="9.782246518917193"><ele>372.6666666666667</ele><time>2026-04-04T12:19:32.982Z</time></trkpt><trkpt lat="46.1691764036591" lon="9.782248041590641"><ele>375.0</ele><time>2026-04-04T12:19:33.982Z</time></trkpt><trkpt lat="46.16927253169894" lon="9.782269319963628"><ele>377.3333333333333</ele><time>2026-04-04T12:19:34.982Z</time></trkpt><trkpt lat="46.16932656957603" lon="9.782328503840931"><ele>379.66666666666663</ele><time>2026-04-04T12:19:35.982Z</time></trkpt><trkpt lat="46.169383548139706" lon="9.782400089276877"><ele>382.0</ele><time>2026-04-04T12:19:36.982Z</time></trkpt><trkpt lat="46.16942350407474" lon="9.782489419875152"><ele>385.0</ele><time>2026-04-04T12:19:37.982Z</time></trkpt><trkpt lat="46.16946719243661" lon="9.782683530163702"><ele>388.0</ele><time>2026-04-04T12:19:39.982Z</time></trkpt><trkpt lat="46.169527277232504" lon="9.7827111792499"><ele>391.0</ele><time>2026-04-04T12:19:41.982Z</time></trkpt><trkpt lat="46.16955472002856" lon="9.782815261508091"><ele>394.0</ele><time>2026-04-04T12:19:45.982Z</time></trkpt><trkpt lat="46.169531708107336" lon="9.782906591109704"><ele>397.00000000000006</ele><time>2026-04-04T12:19:49.982Z</time></trkpt><trkpt lat="46.16960941241525" lon="9.782994700610613"><ele>400.0</ele><time>2026-04-04T12:19:51.982Z</time></trkpt><trkpt lat="46.16968672010771" lon="9.783056719874068"><ele>400.0</ele><time>2026-04-04T12:19:52.982Z</time></trkpt><trkpt lat="46.169780080048646" lon="9.783163552656292"><ele>400.0</ele><time>2026-04-04T12:19:53.982Z</time></trkpt><trkpt lat="46.16988478688035" lon="9.783256335073343"><ele>400.0</ele><time>2026-04-04T12:19:54.982Z</time></trkpt><trkpt lat="46.1699967617886" lon="9.78334305756617"><ele>400.0</ele><time>2026-04-04T12:19:55.982Z</time></trkpt><trkpt lat="46.17010992559464" lon="9.7834205412168"><ele>400.8</ele><time>2026-04-04T12:19:56.982Z</time></trkpt><trkpt lat="46.170222560340264" lon="9.783477995075076"><ele>401.6</ele><time>2026-04-04T12:19:57.982Z</time></trkpt><trkpt lat="46.17031773012291" lon="9.783493758126495"><ele>402.4</ele><time>2026-04-04T12:19:58.982Z</time></trkpt><trkpt lat="46.17038330571791" lon="9.783455580731129"><ele>403.2</ele><time>2026-04-04T12:19:59.982Z</time></trkpt><trkpt lat="46.17047306267693" lon="9.783398269306744"><ele>404.0</ele><time>2026-04-04T12:20:00.982Z</time></trkpt><trkpt lat="46.17054944287874" lon="9.783330754801286"><ele>404.0</ele><time>2026-04-04T12:20:01.982Z</time></trkpt><trkpt lat="46.17061928334799" lon="9.783311019916663"><ele>404.0</ele><time>2026-04-04T12:20:02.982Z</time></trkpt><trkpt lat="46.17067998066048" lon="9.78333710109627"><ele>404.0</ele><time>2026-04-04T12:20:03.982Z</time></trkpt><trkpt lat="46.17076799762858" lon="9.783423910782657"><ele>404.0</ele><time>2026-04-04T12:20:04.982Z</time></trkpt><trkpt lat="46.170884037038014" lon="9.783483599113728"><ele>404.0</ele><time>2026-04-04T12:20:05.982Z</time></trkpt><trkpt lat="46.17099164142654" lon="9.78351104336187"><ele>410.3333333333333</ele><time>2026-04-04T12:20:06.982Z</time></trkpt><trkpt lat="46.17107999575583" lon="9.78354779594742"><ele>416.66666666666663</ele><time>2026-04-04T12:20:07.982Z</time></trkpt><trkpt lat="46.17113970922912" lon="9.783590795723772"><ele>423.0</ele><time>2026-04-04T12:20:08.982Z</time></trkpt><trkpt lat="46.17122820430648" lon="9.783658519484309"><ele>429.33333333333337</ele><time>2026-04-04T12:20:09.982Z</time></trkpt><trkpt lat="46.17130211047941" lon="9.783736837558733"><ele>435.6666666666667</ele><time>2026-04-04T12:20:10.982Z</time></trkpt><trkpt lat="46.17138307416258" lon="9.783809771001334"><ele>442.0</ele><time>2026-04-04T12:20:11.982Z</time></trkpt><trkpt lat="46.17147673249349" lon="9.783895847734414"><ele>442.20000000000005</ele><time>2026-04-04T12:20:12.982Z</time></trkpt><trkpt lat="46.17156185160256" lon="9.783962308810285"><ele>442.40000000000003</ele><time>2026-04-04T12:20:13.982Z</time></trkpt><trkpt lat="46.171651623658214" lon="9.784019792510104"><ele>442.59999999999997</ele><time>2026-04-04T12:20:14.982Z</time></trkpt><trkpt lat="46.17175324601241" lon="9.78404779771373"><ele>442.79999999999995</ele><time>2026-04-04T12:20:15.982Z</time></trkpt><trkpt lat="46.17186521379834" lon="9.784078882265659"><ele>443.0</ele><time>2026-04-04T12:20:16.982Z</time></trkpt><trkpt lat="46.17196489320161" lon="9.784111478849816"><ele>443.0</ele><time>2026-04-04T12:20:17.982Z</time></trkpt><trkpt lat="46.172044721941" lon="9.784174187948985"><ele>442.99999999999994</ele><time>2026-04-04T12:20:18.982Z</time></trkpt><trkpt lat="46.17212455029142" lon="9.784225964403875"><ele>442.99999999999994</ele><time>2026-04-04T12:20:19.982Z</time></trkpt><trkpt lat="46.172214917188874" lon="9.784276875420062"><ele>443.0</ele><time>2026-04-04T12:20:20.982Z</time></trkpt><trkpt lat="46.17230229284781" lon="9.784314787091303"><ele>443.0</ele><time>2026-04-04T12:20:21.982Z</time></trkpt><trkpt lat="46.17240310046725" lon="9.78434387523653"><ele>448.16666666666663</ele><time>2026-04-04T12:20:22.982Z</time></trkpt><trkpt lat="46.17248906104326" lon="9.784382311136955"><ele>453.3333333333333</ele><time>2026-04-04T12:20:23.982Z</time></trkpt><trkpt lat="46.1725557378117" lon="9.78442543856977"><ele>458.5</ele><time>2026-04-04T12:20:24.982Z</time></trkpt><trkpt lat="46.17258382365087" lon="9.784535818993488"><ele>463.66666666666663</ele><time>2026-04-04T12:20:26.982Z</time></trkpt><trkpt lat="46.172594682421646" lon="9.784648761363941"><ele>468.8333333333333</ele><time>2026-04-04T12:20:27.982Z</time></trkpt><trkpt lat="46.17262384300576" lon="9.78475764845283"><ele>474.0</ele><time>2026-04-04T12:20:28.982Z</time></trkpt><trkpt lat="46.17268098083638" lon="9.78484191618718"><ele>473.99999999999994</ele><time>2026-04-04T12:20:29.982Z</time></trkpt><trkpt lat="46.172739679565666" lon="9.784904499745723"><ele>474.0</ele><time>2026-04-04T12:20:30.982Z</time></trkpt><trkpt lat="46.17280201162393" lon="9.784949148989101"><ele>473.99999999999994</ele><time>2026-04-04T12:20:31.982Z</time></trkpt><trkpt lat="46.1728648328431" lon="9.784978176214159"><ele>473.99999999999994</ele><time>2026-04-04T12:20:33.982Z</time></trkpt><trkpt lat="46.1729514363065" lon="9.784985998158062"><ele>474.0</ele><time>2026-04-04T12:20:36.982Z</time></trkpt><trkpt lat="46.17293343392078" lon="9.785091612998446"><ele>473.99999999999994</ele><time>2026-04-04T12:20:44.982Z</time></trkpt><trkpt lat="46.172996481680386" lon="9.785159938184046"><ele>473.99999999999994</ele><time>2026-04-04T12:20:48.982Z</time></trkpt><trkpt lat="46.17313033666872" lon="9.785231282847223"><ele>478.6</ele><time>2026-04-04T12:20:50.982Z</time></trkpt><trkpt lat="46.17324200647222" lon="9.7853053948133"><ele>483.2</ele><time>2026-04-04T12:20:51.983Z</time></trkpt><trkpt lat="46.17336141916834" lon="9.785340312969804"><ele>487.80000000000007</ele><time>2026-04-04T12:20:52.982Z</time></trkpt><trkpt lat="46.173471488840576" lon="9.78535671355432"><ele>492.40000000000003</ele><time>2026-04-04T12:20:53.982Z</time></trkpt><trkpt lat="46.17354908205764" lon="9.785379876826926"><ele>497.0</ele><time>2026-04-04T12:20:54.982Z</time></trkpt><trkpt lat="46.17357632940483" lon="9.785503406852161"><ele>497.0</ele><time>2026-04-04T12:20:57.982Z</time></trkpt><trkpt lat="46.17351340881801" lon="9.785640959128969"><ele>497.00000000000006</ele><time>2026-04-04T12:20:59.982Z</time></trkpt><trkpt lat="46.173471412065226" lon="9.785712362245636"><ele>497.00000000000006</ele><time>2026-04-04T12:21:00.983Z</time></trkpt><trkpt lat="46.17338239859063" lon="9.785845941927285"><ele>497.0</ele><time>2026-04-04T12:21:02.982Z</time></trkpt><trkpt lat="46.173295391343984" lon="9.78585896774104"><ele>497.0</ele><time>2026-04-04T12:21:04.982Z</time></trkpt><trkpt lat="46.173178209365716" lon="9.785788788729567"><ele>498.20000000000005</ele><time>2026-04-04T12:21:05.982Z</time></trkpt><trkpt lat="46.173035764685615" lon="9.785758119352534"><ele>499.40000000000003</ele><time>2026-04-04T12:21:06.982Z</time></trkpt><trkpt lat="46.172909067677" lon="9.785768217141404"><ele>500.59999999999997</ele><time>2026-04-04T12:21:07.982Z</time></trkpt><trkpt lat="46.1728175127889" lon="9.785789730242191"><ele>501.79999999999995</ele><time>2026-04-04T12:21:08.982Z</time></trkpt><trkpt lat="46.172740106812014" lon="9.785814823535292"><ele>503.0</ele><time>2026-04-04T12:21:09.982Z</time></trkpt><trkpt lat="46.17267110660945" lon="9.78588941613603"><ele>502.99999999999994</ele><time>2026-04-04T12:21:11.982Z</time></trkpt><trkpt lat="46.17265126215868" lon="9.786005519521867"><ele>503.0</ele><time>2026-04-04T12:21:13.982Z</time></trkpt><trkpt lat="46.172600737003854" lon="9.786098941996423"><ele>503.0</ele><time>2026-04-04T12:21:15.982Z</time></trkpt><trkpt lat="46.1725210697355" lon="9.786194157799804"><ele>503.0</ele><time>2026-04-04T12:21:17.982Z</time></trkpt><trkpt lat="46.172462232035656" lon="9.786235727496567"><ele>502.99999999999994</ele><time>2026-04-04T12:21:19.982Z</time></trkpt><trkpt lat="46.172399555474996" lon="9.786247779093525"><ele>503.0</ele><time>2026-04-04T12:21:20.982Z</time></trkpt><trkpt lat="46.17231470775557" lon="9.786288686509407"><ele>505.25</ele><time>2026-04-04T12:21:22.982Z</time></trkpt><trkpt lat="46.17231167248696" lon="9.786460619813708"><ele>507.5</ele><time>2026-04-04T12:21:25.982Z</time></trkpt><trkpt lat="46.17235768982724" lon="9.786580159622842"><ele>509.75</ele><time>2026-04-04T12:21:26.982Z</time></trkpt><trkpt lat="46.17242607936406" lon="9.786709695661408"><ele>512.0</ele><time>2026-04-04T12:21:27.982Z</time></trkpt><trkpt lat="46.17249846626226" lon="9.786876029270429"><ele>516.6</ele><time>2026-04-04T12:21:28.982Z</time></trkpt><trkpt lat="46.17256191173531" lon="9.787058446871406"><ele>521.2</ele><time>2026-04-04T12:21:29.982Z</time></trkpt><trkpt lat="46.17261263311996" lon="9.787194329418872"><ele>525.8</ele><time>2026-04-04T12:21:30.982Z</time></trkpt><trkpt lat="46.17264566711455" lon="9.787292207351756"><ele>530.4</ele><time>2026-04-04T12:21:31.982Z</time></trkpt><trkpt lat="46.172675213341925" lon="9.787431425324709"><ele>535.0</ele><time>2026-04-04T12:21:33.982Z</time></trkpt><trkpt lat="46.17274654240272" lon="9.787545551183774"><ele>535.0</ele><time>2026-04-04T12:21:35.982Z</time></trkpt><trkpt lat="46.17283744623023" lon="9.787675639392077"><ele>535.0</ele><time>2026-04-04T12:21:36.982Z</time></trkpt><trkpt lat="46.17292537122886" lon="9.787841383120545"><ele>535.0</ele><time>2026-04-04T12:21:37.982Z</time></trkpt><trkpt lat="46.173021814270484" lon="9.787961771092778"><ele>535.0</ele><time>2026-04-04T12:21:38.982Z</time></trkpt><trkpt lat="46.17310666750764" lon="9.788075136210628"><ele>532.2</ele><time>2026-04-04T12:21:39.982Z</time></trkpt><trkpt lat="46.173192219855125" lon="9.788149438073587"><ele>529.4</ele><time>2026-04-04T12:21:40.982Z</time></trkpt><trkpt lat="46.17327812063819" lon="9.788175744050045"><ele>526.6</ele><time>2026-04-04T12:21:41.982Z</time></trkpt><trkpt lat="46.17318526366507" lon="9.788235668677684"><ele>523.8</ele><time>2026-04-04T12:21:44.982Z</time></trkpt><trkpt lat="46.173117192598454" lon="9.788231009833805"><ele>521.0</ele><time>2026-04-04T12:21:45.982Z</time></trkpt><trkpt lat="46.173006105137965" lon="9.788215819588928"><ele>521.0</ele><time>2026-04-04T12:21:46.982Z</time></trkpt><trkpt lat="46.17289935215564" lon="9.788218698900371"><ele>521.0</ele><time>2026-04-04T12:21:47.982Z</time></trkpt><trkpt lat="46.172812490680016" lon="9.788268762348189"><ele>521.0</ele><time>2026-04-04T12:21:48.982Z</time></trkpt><trkpt lat="46.17272784152274" lon="9.788361327134087"><ele>521.0</ele><time>2026-04-04T12:21:49.982Z</time></trkpt><trkpt lat="46.17263906740358" lon="9.788452237985982"><ele>521.0</ele><time>2026-04-04T12:21:50.982Z</time></trkpt><trkpt lat="46.17258562953596" lon="9.788509812005135"><ele>513.0</ele><time>2026-04-04T12:21:51.982Z</time></trkpt><trkpt lat="46.17248947438286" lon="9.788581537606076"><ele>505.0</ele><time>2026-04-04T12:21:53.982Z</time></trkpt><trkpt lat="46.17241864584879" lon="9.788643244696102"><ele>497.0</ele><time>2026-04-04T12:21:54.982Z</time></trkpt><trkpt lat="46.17231936178609" lon="9.788686392334116"><ele>489.0</ele><time>2026-04-04T12:21:55.982Z</time></trkpt><trkpt lat="46.172224177105555" lon="9.788747113250045"><ele>481.0</ele><time>2026-04-04T12:21:56.982Z</time></trkpt><trkpt lat="46.17212503015908" lon="9.788795436841509"><ele>481.0</ele><time>2026-04-04T12:21:57.982Z</time></trkpt><trkpt lat="46.172035265589976" lon="9.788809981058696"><ele>481.0</ele><time>2026-04-04T12:21:58.982Z</time></trkpt><trkpt lat="46.17193151435471" lon="9.788834719335027"><ele>481.0</ele><time>2026-04-04T12:21:59.982Z</time></trkpt><trkpt lat="46.17184499696549" lon="9.788857285073892"><ele>481.0</ele><time>2026-04-04T12:22:00.982Z</time></trkpt><trkpt lat="46.171766996633266" lon="9.788875187609921"><ele>481.0</ele><time>2026-04-04T12:22:01.982Z</time></trkpt><trkpt lat="46.17167196527342" lon="9.788944833753854"><ele>481.0</ele><time>2026-04-04T12:22:02.982Z</time></trkpt><trkpt lat="46.171593980211476" lon="9.788967146961044"><ele>481.0</ele><time>2026-04-04T12:22:03.982Z</time></trkpt><trkpt lat="46.17153055143508" lon="9.78900423922749"><ele>481.0</ele><time>2026-04-04T12:22:04.981Z</time></trkpt><trkpt lat="46.17143451231302" lon="9.789147306028095"><ele>481.0</ele><time>2026-04-04T12:22:06.981Z</time></trkpt><trkpt lat="46.17137776276362" lon="9.78924790357955"><ele>481.0</ele><time>2026-04-04T12:22:07.981Z</time></trkpt><trkpt lat="46.171312414768806" lon="9.78931217086102"><ele>474.1666666666667</ele><time>2026-04-04T12:22:08.981Z</time></trkpt><trkpt lat="46.171238550027915" lon="9.78934587547383"><ele>467.33333333333337</ele><time>2026-04-04T12:22:09.981Z</time></trkpt><trkpt lat="46.17116810820405" lon="9.789366187228476"><ele>460.5</ele><time>2026-04-04T12:22:10.981Z</time></trkpt><trkpt lat="46.171099867558105" lon="9.78938337701373"><ele>453.66666666666663</ele><time>2026-04-04T12:22:11.981Z</time></trkpt><trkpt lat="46.17100063358066" lon="9.789365863582994"><ele>446.8333333333333</ele><time>2026-04-04T12:22:13.981Z</time></trkpt><trkpt lat="46.17100642188427" lon="9.78949632559179"><ele>440.0</ele><time>2026-04-04T12:22:16.981Z</time></trkpt><trkpt lat="46.171044403678216" lon="9.78962029025407"><ele>440.0</ele><time>2026-04-04T12:22:18.981Z</time></trkpt><trkpt lat="46.17120608559928" lon="9.789657878049008"><ele>440.0</ele><time>2026-04-04T12:22:20.981Z</time></trkpt><trkpt lat="46.17135680034397" lon="9.7896187450641"><ele>440.0</ele><time>2026-04-04T12:22:21.981Z</time></trkpt><trkpt lat="46.17150828089427" lon="9.789582040578775"><ele>440.66666666666663</ele><time>2026-04-04T12:22:22.981Z</time></trkpt><trkpt lat="46.17167286051913" lon="9.789559192962411"><ele>441.33333333333337</ele><time>2026-04-04T12:22:23.981Z</time></trkpt><trkpt lat="46.17185306042511" lon="9.78952496276748"><ele>442.0</ele><time>2026-04-04T12:22:24.981Z</time></trkpt><trkpt lat="46.17203397162951" lon="9.789499536858386"><ele>442.0</ele><time>2026-04-04T12:22:25.981Z</time></trkpt><trkpt lat="46.17221044368266" lon="9.789475407020593"><ele>442.0</ele><time>2026-04-04T12:22:26.981Z</time></trkpt><trkpt lat="46.172381041901964" lon="9.789463917480747"><ele>442.0</ele><time>2026-04-04T12:22:27.981Z</time></trkpt><trkpt lat="46.17254174566071" lon="9.789436707282803"><ele>443.75</ele><time>2026-04-04T12:22:28.981Z</time></trkpt><trkpt lat="46.17268758902694" lon="9.789420359528773"><ele>445.5</ele><time>2026-04-04T12:22:29.981Z</time></trkpt><trkpt lat="46.172827668627356" lon="9.789403882237695"><ele>447.25</ele><time>2026-04-04T12:22:30.981Z</time></trkpt><trkpt lat="46.17295967737263" lon="9.789409505334206"><ele>449.0</ele><time>2026-04-04T12:22:31.981Z</time></trkpt><trkpt lat="46.17308691326857" lon="9.789459573800663"><ele>452.0</ele><time>2026-04-04T12:22:32.981Z</time></trkpt><trkpt lat="46.17320539275846" lon="9.78955474702098"><ele>455.0</ele><time>2026-04-04T12:22:33.981Z</time></trkpt><trkpt lat="46.17329122444668" lon="9.789708490535691"><ele>458.0</ele><time>2026-04-04T12:22:34.981Z</time></trkpt><trkpt lat="46.17336179926477" lon="9.789876309051294"><ele>461.0</ele><time>2026-04-04T12:22:35.981Z</time></trkpt><trkpt lat="46.173425955298406" lon="9.790066033692872"><ele>459.66666666666663</ele><time>2026-04-04T12:22:36.981Z</time></trkpt><trkpt lat="46.1734802100271" lon="9.790271389298516"><ele>458.33333333333337</ele><time>2026-04-04T12:22:37.981Z</time></trkpt><trkpt lat="46.17349863892159" lon="9.79051504064736"><ele>457.0</ele><time>2026-04-04T12:22:38.981Z</time></trkpt><trkpt lat="46.17352864759728" lon="9.790762882426188"><ele>456.6666666666667</ele><time>2026-04-04T12:22:39.981Z</time></trkpt><trkpt lat="46.1735599525391" lon="9.791023121497103"><ele>456.33333333333337</ele><time>2026-04-04T12:22:40.981Z</time></trkpt><trkpt lat="46.17360126015502" lon="9.791283079607254"><ele>456.0</ele><time>2026-04-04T12:22:41.981Z</time></trkpt><trkpt lat="46.17363526639413" lon="9.791546102172115"><ele>456.0</ele><time>2026-04-04T12:22:42.981Z</time></trkpt><trkpt lat="46.17367442533938" lon="9.791779983745364"><ele>456.0</ele><time>2026-04-04T12:22:43.981Z</time></trkpt><trkpt lat="46.17370213933427" lon="9.791983678356967"><ele>456.0</ele><time>2026-04-04T12:22:44.981Z</time></trkpt><trkpt lat="46.173735583161225" lon="9.792171671484777"><ele>456.0</ele><time>2026-04-04T12:22:45.981Z</time></trkpt><trkpt lat="46.173772658415885" lon="9.79233836494856"><ele>457.0</ele><time>2026-04-04T12:22:46.981Z</time></trkpt><trkpt lat="46.17380128592333" lon="9.792499608446121"><ele>458.0</ele><time>2026-04-04T12:22:47.981Z</time></trkpt><trkpt lat="46.173850855546945" lon="9.792672458571325"><ele>459.0</ele><time>2026-04-04T12:22:48.981Z</time></trkpt><trkpt lat="46.173921706885196" lon="9.792832729633119"><ele>460.0</ele><time>2026-04-04T12:22:49.981Z</time></trkpt><trkpt lat="46.173987387425" lon="9.792995957085404"><ele>462.8</ele><time>2026-04-04T12:22:50.981Z</time></trkpt><trkpt lat="46.17403931943805" lon="9.793170040205998"><ele>465.6</ele><time>2026-04-04T12:22:51.981Z</time></trkpt><trkpt lat="46.174056778011014" lon="9.793337002968682"><ele>468.4</ele><time>2026-04-04T12:22:52.981Z</time></trkpt><trkpt lat="46.174058620931554" lon="9.793471194863418"><ele>471.2</ele><time>2026-04-04T12:22:53.981Z</time></trkpt><trkpt lat="46.17407512272381" lon="9.79356484890124"><ele>474.0</ele><time>2026-04-04T12:22:54.982Z</time></trkpt><trkpt lat="46.17413958710914" lon="9.793685307596446"><ele>474.0</ele><time>2026-04-04T12:22:56.982Z</time></trkpt><trkpt lat="46.174194152247" lon="9.793832201604413"><ele>474.0</ele><time>2026-04-04T12:22:58.982Z</time></trkpt><trkpt lat="46.17420848903096" lon="9.793931086347904"><ele>474.0</ele><time>2026-04-04T12:22:59.982Z</time></trkpt><trkpt lat="46.17423131141061" lon="9.794041180173226"><ele>474.0</ele><time>2026-04-04T12:23:00.981Z</time></trkpt><trkpt lat="46.17429777612622" lon="9.794164400360081"><ele>474.0</ele><time>2026-04-04T12:23:01.981Z</time></trkpt><trkpt lat="46.17437879307635" lon="9.79428109868531"><ele>477.0</ele><time>2026-04-04T12:23:02.981Z</time></trkpt><trkpt lat="46.174460133802896" lon="9.794392645118402"><ele>480.0</ele><time>2026-04-04T12:23:03.981Z</time></trkpt><trkpt lat="46.17450149014679" lon="9.794494247110473"><ele>483.0</ele><time>2026-04-04T12:23:04.981Z</time></trkpt><trkpt lat="46.17446595521416" lon="9.79461086647191"><ele>486.0</ele><time>2026-04-04T12:23:05.981Z</time></trkpt><trkpt lat="46.174395141472296" lon="9.794706360821543"><ele>489.0</ele><time>2026-04-04T12:23:06.981Z</time></trkpt><trkpt lat="46.17429975621215" lon="9.794767910070284"><ele>489.0</ele><time>2026-04-04T12:23:07.981Z</time></trkpt><trkpt lat="46.17417506914237" lon="9.794831030874672"><ele>489.0</ele><time>2026-04-04T12:23:08.981Z</time></trkpt><trkpt lat="46.17402206878145" lon="9.794914569775512"><ele>489.0</ele><time>2026-04-04T12:23:09.981Z</time></trkpt><trkpt lat="46.17385090752372" lon="9.794945675892642"><ele>490.5</ele><time>2026-04-04T12:23:10.981Z</time></trkpt><trkpt lat="46.17371776986264" lon="9.795003729969684"><ele>492.0</ele><time>2026-04-04T12:23:11.981Z</time></trkpt><trkpt lat="46.173595670130354" lon="9.795098651568484"><ele>493.5</ele><time>2026-04-04T12:23:12.981Z</time></trkpt><trkpt lat="46.1734932844899" lon="9.795244342138432"><ele>495.0</ele><time>2026-04-04T12:23:13.981Z</time></trkpt><trkpt lat="46.17335565161203" lon="9.795421521689239"><ele>495.0</ele><time>2026-04-04T12:23:14.981Z</time></trkpt><trkpt lat="46.17323475670747" lon="9.79555211857282"><ele>495.0</ele><time>2026-04-04T12:23:15.981Z</time></trkpt><trkpt lat="46.17312897787428" lon="9.795629666489418"><ele>495.0</ele><time>2026-04-04T12:23:16.981Z</time></trkpt><trkpt lat="46.17302247832105" lon="9.79565808236612"><ele>495.0</ele><time>2026-04-04T12:23:17.981Z</time></trkpt><trkpt lat="46.17292580753104" lon="9.795687556926145"><ele>489.25</ele><time>2026-04-04T12:23:18.981Z</time></trkpt><trkpt lat="46.172863495246055" lon="9.795727277462252"><ele>483.5</ele><time>2026-04-04T12:23:19.981Z</time></trkpt><trkpt lat="46.17284854609789" lon="9.795828789837213"><ele>477.75</ele><time>2026-04-04T12:23:20.981Z</time></trkpt><trkpt lat="46.1728493846909" lon="9.796038037851341"><ele>472.0</ele><time>2026-04-04T12:23:21.981Z</time></trkpt><trkpt lat="46.17288512870319" lon="9.796282005269909"><ele>472.0</ele><time>2026-04-04T12:23:22.981Z</time></trkpt><trkpt lat="46.17290615121726" lon="9.796533718468707"><ele>472.0</ele><time>2026-04-04T12:23:23.981Z</time></trkpt><trkpt lat="46.17292180300656" lon="9.796759747133617"><ele>472.0</ele><time>2026-04-04T12:23:24.981Z</time></trkpt><trkpt lat="46.17292861908982" lon="9.796955616931285"><ele>474.75</ele><time>2026-04-04T12:23:25.981Z</time></trkpt><trkpt lat="46.172927671791484" lon="9.797115156564118"><ele>477.5</ele><time>2026-04-04T12:23:26.981Z</time></trkpt><trkpt lat="46.1728757147778" lon="9.797227850310476"><ele>480.25</ele><time>2026-04-04T12:23:27.981Z</time></trkpt><trkpt lat="46.17277043286276" lon="9.79729608871702"><ele>483.0</ele><time>2026-04-04T12:23:28.981Z</time></trkpt><trkpt lat="46.17263214214336" lon="9.797335456685127"><ele>483.0</ele><time>2026-04-04T12:23:29.981Z</time></trkpt><trkpt lat="46.1724958343063" lon="9.797398120498848"><ele>482.99999999999994</ele><time>2026-04-04T12:23:30.981Z</time></trkpt><trkpt lat="46.17239929812912" lon="9.797475435911037"><ele>482.99999999999994</ele><time>2026-04-04T12:23:31.981Z</time></trkpt><trkpt lat="46.172324819247756" lon="9.797557332747784"><ele>483.0</ele><time>2026-04-04T12:23:32.981Z</time></trkpt><trkpt lat="46.172276279453634" lon="9.797638776372311"><ele>483.0</ele><time>2026-04-04T12:23:33.981Z</time></trkpt><trkpt lat="46.17226233621519" lon="9.797761728562314"><ele>481.4</ele><time>2026-04-04T12:23:34.981Z</time></trkpt><trkpt lat="46.17227915320675" lon="9.79791037594361"><ele>479.79999999999995</ele><time>2026-04-04T12:23:35.981Z</time></trkpt><trkpt lat="46.172314687563635" lon="9.79805984941014"><ele>478.2</ele><time>2026-04-04T12:23:36.981Z</time></trkpt><trkpt lat="46.172351809693104" lon="9.79818710258861"><ele>476.6</ele><time>2026-04-04T12:23:37.981Z</time></trkpt><trkpt lat="46.172408324135446" lon="9.798303975631018"><ele>475.0</ele><time>2026-04-04T12:23:38.981Z</time></trkpt><trkpt lat="46.1724964855278" lon="9.798409437363361"><ele>475.0</ele><time>2026-04-04T12:23:39.981Z</time></trkpt><trkpt lat="46.17260272358683" lon="9.79849273687809"><ele>475.0</ele><time>2026-04-04T12:23:40.981Z</time></trkpt><trkpt lat="46.172719239277576" lon="9.798545726900986"><ele>475.0</ele><time>2026-04-04T12:23:41.981Z</time></trkpt><trkpt lat="46.17284592346156" lon="9.79856644897292"><ele>475.0</ele><time>2026-04-04T12:23:42.981Z</time></trkpt><trkpt lat="46.17297370770764" lon="9.798562930699873"><ele>474.0</ele><time>2026-04-04T12:23:43.981Z</time></trkpt><trkpt lat="46.17310888718299" lon="9.798518686457346"><ele>473.0</ele><time>2026-04-04T12:23:44.981Z</time></trkpt><trkpt lat="46.1732246762277" lon="9.79850828648083"><ele>472.0</ele><time>2026-04-04T12:23:45.981Z</time></trkpt><trkpt lat="46.173341578270026" lon="9.798530206458647"><ele>471.0</ele><time>2026-04-04T12:23:46.981Z</time></trkpt><trkpt lat="46.173448598702244" lon="9.79857636203829"><ele>471.0</ele><time>2026-04-04T12:23:47.981Z</time></trkpt><trkpt lat="46.17355094637837" lon="9.79863003505463"><ele>471.0</ele><time>2026-04-04T12:23:48.981Z</time></trkpt><trkpt lat="46.17365644356349" lon="9.798677342014837"><ele>471.0</ele><time>2026-04-04T12:23:49.981Z</time></trkpt><trkpt lat="46.1737449598591" lon="9.798747327672169"><ele>471.0</ele><time>2026-04-04T12:23:50.981Z</time></trkpt><trkpt lat="46.17383646479403" lon="9.798810348968132"><ele>471.0</ele><time>2026-04-04T12:23:51.981Z</time></trkpt><trkpt lat="46.17392125890788" lon="9.798886283762712"><ele>471.0</ele><time>2026-04-04T12:23:52.981Z</time></trkpt><trkpt lat="46.17399150853542" lon="9.798940897883107"><ele>471.0</ele><time>2026-04-04T12:23:53.981Z</time></trkpt><trkpt lat="46.17409948350279" lon="9.798986350221488"><ele>471.0</ele><time>2026-04-04T12:23:55.981Z</time></trkpt><trkpt lat="46.17417205682113" lon="9.798981581714724"><ele>471.0</ele><time>2026-04-04T12:23:56.981Z</time></trkpt><trkpt lat="46.17424185086211" lon="9.798946425257613"><ele>471.0</ele><time>2026-04-04T12:23:57.981Z</time></trkpt><trkpt lat="46.17431997333332" lon="9.798876812113829"><ele>471.0</ele><time>2026-04-04T12:23:58.981Z</time></trkpt><trkpt lat="46.1744069297738" lon="9.798814153957194"><ele>475.1666666666667</ele><time>2026-04-04T12:23:59.981Z</time></trkpt><trkpt lat="46.17448360573803" lon="9.798773518053206"><ele>479.33333333333337</ele><time>2026-04-04T12:24:00.981Z</time></trkpt><trkpt lat="46.17456369337941" lon="9.798756442221464"><ele>483.5</ele><time>2026-04-04T12:24:01.981Z</time></trkpt><trkpt lat="46.174650898253304" lon="9.79875548118756"><ele>487.6666666666667</ele><time>2026-04-04T12:24:02.981Z</time></trkpt><trkpt lat="46.17471773145041" lon="9.798732777837506"><ele>491.83333333333337</ele><time>2026-04-04T12:24:03.981Z</time></trkpt><trkpt lat="46.17478580276079" lon="9.798618787945054"><ele>496.0</ele><time>2026-04-04T12:24:05.981Z</time></trkpt><trkpt lat="46.174808356169564" lon="9.798490527528584"><ele>498.4</ele><time>2026-04-04T12:24:06.981Z</time></trkpt><trkpt lat="46.174834822853875" lon="9.798386643262829"><ele>500.8</ele><time>2026-04-04T12:24:07.981Z</time></trkpt><trkpt lat="46.17484795274432" lon="9.798236889458181"><ele>503.19999999999993</ele><time>2026-04-04T12:24:09.981Z</time></trkpt><trkpt lat="46.174772522806926" lon="9.79813593175576"><ele>505.59999999999997</ele><time>2026-04-04T12:24:11.981Z</time></trkpt><trkpt lat="46.174726454455644" lon="9.798054686209309"><ele>508.0</ele><time>2026-04-04T12:24:12.981Z</time></trkpt><trkpt lat="46.174672190902484" lon="9.797915436371985"><ele>508.00000000000006</ele><time>2026-04-04T12:24:14.98Z</time></trkpt><trkpt lat="46.174712620097104" lon="9.797832461339222"><ele>508.0</ele><time>2026-04-04T12:24:16.98Z</time></trkpt><trkpt lat="46.17482343143852" lon="9.797826903993684"><ele>508.0</ele><time>2026-04-04T12:24:18.98Z</time></trkpt><trkpt lat="46.17488328387115" lon="9.797781526847391"><ele>508.0</ele><time>2026-04-04T12:24:22.98Z</time></trkpt><trkpt lat="46.174933302899625" lon="9.797721084036809"><ele>508.00000000000006</ele><time>2026-04-04T12:24:25.98Z</time></trkpt><trkpt lat="46.17495167429924" lon="9.79761287874869"><ele>508.0</ele><time>2026-04-04T12:24:40.98Z</time></trkpt><trkpt lat="46.17497572247468" lon="9.79751882774104"><ele>517.0</ele><time>2026-04-04T12:24:43.98Z</time></trkpt><trkpt lat="46.174998191009486" lon="9.797433390840272"><ele>526.0</ele><time>2026-04-04T12:24:46.98Z</time></trkpt><trkpt lat="46.17502320864468" lon="9.797305179133309"><ele>535.0</ele><time>2026-04-04T12:24:48.98Z</time></trkpt><trkpt lat="46.175021788475014" lon="9.797206281550206"><ele>544.0</ele><time>2026-04-04T12:24:49.98Z</time></trkpt><trkpt lat="46.17501880935489" lon="9.797055889792459"><ele>553.0</ele><time>2026-04-04T12:24:51.98Z</time></trkpt><trkpt lat="46.17502007729576" lon="9.796921940137809"><ele>562.0</ele><time>2026-04-04T12:24:53.98Z</time></trkpt><trkpt lat="46.17508409307622" lon="9.796839703919536"><ele>563.6</ele><time>2026-04-04T12:24:55.98Z</time></trkpt><trkpt lat="46.17515070078454" lon="9.796780185629494"><ele>565.2</ele><time>2026-04-04T12:24:57.98Z</time></trkpt><trkpt lat="46.17521891630002" lon="9.796741028886363"><ele>566.8</ele><time>2026-04-04T12:24:59.98Z</time></trkpt><trkpt lat="46.17528545274312" lon="9.796679203983114"><ele>568.4</ele><time>2026-04-04T12:25:02.98Z</time></trkpt><trkpt lat="46.175371626661" lon="9.796575564061765"><ele>570.0</ele><time>2026-04-04T12:25:04.981Z</time></trkpt><trkpt lat="46.1754769904117" lon="9.796541392423636"><ele>570.0</ele><time>2026-04-04T12:25:06.981Z</time></trkpt><trkpt lat="46.17555076580425" lon="9.796585070886858"><ele>570.0</ele><time>2026-04-04T12:25:07.981Z</time></trkpt><trkpt lat="46.17561814806037" lon="9.796633565181766"><ele>570.0</ele><time>2026-04-04T12:25:08.981Z</time></trkpt><trkpt lat="46.17567902348078" lon="9.796680239831282"><ele>570.0</ele><time>2026-04-04T12:25:09.981Z</time></trkpt><trkpt lat="46.17574494715204" lon="9.796729275333954"><ele>570.0</ele><time>2026-04-04T12:25:10.98Z</time></trkpt><trkpt lat="46.175820409105285" lon="9.796770844152842"><ele>570.0</ele><time>2026-04-04T12:25:11.98Z</time></trkpt><trkpt lat="46.17588531512444" lon="9.796756381772648"><ele>570.0</ele><time>2026-04-04T12:25:13.98Z</time></trkpt><trkpt lat="46.17593937701636" lon="9.796627571184153"><ele>573.5</ele><time>2026-04-04T12:25:15.98Z</time></trkpt><trkpt lat="46.176038975425534" lon="9.79663923010427"><ele>577.0</ele><time>2026-04-04T12:25:17.98Z</time></trkpt><trkpt lat="46.176100547514345" lon="9.79667374917867"><ele>580.5</ele><time>2026-04-04T12:25:18.98Z</time></trkpt><trkpt lat="46.17617661017193" lon="9.796725734339908"><ele>584.0</ele><time>2026-04-04T12:25:22.98Z</time></trkpt><trkpt lat="46.176245183317874" lon="9.796740056612613"><ele>587.5</ele><time>2026-04-04T12:25:24.98Z</time></trkpt><trkpt lat="46.17631012122139" lon="9.79675920001887"><ele>591.0</ele><time>2026-04-04T12:25:26.98Z</time></trkpt><trkpt lat="46.17635396248643" lon="9.796849600774758"><ele>592.3333333333334</ele><time>2026-04-04T12:25:28.98Z</time></trkpt><trkpt lat="46.176387232180346" lon="9.796933173163612"><ele>593.6666666666666</ele><time>2026-04-04T12:25:29.98Z</time></trkpt><trkpt lat="46.17643270827631" lon="9.796997791531817"><ele>595.0</ele><time>2026-04-04T12:25:31.98Z</time></trkpt><trkpt lat="46.17651826813441" lon="9.79695317469911"><ele>596.3333333333333</ele><time>2026-04-04T12:25:41.98Z</time></trkpt><trkpt lat="46.17658463015413" lon="9.79700747200958"><ele>597.6666666666666</ele><time>2026-04-04T12:25:43.98Z</time></trkpt><trkpt lat="46.176657735317455" lon="9.79703937511973"><ele>599.0</ele><time>2026-04-04T12:26:04.979Z</time></trkpt><trkpt lat="46.17670250242513" lon="9.797134955349442"><ele>603.8333333333333</ele><time>2026-04-04T12:26:44.979Z</time></trkpt><trkpt lat="46.17674309978989" lon="9.7972409550233"><ele>608.6666666666666</ele><time>2026-04-04T12:26:48.979Z</time></trkpt><trkpt lat="46.17680995318349" lon="9.797275553655034"><ele>613.5</ele><time>2026-04-04T12:26:51.979Z</time></trkpt><trkpt lat="46.17690151672723" lon="9.797219397533935"><ele>618.3333333333334</ele><time>2026-04-04T12:26:55.979Z</time></trkpt><trkpt lat="46.17701413704769" lon="9.797205192953864"><ele>623.1666666666667</ele><time>2026-04-04T12:26:57.979Z</time></trkpt><trkpt lat="46.17708166130647" lon="9.797197178597782"><ele>628.0</ele><time>2026-04-04T12:26:58.979Z</time></trkpt><trkpt lat="46.17716334837066" lon="9.797158062108524"><ele>628.0</ele><time>2026-04-04T12:27:00.979Z</time></trkpt><trkpt lat="46.17721798224226" lon="9.797078386801322"><ele>628.0</ele><time>2026-04-04T12:27:04.979Z</time></trkpt><trkpt lat="46.17731672405478" lon="9.797023183555911"><ele>628.0</ele><time>2026-04-04T12:27:08.979Z</time></trkpt><trkpt lat="46.177399197811184" lon="9.796952431111187"><ele>628.0</ele><time>2026-04-04T12:27:10.98Z</time></trkpt><trkpt lat="46.17747761307248" lon="9.79693981185863"><ele>628.0</ele><time>2026-04-04T12:27:12.979Z</time></trkpt><trkpt lat="46.17749981117524" lon="9.797031748941796"><ele>628.0</ele><time>2026-04-04T12:27:15.98Z</time></trkpt><trkpt lat="46.17748214873739" lon="9.797140192254071"><ele>632.8571428571428</ele><time>2026-04-04T12:27:17.979Z</time></trkpt><trkpt lat="46.177494951977984" lon="9.797257994128108"><ele>637.7142857142857</ele><time>2026-04-04T12:27:20.98Z</time></trkpt><trkpt lat="46.17750369597926" lon="9.797368111641855"><ele>642.5714285714286</ele><time>2026-04-04T12:27:23.98Z</time></trkpt><trkpt lat="46.177525522748304" lon="9.797480125981293"><ele>647.4285714285713</ele><time>2026-04-04T12:27:27.98Z</time></trkpt><trkpt lat="46.177548025739" lon="9.79757193565539"><ele>652.2857142857142</ele><time>2026-04-04T12:27:32.98Z</time></trkpt><trkpt lat="46.17761721762248" lon="9.797564425519392"><ele>657.1428571428571</ele><time>2026-04-04T12:27:36.979Z</time></trkpt><trkpt lat="46.17768902055308" lon="9.79757669229054"><ele>662.0</ele><time>2026-04-04T12:27:41.979Z</time></trkpt><trkpt lat="46.177760157728386" lon="9.797567917259329"><ele>662.0</ele><time>2026-04-04T12:27:54.979Z</time></trkpt><trkpt lat="46.17779702056337" lon="9.797458614418934"><ele>662.0</ele><time>2026-04-04T12:28:24.979Z</time></trkpt><trkpt lat="46.17786770222336" lon="9.797438345829159"><ele>662.0</ele><time>2026-04-04T12:28:27.979Z</time></trkpt><trkpt lat="46.177956501144564" lon="9.797454775100926"><ele>662.0</ele><time>2026-04-04T12:28:30.979Z</time></trkpt><trkpt lat="46.178044051584756" lon="9.797478751998556"><ele>662.0</ele><time>2026-04-04T12:28:33.979Z</time></trkpt><trkpt lat="46.17811758785632" lon="9.79740788537092"><ele>662.0</ele><time>2026-04-04T12:28:42.979Z</time></trkpt><trkpt lat="46.17818294922818" lon="9.797429307932083"><ele>668.1666666666666</ele><time>2026-04-04T12:28:44.979Z</time></trkpt><trkpt lat="46.17821267206217" lon="9.797552307104858"><ele>674.3333333333333</ele><time>2026-04-04T12:28:47.979Z</time></trkpt><trkpt lat="46.178241433763645" lon="9.797672133462186"><ele>680.5</ele><time>2026-04-04T12:28:50.979Z</time></trkpt><trkpt lat="46.17827219585226" lon="9.79778759385666"><ele>686.6666666666666</ele><time>2026-04-04T12:28:52.979Z</time></trkpt><trkpt lat="46.17827039969315" lon="9.79788141620369"><ele>692.8333333333334</ele><time>2026-04-04T12:28:54.979Z</time></trkpt><trkpt lat="46.17826145075066" lon="9.79777665565023"><ele>699.0</ele><time>2026-04-04T12:28:59.979Z</time></trkpt><trkpt lat="46.17828687628645" lon="9.797883115100909"><ele>702.8000000000001</ele><time>2026-04-04T12:29:04.979Z</time></trkpt><trkpt lat="46.178358587806585" lon="9.797905726246023"><ele>706.6</ele><time>2026-04-04T12:29:44.978Z</time></trkpt><trkpt lat="46.178291833990635" lon="9.797926514111037"><ele>710.4</ele><time>2026-04-04T12:30:31.977Z</time></trkpt><trkpt lat="46.17836018460971" lon="9.797895909904021"><ele>714.2</ele><time>2026-04-04T12:31:07.977Z</time></trkpt><trkpt lat="46.17845075722282" lon="9.797917609361221"><ele>718.0</ele><time>2026-04-04T12:31:18.978Z</time></trkpt><trkpt lat="46.17852980210425" lon="9.798138847868561"><ele>718.0</ele><time>2026-04-04T12:31:39.978Z</time></trkpt><trkpt lat="46.17858904985118" lon="9.798202324432836"><ele>718.0</ele><time>2026-04-04T12:31:44.978Z</time></trkpt><trkpt lat="46.178672960324086" lon="9.798272230795725"><ele>718.0</ele><time>2026-04-04T12:31:49.978Z</time></trkpt><trkpt lat="46.17874063109295" lon="9.798358840241209"><ele>718.0</ele><time>2026-04-04T12:31:54.978Z</time></trkpt><trkpt lat="46.178804142480196" lon="9.798393464293161"><ele>718.0</ele><time>2026-04-04T12:32:46.977Z</time></trkpt><trkpt lat="46.17880560875158" lon="9.79830040962601"><ele>718.0</ele><time>2026-04-04T12:33:23.978Z</time></trkpt><trkpt lat="46.17880119853463" lon="9.798401885386232"><ele>718.0</ele><time>2026-04-04T12:33:45.976Z</time></trkpt><trkpt lat="46.17872819446429" lon="9.798370400416037"><ele>718.0</ele><time>2026-04-04T12:35:41.976Z</time></trkpt><trkpt lat="46.17877529925303" lon="9.798435983144557"><ele>718.0</ele><time>2026-04-04T12:35:52.976Z</time></trkpt><trkpt lat="46.178709636143" lon="9.798410338705992"><ele>718.0</ele><time>2026-04-04T12:36:00.976Z</time></trkpt><trkpt lat="46.17865721118132" lon="9.798337838592394"><ele>718.0</ele><time>2026-04-04T12:36:04.976Z</time></trkpt><trkpt lat="46.17871401555337" lon="9.798424260795763"><ele>718.0</ele><time>2026-04-04T12:36:12.975Z</time></trkpt><trkpt lat="46.178773359835" lon="9.79846263456088"><ele>718.0</ele><time>2026-04-04T12:36:23.975Z</time></trkpt><trkpt lat="46.17870925422389" lon="9.798544112766349"><ele>718.0</ele><time>2026-04-04T12:36:29.121Z</time></trkpt><trkpt lat="46.178624430900655" lon="9.79853916544093"><ele>718.0</ele><time>2026-04-04T12:36:32.121Z</time></trkpt><trkpt lat="46.17876321020401" lon="9.79873000039669"><ele>718.0</ele><time>2026-04-04T12:36:42.975Z</time></trkpt><trkpt lat="46.17882402818426" lon="9.798690926742662"><ele>718.0</ele><time>2026-04-04T12:36:56.975Z</time></trkpt><trkpt lat="46.17880585040008" lon="9.798580598693606"><ele>718.0</ele><time>2026-04-04T12:37:00.975Z</time></trkpt><trkpt lat="46.178804368301094" lon="9.798466694343164"><ele>718.0</ele><time>2026-04-04T12:37:07.975Z</time></trkpt><trkpt lat="46.178796239609106" lon="9.798369195114436"><ele>718.0</ele><time>2026-04-04T12:37:10.975Z</time></trkpt><trkpt lat="46.17873556686975" lon="9.798338123292595"><ele>718.0</ele><time>2026-04-04T12:37:16.975Z</time></trkpt><trkpt lat="46.178662624188775" lon="9.798320091757189"><ele>718.0</ele><time>2026-04-04T12:37:26.975Z</time></trkpt><trkpt lat="46.17871145312938" lon="9.798395453285458"><ele>718.0</ele><time>2026-04-04T12:37:37.976Z</time></trkpt><trkpt lat="46.17869867375786" lon="9.798492796066625"><ele>718.0</ele><time>2026-04-04T12:37:42.976Z</time></trkpt><trkpt lat="46.17872380581578" lon="9.79838912831234"><ele>718.0</ele><time>2026-04-04T12:38:33.975Z</time></trkpt><trkpt lat="46.17871977103471" lon="9.79829804223176"><ele>718.0</ele><time>2026-04-04T12:38:43.975Z</time></trkpt><trkpt lat="46.17875311735051" lon="9.798379809151069"><ele>718.0</ele><time>2026-04-04T12:39:05.975Z</time></trkpt><trkpt lat="46.17872970904797" lon="9.798465881072005"><ele>718.0</ele><time>2026-04-04T12:39:08.975Z</time></trkpt><trkpt lat="46.178698437466956" lon="9.798557288951518"><ele>718.0</ele><time>2026-04-04T12:39:13.975Z</time></trkpt><trkpt lat="46.17878476969868" lon="9.798608339207949"><ele>718.0</ele><time>2026-04-04T12:39:23.975Z</time></trkpt><trkpt lat="46.17872874662271" lon="9.798667936481154"><ele>718.0</ele><time>2026-04-04T12:39:48.975Z</time></trkpt><trkpt lat="46.17879062901921" lon="9.798651079163184"><ele>718.0</ele><time>2026-04-04T12:40:00.975Z</time></trkpt><trkpt lat="46.17880210318063" lon="9.79846944529528"><ele>721.0</ele><time>2026-04-04T12:40:31.975Z</time></trkpt><trkpt lat="46.17888815258203" lon="9.798567268186908"><ele>724.0</ele><time>2026-04-04T12:40:33.975Z</time></trkpt><trkpt lat="46.17882046411637" lon="9.798591627761278"><ele>727.0</ele><time>2026-04-04T12:40:39.975Z</time></trkpt><trkpt lat="46.17872007279277" lon="9.798627779609271"><ele>730.0</ele><time>2026-04-04T12:40:52.975Z</time></trkpt><trkpt lat="46.17866493011613" lon="9.79870003412629"><ele>733.0</ele><time>2026-04-04T12:40:57.975Z</time></trkpt><trkpt lat="46.1786836496538" lon="9.798791385192224"><ele>736.0</ele><time>2026-04-04T12:41:20.974Z</time></trkpt><trkpt lat="46.1787430117482" lon="9.79889770352973"><ele>736.0</ele><time>2026-04-04T12:41:24.974Z</time></trkpt><trkpt lat="46.178783258115004" lon="9.79897755642033"><ele>736.0</ele><time>2026-04-04T12:41:26.974Z</time></trkpt><trkpt lat="46.17882391659207" lon="9.799051130593616"><ele>736.0</ele><time>2026-04-04T12:41:29.974Z</time></trkpt><trkpt lat="46.17878402183817" lon="9.799151361898245"><ele>736.0</ele><time>2026-04-04T12:41:35.974Z</time></trkpt><trkpt lat="46.17884272585518" lon="9.799108439196406"><ele>736.0</ele><time>2026-04-04T12:41:45.974Z</time></trkpt><trkpt lat="46.17891838068883" lon="9.79907923220139"><ele>736.0</ele><time>2026-04-04T12:42:11.116Z</time></trkpt><trkpt lat="46.17897787052636" lon="9.799140149796367"><ele>736.0</ele><time>2026-04-04T12:42:17.974Z</time></trkpt><trkpt lat="46.17906054277224" lon="9.79912162152144"><ele>743.3333333333334</ele><time>2026-04-04T12:42:23.974Z</time></trkpt><trkpt lat="46.17913319565358" lon="9.799148409330426"><ele>750.6666666666667</ele><time>2026-04-04T12:42:28.974Z</time></trkpt><trkpt lat="46.179195644912845" lon="9.799180963463254"><ele>758.0</ele><time>2026-04-04T12:42:30.974Z</time></trkpt><trkpt lat="46.17924805332734" lon="9.799247169011041"><ele>765.3333333333334</ele><time>2026-04-04T12:42:34.974Z</time></trkpt><trkpt lat="46.179328679437866" lon="9.799225989912204"><ele>772.6666666666666</ele><time>2026-04-04T12:42:36.974Z</time></trkpt><trkpt lat="46.17939857734797" lon="9.799159537462366"><ele>780.0</ele><time>2026-04-04T12:42:40.974Z</time></trkpt><trkpt lat="46.17948376526996" lon="9.799167600513474"><ele>780.0</ele><time>2026-04-04T12:42:43.974Z</time></trkpt><trkpt lat="46.179573361916475" lon="9.799209267170703"><ele>780.0</ele><time>2026-04-04T12:42:45.974Z</time></trkpt><trkpt lat="46.17964631657773" lon="9.799267149255575"><ele>780.0</ele><time>2026-04-04T12:42:48.974Z</time></trkpt><trkpt lat="46.1796989520906" lon="9.799368951692554"><ele>780.0</ele><time>2026-04-04T12:42:51.974Z</time></trkpt><trkpt lat="46.179747172751725" lon="9.79942843132176"><ele>780.0</ele><time>2026-04-04T12:42:54.974Z</time></trkpt><trkpt lat="46.17980539722306" lon="9.799501452914106"><ele>780.0</ele><time>2026-04-04T12:42:57.974Z</time></trkpt><trkpt lat="46.17987976676762" lon="9.799474872237978"><ele>786.75</ele><time>2026-04-04T12:42:59.974Z</time></trkpt><trkpt lat="46.17998112478529" lon="9.799506840871668"><ele>793.5</ele><time>2026-04-04T12:44:10.973Z</time></trkpt><trkpt lat="46.18004911852478" lon="9.799412003861411"><ele>800.25</ele><time>2026-04-04T12:44:12.973Z</time></trkpt><trkpt lat="46.18014124113027" lon="9.799261529255453"><ele>807.0</ele><time>2026-04-04T12:44:14.973Z</time></trkpt><trkpt lat="46.180241224790834" lon="9.799127797811632"><ele>807.0</ele><time>2026-04-04T12:44:15.973Z</time></trkpt><trkpt lat="46.18030496516205" lon="9.799016409123665"><ele>807.0</ele><time>2026-04-04T12:44:16.973Z</time></trkpt><trkpt lat="46.18039829055367" lon="9.798895879036884"><ele>807.0</ele><time>2026-04-04T12:44:17.973Z</time></trkpt><trkpt lat="46.180492308994424" lon="9.798785299553236"><ele>807.0</ele><time>2026-04-04T12:44:18.973Z</time></trkpt><trkpt lat="46.18060269138894" lon="9.798675109720966"><ele>808.2</ele><time>2026-04-04T12:44:19.973Z</time></trkpt><trkpt lat="46.18068964181333" lon="9.798589928161693"><ele>809.4000000000001</ele><time>2026-04-04T12:44:20.972Z</time></trkpt><trkpt lat="46.18075907366351" lon="9.798528607647395"><ele>810.5999999999999</ele><time>2026-04-04T12:44:21.972Z</time></trkpt><trkpt lat="46.180882072643016" lon="9.798426540283952"><ele>811.8</ele><time>2026-04-04T12:44:23.972Z</time></trkpt><trkpt lat="46.180978747312984" lon="9.798373289045518"><ele>813.0</ele><time>2026-04-04T12:44:24.972Z</time></trkpt><trkpt lat="46.18107184214241" lon="9.798336475376052"><ele>821.6666666666667</ele><time>2026-04-04T12:44:25.972Z</time></trkpt><trkpt lat="46.18126750753361" lon="9.798525157635732"><ele>830.3333333333334</ele><time>2026-04-04T12:44:26.972Z</time></trkpt><trkpt lat="46.1813742650654" lon="9.798525768232059"><ele>839.0</ele><time>2026-04-04T12:44:27.972Z</time></trkpt><trkpt lat="46.18148784205801" lon="9.798522040752772"><ele>838.8000000000001</ele><time>2026-04-04T12:44:28.972Z</time></trkpt><trkpt lat="46.18160120394659" lon="9.798468423052233"><ele>838.6</ele><time>2026-04-04T12:44:29.972Z</time></trkpt><trkpt lat="46.18170230407464" lon="9.798422667128364"><ele>838.4</ele><time>2026-04-04T12:44:30.972Z</time></trkpt><trkpt lat="46.18179203191851" lon="9.798477625129092"><ele>838.2</ele><time>2026-04-04T12:44:31.972Z</time></trkpt><trkpt lat="46.18187002496678" lon="9.798582205898006"><ele>838.0</ele><time>2026-04-04T12:44:32.972Z</time></trkpt><trkpt lat="46.18194201221606" lon="9.798710019684862"><ele>846.0</ele><time>2026-04-04T12:44:33.972Z</time></trkpt><trkpt lat="46.181997644199555" lon="9.798845839983793"><ele>854.0</ele><time>2026-04-04T12:44:34.972Z</time></trkpt><trkpt lat="46.182075481183745" lon="9.798992272336976"><ele>862.0</ele><time>2026-04-04T12:44:35.972Z</time></trkpt><trkpt lat="46.18216638412131" lon="9.799128127380726"><ele>870.0</ele><time>2026-04-04T12:44:36.972Z</time></trkpt><trkpt lat="46.182253716291996" lon="9.799227963352699"><ele>876.4</ele><time>2026-04-04T12:44:37.972Z</time></trkpt><trkpt lat="46.182334765569856" lon="9.79936832651218"><ele>882.8</ele><time>2026-04-04T12:44:39.972Z</time></trkpt><trkpt lat="46.18237382353888" lon="9.7994986453255"><ele>889.2</ele><time>2026-04-04T12:44:41.972Z</time></trkpt><trkpt lat="46.18247619622493" lon="9.799551622592615"><ele>895.6</ele><time>2026-04-04T12:44:43.972Z</time></trkpt><trkpt lat="46.182531798709505" lon="9.799496490933292"><ele>902.0</ele><time>2026-04-04T12:44:44.972Z</time></trkpt><trkpt lat="46.182581685625" lon="9.799410814313541"><ele>902.0000000000001</ele><time>2026-04-04T12:44:45.972Z</time></trkpt><trkpt lat="46.18266295131787" lon="9.799284522738986"><ele>902.0</ele><time>2026-04-04T12:44:47.972Z</time></trkpt><trkpt lat="46.18272143410623" lon="9.799346837725873"><ele>902.0</ele><time>2026-04-04T12:44:49.972Z</time></trkpt><trkpt lat="46.1827777643844" lon="9.799431077984151"><ele>902.0</ele><time>2026-04-04T12:44:51.972Z</time></trkpt><trkpt lat="46.18284244328951" lon="9.799484585143713"><ele>902.0000000000001</ele><time>2026-04-04T12:44:53.972Z</time></trkpt><trkpt lat="46.18290721638434" lon="9.799587660677712"><ele>902.0</ele><time>2026-04-04T12:44:55.972Z</time></trkpt><trkpt lat="46.18286588623988" lon="9.79967962877312"><ele>902.0000000000001</ele><time>2026-04-04T12:44:56.972Z</time></trkpt><trkpt lat="46.18296104216863" lon="9.79975140029181"><ele>902.0</ele><time>2026-04-04T12:44:58.972Z</time></trkpt><trkpt lat="46.18302143813347" lon="9.799713727229495"><ele>902.0</ele><time>2026-04-04T12:44:59.972Z</time></trkpt><trkpt lat="46.183084332832124" lon="9.799668830809827"><ele>902.0</ele><time>2026-04-04T12:45:00.972Z</time></trkpt><trkpt lat="46.18316120877328" lon="9.799634085218383"><ele>902.0000000000001</ele><time>2026-04-04T12:45:01.972Z</time></trkpt><trkpt lat="46.18326590421836" lon="9.799709088305029"><ele>902.0</ele><time>2026-04-04T12:45:03.972Z</time></trkpt><trkpt lat="46.18332535009799" lon="9.799799090011051"><ele>898.6666666666667</ele><time>2026-04-04T12:45:04.972Z</time></trkpt><trkpt lat="46.18336383708679" lon="9.799871398149639"><ele>895.3333333333334</ele><time>2026-04-04T12:45:05.972Z</time></trkpt><trkpt lat="46.183441623223786" lon="9.799860967396055"><ele>892.0</ele><time>2026-04-04T12:45:07.972Z</time></trkpt><trkpt lat="46.183553430361904" lon="9.799804778837572"><ele>888.6666666666667</ele><time>2026-04-04T12:45:09.972Z</time></trkpt><trkpt lat="46.1836244526667" lon="9.79981055235208"><ele>885.3333333333334</ele><time>2026-04-04T12:45:10.972Z</time></trkpt><trkpt lat="46.183719441453256" lon="9.799857242826214"><ele>882.0</ele><time>2026-04-04T12:45:11.972Z</time></trkpt><trkpt lat="46.18378008712975" lon="9.799886932077142"><ele>882.0</ele><time>2026-04-04T12:45:12.972Z</time></trkpt><trkpt lat="46.18386910975644" lon="9.79982683159026"><ele>882.0</ele><time>2026-04-04T12:45:14.972Z</time></trkpt><trkpt lat="46.1839877388218" lon="9.799725787721991"><ele>882.0</ele><time>2026-04-04T12:45:16.972Z</time></trkpt><trkpt lat="46.18409298797559" lon="9.79978210993464"><ele>882.0</ele><time>2026-04-04T12:45:18.972Z</time></trkpt><trkpt lat="46.18414580103397" lon="9.799865404718473"><ele>882.0</ele><time>2026-04-04T12:45:19.972Z</time></trkpt><trkpt lat="46.18418287915047" lon="9.799941869180003"><ele>881.8333333333334</ele><time>2026-04-04T12:45:20.972Z</time></trkpt><trkpt lat="46.18425629742047" lon="9.800032141117075"><ele>881.6666666666667</ele><time>2026-04-04T12:45:22.972Z</time></trkpt><trkpt lat="46.18433269830578" lon="9.800034954733201"><ele>881.5</ele><time>2026-04-04T12:45:25.972Z</time></trkpt><trkpt lat="46.18440993007911" lon="9.800081092032329"><ele>881.3333333333334</ele><time>2026-04-04T12:45:29.972Z</time></trkpt><trkpt lat="46.1844958176625" lon="9.800095871992335"><ele>881.1666666666667</ele><time>2026-04-04T12:45:31.972Z</time></trkpt><trkpt lat="46.18456953417497" lon="9.800116699567658"><ele>881.0</ele><time>2026-04-04T12:45:33.972Z</time></trkpt><trkpt lat="46.18466282226181" lon="9.80003256965486"><ele>881.0</ele><time>2026-04-04T12:45:35.972Z</time></trkpt><trkpt lat="46.18474714390404" lon="9.800003449149196"><ele>880.9999999999999</ele><time>2026-04-04T12:45:36.972Z</time></trkpt><trkpt lat="46.18486354773073" lon="9.799946144993703"><ele>880.9999999999999</ele><time>2026-04-04T12:45:38.972Z</time></trkpt><trkpt lat="46.18491791616483" lon="9.799856769068061"><ele>881.0</ele><time>2026-04-04T12:45:39.972Z</time></trkpt><trkpt lat="46.18495331579364" lon="9.799761074610396"><ele>881.0</ele><time>2026-04-04T12:45:40.972Z</time></trkpt><trkpt lat="46.18497159415521" lon="9.799636918318164"><ele>883.8333333333334</ele><time>2026-04-04T12:45:41.972Z</time></trkpt><trkpt lat="46.185003458609785" lon="9.799539542250143"><ele>886.6666666666667</ele><time>2026-04-04T12:45:42.972Z</time></trkpt><trkpt lat="46.18508479133212" lon="9.799426341182803"><ele>889.5</ele><time>2026-04-04T12:45:44.972Z</time></trkpt><trkpt lat="46.185148082388146" lon="9.79939051143821"><ele>892.3333333333333</ele><time>2026-04-04T12:45:45.972Z</time></trkpt><trkpt lat="46.18522305347007" lon="9.79937784843346"><ele>895.1666666666666</ele><time>2026-04-04T12:45:46.972Z</time></trkpt><trkpt lat="46.18529410899656" lon="9.799384878768134"><ele>898.0</ele><time>2026-04-04T12:45:47.972Z</time></trkpt><trkpt lat="46.18541271494024" lon="9.799419095638578"><ele>897.9999999999999</ele><time>2026-04-04T12:45:49.972Z</time></trkpt><trkpt lat="46.18552089703097" lon="9.799533277244612"><ele>898.0</ele><time>2026-04-04T12:45:51.972Z</time></trkpt><trkpt lat="46.185599312565074" lon="9.799604882021537"><ele>898.0</ele><time>2026-04-04T12:45:52.972Z</time></trkpt><trkpt lat="46.18566302026548" lon="9.799647627574188"><ele>898.0</ele><time>2026-04-04T12:45:53.972Z</time></trkpt><trkpt lat="46.18569391788533" lon="9.799743133774278"><ele>897.9999999999999</ele><time>2026-04-04T12:45:55.972Z</time></trkpt><trkpt lat="46.18575364795076" lon="9.799795638734995"><ele>898.0</ele><time>2026-04-04T12:45:58.972Z</time></trkpt><trkpt lat="46.18581404091141" lon="9.799852184921667"><ele>903.8333333333333</ele><time>2026-04-04T12:46:09.972Z</time></trkpt><trkpt lat="46.18587712738744" lon="9.79994776746276"><ele>909.6666666666666</ele><time>2026-04-04T12:46:14.973Z</time></trkpt><trkpt lat="46.18594251571566" lon="9.799894286714274"><ele>915.5</ele><time>2026-04-04T12:46:18.973Z</time></trkpt><trkpt lat="46.185992032357085" lon="9.799804086293749"><ele>921.3333333333333</ele><time>2026-04-04T12:46:22.972Z</time></trkpt><trkpt lat="46.18605763767949" lon="9.799874609472546"><ele>927.1666666666666</ele><time>2026-04-04T12:46:25.972Z</time></trkpt><trkpt lat="46.1860760985127" lon="9.799760619076098"><ele>933.0</ele><time>2026-04-04T12:46:30.972Z</time></trkpt><trkpt lat="46.18610710014278" lon="9.799646082255554"><ele>933.0</ele><time>2026-04-04T12:46:32.972Z</time></trkpt><trkpt lat="46.18610095024049" lon="9.79949734447481"><ele>933.0</ele><time>2026-04-04T12:46:35.972Z</time></trkpt><trkpt lat="46.18611181317028" lon="9.799390582911233"><ele>933.0</ele><time>2026-04-04T12:46:37.972Z</time></trkpt><trkpt lat="46.18607141868981" lon="9.799316026774717"><ele>933.0</ele><time>2026-04-04T12:46:39.972Z</time></trkpt><trkpt lat="46.18610552929301" lon="9.799202385153169"><ele>933.0</ele><time>2026-04-04T12:46:41.972Z</time></trkpt><trkpt lat="46.18615442158145" lon="9.799113586786781"><ele>933.0</ele><time>2026-04-04T12:46:43.972Z</time></trkpt><trkpt lat="46.18617033755626" lon="9.799001097717955"><ele>932.1666666666666</ele><time>2026-04-04T12:46:45.972Z</time></trkpt><trkpt lat="46.186141097587736" lon="9.798908130198205"><ele>931.3333333333333</ele><time>2026-04-04T12:46:47.972Z</time></trkpt><trkpt lat="46.186095911889204" lon="9.798751571928143"><ele>930.5</ele><time>2026-04-04T12:46:49.972Z</time></trkpt><trkpt lat="46.18607283969963" lon="9.798638379805313"><ele>929.6666666666666</ele><time>2026-04-04T12:46:51.972Z</time></trkpt><trkpt lat="46.18599805055677" lon="9.798581098067224"><ele>928.8333333333333</ele><time>2026-04-04T12:46:54.972Z</time></trkpt><trkpt lat="46.18598069542052" lon="9.798471866574008"><ele>928.0</ele><time>2026-04-04T12:46:56.972Z</time></trkpt><trkpt lat="46.18595067766652" lon="9.798362216632345"><ele>927.9999999999999</ele><time>2026-04-04T12:46:58.972Z</time></trkpt><trkpt lat="46.18591889214093" lon="9.798246979019089"><ele>928.0</ele><time>2026-04-04T12:47:00.972Z</time></trkpt><trkpt lat="46.18601218678619" lon="9.79818720250073"><ele>928.0</ele><time>2026-04-04T12:47:02.972Z</time></trkpt><trkpt lat="46.18607963341836" lon="9.798203357545647"><ele>928.0</ele><time>2026-04-04T12:47:03.972Z</time></trkpt><trkpt lat="46.18614890392049" lon="9.798243893343633"><ele>927.9999999999999</ele><time>2026-04-04T12:47:05.972Z</time></trkpt><trkpt lat="46.186217827341814" lon="9.798287012040872"><ele>928.0</ele><time>2026-04-04T12:47:09.972Z</time></trkpt><trkpt lat="46.18630444479694" lon="9.798266085631859"><ele>927.9999999999999</ele><time>2026-04-04T12:47:12.972Z</time></trkpt><trkpt lat="46.186381679512685" lon="9.798293939849396"><ele>928.0</ele><time>2026-04-04T12:47:13.972Z</time></trkpt><trkpt lat="46.18645515339788" lon="9.79832288391475"><ele>928.0</ele><time>2026-04-04T12:47:15.972Z</time></trkpt><trkpt lat="46.18653294087904" lon="9.798378476013042"><ele>928.0</ele><time>2026-04-04T12:47:17.972Z</time></trkpt><trkpt lat="46.186597366971576" lon="9.798471595221269"><ele>927.9999999999999</ele><time>2026-04-04T12:47:19.972Z</time></trkpt><trkpt lat="46.18665073915836" lon="9.798530300723247"><ele>928.0</ele><time>2026-04-04T12:47:21.972Z</time></trkpt><trkpt lat="46.18672699326861" lon="9.79852347270515"><ele>934.6666666666666</ele><time>2026-04-04T12:47:23.972Z</time></trkpt><trkpt lat="46.18682899167205" lon="9.798509877386353"><ele>941.3333333333333</ele><time>2026-04-04T12:47:25.972Z</time></trkpt><trkpt lat="46.18690383734959" lon="9.798505898836936"><ele>948.0</ele><time>2026-04-04T12:47:27.972Z</time></trkpt><trkpt lat="46.18695649647527" lon="9.798579432006079"><ele>954.6666666666667</ele><time>2026-04-04T12:47:30.972Z</time></trkpt><trkpt lat="46.18694218573742" lon="9.79870935132562"><ele>961.3333333333334</ele><time>2026-04-04T12:47:32.972Z</time></trkpt><trkpt lat="46.18690878247842" lon="9.79880060110071"><ele>968.0</ele><time>2026-04-04T12:47:35.972Z</time></trkpt><trkpt lat="46.18698000182497" lon="9.798796691596824"><ele>968.0000000000001</ele><time>2026-04-04T12:47:37.972Z</time></trkpt><trkpt lat="46.18707364122426" lon="9.798788739039596"><ele>968.0</ele><time>2026-04-04T12:47:39.972Z</time></trkpt><trkpt lat="46.18715639652925" lon="9.798758290444797"><ele>968.0</ele><time>2026-04-04T12:47:41.972Z</time></trkpt><trkpt lat="46.18722874753588" lon="9.79870607181795"><ele>968.0</ele><time>2026-04-04T12:47:43.972Z</time></trkpt><trkpt lat="46.18728369480233" lon="9.798626397185233"><ele>968.0000000000001</ele><time>2026-04-04T12:47:45.972Z</time></trkpt><trkpt lat="46.187362381155545" lon="9.798544132206283"><ele>968.0</ele><time>2026-04-04T12:47:47.972Z</time></trkpt><trkpt lat="46.187435344326694" lon="9.798430500705987"><ele>976.8333333333334</ele><time>2026-04-04T12:47:49.972Z</time></trkpt><trkpt lat="46.18752595533731" lon="9.798437629391286"><ele>985.6666666666667</ele><time>2026-04-04T12:47:51.972Z</time></trkpt><trkpt lat="46.187631448977825" lon="9.798348029504227"><ele>994.5</ele><time>2026-04-04T12:47:54.972Z</time></trkpt><trkpt lat="46.187682777932814" lon="9.798285702993553"><ele>1003.3333333333333</ele><time>2026-04-04T12:47:55.972Z</time></trkpt><trkpt lat="46.187739600829474" lon="9.798224600998049"><ele>1012.1666666666666</ele><time>2026-04-04T12:47:56.972Z</time></trkpt><trkpt lat="46.187755785115996" lon="9.79813612937951"><ele>1021.0</ele><time>2026-04-04T12:47:57.972Z</time></trkpt><trkpt lat="46.187802985623385" lon="9.79805212611272"><ele>1020.9999999999999</ele><time>2026-04-04T12:47:58.972Z</time></trkpt><trkpt lat="46.187858388339954" lon="9.797980972938646"><ele>1021.0</ele><time>2026-04-04T12:47:59.972Z</time></trkpt><trkpt lat="46.187912577428335" lon="9.797909968638283"><ele>1021.0</ele><time>2026-04-04T12:48:00.972Z</time></trkpt><trkpt lat="46.18798908077489" lon="9.79788692242645"><ele>1021.0</ele><time>2026-04-04T12:48:02.972Z</time></trkpt><trkpt lat="46.18808121215064" lon="9.797966382133183"><ele>1020.9999999999999</ele><time>2026-04-04T12:48:05.972Z</time></trkpt><trkpt lat="46.188127233772605" lon="9.798064122868022"><ele>1021.0</ele><time>2026-04-04T12:48:08.972Z</time></trkpt><trkpt lat="46.188157335564085" lon="9.798223048092517"><ele>1020.9999999999999</ele><time>2026-04-04T12:48:10.972Z</time></trkpt><trkpt lat="46.18815432055185" lon="9.798332593012832"><ele>1021.0</ele><time>2026-04-04T12:48:11.972Z</time></trkpt><trkpt lat="46.18816721598442" lon="9.798428682185396"><ele>1021.0</ele><time>2026-04-04T12:48:12.972Z</time></trkpt><trkpt lat="46.18815152168869" lon="9.798539487782921"><ele>1021.0</ele><time>2026-04-04T12:48:15.972Z</time></trkpt><trkpt lat="46.18823195514468" lon="9.79857641040173"><ele>1020.9999999999999</ele><time>2026-04-04T12:48:18.972Z</time></trkpt><trkpt lat="46.1883041390196" lon="9.798496787939497"><ele>1021.0</ele><time>2026-04-04T12:48:20.972Z</time></trkpt><trkpt lat="46.18835161657041" lon="9.798427107410884"><ele>1028.6666666666665</ele><time>2026-04-04T12:48:21.972Z</time></trkpt><trkpt lat="46.188402169484334" lon="9.798313751322725"><ele>1036.3333333333333</ele><time>2026-04-04T12:48:23.972Z</time></trkpt><trkpt lat="46.18845116000293" lon="9.798213691426762"><ele>1044.0</ele><time>2026-04-04T12:48:24.972Z</time></trkpt><trkpt lat="46.18847904894234" lon="9.798130839619507"><ele>1051.6666666666667</ele><time>2026-04-04T12:48:25.972Z</time></trkpt><trkpt lat="46.18852267019697" lon="9.798018105009534"><ele>1059.3333333333335</ele><time>2026-04-04T12:48:27.972Z</time></trkpt><trkpt lat="46.18858916255901" lon="9.797949097036613"><ele>1067.0</ele><time>2026-04-04T12:48:29.972Z</time></trkpt><trkpt lat="46.18865584634425" lon="9.797846946194998"><ele>1067.0</ele><time>2026-04-04T12:48:31.972Z</time></trkpt><trkpt lat="46.18873641898686" lon="9.797772811664233"><ele>1067.0</ele><time>2026-04-04T12:48:33.972Z</time></trkpt><trkpt lat="46.18879757302081" lon="9.797742898202129"><ele>1067.0</ele><time>2026-04-04T12:48:34.972Z</time></trkpt><trkpt lat="46.18884328815898" lon="9.797632351988275"><ele>1067.0</ele><time>2026-04-04T12:48:36.972Z</time></trkpt><trkpt lat="46.18889452981941" lon="9.797538589851568"><ele>1067.0</ele><time>2026-04-04T12:48:38.972Z</time></trkpt><trkpt lat="46.18894000173544" lon="9.79743064730645"><ele>1067.0</ele><time>2026-04-04T12:48:40.972Z</time></trkpt><trkpt lat="46.1889616786466" lon="9.79730716623675"><ele>1064.25</ele><time>2026-04-04T12:48:42.972Z</time></trkpt><trkpt lat="46.18899990769232" lon="9.797149779711475"><ele>1061.5</ele><time>2026-04-04T12:48:44.971Z</time></trkpt><trkpt lat="46.18902979280937" lon="9.797010409744987"><ele>1058.75</ele><time>2026-04-04T12:48:46.971Z</time></trkpt><trkpt lat="46.18911802884022" lon="9.79689985710907"><ele>1056.0</ele><time>2026-04-04T12:48:48.971Z</time></trkpt><trkpt lat="46.18917831668701" lon="9.796748102674494"><ele>1063.0</ele><time>2026-04-04T12:48:50.971Z</time></trkpt><trkpt lat="46.18924149114388" lon="9.796637301794355"><ele>1070.0</ele><time>2026-04-04T12:48:52.971Z</time></trkpt><trkpt lat="46.18929497223535" lon="9.796566755722736"><ele>1077.0</ele><time>2026-04-04T12:48:53.971Z</time></trkpt><trkpt lat="46.18937057636591" lon="9.7965181950537"><ele>1084.0</ele><time>2026-04-04T12:48:54.971Z</time></trkpt><trkpt lat="46.189420756975814" lon="9.796433736885753"><ele>1091.0</ele><time>2026-04-04T12:48:55.971Z</time></trkpt><trkpt lat="46.18948665312593" lon="9.79635457438779"><ele>1098.0</ele><time>2026-04-04T12:48:56.971Z</time></trkpt><trkpt lat="46.18953927218596" lon="9.796279569879767"><ele>1098.0</ele><time>2026-04-04T12:48:57.971Z</time></trkpt><trkpt lat="46.18962271488926" lon="9.796197125641513"><ele>1098.0</ele><time>2026-04-04T12:48:59.971Z</time></trkpt><trkpt lat="46.18968863916925" lon="9.796169444685422"><ele>1098.0</ele><time>2026-04-04T12:49:00.971Z</time></trkpt><trkpt lat="46.18970412281385" lon="9.7960770016305"><ele>1098.0</ele><time>2026-04-04T12:49:01.971Z</time></trkpt><trkpt lat="46.18981187587343" lon="9.795997433700258"><ele>1098.0</ele><time>2026-04-04T12:49:03.971Z</time></trkpt><trkpt lat="46.18988261270708" lon="9.795947097490567"><ele>1098.0</ele><time>2026-04-04T12:49:04.971Z</time></trkpt><trkpt lat="46.18996852539403" lon="9.795878901166509"><ele>1102.5</ele><time>2026-04-04T12:49:05.971Z</time></trkpt><trkpt lat="46.19002747489671" lon="9.795825698839467"><ele>1107.0</ele><time>2026-04-04T12:49:06.971Z</time></trkpt><trkpt lat="46.19008488443316" lon="9.795778714934208"><ele>1111.5</ele><time>2026-04-04T12:49:07.971Z</time></trkpt><trkpt lat="46.19016368784734" lon="9.79575295204827"><ele>1116.0</ele><time>2026-04-04T12:49:08.971Z</time></trkpt><trkpt lat="46.190224210867875" lon="9.795724257746842"><ele>1120.5</ele><time>2026-04-04T12:49:09.971Z</time></trkpt><trkpt lat="46.1902915330963" lon="9.795692610173182"><ele>1125.0</ele><time>2026-04-04T12:49:10.971Z</time></trkpt><trkpt lat="46.190402057312326" lon="9.795676906088994"><ele>1125.0</ele><time>2026-04-04T12:49:12.971Z</time></trkpt><trkpt lat="46.19047536541914" lon="9.79566694771973"><ele>1125.0</ele><time>2026-04-04T12:49:14.971Z</time></trkpt><trkpt lat="46.19055011764439" lon="9.795707145090049"><ele>1125.0</ele><time>2026-04-04T12:49:17.971Z</time></trkpt><trkpt lat="46.190629751410555" lon="9.795762405011978"><ele>1125.0</ele><time>2026-04-04T12:49:18.971Z</time></trkpt><trkpt lat="46.19071721818884" lon="9.795717020067219"><ele>1125.0</ele><time>2026-04-04T12:49:20.971Z</time></trkpt><trkpt lat="46.19083847198417" lon="9.795669492989127"><ele>1131.0</ele><time>2026-04-04T12:49:22.971Z</time></trkpt><trkpt lat="46.191009565492315" lon="9.795606119891247"><ele>1137.0</ele><time>2026-04-04T12:49:27.971Z</time></trkpt><trkpt lat="46.191083301250394" lon="9.795525423041152"><ele>1143.0</ele><time>2026-04-04T12:49:29.971Z</time></trkpt><trkpt lat="46.19114464647247" lon="9.7954636419044"><ele>1149.0</ele><time>2026-04-04T12:49:32.971Z</time></trkpt><trkpt lat="46.19123292416111" lon="9.79545536933898"><ele>1155.0</ele><time>2026-04-04T12:49:34.971Z</time></trkpt><trkpt lat="46.191295878577186" lon="9.795424567465295"><ele>1155.0</ele><time>2026-04-04T12:49:35.971Z</time></trkpt><trkpt lat="46.19136006807252" lon="9.795423928341952"><ele>1155.0</ele><time>2026-04-04T12:49:37.971Z</time></trkpt><trkpt lat="46.19141709548402" lon="9.795499156016923"><ele>1155.0</ele><time>2026-04-04T12:49:39.971Z</time></trkpt><trkpt lat="46.191500307167146" lon="9.795473509398906"><ele>1155.0</ele><time>2026-04-04T12:49:41.971Z</time></trkpt><trkpt lat="46.19158353430554" lon="9.795442103457287"><ele>1155.0</ele><time>2026-04-04T12:49:44.971Z</time></trkpt><trkpt lat="46.19165272016691" lon="9.795436769238055"><ele>1155.0</ele><time>2026-04-04T12:49:46.971Z</time></trkpt><trkpt lat="46.19172135225385" lon="9.795418262347853"><ele>1154.8</ele><time>2026-04-04T12:49:49.971Z</time></trkpt><trkpt lat="46.191689411104576" lon="9.79533401538542"><ele>1154.6</ele><time>2026-04-04T12:49:52.971Z</time></trkpt><trkpt lat="46.191659694249466" lon="9.795224434852551"><ele>1154.4</ele><time>2026-04-04T12:49:53.971Z</time></trkpt><trkpt lat="46.1916730252355" lon="9.795054246529892"><ele>1154.2</ele><time>2026-04-04T12:49:54.971Z</time></trkpt><trkpt lat="46.19171207768545" lon="9.794914500239107"><ele>1154.0</ele><time>2026-04-04T12:49:55.971Z</time></trkpt><trkpt lat="46.191734725785174" lon="9.794757031975818"><ele>1154.0</ele><time>2026-04-04T12:49:57.971Z</time></trkpt><trkpt lat="46.19176506990005" lon="9.794641621894844"><ele>1154.0</ele><time>2026-04-04T12:49:59.971Z</time></trkpt><trkpt lat="46.19184940320788" lon="9.794570712740883"><ele>1154.0</ele><time>2026-04-04T12:50:01.971Z</time></trkpt><trkpt lat="46.19192397357333" lon="9.794555700925907"><ele>1154.0</ele><time>2026-04-04T12:50:03.971Z</time></trkpt><trkpt lat="46.19198816812405" lon="9.794486023206035"><ele>1154.0</ele><time>2026-04-04T12:50:06.971Z</time></trkpt><trkpt lat="46.192080751366824" lon="9.79445669939126"><ele>1154.0</ele><time>2026-04-04T12:50:08.971Z</time></trkpt><trkpt lat="46.19214486350083" lon="9.794358000570487"><ele>1149.6000000000001</ele><time>2026-04-04T12:50:10.971Z</time></trkpt><trkpt lat="46.19217848247956" lon="9.794231858420867"><ele>1145.2</ele><time>2026-04-04T12:50:12.972Z</time></trkpt><trkpt lat="46.192233882075165" lon="9.794178322965024"><ele>1140.8000000000002</ele><time>2026-04-04T12:50:13.972Z</time></trkpt><trkpt lat="46.19232219699447" lon="9.794089916757748"><ele>1136.4</ele><time>2026-04-04T12:50:15.971Z</time></trkpt><trkpt lat="46.192409132651" lon="9.793963538674506"><ele>1132.0</ele><time>2026-04-04T12:50:17.972Z</time></trkpt><trkpt lat="46.19245067559555" lon="9.793839543047334"><ele>1138.8333333333333</ele><time>2026-04-04T12:50:20.971Z</time></trkpt><trkpt lat="46.19251657702963" lon="9.79377349279195"><ele>1145.6666666666665</ele><time>2026-04-04T12:50:22.972Z</time></trkpt><trkpt lat="46.192569166309575" lon="9.793708623673306"><ele>1152.5</ele><time>2026-04-04T12:50:25.972Z</time></trkpt><trkpt lat="46.19263872841733" lon="9.793696140799229"><ele>1159.3333333333333</ele><time>2026-04-04T12:50:29.972Z</time></trkpt><trkpt lat="46.19271212798635" lon="9.79371925361116"><ele>1166.1666666666667</ele><time>2026-04-04T12:50:34.972Z</time></trkpt><trkpt lat="46.19277541900398" lon="9.793569990005487"><ele>1173.0</ele><time>2026-04-04T12:50:36.972Z</time></trkpt><trkpt lat="46.19283138329262" lon="9.793500901213884"><ele>1173.0</ele><time>2026-04-04T12:50:37.972Z</time></trkpt><trkpt lat="46.192891900175475" lon="9.793438775566672"><ele>1173.0</ele><time>2026-04-04T12:50:39.972Z</time></trkpt><trkpt lat="46.19291832806019" lon="9.79334033413509"><ele>1173.0</ele><time>2026-04-04T12:50:42.972Z</time></trkpt><trkpt lat="46.19300747057192" lon="9.793286400899712"><ele>1173.0</ele><time>2026-04-04T12:50:45.972Z</time></trkpt><trkpt lat="46.19306692193356" lon="9.793247066120331"><ele>1173.0</ele><time>2026-04-04T12:50:46.972Z</time></trkpt><trkpt lat="46.19313092224906" lon="9.793133391060278"><ele>1173.0</ele><time>2026-04-04T12:50:48.972Z</time></trkpt><trkpt lat="46.19319255162113" lon="9.793065229512706"><ele>1182.8333333333333</ele><time>2026-04-04T12:50:50.972Z</time></trkpt><trkpt lat="46.1932450320557" lon="9.793005375818248"><ele>1192.6666666666667</ele><time>2026-04-04T12:50:52.972Z</time></trkpt><trkpt lat="46.1933173457535" lon="9.79289894100082"><ele>1202.5</ele><time>2026-04-04T12:50:54.972Z</time></trkpt><trkpt lat="46.19338906874436" lon="9.792873573035157"><ele>1212.3333333333335</ele><time>2026-04-04T12:50:56.972Z</time></trkpt><trkpt lat="46.193492494698674" lon="9.792797443173852"><ele>1222.1666666666667</ele><time>2026-04-04T12:50:59.972Z</time></trkpt><trkpt lat="46.19357534271058" lon="9.792776063695124"><ele>1232.0</ele><time>2026-04-04T12:51:01.972Z</time></trkpt><trkpt lat="46.19362373975977" lon="9.79270558157771"><ele>1232.0</ele><time>2026-04-04T12:51:03.972Z</time></trkpt><trkpt lat="46.19368753956685" lon="9.792692151930385"><ele>1232.0</ele><time>2026-04-04T12:51:08.971Z</time></trkpt><trkpt lat="46.193755172598664" lon="9.792661908002433"><ele>1232.0</ele><time>2026-04-04T12:51:15.971Z</time></trkpt><trkpt lat="46.19370175974725" lon="9.792803602992157"><ele>1232.0</ele><time>2026-04-04T12:51:21.971Z</time></trkpt><trkpt lat="46.19362883020501" lon="9.792887696039502"><ele>1232.0</ele><time>2026-04-04T12:51:23.971Z</time></trkpt><trkpt lat="46.19361191447902" lon="9.792994812298408"><ele>1232.0</ele><time>2026-04-04T12:51:25.971Z</time></trkpt><trkpt lat="46.19356648106763" lon="9.79308349669117"><ele>1232.0</ele><time>2026-04-04T12:51:27.971Z</time></trkpt><trkpt lat="46.19355596342528" lon="9.793265981894757"><ele>1232.0</ele><time>2026-04-04T12:51:30.971Z</time></trkpt><trkpt lat="46.19352745373189" lon="9.793381780827472"><ele>1232.0</ele><time>2026-04-04T12:51:31.971Z</time></trkpt><trkpt lat="46.19350093334053" lon="9.793518910929091"><ele>1232.0</ele><time>2026-04-04T12:51:32.971Z</time></trkpt><trkpt lat="46.19349189502065" lon="9.793645168433612"><ele>1232.0</ele><time>2026-04-04T12:51:34.971Z</time></trkpt><trkpt lat="46.19354591819671" lon="9.793583100586913"><ele>1232.0</ele><time>2026-04-04T12:51:42.971Z</time></trkpt><trkpt lat="46.193617207543916" lon="9.793542971824445"><ele>1232.0</ele><time>2026-04-04T12:51:44.971Z</time></trkpt><trkpt lat="46.19369168712672" lon="9.793471729441846"><ele>1232.0</ele><time>2026-04-04T12:51:47.971Z</time></trkpt><trkpt lat="46.193727565801666" lon="9.793569880532782"><ele>1232.0</ele><time>2026-04-04T12:52:02.971Z</time></trkpt><trkpt lat="46.193701843464694" lon="9.79376035641521"><ele>1232.0</ele><time>2026-04-04T12:52:04.971Z</time></trkpt><trkpt lat="46.19373784828438" lon="9.793859745807904"><ele>1235.8333333333335</ele><time>2026-04-04T12:52:06.971Z</time></trkpt><trkpt lat="46.193741344022314" lon="9.793953180081497"><ele>1239.6666666666667</ele><time>2026-04-04T12:52:08.971Z</time></trkpt><trkpt lat="46.193726285395165" lon="9.79405675484756"><ele>1243.5</ele><time>2026-04-04T12:52:10.971Z</time></trkpt><trkpt lat="46.193708253581974" lon="9.794146227810762"><ele>1247.3333333333333</ele><time>2026-04-04T12:52:11.971Z</time></trkpt><trkpt lat="46.19369105792225" lon="9.794248114756384"><ele>1251.1666666666665</ele><time>2026-04-04T12:52:12.971Z</time></trkpt><trkpt lat="46.193681733335794" lon="9.794385640209883"><ele>1255.0</ele><time>2026-04-04T12:52:14.971Z</time></trkpt><trkpt lat="46.19367577587898" lon="9.79455383501239"><ele>1257.8333333333333</ele><time>2026-04-04T12:52:17.97Z</time></trkpt><trkpt lat="46.19365941970968" lon="9.794683684953135"><ele>1260.6666666666665</ele><time>2026-04-04T12:52:19.97Z</time></trkpt><trkpt lat="46.193631933686696" lon="9.794797289241105"><ele>1263.5</ele><time>2026-04-04T12:52:21.971Z</time></trkpt><trkpt lat="46.193632659584026" lon="9.794927479391818"><ele>1266.3333333333333</ele><time>2026-04-04T12:52:23.971Z</time></trkpt><trkpt lat="46.1936264712843" lon="9.795037959973673"><ele>1269.1666666666667</ele><time>2026-04-04T12:52:25.97Z</time></trkpt><trkpt lat="46.193624277729484" lon="9.795134843884203"><ele>1272.0</ele><time>2026-04-04T12:52:27.97Z</time></trkpt><trkpt lat="46.19362335532375" lon="9.795230744401774"><ele>1274.1666666666667</ele><time>2026-04-04T12:52:29.971Z</time></trkpt><trkpt lat="46.19364064048923" lon="9.795330174816893"><ele>1276.3333333333333</ele><time>2026-04-04T12:52:31.97Z</time></trkpt><trkpt lat="46.193623021148404" lon="9.795446143483218"><ele>1278.5</ele><time>2026-04-04T12:52:34.97Z</time></trkpt><trkpt lat="46.193635754708644" lon="9.795544515609654"><ele>1280.6666666666665</ele><time>2026-04-04T12:52:37.97Z</time></trkpt><trkpt lat="46.1936943418158" lon="9.795667401540925"><ele>1282.8333333333333</ele><time>2026-04-04T12:52:46.97Z</time></trkpt><trkpt lat="46.19373010258906" lon="9.795754424135104"><ele>1285.0</ele><time>2026-04-04T12:52:48.97Z</time></trkpt><trkpt lat="46.19381733737853" lon="9.795807664766215"><ele>1289.6</ele><time>2026-04-04T12:52:52.97Z</time></trkpt><trkpt lat="46.19371793307357" lon="9.796026638544038"><ele>1294.2</ele><time>2026-04-04T12:52:58.97Z</time></trkpt><trkpt lat="46.19378311738412" lon="9.79604892959184"><ele>1298.8000000000002</ele><time>2026-04-04T12:53:02.97Z</time></trkpt><trkpt lat="46.193869114421034" lon="9.796049697575112"><ele>1303.4</ele><time>2026-04-04T12:53:26.97Z</time></trkpt><trkpt lat="46.193859855217035" lon="9.796159928317424"><ele>1308.0</ele><time>2026-04-04T12:53:31.97Z</time></trkpt><trkpt lat="46.19383529471988" lon="9.796250231769319"><ele>1308.0</ele><time>2026-04-04T12:53:36.97Z</time></trkpt><trkpt lat="46.193886173214615" lon="9.796346726114093"><ele>1308.0</ele><time>2026-04-04T12:53:40.97Z</time></trkpt><trkpt lat="46.193952489545346" lon="9.796380915316849"><ele>1308.0</ele><time>2026-04-04T12:53:43.969Z</time></trkpt><trkpt lat="46.19392791640744" lon="9.796296832779694"><ele>1308.0</ele><time>2026-04-04T12:53:48.969Z</time></trkpt><trkpt lat="46.19396288434053" lon="9.79621040924402"><ele>1308.0</ele><time>2026-04-04T12:53:52.969Z</time></trkpt><trkpt lat="46.194041393793285" lon="9.796152372269047"><ele>1308.0</ele><time>2026-04-04T12:53:54.969Z</time></trkpt><trkpt lat="46.19408938350518" lon="9.796041302603554"><ele>1315.5</ele><time>2026-04-04T12:53:56.969Z</time></trkpt><trkpt lat="46.19414901028178" lon="9.795970858880102"><ele>1323.0</ele><time>2026-04-04T12:54:00.969Z</time></trkpt><trkpt lat="46.19418216863048" lon="9.795885540976467"><ele>1330.5</ele><time>2026-04-04T12:54:02.969Z</time></trkpt><trkpt lat="46.194208262588376" lon="9.795787933538085"><ele>1338.0</ele><time>2026-04-04T12:54:05.969Z</time></trkpt><trkpt lat="46.194283700531095" lon="9.795762204186842"><ele>1345.5</ele><time>2026-04-04T12:54:07.969Z</time></trkpt><trkpt lat="46.19434997127476" lon="9.795675238635608"><ele>1353.0</ele><time>2026-04-04T12:54:09.969Z</time></trkpt><trkpt lat="46.19443201140762" lon="9.795642195743888"><ele>1353.0</ele><time>2026-04-04T12:54:11.969Z</time></trkpt><trkpt lat="46.19452060888563" lon="9.795608696492653"><ele>1353.0</ele><time>2026-04-04T12:54:13.969Z</time></trkpt><trkpt lat="46.194534991816376" lon="9.795498505648874"><ele>1353.0</ele><time>2026-04-04T12:54:19.969Z</time></trkpt><trkpt lat="46.19456549403747" lon="9.795416784677023"><ele>1353.0</ele><time>2026-04-04T12:54:23.97Z</time></trkpt><trkpt lat="46.19463410028136" lon="9.795398903379844"><ele>1353.0</ele><time>2026-04-04T12:54:27.97Z</time></trkpt><trkpt lat="46.194644207277825" lon="9.795268918587501"><ele>1353.0</ele><time>2026-04-04T12:54:39.97Z</time></trkpt><trkpt lat="46.194678595829295" lon="9.795190014907131"><ele>1353.0</ele><time>2026-04-04T12:54:49.97Z</time></trkpt><trkpt lat="46.19474400464085" lon="9.79517101864062"><ele>1353.0</ele><time>2026-04-04T12:54:52.97Z</time></trkpt><trkpt lat="46.19486943193453" lon="9.79513567907797"><ele>1353.0</ele><time>2026-04-04T12:55:10.97Z</time></trkpt><trkpt lat="46.19486394630969" lon="9.795269452608471"><ele>1353.0</ele><time>2026-04-04T12:55:18.97Z</time></trkpt><trkpt lat="46.1948068755315" lon="9.795372566455905"><ele>1353.0</ele><time>2026-04-04T12:55:20.97Z</time></trkpt><trkpt lat="46.19491051791483" lon="9.79549866777382"><ele>1353.0</ele><time>2026-04-04T12:55:34.969Z</time></trkpt><trkpt lat="46.19493653929403" lon="9.795404801391438"><ele>1353.0</ele><time>2026-04-04T12:55:56.969Z</time></trkpt><trkpt lat="46.19488151453905" lon="9.795473487976972"><ele>1353.0</ele><time>2026-04-04T12:56:09.969Z</time></trkpt><trkpt lat="46.19480322931396" lon="9.795531739256832"><ele>1353.0</ele><time>2026-04-04T12:56:11.969Z</time></trkpt><trkpt lat="46.19488794566172" lon="9.795569755775055"><ele>1353.0</ele><time>2026-04-04T12:56:16.969Z</time></trkpt><trkpt lat="46.194863986093715" lon="9.795709605401484"><ele>1353.0</ele><time>2026-04-04T12:56:26.969Z</time></trkpt><trkpt lat="46.19492048827145" lon="9.795755350835776"><ele>1363.1666666666667</ele><time>2026-04-04T12:56:28.969Z</time></trkpt><trkpt lat="46.19499612999944" lon="9.795705344800998"><ele>1373.3333333333333</ele><time>2026-04-04T12:56:45.969Z</time></trkpt><trkpt lat="46.19507101641571" lon="9.795692262335134"><ele>1383.5</ele><time>2026-04-04T12:56:48.969Z</time></trkpt><trkpt lat="46.19516807996312" lon="9.795705209118257"><ele>1393.6666666666665</ele><time>2026-04-04T12:56:52.969Z</time></trkpt><trkpt lat="46.19521338858218" lon="9.795636662651521"><ele>1403.8333333333333</ele><time>2026-04-04T12:56:55.969Z</time></trkpt><trkpt lat="46.19527664867078" lon="9.795572327153968"><ele>1414.0</ele><time>2026-04-04T12:56:57.969Z</time></trkpt><trkpt lat="46.19534309601567" lon="9.795536886303841"><ele>1414.0</ele><time>2026-04-04T12:56:59.969Z</time></trkpt><trkpt lat="46.19541491559633" lon="9.795537508325022"><ele>1414.0</ele><time>2026-04-04T12:57:03.969Z</time></trkpt><trkpt lat="46.19549741609391" lon="9.795503682577523"><ele>1414.0</ele><time>2026-04-04T12:57:07.969Z</time></trkpt><trkpt lat="46.19556246671173" lon="9.795500120519378"><ele>1414.0</ele><time>2026-04-04T12:57:09.969Z</time></trkpt><trkpt lat="46.19558783200352" lon="9.795593935053942"><ele>1414.0</ele><time>2026-04-04T12:57:15.969Z</time></trkpt><trkpt lat="46.19552094674093" lon="9.7955638683741"><ele>1414.0</ele><time>2026-04-04T12:57:23.969Z</time></trkpt><trkpt lat="46.195590672962595" lon="9.795564024052435"><ele>1414.0</ele><time>2026-04-04T12:57:25.969Z</time></trkpt><trkpt lat="46.19567547307801" lon="9.795593654622284"><ele>1419.2857142857142</ele><time>2026-04-04T12:57:34.969Z</time></trkpt><trkpt lat="46.19573535032814" lon="9.795626505717106"><ele>1424.5714285714284</ele><time>2026-04-04T12:57:43.969Z</time></trkpt><trkpt lat="46.19580025765026" lon="9.795620308808"><ele>1429.857142857143</ele><time>2026-04-04T12:57:46.969Z</time></trkpt><trkpt lat="46.195876089723804" lon="9.795611821416532"><ele>1435.142857142857</ele><time>2026-04-04T12:57:55.969Z</time></trkpt><trkpt lat="46.195948096837064" lon="9.795629779255536"><ele>1440.4285714285713</ele><time>2026-04-04T12:57:57.969Z</time></trkpt><trkpt lat="46.19600893709171" lon="9.795655268174873"><ele>1445.7142857142858</ele><time>2026-04-04T12:57:59.969Z</time></trkpt><trkpt lat="46.19607113843881" lon="9.795682517869352"><ele>1451.0</ele><time>2026-04-04T12:58:01.969Z</time></trkpt><trkpt lat="46.19613999517951" lon="9.795685995039046"><ele>1451.0</ele><time>2026-04-04T12:58:04.969Z</time></trkpt><trkpt lat="46.196061226146796" lon="9.795732604200039"><ele>1451.0</ele><time>2026-04-04T12:58:23.969Z</time></trkpt><trkpt lat="46.196002075618054" lon="9.795788079357795"><ele>1451.0</ele><time>2026-04-04T12:58:28.968Z</time></trkpt><trkpt lat="46.195938929365546" lon="9.79585778639218"><ele>1451.0</ele><time>2026-04-04T12:58:32.968Z</time></trkpt><trkpt lat="46.19586010410347" lon="9.795903385235357"><ele>1451.0</ele><time>2026-04-04T12:58:34.968Z</time></trkpt><trkpt lat="46.195795663355575" lon="9.795979121622917"><ele>1451.0</ele><time>2026-04-04T12:58:36.969Z</time></trkpt><trkpt lat="46.1958703701695" lon="9.796043014118988"><ele>1456.8333333333335</ele><time>2026-04-04T12:58:45.968Z</time></trkpt><trkpt lat="46.19593387657615" lon="9.796042841197757"><ele>1462.6666666666667</ele><time>2026-04-04T12:58:47.969Z</time></trkpt><trkpt lat="46.1960150797997" lon="9.79604001349224"><ele>1468.5</ele><time>2026-04-04T12:58:50.969Z</time></trkpt><trkpt lat="46.196098961247294" lon="9.796084395114924"><ele>1474.3333333333333</ele><time>2026-04-04T12:58:53.968Z</time></trkpt><trkpt lat="46.1961736468084" lon="9.796122985667768"><ele>1480.1666666666665</ele><time>2026-04-04T12:58:56.968Z</time></trkpt><trkpt lat="46.19625708858129" lon="9.796175905235236"><ele>1486.0</ele><time>2026-04-04T12:58:59.968Z</time></trkpt><trkpt lat="46.196331182546636" lon="9.796152075124018"><ele>1486.0</ele><time>2026-04-04T12:59:01.968Z</time></trkpt><trkpt lat="46.1963875896193" lon="9.796078411707542"><ele>1486.0</ele><time>2026-04-04T12:59:04.968Z</time></trkpt><trkpt lat="46.1964846037215" lon="9.796166740580418"><ele>1486.0</ele><time>2026-04-04T12:59:07.968Z</time></trkpt><trkpt lat="46.19656413639397" lon="9.796162278942612"><ele>1486.0</ele><time>2026-04-04T12:59:10.968Z</time></trkpt><trkpt lat="46.19665771435292" lon="9.796215473173085"><ele>1486.0</ele><time>2026-04-04T12:59:27.968Z</time></trkpt><trkpt lat="46.19673277822009" lon="9.796232888760958"><ele>1486.0</ele><time>2026-04-04T12:59:39.968Z</time></trkpt><trkpt lat="46.19666092316193" lon="9.79618403235349"><ele>1492.1666666666665</ele><time>2026-04-04T13:00:17.968Z</time></trkpt><trkpt lat="46.19667738143746" lon="9.796273228680173"><ele>1498.3333333333333</ele><time>2026-04-04T13:00:36.968Z</time></trkpt><trkpt lat="46.1965974367696" lon="9.79623705912445"><ele>1504.5</ele><time>2026-04-04T13:00:59.968Z</time></trkpt><trkpt lat="46.19668646379564" lon="9.79629831927517"><ele>1510.6666666666667</ele><time>2026-04-04T13:01:23.968Z</time></trkpt><trkpt lat="46.19671720159728" lon="9.796396808926827"><ele>1516.8333333333335</ele><time>2026-04-04T13:01:34.967Z</time></trkpt><trkpt lat="46.19670255088743" lon="9.796269911722597"><ele>1523.0</ele><time>2026-04-04T13:01:46.967Z</time></trkpt><trkpt lat="46.19665908415882" lon="9.7963385917853"><ele>1523.0000000000002</ele><time>2026-04-04T13:01:50.967Z</time></trkpt><trkpt lat="46.19666456068069" lon="9.79623670531515"><ele>1523.0</ele><time>2026-04-04T13:02:02.967Z</time></trkpt><trkpt lat="46.19666149544198" lon="9.796341790414258"><ele>1523.0</ele><time>2026-04-04T13:02:06.967Z</time></trkpt><trkpt lat="46.19671813346685" lon="9.796382491039816"><ele>1523.0</ele><time>2026-04-04T13:02:16.967Z</time></trkpt><trkpt lat="46.196718717834806" lon="9.796278213823154"><ele>1523.0</ele><time>2026-04-04T13:02:30.967Z</time></trkpt><trkpt lat="46.19671940635254" lon="9.796182562954607"><ele>1523.0000000000002</ele><time>2026-04-04T13:02:35.967Z</time></trkpt><trkpt lat="46.19678149949094" lon="9.796216228713181"><ele>1523.0</ele><time>2026-04-04T13:02:57.968Z</time></trkpt><trkpt lat="46.19691832875208" lon="9.796368560782293"><ele>1523.0</ele><time>2026-04-04T13:03:15.966Z</time></trkpt><trkpt lat="46.19696541872278" lon="9.796455517387932"><ele>1523.0</ele><time>2026-04-04T13:03:20.966Z</time></trkpt><trkpt lat="46.19698896812089" lon="9.796548711357916"><ele>1523.0</ele><time>2026-04-04T13:03:27.966Z</time></trkpt><trkpt lat="46.19696128117356" lon="9.796427818774639"><ele>1523.0</ele><time>2026-04-04T13:03:36.966Z</time></trkpt><trkpt lat="46.19690081018084" lon="9.796379641790796"><ele>1523.0</ele><time>2026-04-04T13:03:40.966Z</time></trkpt><trkpt lat="46.19693346151025" lon="9.796458231705182"><ele>1523.0</ele><time>2026-04-04T13:05:04.967Z</time></trkpt><trkpt lat="46.19703660762702" lon="9.79647183200844"><ele>1523.0000000000002</ele><time>2026-04-04T13:07:33.965Z</time></trkpt><trkpt lat="46.19696768231923" lon="9.79647397681178"><ele>1523.0</ele><time>2026-04-04T13:07:47.965Z</time></trkpt><trkpt lat="46.19701673640726" lon="9.796536626684546"><ele>1523.0</ele><time>2026-04-04T13:08:40.964Z</time></trkpt><trkpt lat="46.19708266958743" lon="9.79653364134908"><ele>1523.0</ele><time>2026-04-04T13:08:42.964Z</time></trkpt><trkpt lat="46.197148165387" lon="9.796529508613572"><ele>1523.0</ele><time>2026-04-04T13:08:44.964Z</time></trkpt><trkpt lat="46.197217991975414" lon="9.796428864656257"><ele>1523.0000000000002</ele><time>2026-04-04T13:08:47.964Z</time></trkpt><trkpt lat="46.19728917642942" lon="9.796389941225932"><ele>1523.0</ele><time>2026-04-04T13:08:52.964Z</time></trkpt><trkpt lat="46.19728104972236" lon="9.796275776891285"><ele>1526.0000000000002</ele><time>2026-04-04T13:09:01.964Z</time></trkpt><trkpt lat="46.19737011040731" lon="9.796257143199197"><ele>1529.0</ele><time>2026-04-04T13:09:14.981Z</time></trkpt><trkpt lat="46.19734187088226" lon="9.796159283820204"><ele>1532.0</ele><time>2026-04-04T13:09:38.997Z</time></trkpt><trkpt lat="46.19738055109474" lon="9.796245892191022"><ele>1535.0</ele><time>2026-04-04T13:10:25.001Z</time></trkpt><trkpt lat="46.19743114041424" lon="9.79632247244091"><ele>1538.0</ele><time>2026-04-04T13:10:31.001Z</time></trkpt><trkpt lat="46.19746068030277" lon="9.796239621083236"><ele>1541.0000000000002</ele><time>2026-04-04T13:10:44.001Z</time></trkpt><trkpt lat="46.197452507091675" lon="9.79634623042781"><ele>1544.0</ele><time>2026-04-04T13:11:06.001Z</time></trkpt><trkpt lat="46.19738893790362" lon="9.796380502809974"><ele>1543.9999999999998</ele><time>2026-04-04T13:11:11.001Z</time></trkpt><trkpt lat="46.197387828503096" lon="9.796481444613093"><ele>1544.0</ele><time>2026-04-04T13:11:15.001Z</time></trkpt><trkpt lat="46.19744431931393" lon="9.796415187636436"><ele>1544.0</ele><time>2026-04-04T13:11:39Z</time></trkpt><trkpt lat="46.19751649270011" lon="9.7963703604314"><ele>1544.0</ele><time>2026-04-04T13:11:52Z</time></trkpt><trkpt lat="46.197663629747225" lon="9.796364464445688"><ele>1543.9999999999998</ele><time>2026-04-04T13:11:59Z</time></trkpt><trkpt lat="46.19773153178374" lon="9.796364891210251"><ele>1544.0</ele><time>2026-04-04T13:12:18Z</time></trkpt><trkpt lat="46.19780884256499" lon="9.796430075443713"><ele>1543.9999999999998</ele><time>2026-04-04T13:12:21Z</time></trkpt><trkpt lat="46.19793550428485" lon="9.796393938911777"><ele>1544.0</ele><time>2026-04-04T13:12:34Z</time></trkpt><trkpt lat="46.19799458271076" lon="9.796426728536309"><ele>1544.0</ele><time>2026-04-04T13:12:39Z</time></trkpt><trkpt lat="46.1980687194751" lon="9.796387248218124"><ele>1544.0</ele><time>2026-04-04T13:12:43Z</time></trkpt><trkpt lat="46.19813935436372" lon="9.796405916675386"><ele>1543.9999999999998</ele><time>2026-04-04T13:12:46Z</time></trkpt><trkpt lat="46.198154615162714" lon="9.796499212662077"><ele>1544.0</ele><time>2026-04-04T13:12:47Z</time></trkpt><trkpt lat="46.19806297359619" lon="9.796560031072136"><ele>1543.9999999999998</ele><time>2026-04-04T13:12:51Z</time></trkpt><trkpt lat="46.19811217258899" lon="9.79664081416309"><ele>1544.0</ele><time>2026-04-04T13:13:04Z</time></trkpt><trkpt lat="46.198193548019795" lon="9.796577087359918"><ele>1544.0</ele><time>2026-04-04T13:13:23.001Z</time></trkpt><trkpt lat="46.19827206181369" lon="9.796565203391978"><ele>1544.0</ele><time>2026-04-04T13:13:26.001Z</time></trkpt><trkpt lat="46.19835106632647" lon="9.79654596351879"><ele>1543.9999999999998</ele><time>2026-04-04T13:13:31Z</time></trkpt><trkpt lat="46.198421560442185" lon="9.796571186585917"><ele>1544.0</ele><time>2026-04-04T13:13:35Z</time></trkpt><trkpt lat="46.198491765798344" lon="9.796591593654085"><ele>1546.4</ele><time>2026-04-04T13:13:37Z</time></trkpt><trkpt lat="46.198583383236304" lon="9.796570401058778"><ele>1548.8000000000002</ele><time>2026-04-04T13:13:39Z</time></trkpt><trkpt lat="46.19865630828393" lon="9.796586158918286"><ele>1551.1999999999998</ele><time>2026-04-04T13:13:41Z</time></trkpt><trkpt lat="46.19863004283287" lon="9.796479743490014"><ele>1553.6</ele><time>2026-04-04T13:13:53Z</time></trkpt><trkpt lat="46.19856883270929" lon="9.796558778214587"><ele>1556.0</ele><time>2026-04-04T13:13:55Z</time></trkpt><trkpt lat="46.1984741715751" lon="9.796692055930489"><ele>1556.0</ele><time>2026-04-04T13:13:56Z</time></trkpt><trkpt lat="46.19841929900481" lon="9.79674560315899"><ele>1556.0</ele><time>2026-04-04T13:13:57Z</time></trkpt><trkpt lat="46.19833089140014" lon="9.796778136360619"><ele>1556.0</ele><time>2026-04-04T13:13:59Z</time></trkpt><trkpt lat="46.19826243230447" lon="9.796739056687972"><ele>1556.0</ele><time>2026-04-04T13:14:03Z</time></trkpt><trkpt lat="46.19818814310325" lon="9.796753645675203"><ele>1556.0</ele><time>2026-04-04T13:14:08Z</time></trkpt><trkpt lat="46.19811570866582" lon="9.796756100356566"><ele>1556.0</ele><time>2026-04-04T13:14:12Z</time></trkpt><trkpt lat="46.19805651849507" lon="9.796797834238442"><ele>1556.0</ele><time>2026-04-04T13:14:14Z</time></trkpt><trkpt lat="46.19799205639617" lon="9.79677943424908"><ele>1554.2857142857144</ele><time>2026-04-04T13:14:16Z</time></trkpt><trkpt lat="46.19792653410939" lon="9.796725799315311"><ele>1552.5714285714284</ele><time>2026-04-04T13:14:33Z</time></trkpt><trkpt lat="46.197860418718946" lon="9.796750089608814"><ele>1550.857142857143</ele><time>2026-04-04T13:14:49Z</time></trkpt><trkpt lat="46.19779404027949" lon="9.796779104315503"><ele>1549.1428571428573</ele><time>2026-04-04T13:14:51Z</time></trkpt><trkpt lat="46.197859708886135" lon="9.796757728221285"><ele>1547.4285714285716</ele><time>2026-04-04T13:15:04Z</time></trkpt><trkpt lat="46.197931830465706" lon="9.796711377865552"><ele>1545.7142857142858</ele><time>2026-04-04T13:15:16Z</time></trkpt><trkpt lat="46.19788530713372" lon="9.796785999713943"><ele>1544.0</ele><time>2026-04-04T13:16:10Z</time></trkpt><trkpt lat="46.19783009877698" lon="9.796834337804253"><ele>1549.9999999999998</ele><time>2026-04-04T13:16:25Z</time></trkpt><trkpt lat="46.197766410759066" lon="9.796845576099594"><ele>1556.0</ele><time>2026-04-04T13:16:41Z</time></trkpt><trkpt lat="46.197695581578884" lon="9.796927315294887"><ele>1562.0</ele><time>2026-04-04T13:16:47Z</time></trkpt><trkpt lat="46.19763015154068" lon="9.797002659356258"><ele>1568.0</ele><time>2026-04-04T13:16:50Z</time></trkpt><trkpt lat="46.19759111381323" lon="9.797109756103929"><ele>1573.9999999999998</ele><time>2026-04-04T13:16:53Z</time></trkpt><trkpt lat="46.19751664914685" lon="9.797245608656324"><ele>1580.0</ele><time>2026-04-04T13:16:55Z</time></trkpt><trkpt lat="46.19745045006435" lon="9.797326076050249"><ele>1579.9999999999998</ele><time>2026-04-04T13:16:57Z</time></trkpt><trkpt lat="46.197403987516914" lon="9.797389955463924"><ele>1580.0</ele><time>2026-04-04T13:16:59Z</time></trkpt><trkpt lat="46.19735827369556" lon="9.797519393247013"><ele>1580.0</ele><time>2026-04-04T13:17:02Z</time></trkpt><trkpt lat="46.197325810812984" lon="9.797617991669297"><ele>1580.0</ele><time>2026-04-04T13:17:05Z</time></trkpt><trkpt lat="46.197251558610326" lon="9.79760830162771"><ele>1579.9999999999998</ele><time>2026-04-04T13:17:13Z</time></trkpt><trkpt lat="46.19719964830083" lon="9.797662386729867"><ele>1580.0</ele><time>2026-04-04T13:17:17Z</time></trkpt><trkpt lat="46.197263134339806" lon="9.79771424880487"><ele>1583.6</ele><time>2026-04-04T13:17:28.999Z</time></trkpt><trkpt lat="46.19730312611686" lon="9.79779385658912"><ele>1587.2</ele><time>2026-04-04T13:17:35Z</time></trkpt><trkpt lat="46.19737343696059" lon="9.797804892079624"><ele>1590.8000000000002</ele><time>2026-04-04T13:17:43Z</time></trkpt><trkpt lat="46.19755509034675" lon="9.797770429430122"><ele>1594.4</ele><time>2026-04-04T13:17:47Z</time></trkpt><trkpt lat="46.19765059866357" lon="9.797757084120562"><ele>1598.0</ele><time>2026-04-04T13:17:53Z</time></trkpt><trkpt lat="46.19770753904523" lon="9.797701836130267"><ele>1594.9999999999998</ele><time>2026-04-04T13:17:55Z</time></trkpt><trkpt lat="46.197816466184015" lon="9.797612232630287"><ele>1592.0</ele><time>2026-04-04T13:17:56Z</time></trkpt><trkpt lat="46.19789293202159" lon="9.797648797817978"><ele>1589.0</ele><time>2026-04-04T13:17:59Z</time></trkpt><trkpt lat="46.19795694945096" lon="9.797701176960526"><ele>1586.0</ele><time>2026-04-04T13:18:03Z</time></trkpt><trkpt lat="46.19793865908956" lon="9.797789699159416"><ele>1582.9999999999998</ele><time>2026-04-04T13:18:06Z</time></trkpt><trkpt lat="46.197946911216434" lon="9.79788947851081"><ele>1580.0</ele><time>2026-04-04T13:18:10Z</time></trkpt><trkpt lat="46.19801919175261" lon="9.797940638048322"><ele>1589.0</ele><time>2026-04-04T13:18:28Z</time></trkpt><trkpt lat="46.1980891616593" lon="9.797978581796064"><ele>1598.0</ele><time>2026-04-04T13:18:31Z</time></trkpt><trkpt lat="46.19799133482494" lon="9.798037554710584"><ele>1607.0</ele><time>2026-04-04T13:18:42Z</time></trkpt><trkpt lat="46.19787495950395" lon="9.798052922033115"><ele>1616.0</ele><time>2026-04-04T13:18:43Z</time></trkpt><trkpt lat="46.19793958064613" lon="9.797962710978062"><ele>1625.0</ele><time>2026-04-04T13:19:01Z</time></trkpt><trkpt lat="46.19800567979868" lon="9.797958503287145"><ele>1624.9999999999998</ele><time>2026-04-04T13:19:17Z</time></trkpt><trkpt lat="46.19809522118936" lon="9.797940985026"><ele>1625.0</ele><time>2026-04-04T13:19:21Z</time></trkpt><trkpt lat="46.198120120599576" lon="9.798096969731429"><ele>1625.0</ele><time>2026-04-04T13:19:24Z</time></trkpt><trkpt lat="46.19816618914364" lon="9.79821901072022"><ele>1625.0</ele><time>2026-04-04T13:19:37Z</time></trkpt><trkpt lat="46.198218557165774" lon="9.798275249204533"><ele>1624.9999999999998</ele><time>2026-04-04T13:19:44Z</time></trkpt><trkpt lat="46.198259882602926" lon="9.79817314734887"><ele>1625.0</ele><time>2026-04-04T13:20:13Z</time></trkpt><trkpt lat="46.19831816034164" lon="9.798255111343494"><ele>1627.6</ele><time>2026-04-04T13:20:25Z</time></trkpt><trkpt lat="46.1982482872067" lon="9.79829910721877"><ele>1630.2</ele><time>2026-04-04T13:20:28Z</time></trkpt><trkpt lat="46.19829943770737" lon="9.798356373678988"><ele>1632.8000000000002</ele><time>2026-04-04T13:20:34Z</time></trkpt><trkpt lat="46.19837470917011" lon="9.79833218807994"><ele>1635.4</ele><time>2026-04-04T13:20:42Z</time></trkpt><trkpt lat="46.19844546252005" lon="9.798346313574916"><ele>1638.0</ele><time>2026-04-04T13:21:33Z</time></trkpt><trkpt lat="46.198590464892504" lon="9.798479958438715"><ele>1638.0</ele><time>2026-04-04T13:21:47Z</time></trkpt><trkpt lat="46.198510851935836" lon="9.79843966381764"><ele>1638.0</ele><time>2026-04-04T13:21:52Z</time></trkpt><trkpt lat="46.19848245072835" lon="9.79834915350681"><ele>1638.0</ele><time>2026-04-04T13:21:58Z</time></trkpt><trkpt lat="46.198432626848536" lon="9.798461644133692"><ele>1638.0</ele><time>2026-04-04T13:22:17Z</time></trkpt><trkpt lat="46.19840013795811" lon="9.798560488828691"><ele>1638.0</ele><time>2026-04-04T13:22:21Z</time></trkpt><trkpt lat="46.198364179025454" lon="9.798644159623672"><ele>1638.0</ele><time>2026-04-04T13:22:29Z</time></trkpt><trkpt lat="46.19828526426598" lon="9.798653282687491"><ele>1643.0</ele><time>2026-04-04T13:22:32Z</time></trkpt><trkpt lat="46.19821706390498" lon="9.798713910335156"><ele>1648.0</ele><time>2026-04-04T13:22:41Z</time></trkpt><trkpt lat="46.198154443408846" lon="9.798783438295716"><ele>1653.0</ele><time>2026-04-04T13:22:59Z</time></trkpt><trkpt lat="46.198089002131155" lon="9.798842091550252"><ele>1658.0</ele><time>2026-04-04T13:23:20.999Z</time></trkpt><trkpt lat="46.19801851823118" lon="9.798832990589046"><ele>1663.0</ele><time>2026-04-04T13:23:46.999Z</time></trkpt><trkpt lat="46.198075833394014" lon="9.798896861794473"><ele>1668.0</ele><time>2026-04-04T13:23:52Z</time></trkpt><trkpt lat="46.19814327864594" lon="9.798947711901556"><ele>1668.0</ele><time>2026-04-04T13:23:56Z</time></trkpt><trkpt lat="46.19800120768798" lon="9.79890252103379"><ele>1668.0</ele><time>2026-04-04T13:24:06Z</time></trkpt><trkpt lat="46.197939887866674" lon="9.798804445613428"><ele>1668.0</ele><time>2026-04-04T13:24:09Z</time></trkpt><trkpt lat="46.198000409058665" lon="9.798774970184862"><ele>1668.0</ele><time>2026-04-04T13:24:16Z</time></trkpt><trkpt lat="46.19811821038037" lon="9.798832902296374"><ele>1668.0</ele><time>2026-04-04T13:24:40Z</time></trkpt><trkpt lat="46.19804369926979" lon="9.79887359077404"><ele>1668.0</ele><time>2026-04-04T13:24:52Z</time></trkpt><trkpt lat="46.19797329335261" lon="9.798889891255293"><ele>1668.0</ele><time>2026-04-04T13:24:55Z</time></trkpt><trkpt lat="46.19786144225899" lon="9.798827890835875"><ele>1668.0</ele><time>2026-04-04T13:24:59Z</time></trkpt><trkpt lat="46.19795087452064" lon="9.798806578757524"><ele>1668.0</ele><time>2026-04-04T13:25:02Z</time></trkpt><trkpt lat="46.197946494037" lon="9.798904199596914"><ele>1668.0</ele><time>2026-04-04T13:25:07Z</time></trkpt><trkpt lat="46.197959439673326" lon="9.798808849654895"><ele>1668.0</ele><time>2026-04-04T13:25:21Z</time></trkpt><trkpt lat="46.19805368242722" lon="9.79882377974146"><ele>1668.0</ele><time>2026-04-04T13:25:23Z</time></trkpt><trkpt lat="46.198022894848506" lon="9.798943566947548"><ele>1668.0</ele><time>2026-04-04T13:25:47Z</time></trkpt><trkpt lat="46.19807384412851" lon="9.798879235550983"><ele>1668.0</ele><time>2026-04-04T13:26:07Z</time></trkpt><trkpt lat="46.19815818991969" lon="9.79885017249578"><ele>1668.0</ele><time>2026-04-04T13:26:37.999Z</time></trkpt><trkpt lat="46.19822352978629" lon="9.79885700402266"><ele>1668.0</ele><time>2026-04-04T13:26:41.999Z</time></trkpt><trkpt lat="46.18433269830578" lon="9.800034954733201"><ele>1539.6666666666667</ele><time>2026-04-04T12:45:25.972Z</time></trkpt><trkpt lat="46.18440993007911" lon="9.800081092032329"><ele>1411.3333333333333</ele><time>2026-04-04T12:45:29.972Z</time></trkpt><trkpt lat="46.1844958176625" lon="9.800095871992335"><ele>1283.0</ele><time>2026-04-04T12:45:31.972Z</time></trkpt><trkpt lat="46.18456953417497" lon="9.800116699567658"><ele>1154.6666666666665</ele><time>2026-04-04T12:45:33.972Z</time></trkpt><trkpt lat="46.18466282226181" lon="9.80003256965486"><ele>1026.3333333333333</ele><time>2026-04-04T12:45:35.972Z</time></trkpt><trkpt lat="46.18474714390404" lon="9.800003449149196"><ele>898.0</ele><time>2026-04-04T12:45:36.972Z</time></trkpt><trkpt lat="46.18486354773073" lon="9.799946144993703"><ele>897.9999999999999</ele><time>2026-04-04T12:45:38.972Z</time></trkpt><trkpt lat="46.18491791616483" lon="9.799856769068061"><ele>898.0</ele><time>2026-04-04T12:45:39.972Z</time></trkpt><trkpt lat="46.18495331579364" lon="9.799761074610396"><ele>898.0</ele><time>2026-04-04T12:45:40.972Z</time></trkpt><trkpt lat="46.18497159415521" lon="9.799636918318164"><ele>898.0</ele><time>2026-04-04T12:45:41.972Z</time></trkpt><trkpt lat="46.185003458609785" lon="9.799539542250143"><ele>897.9999999999999</ele><time>2026-04-04T12:45:42.972Z</time></trkpt><trkpt lat="46.18508479133212" lon="9.799426341182803"><ele>898.0</ele><time>2026-04-04T12:45:44.972Z</time></trkpt><trkpt lat="46.185148082388146" lon="9.79939051143821"><ele>898.0</ele><time>2026-04-04T12:45:45.972Z</time></trkpt><trkpt lat="46.18522305347007" lon="9.79937784843346"><ele>898.0</ele><time>2026-04-04T12:45:46.972Z</time></trkpt><trkpt lat="46.18529410899656" lon="9.799384878768134"><ele>898.0</ele><time>2026-04-04T12:45:47.972Z</time></trkpt><trkpt lat="46.18541271494024" lon="9.799419095638578"><ele>898.0</ele><time>2026-04-04T12:45:49.972Z</time></trkpt><trkpt lat="46.18552089703097" lon="9.799533277244612"><ele>898.0</ele><time>2026-04-04T12:45:51.972Z</time></trkpt><trkpt lat="46.185599312565074" lon="9.799604882021537"><ele>897.9999999999999</ele><time>2026-04-04T12:45:52.972Z</time></trkpt><trkpt lat="46.18566302026548" lon="9.799647627574188"><ele>898.0</ele><time>2026-04-04T12:45:53.972Z</time></trkpt><trkpt lat="46.18569391788533" lon="9.799743133774278"><ele>898.0</ele><time>2026-04-04T12:45:55.972Z</time></trkpt><trkpt lat="46.18575364795076" lon="9.799795638734995"><ele>898.0</ele><time>2026-04-04T12:45:58.972Z</time></trkpt><trkpt lat="46.18581404091141" lon="9.799852184921667"><ele>897.9999999999999</ele><time>2026-04-04T12:46:09.972Z</time></trkpt><trkpt lat="46.18587712738744" lon="9.79994776746276"><ele>898.0</ele><time>2026-04-04T12:46:14.973Z</time></trkpt><trkpt lat="46.18594251571566" lon="9.799894286714274"><ele>903.8333333333333</ele><time>2026-04-04T12:46:18.973Z</time></trkpt><trkpt lat="46.185992032357085" lon="9.799804086293749"><ele>909.6666666666666</ele><time>2026-04-04T12:46:22.972Z</time></trkpt><trkpt lat="46.18605763767949" lon="9.799874609472546"><ele>915.5</ele><time>2026-04-04T12:46:25.972Z</time></trkpt><trkpt lat="46.1860760985127" lon="9.799760619076098"><ele>921.3333333333333</ele><time>2026-04-04T12:46:30.972Z</time></trkpt><trkpt lat="46.18610710014278" lon="9.799646082255554"><ele>927.1666666666666</ele><time>2026-04-04T12:46:32.972Z</time></trkpt><trkpt lat="46.18610095024049" lon="9.79949734447481"><ele>933.0</ele><time>2026-04-04T12:46:35.972Z</time></trkpt><trkpt lat="46.18611181317028" lon="9.799390582911233"><ele>929.8333333333334</ele><time>2026-04-04T12:46:37.972Z</time></trkpt><trkpt lat="46.18607141868981" lon="9.799316026774717"><ele>926.6666666666667</ele><time>2026-04-04T12:46:39.972Z</time></trkpt><trkpt lat="46.18610552929301" lon="9.799202385153169"><ele>923.5</ele><time>2026-04-04T12:46:41.972Z</time></trkpt><trkpt lat="46.18615442158145" lon="9.799113586786781"><ele>920.3333333333334</ele><time>2026-04-04T12:46:43.972Z</time></trkpt><trkpt lat="46.18617033755626" lon="9.799001097717955"><ele>917.1666666666667</ele><time>2026-04-04T12:46:45.972Z</time></trkpt><trkpt lat="46.186141097587736" lon="9.798908130198205"><ele>914.0</ele><time>2026-04-04T12:46:47.972Z</time></trkpt><trkpt lat="46.186095911889204" lon="9.798751571928143"><ele>914.0000000000001</ele><time>2026-04-04T12:46:49.972Z</time></trkpt><trkpt lat="46.18607283969963" lon="9.798638379805313"><ele>914.0</ele><time>2026-04-04T12:46:51.972Z</time></trkpt><trkpt lat="46.18599805055677" lon="9.798581098067224"><ele>914.0</ele><time>2026-04-04T12:46:54.972Z</time></trkpt><trkpt lat="46.18598069542052" lon="9.798471866574008"><ele>914.0</ele><time>2026-04-04T12:46:56.972Z</time></trkpt><trkpt lat="46.18595067766652" lon="9.798362216632345"><ele>914.0000000000001</ele><time>2026-04-04T12:46:58.972Z</time></trkpt><trkpt lat="46.18591889214093" lon="9.798246979019089"><ele>914.0</ele><time>2026-04-04T12:47:00.972Z</time></trkpt><trkpt lat="46.18601218678619" lon="9.79818720250073"><ele>916.3333333333334</ele><time>2026-04-04T12:47:02.972Z</time></trkpt><trkpt lat="46.18607963341836" lon="9.798203357545647"><ele>918.6666666666667</ele><time>2026-04-04T12:47:03.972Z</time></trkpt><trkpt lat="46.18614890392049" lon="9.798243893343633"><ele>921.0</ele><time>2026-04-04T12:47:05.972Z</time></trkpt><trkpt lat="46.186217827341814" lon="9.798287012040872"><ele>923.3333333333333</ele><time>2026-04-04T12:47:09.972Z</time></trkpt><trkpt lat="46.18630444479694" lon="9.798266085631859"><ele>925.6666666666666</ele><time>2026-04-04T12:47:12.972Z</time></trkpt><trkpt lat="46.186381679512685" lon="9.798293939849396"><ele>928.0</ele><time>2026-04-04T12:47:13.972Z</time></trkpt><trkpt lat="46.18645515339788" lon="9.79832288391475"><ele>934.6666666666666</ele><time>2026-04-04T12:47:15.972Z</time></trkpt><trkpt lat="46.18653294087904" lon="9.798378476013042"><ele>941.3333333333333</ele><time>2026-04-04T12:47:17.972Z</time></trkpt><trkpt lat="46.186597366971576" lon="9.798471595221269"><ele>948.0</ele><time>2026-04-04T12:47:19.972Z</time></trkpt><trkpt lat="46.18665073915836" lon="9.798530300723247"><ele>954.6666666666667</ele><time>2026-04-04T12:47:21.972Z</time></trkpt><trkpt lat="46.18672699326861" lon="9.79852347270515"><ele>961.3333333333334</ele><time>2026-04-04T12:47:23.972Z</time></trkpt><trkpt lat="46.18682899167205" lon="9.798509877386353"><ele>968.0</ele><time>2026-04-04T12:47:25.972Z</time></trkpt><trkpt lat="46.18690383734959" lon="9.798505898836936"><ele>968.0000000000001</ele><time>2026-04-04T12:47:27.972Z</time></trkpt><trkpt lat="46.18695649647527" lon="9.798579432006079"><ele>968.0</ele><time>2026-04-04T12:47:30.972Z</time></trkpt><trkpt lat="46.18694218573742" lon="9.79870935132562"><ele>968.0</ele><time>2026-04-04T12:47:32.972Z</time></trkpt><trkpt lat="46.18690878247842" lon="9.79880060110071"><ele>968.0</ele><time>2026-04-04T12:47:35.972Z</time></trkpt><trkpt lat="46.18698000182497" lon="9.798796691596824"><ele>968.0000000000001</ele><time>2026-04-04T12:47:37.972Z</time></trkpt><trkpt lat="46.18707364122426" lon="9.798788739039596"><ele>968.0</ele><time>2026-04-04T12:47:39.972Z</time></trkpt><trkpt lat="46.18715639652925" lon="9.798758290444797"><ele>968.0</ele><time>2026-04-04T12:47:41.972Z</time></trkpt><trkpt lat="46.18722874753588" lon="9.79870607181795"><ele>968.0</ele><time>2026-04-04T12:47:43.972Z</time></trkpt><trkpt lat="46.18728369480233" lon="9.798626397185233"><ele>968.0</ele><time>2026-04-04T12:47:45.972Z</time></trkpt><trkpt lat="46.187362381155545" lon="9.798544132206283"><ele>968.0</ele><time>2026-04-04T12:47:47.972Z</time></trkpt><trkpt lat="46.187435344326694" lon="9.798430500705987"><ele>968.0</ele><time>2026-04-04T12:47:49.972Z</time></trkpt><trkpt lat="46.18752595533731" lon="9.798437629391286"><ele>976.8333333333334</ele><time>2026-04-04T12:47:51.972Z</time></trkpt><trkpt lat="46.187631448977825" lon="9.798348029504227"><ele>985.6666666666667</ele><time>2026-04-04T12:47:54.972Z</time></trkpt><trkpt lat="46.187682777932814" lon="9.798285702993553"><ele>994.5</ele><time>2026-04-04T12:47:55.972Z</time></trkpt><trkpt lat="46.187739600829474" lon="9.798224600998049"><ele>1003.3333333333333</ele><time>2026-04-04T12:47:56.972Z</time></trkpt><trkpt lat="46.187755785115996" lon="9.79813612937951"><ele>1012.1666666666666</ele><time>2026-04-04T12:47:57.972Z</time></trkpt><trkpt lat="46.187802985623385" lon="9.79805212611272"><ele>1021.0</ele><time>2026-04-04T12:47:58.972Z</time></trkpt><trkpt lat="46.187858388339954" lon="9.797980972938646"><ele>1021.0</ele><time>2026-04-04T12:47:59.972Z</time></trkpt><trkpt lat="46.187912577428335" lon="9.797909968638283"><ele>1020.9999999999999</ele><time>2026-04-04T12:48:00.972Z</time></trkpt><trkpt lat="46.18798908077489" lon="9.79788692242645"><ele>1020.9999999999999</ele><time>2026-04-04T12:48:02.972Z</time></trkpt><trkpt lat="46.18808121215064" lon="9.797966382133183"><ele>1021.0</ele><time>2026-04-04T12:48:05.972Z</time></trkpt><trkpt lat="46.188127233772605" lon="9.798064122868022"><ele>1021.0</ele><time>2026-04-04T12:48:08.972Z</time></trkpt><trkpt lat="46.188157335564085" lon="9.798223048092517"><ele>1020.9999999999999</ele><time>2026-04-04T12:48:10.972Z</time></trkpt><trkpt lat="46.18815432055185" lon="9.798332593012832"><ele>1021.0</ele><time>2026-04-04T12:48:11.972Z</time></trkpt><trkpt lat="46.18816721598442" lon="9.798428682185396"><ele>1021.0</ele><time>2026-04-04T12:48:12.972Z</time></trkpt><trkpt lat="46.18815152168869" lon="9.798539487782921"><ele>1021.0</ele><time>2026-04-04T12:48:15.972Z</time></trkpt><trkpt lat="46.18823195514468" lon="9.79857641040173"><ele>1020.9999999999999</ele><time>2026-04-04T12:48:18.972Z</time></trkpt><trkpt lat="46.1883041390196" lon="9.798496787939497"><ele>1021.0</ele><time>2026-04-04T12:48:20.972Z</time></trkpt><trkpt lat="46.18835161657041" lon="9.798427107410884"><ele>1028.6666666666665</ele><time>2026-04-04T12:48:21.972Z</time></trkpt><trkpt lat="46.188402169484334" lon="9.798313751322725"><ele>1036.3333333333333</ele><time>2026-04-04T12:48:23.972Z</time></trkpt><trkpt lat="46.18845116000293" lon="9.798213691426762"><ele>1044.0</ele><time>2026-04-04T12:48:24.972Z</time></trkpt><trkpt lat="46.18847904894234" lon="9.798130839619507"><ele>1051.6666666666667</ele><time>2026-04-04T12:48:25.972Z</time></trkpt><trkpt lat="46.18852267019697" lon="9.798018105009534"><ele>1059.3333333333335</ele><time>2026-04-04T12:48:27.972Z</time></trkpt><trkpt lat="46.18858916255901" lon="9.797949097036613"><ele>1067.0</ele><time>2026-04-04T12:48:29.972Z</time></trkpt><trkpt lat="46.18865584634425" lon="9.797846946194998"><ele>1067.0</ele><time>2026-04-04T12:48:31.972Z</time></trkpt><trkpt lat="46.18873641898686" lon="9.797772811664233"><ele>1067.0</ele><time>2026-04-04T12:48:33.972Z</time></trkpt><trkpt lat="46.18879757302081" lon="9.797742898202129"><ele>1067.0</ele><time>2026-04-04T12:48:34.972Z</time></trkpt><trkpt lat="46.18884328815898" lon="9.797632351988275"><ele>1067.0</ele><time>2026-04-04T12:48:36.972Z</time></trkpt><trkpt lat="46.18889452981941" lon="9.797538589851568"><ele>1067.0</ele><time>2026-04-04T12:48:38.972Z</time></trkpt><trkpt lat="46.18894000173544" lon="9.79743064730645"><ele>1067.0</ele><time>2026-04-04T12:48:40.972Z</time></trkpt><trkpt lat="46.1889616786466" lon="9.79730716623675"><ele>1064.25</ele><time>2026-04-04T12:48:42.972Z</time></trkpt><trkpt lat="46.18899990769232" lon="9.797149779711475"><ele>1061.5</ele><time>2026-04-04T12:48:44.971Z</time></trkpt><trkpt lat="46.18902979280937" lon="9.797010409744987"><ele>1058.75</ele><time>2026-04-04T12:48:46.971Z</time></trkpt><trkpt lat="46.18911802884022" lon="9.79689985710907"><ele>1056.0</ele><time>2026-04-04T12:48:48.971Z</time></trkpt><trkpt lat="46.18917831668701" lon="9.796748102674494"><ele>1063.0</ele><time>2026-04-04T12:48:50.971Z</time></trkpt><trkpt lat="46.18924149114388" lon="9.796637301794355"><ele>1070.0</ele><time>2026-04-04T12:48:52.971Z</time></trkpt><trkpt lat="46.18929497223535" lon="9.796566755722736"><ele>1077.0</ele><time>2026-04-04T12:48:53.971Z</time></trkpt><trkpt lat="46.18937057636591" lon="9.7965181950537"><ele>1084.0</ele><time>2026-04-04T12:48:54.971Z</time></trkpt><trkpt lat="46.189420756975814" lon="9.796433736885753"><ele>1091.0</ele><time>2026-04-04T12:48:55.971Z</time></trkpt><trkpt lat="46.18948665312593" lon="9.79635457438779"><ele>1098.0</ele><time>2026-04-04T12:48:56.971Z</time></trkpt><trkpt lat="46.18953927218596" lon="9.796279569879767"><ele>1098.0</ele><time>2026-04-04T12:48:57.971Z</time></trkpt><trkpt lat="46.18962271488926" lon="9.796197125641513"><ele>1098.0</ele><time>2026-04-04T12:48:59.971Z</time></trkpt><trkpt lat="46.18968863916925" lon="9.796169444685422"><ele>1098.0</ele><time>2026-04-04T12:49:00.971Z</time></trkpt><trkpt lat="46.18970412281385" lon="9.7960770016305"><ele>1098.0</ele><time>2026-04-04T12:49:01.971Z</time></trkpt><trkpt lat="46.18981187587343" lon="9.795997433700258"><ele>1098.0</ele><time>2026-04-04T12:49:03.971Z</time></trkpt><trkpt lat="46.18988261270708" lon="9.795947097490567"><ele>1098.0</ele><time>2026-04-04T12:49:04.971Z</time></trkpt><trkpt lat="46.18996852539403" lon="9.795878901166509"><ele>1102.5</ele><time>2026-04-04T12:49:05.971Z</time></trkpt><trkpt lat="46.19002747489671" lon="9.795825698839467"><ele>1107.0</ele><time>2026-04-04T12:49:06.971Z</time></trkpt><trkpt lat="46.19008488443316" lon="9.795778714934208"><ele>1111.5</ele><time>2026-04-04T12:49:07.971Z</time></trkpt><trkpt lat="46.19016368784734" lon="9.79575295204827"><ele>1116.0</ele><time>2026-04-04T12:49:08.971Z</time></trkpt><trkpt lat="46.190224210867875" lon="9.795724257746842"><ele>1120.5</ele><time>2026-04-04T12:49:09.971Z</time></trkpt><trkpt lat="46.1902915330963" lon="9.795692610173182"><ele>1125.0</ele><time>2026-04-04T12:49:10.971Z</time></trkpt><trkpt lat="46.190402057312326" lon="9.795676906088994"><ele>1125.0</ele><time>2026-04-04T12:49:12.971Z</time></trkpt><trkpt lat="46.19047536541914" lon="9.79566694771973"><ele>1125.0</ele><time>2026-04-04T12:49:14.971Z</time></trkpt><trkpt lat="46.19055011764439" lon="9.795707145090049"><ele>1125.0</ele><time>2026-04-04T12:49:17.971Z</time></trkpt><trkpt lat="46.190629751410555" lon="9.795762405011978"><ele>1125.0</ele><time>2026-04-04T12:49:18.971Z</time></trkpt><trkpt lat="46.19071721818884" lon="9.795717020067219"><ele>1125.0</ele><time>2026-04-04T12:49:20.971Z</time></trkpt><trkpt lat="46.19083847198417" lon="9.795669492989127"><ele>1131.0</ele><time>2026-04-04T12:49:22.971Z</time></trkpt><trkpt lat="46.191009565492315" lon="9.795606119891247"><ele>1137.0</ele><time>2026-04-04T12:49:27.971Z</time></trkpt><trkpt lat="46.191083301250394" lon="9.795525423041152"><ele>1143.0</ele><time>2026-04-04T12:49:29.971Z</time></trkpt><trkpt lat="46.19114464647247" lon="9.7954636419044"><ele>1149.0</ele><time>2026-04-04T12:49:32.971Z</time></trkpt><trkpt lat="46.19123292416111" lon="9.79545536933898"><ele>1155.0</ele><time>2026-04-04T12:49:34.971Z</time></trkpt><trkpt lat="46.191295878577186" lon="9.795424567465295"><ele>1155.0</ele><time>2026-04-04T12:49:35.971Z</time></trkpt><trkpt lat="46.19136006807252" lon="9.795423928341952"><ele>1155.0</ele><time>2026-04-04T12:49:37.971Z</time></trkpt><trkpt lat="46.19141709548402" lon="9.795499156016923"><ele>1155.0</ele><time>2026-04-04T12:49:39.971Z</time></trkpt><trkpt lat="46.191500307167146" lon="9.795473509398906"><ele>1155.0</ele><time>2026-04-04T12:49:41.971Z</time></trkpt><trkpt lat="46.19158353430554" lon="9.795442103457287"><ele>1155.0</ele><time>2026-04-04T12:49:44.971Z</time></trkpt><trkpt lat="46.19165272016691" lon="9.795436769238055"><ele>1155.0</ele><time>2026-04-04T12:49:46.971Z</time></trkpt><trkpt lat="46.19172135225385" lon="9.795418262347853"><ele>1154.8</ele><time>2026-04-04T12:49:49.971Z</time></trkpt><trkpt lat="46.191689411104576" lon="9.79533401538542"><ele>1154.6</ele><time>2026-04-04T12:49:52.971Z</time></trkpt><trkpt lat="46.191659694249466" lon="9.795224434852551"><ele>1154.4</ele><time>2026-04-04T12:49:53.971Z</time></trkpt><trkpt lat="46.1916730252355" lon="9.795054246529892"><ele>1154.2</ele><time>2026-04-04T12:49:54.971Z</time></trkpt><trkpt lat="46.19171207768545" lon="9.794914500239107"><ele>1154.0</ele><time>2026-04-04T12:49:55.971Z</time></trkpt><trkpt lat="46.191734725785174" lon="9.794757031975818"><ele>1154.0</ele><time>2026-04-04T12:49:57.971Z</time></trkpt><trkpt lat="46.19176506990005" lon="9.794641621894844"><ele>1154.0</ele><time>2026-04-04T12:49:59.971Z</time></trkpt><trkpt lat="46.19184940320788" lon="9.794570712740883"><ele>1154.0</ele><time>2026-04-04T12:50:01.971Z</time></trkpt><trkpt lat="46.19192397357333" lon="9.794555700925907"><ele>1154.0</ele><time>2026-04-04T12:50:03.971Z</time></trkpt><trkpt lat="46.19198816812405" lon="9.794486023206035"><ele>1154.0</ele><time>2026-04-04T12:50:06.971Z</time></trkpt><trkpt lat="46.192080751366824" lon="9.79445669939126"><ele>1154.0</ele><time>2026-04-04T12:50:08.971Z</time></trkpt><trkpt lat="46.19214486350083" lon="9.794358000570487"><ele>1149.6000000000001</ele><time>2026-04-04T12:50:10.971Z</time></trkpt><trkpt lat="46.19217848247956" lon="9.794231858420867"><ele>1145.2</ele><time>2026-04-04T12:50:12.972Z</time></trkpt><trkpt lat="46.192233882075165" lon="9.794178322965024"><ele>1140.8000000000002</ele><time>2026-04-04T12:50:13.972Z</time></trkpt><trkpt lat="46.19232219699447" lon="9.794089916757748"><ele>1136.4</ele><time>2026-04-04T12:50:15.971Z</time></trkpt><trkpt lat="46.192409132651" lon="9.793963538674506"><ele>1132.0</ele><time>2026-04-04T12:50:17.972Z</time></trkpt><trkpt lat="46.19245067559555" lon="9.793839543047334"><ele>1138.8333333333333</ele><time>2026-04-04T12:50:20.971Z</time></trkpt><trkpt lat="46.19251657702963" lon="9.79377349279195"><ele>1145.6666666666665</ele><time>2026-04-04T12:50:22.972Z</time></trkpt><trkpt lat="46.192569166309575" lon="9.793708623673306"><ele>1152.5</ele><time>2026-04-04T12:50:25.972Z</time></trkpt><trkpt lat="46.19263872841733" lon="9.793696140799229"><ele>1159.3333333333333</ele><time>2026-04-04T12:50:29.972Z</time></trkpt><trkpt lat="46.19271212798635" lon="9.79371925361116"><ele>1166.1666666666667</ele><time>2026-04-04T12:50:34.972Z</time></trkpt><trkpt lat="46.19277541900398" lon="9.793569990005487"><ele>1173.0</ele><time>2026-04-04T12:50:36.972Z</time></trkpt><trkpt lat="46.19283138329262" lon="9.793500901213884"><ele>1173.0</ele><time>2026-04-04T12:50:37.972Z</time></trkpt><trkpt lat="46.192891900175475" lon="9.793438775566672"><ele>1173.0</ele><time>2026-04-04T12:50:39.972Z</time></trkpt><trkpt lat="46.19291832806019" lon="9.79334033413509"><ele>1173.0</ele><time>2026-04-04T12:50:42.972Z</time></trkpt><trkpt lat="46.19300747057192" lon="9.793286400899712"><ele>1173.0</ele><time>2026-04-04T12:50:45.972Z</time></trkpt><trkpt lat="46.19306692193356" lon="9.793247066120331"><ele>1173.0</ele><time>2026-04-04T12:50:46.972Z</time></trkpt><trkpt lat="46.19313092224906" lon="9.793133391060278"><ele>1173.0</ele><time>2026-04-04T12:50:48.972Z</time></trkpt><trkpt lat="46.19319255162113" lon="9.793065229512706"><ele>1182.8333333333333</ele><time>2026-04-04T12:50:50.972Z</time></trkpt><trkpt lat="46.1932450320557" lon="9.793005375818248"><ele>1192.6666666666667</ele><time>2026-04-04T12:50:52.972Z</time></trkpt><trkpt lat="46.1933173457535" lon="9.79289894100082"><ele>1202.5</ele><time>2026-04-04T12:50:54.972Z</time></trkpt><trkpt lat="46.19338906874436" lon="9.792873573035157"><ele>1212.3333333333335</ele><time>2026-04-04T12:50:56.972Z</time></trkpt><trkpt lat="46.193492494698674" lon="9.792797443173852"><ele>1222.1666666666667</ele><time>2026-04-04T12:50:59.972Z</time></trkpt><trkpt lat="46.19357534271058" lon="9.792776063695124"><ele>1232.0</ele><time>2026-04-04T12:51:01.972Z</time></trkpt><trkpt lat="46.19362373975977" lon="9.79270558157771"><ele>1232.0</ele><time>2026-04-04T12:51:03.972Z</time></trkpt><trkpt lat="46.19368753956685" lon="9.792692151930385"><ele>1232.0</ele><time>2026-04-04T12:51:08.971Z</time></trkpt><trkpt lat="46.193755172598664" lon="9.792661908002433"><ele>1232.0</ele><time>2026-04-04T12:51:15.971Z</time></trkpt><trkpt lat="46.19370175974725" lon="9.792803602992157"><ele>1232.0</ele><time>2026-04-04T12:51:21.971Z</time></trkpt><trkpt lat="46.19362883020501" lon="9.792887696039502"><ele>1232.0</ele><time>2026-04-04T12:51:23.971Z</time></trkpt><trkpt lat="46.19361191447902" lon="9.792994812298408"><ele>1232.0</ele><time>2026-04-04T12:51:25.971Z</time></trkpt><trkpt lat="46.19356648106763" lon="9.79308349669117"><ele>1232.0</ele><time>2026-04-04T12:51:27.971Z</time></trkpt><trkpt lat="46.19355596342528" lon="9.793265981894757"><ele>1232.0</ele><time>2026-04-04T12:51:30.971Z</time></trkpt><trkpt lat="46.19352745373189" lon="9.793381780827472"><ele>1232.0</ele><time>2026-04-04T12:51:31.971Z</time></trkpt><trkpt lat="46.19350093334053" lon="9.793518910929091"><ele>1232.0</ele><time>2026-04-04T12:51:32.971Z</time></trkpt><trkpt lat="46.19349189502065" lon="9.793645168433612"><ele>1232.0</ele><time>2026-04-04T12:51:34.971Z</time></trkpt><trkpt lat="46.19354591819671" lon="9.793583100586913"><ele>1232.0</ele><time>2026-04-04T12:51:42.971Z</time></trkpt><trkpt lat="46.193617207543916" lon="9.793542971824445"><ele>1232.0</ele><time>2026-04-04T12:51:44.971Z</time></trkpt><trkpt lat="46.19369168712672" lon="9.793471729441846"><ele>1232.0</ele><time>2026-04-04T12:51:47.971Z</time></trkpt><trkpt lat="46.193727565801666" lon="9.793569880532782"><ele>1232.0</ele><time>2026-04-04T12:52:02.971Z</time></trkpt><trkpt lat="46.193701843464694" lon="9.79376035641521"><ele>1232.0</ele><time>2026-04-04T12:52:04.971Z</time></trkpt><trkpt lat="46.19373784828438" lon="9.793859745807904"><ele>1235.8333333333335</ele><time>2026-04-04T12:52:06.971Z</time></trkpt><trkpt lat="46.193741344022314" lon="9.793953180081497"><ele>1239.6666666666667</ele><time>2026-04-04T12:52:08.971Z</time></trkpt><trkpt lat="46.193726285395165" lon="9.79405675484756"><ele>1243.5</ele><time>2026-04-04T12:52:10.971Z</time></trkpt><trkpt lat="46.193708253581974" lon="9.794146227810762"><ele>1247.3333333333333</ele><time>2026-04-04T12:52:11.971Z</time></trkpt><trkpt lat="46.19369105792225" lon="9.794248114756384"><ele>1251.1666666666665</ele><time>2026-04-04T12:52:12.971Z</time></trkpt><trkpt lat="46.193681733335794" lon="9.794385640209883"><ele>1255.0</ele><time>2026-04-04T12:52:14.971Z</time></trkpt><trkpt lat="46.19367577587898" lon="9.79455383501239"><ele>1257.8333333333333</ele><time>2026-04-04T12:52:17.97Z</time></trkpt><trkpt lat="46.19365941970968" lon="9.794683684953135"><ele>1260.6666666666665</ele><time>2026-04-04T12:52:19.97Z</time></trkpt><trkpt lat="46.193631933686696" lon="9.794797289241105"><ele>1263.5</ele><time>2026-04-04T12:52:21.971Z</time></trkpt><trkpt lat="46.193632659584026" lon="9.794927479391818"><ele>1266.3333333333333</ele><time>2026-04-04T12:52:23.971Z</time></trkpt><trkpt lat="46.1936264712843" lon="9.795037959973673"><ele>1269.1666666666667</ele><time>2026-04-04T12:52:25.97Z</time></trkpt><trkpt lat="46.193624277729484" lon="9.795134843884203"><ele>1272.0</ele><time>2026-04-04T12:52:27.97Z</time></trkpt><trkpt lat="46.19362335532375" lon="9.795230744401774"><ele>1274.1666666666667</ele><time>2026-04-04T12:52:29.971Z</time></trkpt><trkpt lat="46.19364064048923" lon="9.795330174816893"><ele>1276.3333333333333</ele><time>2026-04-04T12:52:31.97Z</time></trkpt><trkpt lat="46.193623021148404" lon="9.795446143483218"><ele>1278.5</ele><time>2026-04-04T12:52:34.97Z</time></trkpt><trkpt lat="46.193635754708644" lon="9.795544515609654"><ele>1280.6666666666665</ele><time>2026-04-04T12:52:37.97Z</time></trkpt><trkpt lat="46.1936943418158" lon="9.795667401540925"><ele>1282.8333333333333</ele><time>2026-04-04T12:52:46.97Z</time></trkpt><trkpt lat="46.19373010258906" lon="9.795754424135104"><ele>1285.0</ele><time>2026-04-04T12:52:48.97Z</time></trkpt><trkpt lat="46.19381733737853" lon="9.795807664766215"><ele>1289.6</ele><time>2026-04-04T12:52:52.97Z</time></trkpt><trkpt lat="46.19371793307357" lon="9.796026638544038"><ele>1294.2</ele><time>2026-04-04T12:52:58.97Z</time></trkpt><trkpt lat="46.19378311738412" lon="9.79604892959184"><ele>1298.8000000000002</ele><time>2026-04-04T12:53:02.97Z</time></trkpt><trkpt lat="46.193869114421034" lon="9.796049697575112"><ele>1303.4</ele><time>2026-04-04T12:53:26.97Z</time></trkpt><trkpt lat="46.193859855217035" lon="9.796159928317424"><ele>1308.0</ele><time>2026-04-04T12:53:31.97Z</time></trkpt><trkpt lat="46.19383529471988" lon="9.796250231769319"><ele>1308.0</ele><time>2026-04-04T12:53:36.97Z</time></trkpt><trkpt lat="46.193886173214615" lon="9.796346726114093"><ele>1308.0</ele><time>2026-04-04T12:53:40.97Z</time></trkpt><trkpt lat="46.193952489545346" lon="9.796380915316849"><ele>1308.0</ele><time>2026-04-04T12:53:43.969Z</time></trkpt><trkpt lat="46.19392791640744" lon="9.796296832779694"><ele>1308.0</ele><time>2026-04-04T12:53:48.969Z</time></trkpt><trkpt lat="46.19396288434053" lon="9.79621040924402"><ele>1308.0</ele><time>2026-04-04T12:53:52.969Z</time></trkpt><trkpt lat="46.194041393793285" lon="9.796152372269047"><ele>1308.0</ele><time>2026-04-04T12:53:54.969Z</time></trkpt><trkpt lat="46.19408938350518" lon="9.796041302603554"><ele>1315.5</ele><time>2026-04-04T12:53:56.969Z</time></trkpt><trkpt lat="46.19414901028178" lon="9.795970858880102"><ele>1323.0</ele><time>2026-04-04T12:54:00.969Z</time></trkpt><trkpt lat="46.19418216863048" lon="9.795885540976467"><ele>1330.5</ele><time>2026-04-04T12:54:02.969Z</time></trkpt><trkpt lat="46.194208262588376" lon="9.795787933538085"><ele>1338.0</ele><time>2026-04-04T12:54:05.969Z</time></trkpt><trkpt lat="46.194283700531095" lon="9.795762204186842"><ele>1345.5</ele><time>2026-04-04T12:54:07.969Z</time></trkpt><trkpt lat="46.19434997127476" lon="9.795675238635608"><ele>1353.0</ele><time>2026-04-04T12:54:09.969Z</time></trkpt><trkpt lat="46.19443201140762" lon="9.795642195743888"><ele>1353.0</ele><time>2026-04-04T12:54:11.969Z</time></trkpt><trkpt lat="46.19452060888563" lon="9.795608696492653"><ele>1353.0</ele><time>2026-04-04T12:54:13.969Z</time></trkpt><trkpt lat="46.194534991816376" lon="9.795498505648874"><ele>1353.0</ele><time>2026-04-04T12:54:19.969Z</time></trkpt><trkpt lat="46.19456549403747" lon="9.795416784677023"><ele>1353.0</ele><time>2026-04-04T12:54:23.97Z</time></trkpt><trkpt lat="46.19463410028136" lon="9.795398903379844"><ele>1353.0</ele><time>2026-04-04T12:54:27.97Z</time></trkpt><trkpt lat="46.194644207277825" lon="9.795268918587501"><ele>1353.0</ele><time>2026-04-04T12:54:39.97Z</time></trkpt><trkpt lat="46.194678595829295" lon="9.795190014907131"><ele>1353.0</ele><time>2026-04-04T12:54:49.97Z</time></trkpt><trkpt lat="46.19474400464085" lon="9.79517101864062"><ele>1353.0</ele><time>2026-04-04T12:54:52.97Z</time></trkpt><trkpt lat="46.19486943193453" lon="9.79513567907797"><ele>1353.0</ele><time>2026-04-04T12:55:10.97Z</time></trkpt><trkpt lat="46.19486394630969" lon="9.795269452608471"><ele>1353.0</ele><time>2026-04-04T12:55:18.97Z</time></trkpt><trkpt lat="46.1948068755315" lon="9.795372566455905"><ele>1353.0</ele><time>2026-04-04T12:55:20.97Z</time></trkpt><trkpt lat="46.19491051791483" lon="9.79549866777382"><ele>1353.0</ele><time>2026-04-04T12:55:34.969Z</time></trkpt><trkpt lat="46.19493653929403" lon="9.795404801391438"><ele>1353.0</ele><time>2026-04-04T12:55:56.969Z</time></trkpt><trkpt lat="46.19488151453905" lon="9.795473487976972"><ele>1353.0</ele><time>2026-04-04T12:56:09.969Z</time></trkpt><trkpt lat="46.19480322931396" lon="9.795531739256832"><ele>1353.0</ele><time>2026-04-04T12:56:11.969Z</time></trkpt><trkpt lat="46.19488794566172" lon="9.795569755775055"><ele>1353.0</ele><time>2026-04-04T12:56:16.969Z</time></trkpt><trkpt lat="46.194863986093715" lon="9.795709605401484"><ele>1353.0</ele><time>2026-04-04T12:56:26.969Z</time></trkpt><trkpt lat="46.19492048827145" lon="9.795755350835776"><ele>1363.1666666666667</ele><time>2026-04-04T12:56:28.969Z</time></trkpt><trkpt lat="46.19499612999944" lon="9.795705344800998"><ele>1373.3333333333333</ele><time>2026-04-04T12:56:45.969Z</time></trkpt><trkpt lat="46.19507101641571" lon="9.795692262335134"><ele>1383.5</ele><time>2026-04-04T12:56:48.969Z</time></trkpt><trkpt lat="46.19516807996312" lon="9.795705209118257"><ele>1393.6666666666665</ele><time>2026-04-04T12:56:52.969Z</time></trkpt><trkpt lat="46.19521338858218" lon="9.795636662651521"><ele>1403.8333333333333</ele><time>2026-04-04T12:56:55.969Z</time></trkpt><trkpt lat="46.19527664867078" lon="9.795572327153968"><ele>1414.0</ele><time>2026-04-04T12:56:57.969Z</time></trkpt><trkpt lat="46.19534309601567" lon="9.795536886303841"><ele>1414.0</ele><time>2026-04-04T12:56:59.969Z</time></trkpt><trkpt lat="46.19541491559633" lon="9.795537508325022"><ele>1414.0</ele><time>2026-04-04T12:57:03.969Z</time></trkpt><trkpt lat="46.19549741609391" lon="9.795503682577523"><ele>1414.0</ele><time>2026-04-04T12:57:07.969Z</time></trkpt><trkpt lat="46.19556246671173" lon="9.795500120519378"><ele>1414.0</ele><time>2026-04-04T12:57:09.969Z</time></trkpt><trkpt lat="46.19558783200352" lon="9.795593935053942"><ele>1414.0</ele><time>2026-04-04T12:57:15.969Z</time></trkpt><trkpt lat="46.19552094674093" lon="9.7955638683741"><ele>1414.0</ele><time>2026-04-04T12:57:23.969Z</time></trkpt><trkpt lat="46.195590672962595" lon="9.795564024052435"><ele>1414.0</ele><time>2026-04-04T12:57:25.969Z</time></trkpt><trkpt lat="46.19567547307801" lon="9.795593654622284"><ele>1419.2857142857142</ele><time>2026-04-04T12:57:34.969Z</time></trkpt><trkpt lat="46.19573535032814" lon="9.795626505717106"><ele>1424.5714285714284</ele><time>2026-04-04T12:57:43.969Z</time></trkpt><trkpt lat="46.19580025765026" lon="9.795620308808"><ele>1429.857142857143</ele><time>2026-04-04T12:57:46.969Z</time></trkpt><trkpt lat="46.195876089723804" lon="9.795611821416532"><ele>1435.142857142857</ele><time>2026-04-04T12:57:55.969Z</time></trkpt><trkpt lat="46.195948096837064" lon="9.795629779255536"><ele>1440.4285714285713</ele><time>2026-04-04T12:57:57.969Z</time></trkpt><trkpt lat="46.19600893709171" lon="9.795655268174873"><ele>1445.7142857142858</ele><time>2026-04-04T12:57:59.969Z</time></trkpt><trkpt lat="46.19607113843881" lon="9.795682517869352"><ele>1451.0</ele><time>2026-04-04T12:58:01.969Z</time></trkpt><trkpt lat="46.19613999517951" lon="9.795685995039046"><ele>1451.0</ele><time>2026-04-04T12:58:04.969Z</time></trkpt><trkpt lat="46.196061226146796" lon="9.795732604200039"><ele>1451.0</ele><time>2026-04-04T12:58:23.969Z</time></trkpt><trkpt lat="46.196002075618054" lon="9.795788079357795"><ele>1451.0</ele><time>2026-04-04T12:58:28.968Z</time></trkpt><trkpt lat="46.195938929365546" lon="9.79585778639218"><ele>1451.0</ele><time>2026-04-04T12:58:32.968Z</time></trkpt><trkpt lat="46.19586010410347" lon="9.795903385235357"><ele>1451.0</ele><time>2026-04-04T12:58:34.968Z</time></trkpt><trkpt lat="46.195795663355575" lon="9.795979121622917"><ele>1451.0</ele><time>2026-04-04T12:58:36.969Z</time></trkpt><trkpt lat="46.1958703701695" lon="9.796043014118988"><ele>1456.8333333333335</ele><time>2026-04-04T12:58:45.968Z</time></trkpt><trkpt lat="46.19593387657615" lon="9.796042841197757"><ele>1462.6666666666667</ele><time>2026-04-04T12:58:47.969Z</time></trkpt><trkpt lat="46.1960150797997" lon="9.79604001349224"><ele>1468.5</ele><time>2026-04-04T12:58:50.969Z</time></trkpt><trkpt lat="46.196098961247294" lon="9.796084395114924"><ele>1474.3333333333333</ele><time>2026-04-04T12:58:53.968Z</time></trkpt><trkpt lat="46.1961736468084" lon="9.796122985667768"><ele>1480.1666666666665</ele><time>2026-04-04T12:58:56.968Z</time></trkpt><trkpt lat="46.19625708858129" lon="9.796175905235236"><ele>1486.0</ele><time>2026-04-04T12:58:59.968Z</time></trkpt><trkpt lat="46.196331182546636" lon="9.796152075124018"><ele>1486.0</ele><time>2026-04-04T12:59:01.968Z</time></trkpt><trkpt lat="46.1963875896193" lon="9.796078411707542"><ele>1486.0</ele><time>2026-04-04T12:59:04.968Z</time></trkpt><trkpt lat="46.1964846037215" lon="9.796166740580418"><ele>1486.0</ele><time>2026-04-04T12:59:07.968Z</time></trkpt><trkpt lat="46.19656413639397" lon="9.796162278942612"><ele>1486.0</ele><time>2026-04-04T12:59:10.968Z</time></trkpt><trkpt lat="46.19665771435292" lon="9.796215473173085"><ele>1486.0</ele><time>2026-04-04T12:59:27.968Z</time></trkpt><trkpt lat="46.19673277822009" lon="9.796232888760958"><ele>1486.0</ele><time>2026-04-04T12:59:39.968Z</time></trkpt><trkpt lat="46.19666092316193" lon="9.79618403235349"><ele>1492.1666666666665</ele><time>2026-04-04T13:00:17.968Z</time></trkpt><trkpt lat="46.19667738143746" lon="9.796273228680173"><ele>1498.3333333333333</ele><time>2026-04-04T13:00:36.968Z</time></trkpt><trkpt lat="46.1965974367696" lon="9.79623705912445"><ele>1504.5</ele><time>2026-04-04T13:00:59.968Z</time></trkpt><trkpt lat="46.19668646379564" lon="9.79629831927517"><ele>1510.6666666666667</ele><time>2026-04-04T13:01:23.968Z</time></trkpt><trkpt lat="46.19671720159728" lon="9.796396808926827"><ele>1516.8333333333335</ele><time>2026-04-04T13:01:34.967Z</time></trkpt><trkpt lat="46.19670255088743" lon="9.796269911722597"><ele>1523.0</ele><time>2026-04-04T13:01:46.967Z</time></trkpt><trkpt lat="46.19665908415882" lon="9.7963385917853"><ele>1523.0000000000002</ele><time>2026-04-04T13:01:50.967Z</time></trkpt><trkpt lat="46.19666456068069" lon="9.79623670531515"><ele>1523.0</ele><time>2026-04-04T13:02:02.967Z</time></trkpt><trkpt lat="46.19666149544198" lon="9.796341790414258"><ele>1523.0</ele><time>2026-04-04T13:02:06.967Z</time></trkpt><trkpt lat="46.19671813346685" lon="9.796382491039816"><ele>1523.0</ele><time>2026-04-04T13:02:16.967Z</time></trkpt><trkpt lat="46.196718717834806" lon="9.796278213823154"><ele>1523.0</ele><time>2026-04-04T13:02:30.967Z</time></trkpt><trkpt lat="46.19671940635254" lon="9.796182562954607"><ele>1523.0000000000002</ele><time>2026-04-04T13:02:35.967Z</time></trkpt><trkpt lat="46.19678149949094" lon="9.796216228713181"><ele>1523.0</ele><time>2026-04-04T13:02:57.968Z</time></trkpt><trkpt lat="46.19691832875208" lon="9.796368560782293"><ele>1523.0</ele><time>2026-04-04T13:03:15.966Z</time></trkpt><trkpt lat="46.19696541872278" lon="9.796455517387932"><ele>1523.0</ele><time>2026-04-04T13:03:20.966Z</time></trkpt><trkpt lat="46.19698896812089" lon="9.796548711357916"><ele>1523.0</ele><time>2026-04-04T13:03:27.966Z</time></trkpt><trkpt lat="46.19696128117356" lon="9.796427818774639"><ele>1523.0</ele><time>2026-04-04T13:03:36.966Z</time></trkpt><trkpt lat="46.19690081018084" lon="9.796379641790796"><ele>1523.0</ele><time>2026-04-04T13:03:40.966Z</time></trkpt><trkpt lat="46.19693346151025" lon="9.796458231705182"><ele>1523.0</ele><time>2026-04-04T13:05:04.967Z</time></trkpt><trkpt lat="46.19703660762702" lon="9.79647183200844"><ele>1523.0000000000002</ele><time>2026-04-04T13:07:33.965Z</time></trkpt><trkpt lat="46.19696768231923" lon="9.79647397681178"><ele>1523.0</ele><time>2026-04-04T13:07:47.965Z</time></trkpt><trkpt lat="46.19701673640726" lon="9.796536626684546"><ele>1523.0</ele><time>2026-04-04T13:08:40.964Z</time></trkpt><trkpt lat="46.19708266958743" lon="9.79653364134908"><ele>1523.0</ele><time>2026-04-04T13:08:42.964Z</time></trkpt><trkpt lat="46.197148165387" lon="9.796529508613572"><ele>1523.0</ele><time>2026-04-04T13:08:44.964Z</time></trkpt><trkpt lat="46.197217991975414" lon="9.796428864656257"><ele>1523.0000000000002</ele><time>2026-04-04T13:08:47.964Z</time></trkpt><trkpt lat="46.19728917642942" lon="9.796389941225932"><ele>1523.0</ele><time>2026-04-04T13:08:52.964Z</time></trkpt><trkpt lat="46.19728104972236" lon="9.796275776891285"><ele>1526.0000000000002</ele><time>2026-04-04T13:09:01.964Z</time></trkpt><trkpt lat="46.19737011040731" lon="9.796257143199197"><ele>1529.0</ele><time>2026-04-04T13:09:14.981Z</time></trkpt><trkpt lat="46.19734187088226" lon="9.796159283820204"><ele>1532.0</ele><time>2026-04-04T13:09:38.997Z</time></trkpt><trkpt lat="46.19738055109474" lon="9.796245892191022"><ele>1535.0</ele><time>2026-04-04T13:10:25.001Z</time></trkpt><trkpt lat="46.19743114041424" lon="9.79632247244091"><ele>1538.0</ele><time>2026-04-04T13:10:31.001Z</time></trkpt><trkpt lat="46.19746068030277" lon="9.796239621083236"><ele>1541.0000000000002</ele><time>2026-04-04T13:10:44.001Z</time></trkpt><trkpt lat="46.197452507091675" lon="9.79634623042781"><ele>1544.0</ele><time>2026-04-04T13:11:06.001Z</time></trkpt><trkpt lat="46.19738893790362" lon="9.796380502809974"><ele>1543.9999999999998</ele><time>2026-04-04T13:11:11.001Z</time></trkpt><trkpt lat="46.197387828503096" lon="9.796481444613093"><ele>1544.0</ele><time>2026-04-04T13:11:15.001Z</time></trkpt><trkpt lat="46.19744431931393" lon="9.796415187636436"><ele>1544.0</ele><time>2026-04-04T13:11:39Z</time></trkpt><trkpt lat="46.19751649270011" lon="9.7963703604314"><ele>1544.0</ele><time>2026-04-04T13:11:52Z</time></trkpt><trkpt lat="46.197663629747225" lon="9.796364464445688"><ele>1543.9999999999998</ele><time>2026-04-04T13:11:59Z</time></trkpt><trkpt lat="46.19773153178374" lon="9.796364891210251"><ele>1544.0</ele><time>2026-04-04T13:12:18Z</time></trkpt><trkpt lat="46.19780884256499" lon="9.796430075443713"><ele>1543.9999999999998</ele><time>2026-04-04T13:12:21Z</time></trkpt><trkpt lat="46.19793550428485" lon="9.796393938911777"><ele>1544.0</ele><time>2026-04-04T13:12:34Z</time></trkpt><trkpt lat="46.19799458271076" lon="9.796426728536309"><ele>1544.0</ele><time>2026-04-04T13:12:39Z</time></trkpt><trkpt lat="46.1980687194751" lon="9.796387248218124"><ele>1544.0</ele><time>2026-04-04T13:12:43Z</time></trkpt><trkpt lat="46.19813935436372" lon="9.796405916675386"><ele>1543.9999999999998</ele><time>2026-04-04T13:12:46Z</time></trkpt><trkpt lat="46.198154615162714" lon="9.796499212662077"><ele>1544.0</ele><time>2026-04-04T13:12:47Z</time></trkpt><trkpt lat="46.19806297359619" lon="9.796560031072136"><ele>1543.9999999999998</ele><time>2026-04-04T13:12:51Z</time></trkpt><trkpt lat="46.19811217258899" lon="9.79664081416309"><ele>1544.0</ele><time>2026-04-04T13:13:04Z</time></trkpt><trkpt lat="46.198193548019795" lon="9.796577087359918"><ele>1544.0</ele><time>2026-04-04T13:13:23.001Z</time></trkpt><trkpt lat="46.19827206181369" lon="9.796565203391978"><ele>1544.0</ele><time>2026-04-04T13:13:26.001Z</time></trkpt><trkpt lat="46.19835106632647" lon="9.79654596351879"><ele>1543.9999999999998</ele><time>2026-04-04T13:13:31Z</time></trkpt><trkpt lat="46.198421560442185" lon="9.796571186585917"><ele>1544.0</ele><time>2026-04-04T13:13:35Z</time></trkpt><trkpt lat="46.198491765798344" lon="9.796591593654085"><ele>1546.4</ele><time>2026-04-04T13:13:37Z</time></trkpt><trkpt lat="46.198583383236304" lon="9.796570401058778"><ele>1548.8000000000002</ele><time>2026-04-04T13:13:39Z</time></trkpt><trkpt lat="46.19865630828393" lon="9.796586158918286"><ele>1551.1999999999998</ele><time>2026-04-04T13:13:41Z</time></trkpt><trkpt lat="46.19863004283287" lon="9.796479743490014"><ele>1553.6</ele><time>2026-04-04T13:13:53Z</time></trkpt><trkpt lat="46.19856883270929" lon="9.796558778214587"><ele>1556.0</ele><time>2026-04-04T13:13:55Z</time></trkpt><trkpt lat="46.1984741715751" lon="9.796692055930489"><ele>1556.0</ele><time>2026-04-04T13:13:56Z</time></trkpt><trkpt lat="46.19841929900481" lon="9.79674560315899"><ele>1556.0</ele><time>2026-04-04T13:13:57Z</time></trkpt><trkpt lat="46.19833089140014" lon="9.796778136360619"><ele>1556.0</ele><time>2026-04-04T13:13:59Z</time></trkpt><trkpt lat="46.19826243230447" lon="9.796739056687972"><ele>1556.0</ele><time>2026-04-04T13:14:03Z</time></trkpt><trkpt lat="46.19818814310325" lon="9.796753645675203"><ele>1556.0</ele><time>2026-04-04T13:14:08Z</time></trkpt><trkpt lat="46.19811570866582" lon="9.796756100356566"><ele>1556.0</ele><time>2026-04-04T13:14:12Z</time></trkpt><trkpt lat="46.19805651849507" lon="9.796797834238442"><ele>1556.0</ele><time>2026-04-04T13:14:14Z</time></trkpt><trkpt lat="46.19799205639617" lon="9.79677943424908"><ele>1554.2857142857144</ele><time>2026-04-04T13:14:16Z</time></trkpt><trkpt lat="46.19792653410939" lon="9.796725799315311"><ele>1552.5714285714284</ele><time>2026-04-04T13:14:33Z</time></trkpt><trkpt lat="46.197860418718946" lon="9.796750089608814"><ele>1550.857142857143</ele><time>2026-04-04T13:14:49Z</time></trkpt><trkpt lat="46.19779404027949" lon="9.796779104315503"><ele>1549.1428571428573</ele><time>2026-04-04T13:14:51Z</time></trkpt><trkpt lat="46.197859708886135" lon="9.796757728221285"><ele>1547.4285714285716</ele><time>2026-04-04T13:15:04Z</time></trkpt><trkpt lat="46.197931830465706" lon="9.796711377865552"><ele>1545.7142857142858</ele><time>2026-04-04T13:15:16Z</time></trkpt><trkpt lat="46.19788530713372" lon="9.796785999713943"><ele>1544.0</ele><time>2026-04-04T13:16:10Z</time></trkpt><trkpt lat="46.19783009877698" lon="9.796834337804253"><ele>1549.9999999999998</ele><time>2026-04-04T13:16:25Z</time></trkpt><trkpt lat="46.197766410759066" lon="9.796845576099594"><ele>1556.0</ele><time>2026-04-04T13:16:41Z</time></trkpt><trkpt lat="46.197695581578884" lon="9.796927315294887"><ele>1562.0</ele><time>2026-04-04T13:16:47Z</time></trkpt><trkpt lat="46.19763015154068" lon="9.797002659356258"><ele>1568.0</ele><time>2026-04-04T13:16:50Z</time></trkpt><trkpt lat="46.19759111381323" lon="9.797109756103929"><ele>1573.9999999999998</ele><time>2026-04-04T13:16:53Z</time></trkpt><trkpt lat="46.19751664914685" lon="9.797245608656324"><ele>1580.0</ele><time>2026-04-04T13:16:55Z</time></trkpt><trkpt lat="46.19745045006435" lon="9.797326076050249"><ele>1579.9999999999998</ele><time>2026-04-04T13:16:57Z</time></trkpt><trkpt lat="46.197403987516914" lon="9.797389955463924"><ele>1580.0</ele><time>2026-04-04T13:16:59Z</time></trkpt><trkpt lat="46.19735827369556" lon="9.797519393247013"><ele>1580.0</ele><time>2026-04-04T13:17:02Z</time></trkpt><trkpt lat="46.197325810812984" lon="9.797617991669297"><ele>1580.0</ele><time>2026-04-04T13:17:05Z</time></trkpt><trkpt lat="46.197251558610326" lon="9.79760830162771"><ele>1579.9999999999998</ele><time>2026-04-04T13:17:13Z</time></trkpt><trkpt lat="46.19719964830083" lon="9.797662386729867"><ele>1580.0</ele><time>2026-04-04T13:17:17Z</time></trkpt><trkpt lat="46.197263134339806" lon="9.79771424880487"><ele>1583.6</ele><time>2026-04-04T13:17:28.999Z</time></trkpt><trkpt lat="46.19730312611686" lon="9.79779385658912"><ele>1587.2</ele><time>2026-04-04T13:17:35Z</time></trkpt><trkpt lat="46.19737343696059" lon="9.797804892079624"><ele>1590.8000000000002</ele><time>2026-04-04T13:17:43Z</time></trkpt><trkpt lat="46.19755509034675" lon="9.797770429430122"><ele>1594.4</ele><time>2026-04-04T13:17:47Z</time></trkpt><trkpt lat="46.19765059866357" lon="9.797757084120562"><ele>1598.0</ele><time>2026-04-04T13:17:53Z</time></trkpt><trkpt lat="46.19770753904523" lon="9.797701836130267"><ele>1594.9999999999998</ele><time>2026-04-04T13:17:55Z</time></trkpt><trkpt lat="46.197816466184015" lon="9.797612232630287"><ele>1592.0</ele><time>2026-04-04T13:17:56Z</time></trkpt><trkpt lat="46.19789293202159" lon="9.797648797817978"><ele>1589.0</ele><time>2026-04-04T13:17:59Z</time></trkpt><trkpt lat="46.19795694945096" lon="9.797701176960526"><ele>1586.0</ele><time>2026-04-04T13:18:03Z</time></trkpt><trkpt lat="46.19793865908956" lon="9.797789699159416"><ele>1582.9999999999998</ele><time>2026-04-04T13:18:06Z</time></trkpt><trkpt lat="46.197946911216434" lon="9.79788947851081"><ele>1580.0</ele><time>2026-04-04T13:18:10Z</time></trkpt><trkpt lat="46.19801919175261" lon="9.797940638048322"><ele>1589.0</ele><time>2026-04-04T13:18:28Z</time></trkpt><trkpt lat="46.1980891616593" lon="9.797978581796064"><ele>1598.0</ele><time>2026-04-04T13:18:31Z</time></trkpt><trkpt lat="46.19799133482494" lon="9.798037554710584"><ele>1607.0</ele><time>2026-04-04T13:18:42Z</time></trkpt><trkpt lat="46.19787495950395" lon="9.798052922033115"><ele>1616.0</ele><time>2026-04-04T13:18:43Z</time></trkpt><trkpt lat="46.19793958064613" lon="9.797962710978062"><ele>1625.0</ele><time>2026-04-04T13:19:01Z</time></trkpt><trkpt lat="46.19800567979868" lon="9.797958503287145"><ele>1624.9999999999998</ele><time>2026-04-04T13:19:17Z</time></trkpt><trkpt lat="46.19809522118936" lon="9.797940985026"><ele>1625.0</ele><time>2026-04-04T13:19:21Z</time></trkpt><trkpt lat="46.198120120599576" lon="9.798096969731429"><ele>1625.0</ele><time>2026-04-04T13:19:24Z</time></trkpt><trkpt lat="46.19816618914364" lon="9.79821901072022"><ele>1625.0</ele><time>2026-04-04T13:19:37Z</time></trkpt><trkpt lat="46.198218557165774" lon="9.798275249204533"><ele>1624.9999999999998</ele><time>2026-04-04T13:19:44Z</time></trkpt><trkpt lat="46.198259882602926" lon="9.79817314734887"><ele>1625.0</ele><time>2026-04-04T13:20:13Z</time></trkpt><trkpt lat="46.19831816034164" lon="9.798255111343494"><ele>1627.6</ele><time>2026-04-04T13:20:25Z</time></trkpt><trkpt lat="46.1982482872067" lon="9.79829910721877"><ele>1630.2</ele><time>2026-04-04T13:20:28Z</time></trkpt><trkpt lat="46.19829943770737" lon="9.798356373678988"><ele>1632.8000000000002</ele><time>2026-04-04T13:20:34Z</time></trkpt><trkpt lat="46.19837470917011" lon="9.79833218807994"><ele>1635.4</ele><time>2026-04-04T13:20:42Z</time></trkpt><trkpt lat="46.19844546252005" lon="9.798346313574916"><ele>1638.0</ele><time>2026-04-04T13:21:33Z</time></trkpt><trkpt lat="46.198590464892504" lon="9.798479958438715"><ele>1638.0</ele><time>2026-04-04T13:21:47Z</time></trkpt><trkpt lat="46.198510851935836" lon="9.79843966381764"><ele>1638.0</ele><time>2026-04-04T13:21:52Z</time></trkpt><trkpt lat="46.19848245072835" lon="9.79834915350681"><ele>1638.0</ele><time>2026-04-04T13:21:58Z</time></trkpt><trkpt lat="46.198432626848536" lon="9.798461644133692"><ele>1638.0</ele><time>2026-04-04T13:22:17Z</time></trkpt><trkpt lat="46.19840013795811" lon="9.798560488828691"><ele>1638.0</ele><time>2026-04-04T13:22:21Z</time></trkpt><trkpt lat="46.198364179025454" lon="9.798644159623672"><ele>1638.0</ele><time>2026-04-04T13:22:29Z</time></trkpt><trkpt lat="46.19828526426598" lon="9.798653282687491"><ele>1643.0</ele><time>2026-04-04T13:22:32Z</time></trkpt><trkpt lat="46.19821706390498" lon="9.798713910335156"><ele>1648.0</ele><time>2026-04-04T13:22:41Z</time></trkpt><trkpt lat="46.198154443408846" lon="9.798783438295716"><ele>1653.0</ele><time>2026-04-04T13:22:59Z</time></trkpt><trkpt lat="46.198089002131155" lon="9.798842091550252"><ele>1658.0</ele><time>2026-04-04T13:23:20.999Z</time></trkpt><trkpt lat="46.19801851823118" lon="9.798832990589046"><ele>1663.0</ele><time>2026-04-04T13:23:46.999Z</time></trkpt><trkpt lat="46.198075833394014" lon="9.798896861794473"><ele>1668.0</ele><time>2026-04-04T13:23:52Z</time></trkpt><trkpt lat="46.19814327864594" lon="9.798947711901556"><ele>1668.0</ele><time>2026-04-04T13:23:56Z</time></trkpt><trkpt lat="46.19800120768798" lon="9.79890252103379"><ele>1668.0</ele><time>2026-04-04T13:24:06Z</time></trkpt><trkpt lat="46.197939887866674" lon="9.798804445613428"><ele>1668.0</ele><time>2026-04-04T13:24:09Z</time></trkpt><trkpt lat="46.198000409058665" lon="9.798774970184862"><ele>1668.0</ele><time>2026-04-04T13:24:16Z</time></trkpt><trkpt lat="46.19811821038037" lon="9.798832902296374"><ele>1668.0</ele><time>2026-04-04T13:24:40Z</time></trkpt><trkpt lat="46.19804369926979" lon="9.79887359077404"><ele>1668.0</ele><time>2026-04-04T13:24:52Z</time></trkpt><trkpt lat="46.19797329335261" lon="9.798889891255293"><ele>1668.0</ele><time>2026-04-04T13:24:55Z</time></trkpt><trkpt lat="46.19786144225899" lon="9.798827890835875"><ele>1668.0</ele><time>2026-04-04T13:24:59Z</time></trkpt><trkpt lat="46.19795087452064" lon="9.798806578757524"><ele>1668.0</ele><time>2026-04-04T13:25:02Z</time></trkpt><trkpt lat="46.197946494037" lon="9.798904199596914"><ele>1668.0</ele><time>2026-04-04T13:25:07Z</time></trkpt><trkpt lat="46.197959439673326" lon="9.798808849654895"><ele>1668.0</ele><time>2026-04-04T13:25:21Z</time></trkpt><trkpt lat="46.19805368242722" lon="9.79882377974146"><ele>1668.0</ele><time>2026-04-04T13:25:23Z</time></trkpt><trkpt lat="46.198022894848506" lon="9.798943566947548"><ele>1668.0</ele><time>2026-04-04T13:25:47Z</time></trkpt><trkpt lat="46.19807384412851" lon="9.798879235550983"><ele>1668.0</ele><time>2026-04-04T13:26:07Z</time></trkpt><trkpt lat="46.19815818991969" lon="9.79885017249578"><ele>1668.0</ele><time>2026-04-04T13:26:37.999Z</time></trkpt><trkpt lat="46.19822352978629" lon="9.79885700402266"><ele>1668.0</ele><time>2026-04-04T13:26:41.999Z</time></trkpt><trkpt lat="46.198147161406155" lon="9.798851432745403"><ele>1668.0</ele><time>2026-04-04T13:26:58.999Z</time></trkpt><trkpt lat="46.198084383467034" lon="9.798884822278255"><ele>1668.0</ele><time>2026-04-04T13:27:04.999Z</time></trkpt><trkpt lat="46.19802063519093" lon="9.79889809084511"><ele>1668.0</ele><time>2026-04-04T13:27:06.999Z</time></trkpt><trkpt lat="46.19809505830094" lon="9.798943366609045"><ele>1668.0</ele><time>2026-04-04T13:27:34.999Z</time></trkpt><trkpt lat="46.198148949606455" lon="9.798886942229798"><ele>1668.0</ele><time>2026-04-04T13:27:42.999Z</time></trkpt><trkpt lat="46.19808098541308" lon="9.798884680946472"><ele>1668.0</ele><time>2026-04-04T13:29:00Z</time></trkpt><trkpt lat="46.19816916268297" lon="9.798904158279177"><ele>1668.0</ele><time>2026-04-04T13:29:05Z</time></trkpt><trkpt lat="46.198136665340975" lon="9.798984378884052"><ele>1668.0</ele><time>2026-04-04T13:29:08Z</time></trkpt><trkpt lat="46.19806022834627" lon="9.798986367339884"><ele>1668.0</ele><time>2026-04-04T13:29:14Z</time></trkpt><trkpt lat="46.19808258625319" lon="9.79888014064532"><ele>1668.0</ele><time>2026-04-04T13:29:20Z</time></trkpt><trkpt lat="46.19815454022229" lon="9.798876821941999"><ele>1668.0</ele><time>2026-04-04T13:29:57.999Z</time></trkpt><trkpt lat="46.198092370443824" lon="9.798827474475601"><ele>1668.0</ele><time>2026-04-04T13:30:05.999Z</time></trkpt><trkpt lat="46.198171082536774" lon="9.798850169744416"><ele>1668.0</ele><time>2026-04-04T13:30:08.999Z</time></trkpt><trkpt lat="46.19821817316119" lon="9.798757111130271"><ele>1668.0</ele><time>2026-04-04T13:30:10.999Z</time></trkpt><trkpt lat="46.19830831375919" lon="9.79878772657422"><ele>1669.3333333333333</ele><time>2026-04-04T13:30:13.999Z</time></trkpt><trkpt lat="46.19839186327081" lon="9.798724435900196"><ele>1670.6666666666665</ele><time>2026-04-04T13:30:16.999Z</time></trkpt><trkpt lat="46.198473019132535" lon="9.79869044833606"><ele>1672.0</ele><time>2026-04-04T13:30:19.999Z</time></trkpt><trkpt lat="46.19849582259646" lon="9.798603976115722"><ele>1673.3333333333333</ele><time>2026-04-04T13:30:23.999Z</time></trkpt><trkpt lat="46.198467383283635" lon="9.798508214583768"><ele>1674.6666666666665</ele><time>2026-04-04T13:30:25.999Z</time></trkpt><trkpt lat="46.198460575153675" lon="9.798405191101619"><ele>1676.0</ele><time>2026-04-04T13:30:27.999Z</time></trkpt><trkpt lat="46.198392409661395" lon="9.798339883137663"><ele>1670.5714285714284</ele><time>2026-04-04T13:30:30.999Z</time></trkpt><trkpt lat="46.19834814105676" lon="9.798269058749376"><ele>1665.142857142857</ele><time>2026-04-04T13:30:37.999Z</time></trkpt><trkpt lat="46.19836242228133" lon="9.798175607106513"><ele>1659.7142857142858</ele><time>2026-04-04T13:30:39.999Z</time></trkpt><trkpt lat="46.19829384387945" lon="9.798145024986733"><ele>1654.2857142857142</ele><time>2026-04-04T13:30:50.999Z</time></trkpt><trkpt lat="46.198213882070995" lon="9.798077298523152"><ele>1648.857142857143</ele><time>2026-04-04T13:30:58.999Z</time></trkpt><trkpt lat="46.19814131659272" lon="9.798037515413197"><ele>1643.4285714285713</ele><time>2026-04-04T13:31:03.999Z</time></trkpt><trkpt lat="46.198083924492096" lon="9.797980454705021"><ele>1638.0</ele><time>2026-04-04T13:31:08.999Z</time></trkpt><trkpt lat="46.19803334822636" lon="9.79792509194358"><ele>1635.8333333333333</ele><time>2026-04-04T13:31:22.999Z</time></trkpt><trkpt lat="46.198051316425754" lon="9.79783163456275"><ele>1633.6666666666665</ele><time>2026-04-04T13:31:32.999Z</time></trkpt><trkpt lat="46.19800017919311" lon="9.797773549610058"><ele>1631.5</ele><time>2026-04-04T13:31:35.999Z</time></trkpt><trkpt lat="46.197937049435" lon="9.797731296937279"><ele>1629.3333333333333</ele><time>2026-04-04T13:31:40.999Z</time></trkpt><trkpt lat="46.19781923564726" lon="9.797753762846709"><ele>1627.1666666666665</ele><time>2026-04-04T13:31:43.999Z</time></trkpt><trkpt lat="46.197747295418274" lon="9.797720116340011"><ele>1625.0</ele><time>2026-04-04T13:31:46.999Z</time></trkpt><trkpt lat="46.197665695917856" lon="9.797751987483634"><ele>1624.9999999999998</ele><time>2026-04-04T13:31:48.999Z</time></trkpt><trkpt lat="46.19760979600653" lon="9.797804534914157"><ele>1625.0</ele><time>2026-04-04T13:31:49.999Z</time></trkpt><trkpt lat="46.197532642032954" lon="9.797743005667368"><ele>1625.0</ele><time>2026-04-04T13:31:57.999Z</time></trkpt><trkpt lat="46.1974547384352" lon="9.797740828082636"><ele>1625.0</ele><time>2026-04-04T13:32:00.999Z</time></trkpt><trkpt lat="46.19736708026319" lon="9.797711051763992"><ele>1624.9999999999998</ele><time>2026-04-04T13:32:02.999Z</time></trkpt><trkpt lat="46.197286443271096" lon="9.79770160108647"><ele>1625.0</ele><time>2026-04-04T13:32:06.999Z</time></trkpt><trkpt lat="46.197276032452386" lon="9.797604207331661"><ele>1617.4999999999998</ele><time>2026-04-04T13:32:19.999Z</time></trkpt><trkpt lat="46.19732934180231" lon="9.797490732000762"><ele>1610.0</ele><time>2026-04-04T13:32:23.999Z</time></trkpt><trkpt lat="46.19740022220977" lon="9.797464789290496"><ele>1602.5</ele><time>2026-04-04T13:32:24.999Z</time></trkpt><trkpt lat="46.197454822774276" lon="9.797364634256683"><ele>1595.0</ele><time>2026-04-04T13:32:26.999Z</time></trkpt><trkpt lat="46.19750802271455" lon="9.79728617902148"><ele>1587.4999999999998</ele><time>2026-04-04T13:32:28.999Z</time></trkpt><trkpt lat="46.19754485320735" lon="9.797157652214777"><ele>1580.0</ele><time>2026-04-04T13:32:30.999Z</time></trkpt><trkpt lat="46.197633825678324" lon="9.79710436121353"><ele>1580.0</ele><time>2026-04-04T13:32:32.999Z</time></trkpt><trkpt lat="46.19769728075855" lon="9.79706347267477"><ele>1580.0</ele><time>2026-04-04T13:32:34.999Z</time></trkpt><trkpt lat="46.19776443165208" lon="9.796992140155824"><ele>1580.0</ele><time>2026-04-04T13:32:37.999Z</time></trkpt><trkpt lat="46.197791628898614" lon="9.796906024747393"><ele>1580.0</ele><time>2026-04-04T13:32:40.999Z</time></trkpt><trkpt lat="46.19784984351839" lon="9.796841352265858"><ele>1580.0</ele><time>2026-04-04T13:32:42.999Z</time></trkpt><trkpt lat="46.197899939175414" lon="9.796779128440143"><ele>1580.0</ele><time>2026-04-04T13:32:45.999Z</time></trkpt><trkpt lat="46.19794765556206" lon="9.79670908333922"><ele>1580.0</ele><time>2026-04-04T13:32:51.999Z</time></trkpt><trkpt lat="46.19797083341953" lon="9.796623903464072"><ele>1574.857142857143</ele><time>2026-04-04T13:32:56.999Z</time></trkpt><trkpt lat="46.197973187628286" lon="9.79652090315516"><ele>1569.7142857142858</ele><time>2026-04-04T13:33:00.999Z</time></trkpt><trkpt lat="46.19793253361679" lon="9.79643868225217"><ele>1564.5714285714287</ele><time>2026-04-04T13:33:04.999Z</time></trkpt><trkpt lat="46.19788227202412" lon="9.796374416827618"><ele>1559.4285714285716</ele><time>2026-04-04T13:33:07.999Z</time></trkpt><trkpt lat="46.19783537735893" lon="9.796312593101183"><ele>1554.2857142857142</ele><time>2026-04-04T13:33:26.999Z</time></trkpt><trkpt lat="46.19776833071573" lon="9.796367604269838"><ele>1549.1428571428573</ele><time>2026-04-04T13:33:37.999Z</time></trkpt><trkpt lat="46.19770276605525" lon="9.796358454044485"><ele>1544.0</ele><time>2026-04-04T13:33:39.999Z</time></trkpt><trkpt lat="46.197641132906575" lon="9.796328999363627"><ele>1544.0000000000002</ele><time>2026-04-04T13:34:39Z</time></trkpt><trkpt lat="46.19759064276004" lon="9.796387633340228"><ele>1544.0</ele><time>2026-04-04T13:34:41Z</time></trkpt><trkpt lat="46.19752386718041" lon="9.79641668521529"><ele>1544.0</ele><time>2026-04-04T13:34:48Z</time></trkpt><trkpt lat="46.19745711051484" lon="9.79642049000688"><ele>1544.0</ele><time>2026-04-04T13:34:55Z</time></trkpt><trkpt lat="46.19739099932277" lon="9.796392565600721"><ele>1544.0</ele><time>2026-04-04T13:35:01Z</time></trkpt><trkpt lat="46.197424097928916" lon="9.796308301414973"><ele>1544.0000000000002</ele><time>2026-04-04T13:35:07Z</time></trkpt><trkpt lat="46.19735826103048" lon="9.796278377156883"><ele>1544.0</ele><time>2026-04-04T13:35:21Z</time></trkpt><trkpt lat="46.197347787965015" lon="9.796372202995157"><ele>1540.4999999999998</ele><time>2026-04-04T13:35:30Z</time></trkpt><trkpt lat="46.1972722507471" lon="9.79637886770966"><ele>1537.0</ele><time>2026-04-04T13:35:36Z</time></trkpt><trkpt lat="46.19721241354934" lon="9.796518333545267"><ele>1533.5</ele><time>2026-04-04T13:35:38Z</time></trkpt><trkpt lat="46.197140337775686" lon="9.796588113977876"><ele>1530.0</ele><time>2026-04-04T13:35:40Z</time></trkpt><trkpt lat="46.19707762258196" lon="9.796535838857512"><ele>1526.5</ele><time>2026-04-04T13:35:42Z</time></trkpt><trkpt lat="46.197038918609714" lon="9.7964543638407"><ele>1523.0</ele><time>2026-04-04T13:35:46Z</time></trkpt><trkpt lat="46.196970290945295" lon="9.79649561275159"><ele>1523.0</ele><time>2026-04-04T13:36:05Z</time></trkpt><trkpt lat="46.19692035437598" lon="9.796419970519127"><ele>1523.0</ele><time>2026-04-04T13:36:22Z</time></trkpt><trkpt lat="46.196889408432064" lon="9.796314918121762"><ele>1523.0</ele><time>2026-04-04T13:36:27.001Z</time></trkpt><trkpt lat="46.19685142169164" lon="9.796227813153012"><ele>1523.0</ele><time>2026-04-04T13:36:41Z</time></trkpt><trkpt lat="46.196775407242235" lon="9.7962624563269"><ele>1523.0</ele><time>2026-04-04T13:36:44Z</time></trkpt><trkpt lat="46.19670903658129" lon="9.796279015027421"><ele>1523.0</ele><time>2026-04-04T13:36:47Z</time></trkpt><trkpt lat="46.196625268499865" lon="9.796321895931401"><ele>1523.0</ele><time>2026-04-04T13:36:50Z</time></trkpt><trkpt lat="46.19654137115371" lon="9.796269367776306"><ele>1523.0</ele><time>2026-04-04T13:36:53Z</time></trkpt><trkpt lat="46.19647690559834" lon="9.796274339184755"><ele>1523.0</ele><time>2026-04-04T13:36:57Z</time></trkpt><trkpt lat="46.19641098416247" lon="9.796227029184227"><ele>1523.0</ele><time>2026-04-04T13:36:59Z</time></trkpt><trkpt lat="46.196355344746564" lon="9.79618258406037"><ele>1523.0</ele><time>2026-04-04T13:37:01Z</time></trkpt><trkpt lat="46.19627387649965" lon="9.796129987538237"><ele>1523.0</ele><time>2026-04-04T13:37:03Z</time></trkpt><trkpt lat="46.19619052136935" lon="9.796121208765344"><ele>1516.8333333333335</ele><time>2026-04-04T13:37:05Z</time></trkpt><trkpt lat="46.19611408343893" lon="9.796171112583263"><ele>1510.6666666666667</ele><time>2026-04-04T13:37:07Z</time></trkpt><trkpt lat="46.196024981455636" lon="9.796219089821633"><ele>1504.5</ele><time>2026-04-04T13:37:09Z</time></trkpt><trkpt lat="46.195961891437776" lon="9.796228826898693"><ele>1498.3333333333333</ele><time>2026-04-04T13:37:12Z</time></trkpt><trkpt lat="46.19589240286194" lon="9.79621658980603"><ele>1492.1666666666665</ele><time>2026-04-04T13:37:14Z</time></trkpt><trkpt lat="46.19583199260232" lon="9.796186607122246"><ele>1486.0</ele><time>2026-04-04T13:37:17Z</time></trkpt><trkpt lat="46.195791084924196" lon="9.796095546925578"><ele>1480.1666666666665</ele><time>2026-04-04T13:37:19Z</time></trkpt><trkpt lat="46.195801924208425" lon="9.796001843405657"><ele>1474.3333333333333</ele><time>2026-04-04T13:37:22Z</time></trkpt><trkpt lat="46.195829035098136" lon="9.79588614246271"><ele>1468.5</ele><time>2026-04-04T13:37:25Z</time></trkpt><trkpt lat="46.19590381820742" lon="9.795856160150812"><ele>1462.6666666666667</ele><time>2026-04-04T13:37:28Z</time></trkpt><trkpt lat="46.19596274234773" lon="9.795805555345618"><ele>1456.8333333333335</ele><time>2026-04-04T13:37:30Z</time></trkpt><trkpt lat="46.19603592472087" lon="9.795769514760554"><ele>1451.0</ele><time>2026-04-04T13:37:39Z</time></trkpt><trkpt lat="46.19611959695059" lon="9.795727857359621"><ele>1451.0</ele><time>2026-04-04T13:37:43Z</time></trkpt><trkpt lat="46.19606380513197" lon="9.795666836462194"><ele>1451.0</ele><time>2026-04-04T13:38:03Z</time></trkpt><trkpt lat="46.195992485184235" lon="9.79563179307105"><ele>1451.0</ele><time>2026-04-04T13:38:07Z</time></trkpt><trkpt lat="46.195922352237794" lon="9.795632011257975"><ele>1451.0</ele><time>2026-04-04T13:38:09Z</time></trkpt><trkpt lat="46.19583816188008" lon="9.795646524659174"><ele>1451.0</ele><time>2026-04-04T13:38:14Z</time></trkpt><trkpt lat="46.195788547267654" lon="9.795584985053415"><ele>1451.0</ele><time>2026-04-04T13:38:18Z</time></trkpt><trkpt lat="46.195754372029754" lon="9.795484353679328"><ele>1451.0</ele><time>2026-04-04T13:38:21Z</time></trkpt><trkpt lat="46.1957689896603" lon="9.795389800152233"><ele>1451.0</ele><time>2026-04-04T13:38:26Z</time></trkpt><trkpt lat="46.19571389278692" lon="9.795441697898285"><ele>1451.0</ele><time>2026-04-04T13:38:32.001Z</time></trkpt><trkpt lat="46.195626574213534" lon="9.79547959169271"><ele>1451.0</ele><time>2026-04-04T13:38:35.001Z</time></trkpt><trkpt lat="46.1955645257251" lon="9.795522736198373"><ele>1451.0</ele><time>2026-04-04T13:38:39Z</time></trkpt><trkpt lat="46.19549874644373" lon="9.79543973351067"><ele>1451.0</ele><time>2026-04-04T13:38:47Z</time></trkpt><trkpt lat="46.19542418154458" lon="9.795454767984545"><ele>1451.0</ele><time>2026-04-04T13:38:50Z</time></trkpt><trkpt lat="46.19535013757959" lon="9.79550092616306"><ele>1444.8333333333335</ele><time>2026-04-04T13:38:54Z</time></trkpt><trkpt lat="46.19527364156124" lon="9.79552008265568"><ele>1438.6666666666667</ele><time>2026-04-04T13:38:56Z</time></trkpt><trkpt lat="46.19525390007513" lon="9.79562942159842"><ele>1432.5</ele><time>2026-04-04T13:38:58Z</time></trkpt><trkpt lat="46.19518753353176" lon="9.79568703234989"><ele>1426.3333333333333</ele><time>2026-04-04T13:39:01Z</time></trkpt><trkpt lat="46.1951071840078" lon="9.795724794528672"><ele>1420.1666666666665</ele><time>2026-04-04T13:39:03Z</time></trkpt><trkpt lat="46.19502555690772" lon="9.795751653268733"><ele>1414.0</ele><time>2026-04-04T13:39:05Z</time></trkpt><trkpt lat="46.19495801170513" lon="9.795782702793323"><ele>1414.0</ele><time>2026-04-04T13:39:08Z</time></trkpt><trkpt lat="46.194934513020954" lon="9.79569535732399"><ele>1414.0</ele><time>2026-04-04T13:39:12Z</time></trkpt><trkpt lat="46.194926009824826" lon="9.795582548067154"><ele>1414.0</ele><time>2026-04-04T13:39:14Z</time></trkpt><trkpt lat="46.194955311471546" lon="9.795472925976048"><ele>1414.0</ele><time>2026-04-04T13:39:21Z</time></trkpt><trkpt lat="46.19495202616817" lon="9.795372578301489"><ele>1414.0</ele><time>2026-04-04T13:39:24Z</time></trkpt><trkpt lat="46.19489330214409" lon="9.795303300915522"><ele>1414.0</ele><time>2026-04-04T13:39:39Z</time></trkpt><trkpt lat="46.194893580513735" lon="9.795203224844416"><ele>1414.0</ele><time>2026-04-04T13:39:47Z</time></trkpt><trkpt lat="46.194823200177005" lon="9.795279356471976"><ele>1403.8333333333333</ele><time>2026-04-04T13:40:09Z</time></trkpt><trkpt lat="46.19474286295664" lon="9.79523715624079"><ele>1393.6666666666665</ele><time>2026-04-04T13:40:13Z</time></trkpt><trkpt lat="46.1946714135894" lon="9.795233300335603"><ele>1383.5</ele><time>2026-04-04T13:40:15Z</time></trkpt><trkpt lat="46.194574917015146" lon="9.795248566452255"><ele>1373.3333333333333</ele><time>2026-04-04T13:40:19Z</time></trkpt><trkpt lat="46.194507658965975" lon="9.79528193375231"><ele>1363.1666666666667</ele><time>2026-04-04T13:40:21Z</time></trkpt><trkpt lat="46.194444717585476" lon="9.79533371743163"><ele>1353.0</ele><time>2026-04-04T13:40:23Z</time></trkpt><trkpt lat="46.1943817004967" lon="9.795410933628471"><ele>1353.0</ele><time>2026-04-04T13:40:25Z</time></trkpt><trkpt lat="46.19432845545129" lon="9.795497679245704"><ele>1353.0</ele><time>2026-04-04T13:40:27Z</time></trkpt><trkpt lat="46.19429173145263" lon="9.79559291085726"><ele>1353.0</ele><time>2026-04-04T13:40:29Z</time></trkpt><trkpt lat="46.19424256283851" lon="9.795669903504503"><ele>1353.0</ele><time>2026-04-04T13:40:31Z</time></trkpt><trkpt lat="46.194198461451236" lon="9.795770876225264"><ele>1353.0</ele><time>2026-04-04T13:40:34Z</time></trkpt><trkpt lat="46.19415654779445" lon="9.795869899598028"><ele>1353.0</ele><time>2026-04-04T13:40:37Z</time></trkpt><trkpt lat="46.19411743477828" lon="9.79595759437033"><ele>1354.7142857142858</ele><time>2026-04-04T13:40:39Z</time></trkpt><trkpt lat="46.19407547324397" lon="9.796056495756961"><ele>1356.4285714285713</ele><time>2026-04-04T13:40:41.001Z</time></trkpt><trkpt lat="46.19404799586852" lon="9.796173187784685"><ele>1358.142857142857</ele><time>2026-04-04T13:40:43Z</time></trkpt><trkpt lat="46.194035669627475" lon="9.796283417954857"><ele>1359.857142857143</ele><time>2026-04-04T13:40:49Z</time></trkpt><trkpt lat="46.19397266385222" lon="9.796254109807514"><ele>1361.5714285714284</ele><time>2026-04-04T13:40:54Z</time></trkpt><trkpt lat="46.19392220554571" lon="9.79618062856624"><ele>1363.2857142857142</ele><time>2026-04-04T13:40:57Z</time></trkpt><trkpt lat="46.19388215110485" lon="9.796107843659284"><ele>1365.0</ele><time>2026-04-04T13:41:02Z</time></trkpt><trkpt lat="46.19380781806546" lon="9.796034281948495"><ele>1355.5</ele><time>2026-04-04T13:41:08Z</time></trkpt><trkpt lat="46.19375658824084" lon="9.796091208454769"><ele>1346.0</ele><time>2026-04-04T13:41:13Z</time></trkpt><trkpt lat="46.193729221554136" lon="9.795985716225115"><ele>1336.5</ele><time>2026-04-04T13:41:24Z</time></trkpt><trkpt lat="46.19371912689075" lon="9.79585382929369"><ele>1327.0</ele><time>2026-04-04T13:41:27Z</time></trkpt><trkpt lat="46.193681259323476" lon="9.795767506807412"><ele>1317.5</ele><time>2026-04-04T13:41:31Z</time></trkpt><trkpt lat="46.19370678196442" lon="9.795681458688009"><ele>1308.0</ele><time>2026-04-04T13:41:34Z</time></trkpt><trkpt lat="46.193701964237626" lon="9.795544487188515"><ele>1304.1666666666667</ele><time>2026-04-04T13:41:40Z</time></trkpt><trkpt lat="46.19368277158731" lon="9.795451284596826"><ele>1300.3333333333333</ele><time>2026-04-04T13:41:44Z</time></trkpt><trkpt lat="46.19371517621875" lon="9.795319545447917"><ele>1296.5</ele><time>2026-04-04T13:41:48Z</time></trkpt><trkpt lat="46.19371380504652" lon="9.79518939391974"><ele>1292.6666666666665</ele><time>2026-04-04T13:41:50Z</time></trkpt><trkpt lat="46.193730142403496" lon="9.795096516676411"><ele>1288.8333333333333</ele><time>2026-04-04T13:41:52Z</time></trkpt><trkpt lat="46.193751587061385" lon="9.794955257082231"><ele>1285.0</ele><time>2026-04-04T13:41:54Z</time></trkpt><trkpt lat="46.19376122104096" lon="9.794863952473316"><ele>1282.4</ele><time>2026-04-04T13:41:56Z</time></trkpt><trkpt lat="46.19375606311343" lon="9.794665755858606"><ele>1279.8</ele><time>2026-04-04T13:41:58Z</time></trkpt><trkpt lat="46.19376135921579" lon="9.794572566515756"><ele>1277.2</ele><time>2026-04-04T13:41:59Z</time></trkpt><trkpt lat="46.19377286728949" lon="9.794460758226517"><ele>1274.6</ele><time>2026-04-04T13:42:01Z</time></trkpt><trkpt lat="46.19379172402792" lon="9.794311113002308"><ele>1272.0</ele><time>2026-04-04T13:42:03Z</time></trkpt><trkpt lat="46.19381633949657" lon="9.794202794948456"><ele>1269.1666666666667</ele><time>2026-04-04T13:42:05Z</time></trkpt><trkpt lat="46.193825186405824" lon="9.794104211579363"><ele>1266.3333333333333</ele><time>2026-04-04T13:42:08Z</time></trkpt><trkpt lat="46.19384212689545" lon="9.793980828093403"><ele>1263.5</ele><time>2026-04-04T13:42:10Z</time></trkpt><trkpt lat="46.193881105130885" lon="9.79384291207192"><ele>1260.6666666666665</ele><time>2026-04-04T13:42:12Z</time></trkpt><trkpt lat="46.19387920479669" lon="9.793745715012433"><ele>1257.8333333333333</ele><time>2026-04-04T13:42:15Z</time></trkpt><trkpt lat="46.19388530420798" lon="9.793654531655676"><ele>1255.0</ele><time>2026-04-04T13:42:18Z</time></trkpt><trkpt lat="46.19379834911631" lon="9.793710556062406"><ele>1255.0</ele><time>2026-04-04T13:42:20Z</time></trkpt><trkpt lat="46.19373136215295" lon="9.79375601726771"><ele>1255.0</ele><time>2026-04-04T13:42:22Z</time></trkpt><trkpt lat="46.19364574721123" lon="9.793818463188984"><ele>1255.0</ele><time>2026-04-04T13:42:24Z</time></trkpt><trkpt lat="46.193560164507346" lon="9.793838267903586"><ele>1255.0</ele><time>2026-04-04T13:42:27Z</time></trkpt><trkpt lat="46.19349886294568" lon="9.793787267035132"><ele>1255.0</ele><time>2026-04-04T13:42:29Z</time></trkpt><trkpt lat="46.193495403506574" lon="9.79369284697879"><ele>1255.0</ele><time>2026-04-04T13:42:35Z</time></trkpt><trkpt lat="46.193526057175895" lon="9.793561055018845"><ele>1251.1666666666665</ele><time>2026-04-04T13:42:38Z</time></trkpt><trkpt lat="46.19355226949049" lon="9.793456434070347"><ele>1247.3333333333333</ele><time>2026-04-04T13:42:39Z</time></trkpt><trkpt lat="46.193567489124305" lon="9.793323903500275"><ele>1243.5</ele><time>2026-04-04T13:42:40Z</time></trkpt><trkpt lat="46.19358590288639" lon="9.79323310852179"><ele>1239.6666666666667</ele><time>2026-04-04T13:42:41Z</time></trkpt><trkpt lat="46.19359943676642" lon="9.793112168117654"><ele>1235.8333333333335</ele><time>2026-04-04T13:42:43Z</time></trkpt><trkpt lat="46.193652179387676" lon="9.792964786047335"><ele>1232.0</ele><time>2026-04-04T13:42:45Z</time></trkpt><trkpt lat="46.19373525571243" lon="9.792822990768263"><ele>1232.0</ele><time>2026-04-04T13:42:47Z</time></trkpt><trkpt lat="46.19377237498891" lon="9.792733573705577"><ele>1232.0</ele><time>2026-04-04T13:42:49Z</time></trkpt><trkpt lat="46.19377508848918" lon="9.792640767675948"><ele>1232.0</ele><time>2026-04-04T13:42:54Z</time></trkpt><trkpt lat="46.193653867138366" lon="9.792725062750376"><ele>1232.0</ele><time>2026-04-04T13:42:57Z</time></trkpt><trkpt lat="46.19358304800053" lon="9.792754313367919"><ele>1232.0</ele><time>2026-04-04T13:42:58Z</time></trkpt><trkpt lat="46.19351675144596" lon="9.792782364658644"><ele>1232.0</ele><time>2026-04-04T13:42:59Z</time></trkpt><trkpt lat="46.19342505800564" lon="9.792833182982882"><ele>1232.0</ele><time>2026-04-04T13:43:01Z</time></trkpt><trkpt lat="46.19334946730309" lon="9.792895677341077"><ele>1232.0</ele><time>2026-04-04T13:43:03Z</time></trkpt><trkpt lat="46.19326578277623" lon="9.792966790914615"><ele>1232.0</ele><time>2026-04-04T13:43:05Z</time></trkpt><trkpt lat="46.193177499646914" lon="9.79306888242343"><ele>1232.0</ele><time>2026-04-04T13:43:07Z</time></trkpt><trkpt lat="46.19309864506542" lon="9.793156869824143"><ele>1232.0</ele><time>2026-04-04T13:43:09Z</time></trkpt><trkpt lat="46.19300951028545" lon="9.793229863807738"><ele>1226.1666666666667</ele><time>2026-04-04T13:43:11Z</time></trkpt><trkpt lat="46.192899595062656" lon="9.793237150366732"><ele>1220.3333333333335</ele><time>2026-04-04T13:43:15Z</time></trkpt><trkpt lat="46.19284164952384" lon="9.793321316938199"><ele>1214.5</ele><time>2026-04-04T13:43:18Z</time></trkpt><trkpt lat="46.19278102208268" lon="9.793390979104728"><ele>1208.6666666666667</ele><time>2026-04-04T13:43:21Z</time></trkpt><trkpt lat="46.192702372672265" lon="9.793371130131055"><ele>1202.8333333333333</ele><time>2026-04-04T13:43:24Z</time></trkpt><trkpt lat="46.1926403435262" lon="9.793447582451394"><ele>1197.0</ele><time>2026-04-04T13:43:34Z</time></trkpt><trkpt lat="46.19260308061639" lon="9.79354051967089"><ele>1197.0</ele><time>2026-04-04T13:43:36Z</time></trkpt><trkpt lat="46.19256272619484" lon="9.79365945179479"><ele>1197.0</ele><time>2026-04-04T13:43:38Z</time></trkpt><trkpt lat="46.19250750996036" lon="9.793791547945135"><ele>1197.0</ele><time>2026-04-04T13:43:40Z</time></trkpt><trkpt lat="46.19241434827925" lon="9.79388342790554"><ele>1197.0</ele><time>2026-04-04T13:43:42Z</time></trkpt><trkpt lat="46.192312362830606" lon="9.7939727430873"><ele>1197.0</ele><time>2026-04-04T13:43:44Z</time></trkpt><trkpt lat="46.19225184068166" lon="9.794117187877125"><ele>1190.857142857143</ele><time>2026-04-04T13:43:46Z</time></trkpt><trkpt lat="46.19220101835826" lon="9.794196612394158"><ele>1184.7142857142858</ele><time>2026-04-04T13:43:48Z</time></trkpt><trkpt lat="46.192138322544444" lon="9.794207085867248"><ele>1178.5714285714284</ele><time>2026-04-04T13:43:49Z</time></trkpt><trkpt lat="46.19207612982858" lon="9.794226967576604"><ele>1172.4285714285716</ele><time>2026-04-04T13:43:50Z</time></trkpt><trkpt lat="46.19202136233716" lon="9.794274600800996"><ele>1166.2857142857142</ele><time>2026-04-04T13:43:51Z</time></trkpt><trkpt lat="46.191957369193446" lon="9.794371002664894"><ele>1160.142857142857</ele><time>2026-04-04T13:43:52Z</time></trkpt><trkpt lat="46.19191378560575" lon="9.794443358595169"><ele>1154.0</ele><time>2026-04-04T13:43:53Z</time></trkpt><trkpt lat="46.191874030996566" lon="9.794572342732632"><ele>1154.0</ele><time>2026-04-04T13:43:55Z</time></trkpt><trkpt lat="46.19189799202995" lon="9.794726884642644"><ele>1154.0</ele><time>2026-04-04T13:43:58Z</time></trkpt><trkpt lat="46.19189796901074" lon="9.794841420894343"><ele>1154.0</ele><time>2026-04-04T13:44:00Z</time></trkpt><trkpt lat="46.191918687200555" lon="9.795000333212077"><ele>1154.0</ele><time>2026-04-04T13:44:02Z</time></trkpt><trkpt lat="46.19189559303254" lon="9.795095907128125"><ele>1154.0</ele><time>2026-04-04T13:44:05Z</time></trkpt><trkpt lat="46.191814788959356" lon="9.795151100055481"><ele>1154.2</ele><time>2026-04-04T13:44:07Z</time></trkpt><trkpt lat="46.1917268071845" lon="9.795180511466057"><ele>1154.4</ele><time>2026-04-04T13:44:09Z</time></trkpt><trkpt lat="46.19163053670604" lon="9.79519502448489"><ele>1154.6</ele><time>2026-04-04T13:44:11Z</time></trkpt><trkpt lat="46.19152310567262" lon="9.795264498745466"><ele>1154.8</ele><time>2026-04-04T13:44:13Z</time></trkpt><trkpt lat="46.191427891815295" lon="9.795280873623676"><ele>1155.0</ele><time>2026-04-04T13:44:15Z</time></trkpt><trkpt lat="46.19132392628335" lon="9.795334007690874"><ele>1155.0</ele><time>2026-04-04T13:44:17Z</time></trkpt><trkpt lat="46.19127376106914" lon="9.795436500437459"><ele>1155.0</ele><time>2026-04-04T13:44:19Z</time></trkpt><trkpt lat="46.19123156653967" lon="9.795517631373412"><ele>1155.0</ele><time>2026-04-04T13:44:21Z</time></trkpt><trkpt lat="46.19114766350837" lon="9.795541939378714"><ele>1155.0</ele><time>2026-04-04T13:44:23Z</time></trkpt><trkpt lat="46.19108681721182" lon="9.795632859302465"><ele>1155.0</ele><time>2026-04-04T13:44:26Z</time></trkpt><trkpt lat="46.19102179554187" lon="9.795646561627027"><ele>1155.0</ele><time>2026-04-04T13:44:28Z</time></trkpt><trkpt lat="46.19095250023602" lon="9.795717776426324"><ele>1155.0</ele><time>2026-04-04T13:44:29Z</time></trkpt><trkpt lat="46.190867855150614" lon="9.795732583600131"><ele>1155.0</ele><time>2026-04-04T13:44:30Z</time></trkpt><trkpt lat="46.190749643513755" lon="9.795707233176225"><ele>1155.0</ele><time>2026-04-04T13:44:32Z</time></trkpt><trkpt lat="46.19065160798045" lon="9.795732565469212"><ele>1155.0</ele><time>2026-04-04T13:44:34Z</time></trkpt><trkpt lat="46.19054674619881" lon="9.795751469870117"><ele>1155.0</ele><time>2026-04-04T13:44:36Z</time></trkpt><trkpt lat="46.19044776460981" lon="9.795739228795405"><ele>1149.0</ele><time>2026-04-04T13:44:38Z</time></trkpt><trkpt lat="46.19034857040706" lon="9.795784620787177"><ele>1143.0</ele><time>2026-04-04T13:44:40Z</time></trkpt><trkpt lat="46.19028323087709" lon="9.79580962993937"><ele>1137.0</ele><time>2026-04-04T13:44:41Z</time></trkpt><trkpt lat="46.19019677823091" lon="9.79584495972083"><ele>1131.0</ele><time>2026-04-04T13:44:42.999Z</time></trkpt><trkpt lat="46.19007768550413" lon="9.79590250476952"><ele>1125.0</ele><time>2026-04-04T13:44:44.999Z</time></trkpt><trkpt lat="46.190001461953045" lon="9.795953292598833"><ele>1125.0</ele><time>2026-04-04T13:44:45.999Z</time></trkpt><trkpt lat="46.18992001069202" lon="9.796002058991117"><ele>1125.0</ele><time>2026-04-04T13:44:47Z</time></trkpt><trkpt lat="46.1898273979981" lon="9.796057933979577"><ele>1125.0</ele><time>2026-04-04T13:44:49Z</time></trkpt><trkpt lat="46.18974883660429" lon="9.796135121381317"><ele>1125.0</ele><time>2026-04-04T13:44:50Z</time></trkpt><trkpt lat="46.189678816569455" lon="9.796214185533852"><ele>1125.0</ele><time>2026-04-04T13:44:51Z</time></trkpt><trkpt lat="46.1896190427429" lon="9.796268370654193"><ele>1125.0</ele><time>2026-04-04T13:44:52Z</time></trkpt><trkpt lat="46.18951966334342" lon="9.796377921998305"><ele>1122.0</ele><time>2026-04-04T13:44:54Z</time></trkpt><trkpt lat="46.18942360535823" lon="9.796478085243576"><ele>1119.0</ele><time>2026-04-04T13:44:56Z</time></trkpt><trkpt lat="46.18937387615116" lon="9.796542211639931"><ele>1116.0</ele><time>2026-04-04T13:44:57Z</time></trkpt><trkpt lat="46.1893050023151" lon="9.796663659871292"><ele>1113.0</ele><time>2026-04-04T13:44:59Z</time></trkpt><trkpt lat="46.189261621649926" lon="9.796759164803515"><ele>1110.0</ele><time>2026-04-04T13:45:00Z</time></trkpt><trkpt lat="46.18919867070227" lon="9.796871556497674"><ele>1110.0</ele><time>2026-04-04T13:45:01Z</time></trkpt><trkpt lat="46.1891287336698" lon="9.796954015255135"><ele>1110.0</ele><time>2026-04-04T13:45:02Z</time></trkpt><trkpt lat="46.18909480301008" lon="9.797082209822827"><ele>1110.0</ele><time>2026-04-04T13:45:04Z</time></trkpt><trkpt lat="46.18908281137504" lon="9.797206257129718"><ele>1110.0</ele><time>2026-04-04T13:45:06Z</time></trkpt><trkpt lat="46.18904193908198" lon="9.79734572864658"><ele>1110.0</ele><time>2026-04-04T13:45:08Z</time></trkpt><trkpt lat="46.18899855780402" lon="9.797468650922642"><ele>1101.4</ele><time>2026-04-04T13:45:10Z</time></trkpt><trkpt lat="46.18895016993121" lon="9.797530177339572"><ele>1092.8</ele><time>2026-04-04T13:45:12Z</time></trkpt><trkpt lat="46.18888836836072" lon="9.797643878655583"><ele>1084.2</ele><time>2026-04-04T13:45:14Z</time></trkpt><trkpt lat="46.188817662572085" lon="9.797777916923438"><ele>1075.6</ele><time>2026-04-04T13:45:16Z</time></trkpt><trkpt lat="46.18872642419901" lon="9.797801597497422"><ele>1067.0</ele><time>2026-04-04T13:45:18Z</time></trkpt><trkpt lat="46.18865961656626" lon="9.797918737011496"><ele>1067.0</ele><time>2026-04-04T13:45:20Z</time></trkpt><trkpt lat="46.188637204575585" lon="9.798035614178035"><ele>1067.0</ele><time>2026-04-04T13:45:22Z</time></trkpt><trkpt lat="46.188614204822144" lon="9.798210285879499"><ele>1067.0</ele><time>2026-04-04T13:45:24Z</time></trkpt><trkpt lat="46.18859648832693" lon="9.79831001485756"><ele>1067.0</ele><time>2026-04-04T13:45:25Z</time></trkpt><trkpt lat="46.188549749492395" lon="9.798405504602743"><ele>1067.0</ele><time>2026-04-04T13:45:27Z</time></trkpt><trkpt lat="46.18847056263328" lon="9.798482436285978"><ele>1067.0</ele><time>2026-04-04T13:45:29Z</time></trkpt><trkpt lat="46.18840065003039" lon="9.79851378931554"><ele>1067.0</ele><time>2026-04-04T13:45:30Z</time></trkpt><trkpt lat="46.188317273149664" lon="9.79846585783101"><ele>1067.0</ele><time>2026-04-04T13:45:32Z</time></trkpt><trkpt lat="46.18826735137228" lon="9.798371770700992"><ele>1067.0</ele><time>2026-04-04T13:45:34Z</time></trkpt><trkpt lat="46.1883019963218" lon="9.798260443884887"><ele>1067.0</ele><time>2026-04-04T13:45:36Z</time></trkpt><trkpt lat="46.188286189343245" lon="9.798164406697193"><ele>1067.0</ele><time>2026-04-04T13:45:38Z</time></trkpt><trkpt lat="46.18825060945367" lon="9.798025845757557"><ele>1067.0</ele><time>2026-04-04T13:45:40Z</time></trkpt><trkpt lat="46.18819698747055" lon="9.797934707225965"><ele>1067.0</ele><time>2026-04-04T13:45:42Z</time></trkpt><trkpt lat="46.18815594665732" lon="9.797852523503877"><ele>1067.0</ele><time>2026-04-04T13:45:44Z</time></trkpt><trkpt lat="46.188063518420996" lon="9.797923638498105"><ele>1067.0</ele><time>2026-04-04T13:45:46Z</time></trkpt><trkpt lat="46.18797059297917" lon="9.79807161185336"><ele>1067.0</ele><time>2026-04-04T13:45:48Z</time></trkpt><trkpt lat="46.18793831577814" lon="9.798216357939959"><ele>1062.0</ele><time>2026-04-04T13:45:50Z</time></trkpt><trkpt lat="46.187863582812156" lon="9.798331175162081"><ele>1057.0</ele><time>2026-04-04T13:45:52Z</time></trkpt><trkpt lat="46.18778242992307" lon="9.798392792866181"><ele>1052.0</ele><time>2026-04-04T13:45:53.999Z</time></trkpt><trkpt lat="46.18771652740017" lon="9.798417534085823"><ele>1047.0</ele><time>2026-04-04T13:45:54.999Z</time></trkpt><trkpt lat="46.18763872921538" lon="9.798454286714561"><ele>1042.0</ele><time>2026-04-04T13:45:55.999Z</time></trkpt><trkpt lat="46.18756403965022" lon="9.798491136502662"><ele>1037.0</ele><time>2026-04-04T13:45:56.999Z</time></trkpt><trkpt lat="46.18748397275965" lon="9.79858663220488"><ele>1037.0</ele><time>2026-04-04T13:45:58.999Z</time></trkpt><trkpt lat="46.187430438386514" lon="9.798667136250359"><ele>1037.0</ele><time>2026-04-04T13:46:00.999Z</time></trkpt><trkpt lat="46.18733362734266" lon="9.798753308499368"><ele>1037.0</ele><time>2026-04-04T13:46:03.999Z</time></trkpt><trkpt lat="46.18727075207695" lon="9.798784320998903"><ele>1037.0</ele><time>2026-04-04T13:46:04.999Z</time></trkpt><trkpt lat="46.1871741418354" lon="9.798820236088222"><ele>1037.0</ele><time>2026-04-04T13:46:06.999Z</time></trkpt><trkpt lat="46.187083517100874" lon="9.798853556967641"><ele>1023.2</ele><time>2026-04-04T13:46:08.999Z</time></trkpt><trkpt lat="46.18708043359645" lon="9.798748860433575"><ele>1009.4000000000001</ele><time>2026-04-04T13:46:12.999Z</time></trkpt><trkpt lat="46.18712278989586" lon="9.798630515089176"><ele>995.5999999999999</ele><time>2026-04-04T13:46:14.999Z</time></trkpt><trkpt lat="46.18706642976955" lon="9.798562995140689"><ele>981.8</ele><time>2026-04-04T13:46:17.999Z</time></trkpt><trkpt lat="46.1869293748368" lon="9.798541210139756"><ele>968.0</ele><time>2026-04-04T13:46:19.999Z</time></trkpt><trkpt lat="46.18685572653609" lon="9.798578535274828"><ele>968.0000000000001</ele><time>2026-04-04T13:46:21.999Z</time></trkpt><trkpt lat="46.186789770632274" lon="9.798579259177144"><ele>968.0</ele><time>2026-04-04T13:46:23.999Z</time></trkpt><trkpt lat="46.18676022112738" lon="9.798472651936441"><ele>968.0</ele><time>2026-04-04T13:46:25.999Z</time></trkpt><trkpt lat="46.186719310506106" lon="9.79839049503689"><ele>968.0</ele><time>2026-04-04T13:46:26.999Z</time></trkpt><trkpt lat="46.186596818974216" lon="9.798330601253907"><ele>968.0000000000001</ele><time>2026-04-04T13:46:28.999Z</time></trkpt><trkpt lat="46.186531735943014" lon="9.798283197469802"><ele>968.0</ele><time>2026-04-04T13:46:29.999Z</time></trkpt><trkpt lat="46.18645567469963" lon="9.798218434895754"><ele>960.0</ele><time>2026-04-04T13:46:30.999Z</time></trkpt><trkpt lat="46.18638829689707" lon="9.798181330762281"><ele>952.0</ele><time>2026-04-04T13:46:31.999Z</time></trkpt><trkpt lat="46.18628559556236" lon="9.798154457074356"><ele>944.0</ele><time>2026-04-04T13:46:33.999Z</time></trkpt><trkpt lat="46.18620642206401" lon="9.79813205724067"><ele>936.0</ele><time>2026-04-04T13:46:35.999Z</time></trkpt><trkpt lat="46.18610953542797" lon="9.79815385636312"><ele>928.0</ele><time>2026-04-04T13:46:38.999Z</time></trkpt><trkpt lat="46.18610968993156" lon="9.798308180483755"><ele>927.9999999999999</ele><time>2026-04-04T13:46:41.999Z</time></trkpt><trkpt lat="46.186146295872454" lon="9.798458753860261"><ele>928.0</ele><time>2026-04-04T13:46:43.999Z</time></trkpt><trkpt lat="46.18617157988052" lon="9.798559737404489"><ele>928.0</ele><time>2026-04-04T13:46:46.999Z</time></trkpt><trkpt lat="46.18622354646362" lon="9.798654699082787"><ele>928.0</ele><time>2026-04-04T13:46:48.999Z</time></trkpt><trkpt lat="46.186203718857236" lon="9.798763671348624"><ele>927.9999999999999</ele><time>2026-04-04T13:46:50.999Z</time></trkpt><trkpt lat="46.18625437562125" lon="9.798880823722708"><ele>928.0</ele><time>2026-04-04T13:46:53Z</time></trkpt><trkpt lat="46.186246741634186" lon="9.799007272239308"><ele>928.8333333333333</ele><time>2026-04-04T13:46:55Z</time></trkpt><trkpt lat="46.18620231709837" lon="9.799121751327924"><ele>929.6666666666666</ele><time>2026-04-04T13:46:57Z</time></trkpt><trkpt lat="46.18614594181441" lon="9.799226923133745"><ele>930.5</ele><time>2026-04-04T13:46:59Z</time></trkpt><trkpt lat="46.18618338357452" lon="9.799317746814415"><ele>931.3333333333333</ele><time>2026-04-04T13:47:01Z</time></trkpt><trkpt lat="46.18621926364262" lon="9.799445773178519"><ele>932.1666666666666</ele><time>2026-04-04T13:47:03Z</time></trkpt><trkpt lat="46.18618608678896" lon="9.799544900715187"><ele>933.0</ele><time>2026-04-04T13:47:05Z</time></trkpt><trkpt lat="46.18616116272298" lon="9.799649749475702"><ele>933.0</ele><time>2026-04-04T13:47:08Z</time></trkpt><trkpt lat="46.18612642629712" lon="9.799726897127089"><ele>932.9999999999999</ele><time>2026-04-04T13:47:13Z</time></trkpt><trkpt lat="46.186067916648554" lon="9.799676495281503"><ele>933.0</ele><time>2026-04-04T13:47:17Z</time></trkpt><trkpt lat="46.18600132923407" lon="9.799655266778293"><ele>933.0</ele><time>2026-04-04T13:47:21Z</time></trkpt><trkpt lat="46.18600295808681" lon="9.79975618252216"><ele>932.9999999999999</ele><time>2026-04-04T13:47:26Z</time></trkpt><trkpt lat="46.18591610600092" lon="9.799758069850714"><ele>933.0</ele><time>2026-04-04T13:47:30Z</time></trkpt><trkpt lat="46.1858359034416" lon="9.799745238854616"><ele>933.0</ele><time>2026-04-04T13:47:33Z</time></trkpt><trkpt lat="46.18577624616019" lon="9.799712571519455"><ele>933.0</ele><time>2026-04-04T13:47:36Z</time></trkpt><trkpt lat="46.18568399860379" lon="9.799721763813013"><ele>933.0</ele><time>2026-04-04T13:48:22.999Z</time></trkpt><trkpt lat="46.18562636385295" lon="9.799653696703782"><ele>933.0</ele><time>2026-04-04T13:48:35.999Z</time></trkpt><trkpt lat="46.185722607614274" lon="9.799694202025057"><ele>933.0</ele><time>2026-04-04T13:51:07Z</time></trkpt><trkpt lat="46.185657817922596" lon="9.799648586554618"><ele>933.0</ele><time>2026-04-04T13:52:15Z</time></trkpt><trkpt lat="46.18556430049459" lon="9.799583409372513"><ele>933.0</ele><time>2026-04-04T13:52:16.999Z</time></trkpt><trkpt lat="46.18549275233029" lon="9.799494842658161"><ele>927.1666666666666</ele><time>2026-04-04T13:52:18.999Z</time></trkpt><trkpt lat="46.18541461548313" lon="9.799447234687008"><ele>921.3333333333333</ele><time>2026-04-04T13:52:20.999Z</time></trkpt><trkpt lat="46.18534892287659" lon="9.79943365775702"><ele>915.5</ele><time>2026-04-04T13:52:21.999Z</time></trkpt><trkpt lat="46.18524851640592" lon="9.799465928821565"><ele>909.6666666666666</ele><time>2026-04-04T13:52:23.999Z</time></trkpt><trkpt lat="46.18517368032978" lon="9.79951380275267"><ele>903.8333333333333</ele><time>2026-04-04T13:52:25.999Z</time></trkpt><trkpt lat="46.18513585550867" lon="9.799641296228101"><ele>898.0</ele><time>2026-04-04T13:52:27.999Z</time></trkpt><trkpt lat="46.185089205665015" lon="9.799804267431055"><ele>897.9999999999999</ele><time>2026-04-04T13:52:29.999Z</time></trkpt><trkpt lat="46.185048924303004" lon="9.799892836892653"><ele>898.0</ele><time>2026-04-04T13:52:30.999Z</time></trkpt><trkpt lat="46.18500865712558" lon="9.799980890003749"><ele>898.0</ele><time>2026-04-04T13:52:31.999Z</time></trkpt><trkpt lat="46.18490039200207" lon="9.800097256074134"><ele>898.0</ele><time>2026-04-04T13:52:33.999Z</time></trkpt><trkpt lat="46.184830092059165" lon="9.800098245307291"><ele>897.9999999999999</ele><time>2026-04-04T13:52:34.999Z</time></trkpt><trkpt lat="46.18475533468384" lon="9.800097543619545"><ele>898.0</ele><time>2026-04-04T13:52:35.999Z</time></trkpt><trkpt lat="46.1846840783176" lon="9.800119953044259"><ele>895.1666666666666</ele><time>2026-04-04T13:52:36.999Z</time></trkpt><trkpt lat="46.18458825786489" lon="9.800147668892553"><ele>892.3333333333333</ele><time>2026-04-04T13:52:38.999Z</time></trkpt><trkpt lat="46.18452835060259" lon="9.800101651445786"><ele>889.5</ele><time>2026-04-04T13:52:42.999Z</time></trkpt><trkpt lat="46.18444264798177" lon="9.800069543428968"><ele>886.6666666666667</ele><time>2026-04-04T13:52:53.999Z</time></trkpt><trkpt lat="46.18437329294827" lon="9.800031696476958"><ele>883.8333333333334</ele><time>2026-04-04T13:52:57.999Z</time></trkpt><trkpt lat="46.1842976939933" lon="9.799978169257253"><ele>881.0</ele><time>2026-04-04T13:53:00.999Z</time></trkpt><trkpt lat="46.18421008826448" lon="9.799859940996836"><ele>881.0000000000001</ele><time>2026-04-04T13:53:02.999Z</time></trkpt><trkpt lat="46.18415396364774" lon="9.79980555936656"><ele>881.0</ele><time>2026-04-04T13:53:03.999Z</time></trkpt><trkpt lat="46.184071455916595" lon="9.799735370999281"><ele>881.0</ele><time>2026-04-04T13:53:05.999Z</time></trkpt><trkpt lat="46.183986680377174" lon="9.799837794787942"><ele>881.0</ele><time>2026-04-04T13:53:08.999Z</time></trkpt><trkpt lat="46.183900288145345" lon="9.79990742661533"><ele>881.0000000000001</ele><time>2026-04-04T13:53:11Z</time></trkpt><trkpt lat="46.18383568390499" lon="9.799901751298018"><ele>881.0</ele><time>2026-04-04T13:53:12Z</time></trkpt><trkpt lat="46.18373162647991" lon="9.799864392895408"><ele>881.1999999999999</ele><time>2026-04-04T13:53:14Z</time></trkpt><trkpt lat="46.18363254019975" lon="9.799840962422348"><ele>881.3999999999999</ele><time>2026-04-04T13:53:16Z</time></trkpt><trkpt lat="46.18354328542918" lon="9.799897565174199"><ele>881.6</ele><time>2026-04-04T13:53:18Z</time></trkpt><trkpt lat="46.1834510704104" lon="9.799881479340725"><ele>881.8</ele><time>2026-04-04T13:53:21Z</time></trkpt><trkpt lat="46.183377512424464" lon="9.79975881211533"><ele>882.0</ele><time>2026-04-04T13:53:23Z</time></trkpt><trkpt lat="46.183292366276085" lon="9.799727419133184"><ele>882.0</ele><time>2026-04-04T13:53:25Z</time></trkpt><trkpt lat="46.18318678177675" lon="9.79975900277649"><ele>882.0</ele><time>2026-04-04T13:53:27Z</time></trkpt><trkpt lat="46.183121203171225" lon="9.799761567471398"><ele>882.0</ele><time>2026-04-04T13:53:29Z</time></trkpt><trkpt lat="46.18304470461682" lon="9.799713801159324"><ele>882.0</ele><time>2026-04-04T13:53:30Z</time></trkpt><trkpt lat="46.18298257315057" lon="9.799599174158047"><ele>882.0</ele><time>2026-04-04T13:53:32Z</time></trkpt><trkpt lat="46.18296635996905" lon="9.799495065808122"><ele>882.0</ele><time>2026-04-04T13:53:34Z</time></trkpt><trkpt lat="46.182867375250474" lon="9.799470315975045"><ele>885.3333333333334</ele><time>2026-04-04T13:53:36Z</time></trkpt><trkpt lat="46.18280658168402" lon="9.799380056135645"><ele>888.6666666666667</ele><time>2026-04-04T13:53:38Z</time></trkpt><trkpt lat="46.182737357092634" lon="9.799323439908994"><ele>892.0</ele><time>2026-04-04T13:53:40Z</time></trkpt><trkpt lat="46.182689531471524" lon="9.799385848025363"><ele>895.3333333333334</ele><time>2026-04-04T13:53:42Z</time></trkpt><trkpt lat="46.18262811285045" lon="9.79947235433701"><ele>898.6666666666667</ele><time>2026-04-04T13:53:44Z</time></trkpt><trkpt lat="46.18254312231199" lon="9.799442475314587"><ele>902.0</ele><time>2026-04-04T13:53:46Z</time></trkpt><trkpt lat="46.18246337934479" lon="9.799343520919122"><ele>895.6</ele><time>2026-04-04T13:53:48Z</time></trkpt><trkpt lat="46.18239133133687" lon="9.799177686156668"><ele>889.2</ele><time>2026-04-04T13:53:50Z</time></trkpt><trkpt lat="46.18233680903549" lon="9.79906239039305"><ele>882.8</ele><time>2026-04-04T13:53:51Z</time></trkpt><trkpt lat="46.18226873489035" lon="9.798955580873635"><ele>876.4</ele><time>2026-04-04T13:53:52Z</time></trkpt><trkpt lat="46.18220027291804" lon="9.798848232583094"><ele>870.0</ele><time>2026-04-04T13:53:53Z</time></trkpt><trkpt lat="46.18216107527333" lon="9.798744005842495"><ele>870.0</ele><time>2026-04-04T13:53:54Z</time></trkpt><trkpt lat="46.18211214000677" lon="9.798656634613076"><ele>870.0</ele><time>2026-04-04T13:53:55Z</time></trkpt><trkpt lat="46.1820608529294" lon="9.798569357251212"><ele>870.0</ele><time>2026-04-04T13:53:56Z</time></trkpt><trkpt lat="46.1819814133397" lon="9.79850281897248"><ele>870.0</ele><time>2026-04-04T13:53:57Z</time></trkpt><trkpt lat="46.181904274147364" lon="9.798445818131272"><ele>870.0</ele><time>2026-04-04T13:53:58Z</time></trkpt><trkpt lat="46.18182943891103" lon="9.798386447624697"><ele>870.0</ele><time>2026-04-04T13:53:59Z</time></trkpt><trkpt lat="46.181742993464546" lon="9.798371374211046"><ele>862.0</ele><time>2026-04-04T13:54:00Z</time></trkpt><trkpt lat="46.18162603331337" lon="9.798409472784819"><ele>854.0</ele><time>2026-04-04T13:54:01Z</time></trkpt><trkpt lat="46.18148749626045" lon="9.79845480188009"><ele>846.0</ele><time>2026-04-04T13:54:02Z</time></trkpt><trkpt lat="46.181373191729875" lon="9.798482736928113"><ele>838.0</ele><time>2026-04-04T13:54:03Z</time></trkpt><trkpt lat="46.181246712259245" lon="9.79848064264205"><ele>838.2</ele><time>2026-04-04T13:54:04Z</time></trkpt><trkpt lat="46.181134799471636" lon="9.798478085433711"><ele>838.4</ele><time>2026-04-04T13:54:05Z</time></trkpt><trkpt lat="46.1810494370388" lon="9.798490467685385"><ele>838.6</ele><time>2026-04-04T13:54:06Z</time></trkpt><trkpt lat="46.18093926114007" lon="9.798510748816305"><ele>838.8000000000001</ele><time>2026-04-04T13:54:07Z</time></trkpt><trkpt lat="46.18084901463222" lon="9.798563364301348"><ele>839.0</ele><time>2026-04-04T13:54:08Z</time></trkpt><trkpt lat="46.18073830041266" lon="9.798629719643827"><ele>832.6</ele><time>2026-04-04T13:54:09Z</time></trkpt><trkpt lat="46.180642623539455" lon="9.79870320224534"><ele>826.2</ele><time>2026-04-04T13:54:10Z</time></trkpt><trkpt lat="46.180590706810236" lon="9.798770754931267"><ele>819.8000000000001</ele><time>2026-04-04T13:54:11Z</time></trkpt><trkpt lat="46.18051373342357" lon="9.798865213620742"><ele>813.4000000000001</ele><time>2026-04-04T13:54:12Z</time></trkpt><trkpt lat="46.18043891397393" lon="9.79895088652514"><ele>807.0</ele><time>2026-04-04T13:54:13Z</time></trkpt><trkpt lat="46.18036158147251" lon="9.799049224082566"><ele>807.0</ele><time>2026-04-04T13:54:14Z</time></trkpt><trkpt lat="46.18029027177292" lon="9.799136772966314"><ele>807.0</ele><time>2026-04-04T13:54:15Z</time></trkpt><trkpt lat="46.18021436969028" lon="9.799215416440507"><ele>807.0</ele><time>2026-04-04T13:54:16Z</time></trkpt><trkpt lat="46.180140110187175" lon="9.799292440394199"><ele>807.0</ele><time>2026-04-04T13:54:17Z</time></trkpt><trkpt lat="46.18006759932407" lon="9.79937616410747"><ele>807.0</ele><time>2026-04-04T13:54:18Z</time></trkpt><trkpt lat="46.18001061156689" lon="9.799442191693647"><ele>807.0</ele><time>2026-04-04T13:54:19Z</time></trkpt><trkpt lat="46.179957793482714" lon="9.799528688244305"><ele>808.6666666666666</ele><time>2026-04-04T13:54:20Z</time></trkpt><trkpt lat="46.17988737385311" lon="9.799622952906887"><ele>810.3333333333333</ele><time>2026-04-04T13:54:21Z</time></trkpt><trkpt lat="46.17982091854481" lon="9.799733808076828"><ele>812.0</ele><time>2026-04-04T13:54:22Z</time></trkpt><trkpt lat="46.17979679866675" lon="9.799831166339949"><ele>813.6666666666666</ele><time>2026-04-04T13:54:23Z</time></trkpt><trkpt lat="46.179753589564775" lon="9.799936579189541"><ele>815.3333333333333</ele><time>2026-04-04T13:54:24Z</time></trkpt><trkpt lat="46.17969978603267" lon="9.800037284791154"><ele>817.0</ele><time>2026-04-04T13:54:25Z</time></trkpt><trkpt lat="46.179673682242736" lon="9.800124927764012"><ele>811.3333333333333</ele><time>2026-04-04T13:54:26Z</time></trkpt><trkpt lat="46.17964533843967" lon="9.80021127261676"><ele>805.6666666666666</ele><time>2026-04-04T13:54:26.999Z</time></trkpt><trkpt lat="46.17958517500259" lon="9.800296160580094"><ele>800.0</ele><time>2026-04-04T13:54:27.999Z</time></trkpt><trkpt lat="46.179522699159016" lon="9.800385641006866"><ele>794.3333333333333</ele><time>2026-04-04T13:54:28.999Z</time></trkpt><trkpt lat="46.17944710301293" lon="9.800463719051958"><ele>788.6666666666666</ele><time>2026-04-04T13:54:29.999Z</time></trkpt><trkpt lat="46.17936918124403" lon="9.800547845721184"><ele>783.0</ele><time>2026-04-04T13:54:30.999Z</time></trkpt><trkpt lat="46.179314971938126" lon="9.800655026026726"><ele>783.0</ele><time>2026-04-04T13:54:31.999Z</time></trkpt><trkpt lat="46.17925119179732" lon="9.800759003178271"><ele>783.0</ele><time>2026-04-04T13:54:32.999Z</time></trkpt><trkpt lat="46.179192748766035" lon="9.800862019515456"><ele>783.0</ele><time>2026-04-04T13:54:33.999Z</time></trkpt><trkpt lat="46.17914562523749" lon="9.800955233817316"><ele>783.0</ele><time>2026-04-04T13:54:34.999Z</time></trkpt><trkpt lat="46.17910130554278" lon="9.801044559579328"><ele>783.0</ele><time>2026-04-04T13:54:35.999Z</time></trkpt><trkpt lat="46.17905681585195" lon="9.8011181257993"><ele>783.0</ele><time>2026-04-04T13:54:36.999Z</time></trkpt><trkpt lat="46.179003613538725" lon="9.801209021806153"><ele>775.8</ele><time>2026-04-04T13:54:37.999Z</time></trkpt><trkpt lat="46.17894579636939" lon="9.801322508658153"><ele>768.5999999999999</ele><time>2026-04-04T13:54:38.999Z</time></trkpt><trkpt lat="46.17888879697728" lon="9.801486134680045"><ele>761.4000000000001</ele><time>2026-04-04T13:54:39.999Z</time></trkpt><trkpt lat="46.17882717041947" lon="9.801634056710032"><ele>754.2</ele><time>2026-04-04T13:54:40.999Z</time></trkpt><trkpt lat="46.17877633653286" lon="9.801767552809299"><ele>747.0</ele><time>2026-04-04T13:54:41.999Z</time></trkpt><trkpt lat="46.17872964742932" lon="9.801903254339704"><ele>747.0</ele><time>2026-04-04T13:54:42.999Z</time></trkpt><trkpt lat="46.17867671042895" lon="9.80203208810281"><ele>747.0</ele><time>2026-04-04T13:54:43.999Z</time></trkpt><trkpt lat="46.178621139177366" lon="9.802172060180572"><ele>747.0</ele><time>2026-04-04T13:54:44.999Z</time></trkpt><trkpt lat="46.1785845520093" lon="9.802298187408423"><ele>747.0</ele><time>2026-04-04T13:54:45.999Z</time></trkpt><trkpt lat="46.178555466405875" lon="9.802460561347848"><ele>747.0</ele><time>2026-04-04T13:54:46.999Z</time></trkpt><trkpt lat="46.17853566094223" lon="9.802609195056947"><ele>747.4000000000001</ele><time>2026-04-04T13:54:47.999Z</time></trkpt><trkpt lat="46.17851837236624" lon="9.802759171379893"><ele>747.8000000000001</ele><time>2026-04-04T13:54:48.999Z</time></trkpt><trkpt lat="46.178515576062125" lon="9.8029204041004"><ele>748.2</ele><time>2026-04-04T13:54:49.999Z</time></trkpt><trkpt lat="46.17847815351442" lon="9.803085589615298"><ele>748.6</ele><time>2026-04-04T13:54:50.999Z</time></trkpt><trkpt lat="46.17845977973613" lon="9.803205862698466"><ele>749.0</ele><time>2026-04-04T13:54:51.999Z</time></trkpt><trkpt lat="46.178449728421455" lon="9.80334107500886"><ele>752.6666666666666</ele><time>2026-04-04T13:54:53.999Z</time></trkpt><trkpt lat="46.178360557184696" lon="9.803694193550895"><ele>756.3333333333334</ele><time>2026-04-04T13:55:03.999Z</time></trkpt><trkpt lat="46.17831107105875" lon="9.803859313651762"><ele>760.0</ele><time>2026-04-04T13:55:04.999Z</time></trkpt><trkpt lat="46.178264894760545" lon="9.804059798187316"><ele>760.0</ele><time>2026-04-04T13:55:05.999Z</time></trkpt><trkpt lat="46.17821230964809" lon="9.80422978186144"><ele>760.0</ele><time>2026-04-04T13:55:06.999Z</time></trkpt><trkpt lat="46.17817804019833" lon="9.804361537303564"><ele>760.0</ele><time>2026-04-04T13:55:07.999Z</time></trkpt><trkpt lat="46.17814639815759" lon="9.804476403132544"><ele>760.0</ele><time>2026-04-04T13:55:08.999Z</time></trkpt><trkpt lat="46.178118977842225" lon="9.804596571670837"><ele>760.0</ele><time>2026-04-04T13:55:09.999Z</time></trkpt><trkpt lat="46.17806578305349" lon="9.804770852375299"><ele>750.75</ele><time>2026-04-04T13:55:10.999Z</time></trkpt><trkpt lat="46.17802088876247" lon="9.804964566770254"><ele>741.5</ele><time>2026-04-04T13:55:11.999Z</time></trkpt><trkpt lat="46.17794261651398" lon="9.805177342613822"><ele>732.25</ele><time>2026-04-04T13:55:12.999Z</time></trkpt><trkpt lat="46.17788487151982" lon="9.805345411786604"><ele>723.0</ele><time>2026-04-04T13:55:13.999Z</time></trkpt><trkpt lat="46.17783980522858" lon="9.805498797020077"><ele>723.0</ele><time>2026-04-04T13:55:14.999Z</time></trkpt><trkpt lat="46.177770352141636" lon="9.80568578244838"><ele>723.0</ele><time>2026-04-04T13:55:15.999Z</time></trkpt><trkpt lat="46.17772518289773" lon="9.805871100949526"><ele>723.0</ele><time>2026-04-04T13:55:17Z</time></trkpt><trkpt lat="46.17769150386114" lon="9.806068810466117"><ele>723.0</ele><time>2026-04-04T13:55:17.999Z</time></trkpt><trkpt lat="46.177638714995496" lon="9.806249426814182"><ele>725.75</ele><time>2026-04-04T13:55:18.999Z</time></trkpt><trkpt lat="46.17757925318167" lon="9.806420212542793"><ele>728.5</ele><time>2026-04-04T13:55:20Z</time></trkpt><trkpt lat="46.17750229882162" lon="9.806578110655286"><ele>731.25</ele><time>2026-04-04T13:55:21Z</time></trkpt><trkpt lat="46.17743756413241" lon="9.806716448285476"><ele>734.0</ele><time>2026-04-04T13:55:22Z</time></trkpt><trkpt lat="46.17736460588708" lon="9.806858306654505"><ele>727.2</ele><time>2026-04-04T13:55:23Z</time></trkpt><trkpt lat="46.17728069542727" lon="9.806966155942396"><ele>720.4000000000001</ele><time>2026-04-04T13:55:24Z</time></trkpt><trkpt lat="46.17719054355769" lon="9.8070593844015"><ele>713.6</ele><time>2026-04-04T13:55:25Z</time></trkpt><trkpt lat="46.177107903575795" lon="9.807165782805807"><ele>706.8</ele><time>2026-04-04T13:55:26Z</time></trkpt><trkpt lat="46.17705436257173" lon="9.807268718073077"><ele>700.0</ele><time>2026-04-04T13:55:26.999Z</time></trkpt><trkpt lat="46.17700446343815" lon="9.807418895058143"><ele>700.0</ele><time>2026-04-04T13:55:27.999Z</time></trkpt><trkpt lat="46.17695491301133" lon="9.807595497293635"><ele>700.0</ele><time>2026-04-04T13:55:28.999Z</time></trkpt><trkpt lat="46.17689629978314" lon="9.807739293162998"><ele>700.0</ele><time>2026-04-04T13:55:30Z</time></trkpt><trkpt lat="46.17681557518282" lon="9.807904601174318"><ele>700.0</ele><time>2026-04-04T13:55:31Z</time></trkpt><trkpt lat="46.176764898958666" lon="9.808030753740596"><ele>699.8</ele><time>2026-04-04T13:55:32Z</time></trkpt><trkpt lat="46.176733020168136" lon="9.808157622123264"><ele>699.6</ele><time>2026-04-04T13:55:33Z</time></trkpt><trkpt lat="46.17671825468948" lon="9.808289170338268"><ele>699.4000000000001</ele><time>2026-04-04T13:55:34Z</time></trkpt><trkpt lat="46.17672620388705" lon="9.808430524091685"><ele>699.2</ele><time>2026-04-04T13:55:35Z</time></trkpt><trkpt lat="46.17674879371305" lon="9.808555537468873"><ele>699.0</ele><time>2026-04-04T13:55:36Z</time></trkpt><trkpt lat="46.17674890494379" lon="9.808668307519783"><ele>698.8571428571428</ele><time>2026-04-04T13:55:37Z</time></trkpt><trkpt lat="46.17675549152315" lon="9.808774247664248"><ele>698.7142857142858</ele><time>2026-04-04T13:55:38Z</time></trkpt><trkpt lat="46.176747326688336" lon="9.808893532208776"><ele>698.5714285714286</ele><time>2026-04-04T13:55:39Z</time></trkpt><trkpt lat="46.176746225359906" lon="9.808993272114625"><ele>698.4285714285713</ele><time>2026-04-04T13:55:40Z</time></trkpt><trkpt lat="46.17675615867395" lon="9.809085343967956"><ele>698.2857142857142</ele><time>2026-04-04T13:55:42Z</time></trkpt><trkpt lat="46.17669692362956" lon="9.809134673622056"><ele>698.1428571428571</ele><time>2026-04-04T13:55:52Z</time></trkpt><trkpt lat="46.176726682827955" lon="9.809255808117076"><ele>698.0</ele><time>2026-04-04T13:55:55Z</time></trkpt><trkpt lat="46.176759389507566" lon="9.809392114790732"><ele>698.0</ele><time>2026-04-04T13:55:57Z</time></trkpt><trkpt lat="46.17680079617066" lon="9.809483272098577"><ele>698.0</ele><time>2026-04-04T13:55:58Z</time></trkpt><trkpt lat="46.176838874667546" lon="9.809638566219114"><ele>698.0</ele><time>2026-04-04T13:56:00Z</time></trkpt><trkpt lat="46.176837175625856" lon="9.809780956056377"><ele>698.0</ele><time>2026-04-04T13:56:02Z</time></trkpt><trkpt lat="46.176850298954385" lon="9.809884711844944"><ele>698.0</ele><time>2026-04-04T13:56:03Z</time></trkpt><trkpt lat="46.17686780988485" lon="9.810011895718945"><ele>698.0</ele><time>2026-04-04T13:56:04Z</time></trkpt><trkpt lat="46.17689747245159" lon="9.81014629587759"><ele>698.0</ele><time>2026-04-04T13:56:05Z</time></trkpt><trkpt lat="46.176934097004285" lon="9.8102829289205"><ele>698.0</ele><time>2026-04-04T13:56:05.999Z</time></trkpt><trkpt lat="46.17694970531329" lon="9.810392854260222"><ele>698.0</ele><time>2026-04-04T13:56:06.999Z</time></trkpt><trkpt lat="46.17695139356062" lon="9.81053547578429"><ele>698.0</ele><time>2026-04-04T13:56:07.999Z</time></trkpt><trkpt lat="46.17695242036096" lon="9.81066842225408"><ele>698.8</ele><time>2026-04-04T13:56:08.999Z</time></trkpt><trkpt lat="46.176966939934104" lon="9.810804714945975"><ele>699.5999999999999</ele><time>2026-04-04T13:56:09.999Z</time></trkpt><trkpt lat="46.17697273043761" lon="9.810932031008226"><ele>700.4000000000001</ele><time>2026-04-04T13:56:10.999Z</time></trkpt><trkpt lat="46.17697043458792" lon="9.811102107291262"><ele>701.2</ele><time>2026-04-04T13:56:12.999Z</time></trkpt><trkpt lat="46.17701128958937" lon="9.811179948759502"><ele>702.0</ele><time>2026-04-04T13:56:13.999Z</time></trkpt><trkpt lat="46.1770417085954" lon="9.811327133588977"><ele>702.1666666666666</ele><time>2026-04-04T13:56:15.999Z</time></trkpt><trkpt lat="46.177061427933474" lon="9.811423072385239"><ele>702.3333333333334</ele><time>2026-04-04T13:56:16.999Z</time></trkpt><trkpt lat="46.1770732959562" lon="9.811531208654442"><ele>702.5</ele><time>2026-04-04T13:56:17.999Z</time></trkpt><trkpt lat="46.177090503736224" lon="9.811620940873981"><ele>702.6666666666667</ele><time>2026-04-04T13:56:18.999Z</time></trkpt><trkpt lat="46.17706771724323" lon="9.81172437915837"><ele>702.8333333333334</ele><time>2026-04-04T13:56:19.999Z</time></trkpt><trkpt lat="46.17706106199632" lon="9.811834666442246"><ele>703.0</ele><time>2026-04-04T13:56:20.999Z</time></trkpt><trkpt lat="46.17707321712228" lon="9.811974761353248"><ele>703.4285714285714</ele><time>2026-04-04T13:56:21.999Z</time></trkpt><trkpt lat="46.17708130102168" lon="9.812111553675884"><ele>703.8571428571429</ele><time>2026-04-04T13:56:22.999Z</time></trkpt><trkpt lat="46.17707372127069" lon="9.812215155288587"><ele>704.2857142857142</ele><time>2026-04-04T13:56:23.999Z</time></trkpt><trkpt lat="46.17709732641377" lon="9.812305664106287"><ele>704.7142857142858</ele><time>2026-04-04T13:56:24.999Z</time></trkpt><trkpt lat="46.177124803395714" lon="9.812401430526354"><ele>705.1428571428572</ele><time>2026-04-04T13:56:25.999Z</time></trkpt><trkpt lat="46.177149676863706" lon="9.812489989881579"><ele>705.5714285714286</ele><time>2026-04-04T13:56:26.999Z</time></trkpt><trkpt lat="46.177168379204105" lon="9.812597718150762"><ele>706.0</ele><time>2026-04-04T13:56:27.999Z</time></trkpt><trkpt lat="46.177174134416674" lon="9.812692098644522"><ele>707.5999999999999</ele><time>2026-04-04T13:56:28.999Z</time></trkpt><trkpt lat="46.177184075122966" lon="9.812800577065062"><ele>709.2</ele><time>2026-04-04T13:56:29.999Z</time></trkpt><trkpt lat="46.177218877986" lon="9.81299743598256"><ele>710.8</ele><time>2026-04-04T13:56:31.999Z</time></trkpt><trkpt lat="46.17723644431999" lon="9.813112094595555"><ele>712.4000000000001</ele><time>2026-04-04T13:56:32.999Z</time></trkpt><trkpt lat="46.177241488469626" lon="9.81322905401232"><ele>714.0</ele><time>2026-04-04T13:56:33.999Z</time></trkpt><trkpt lat="46.17722957221687" lon="9.813362290212131"><ele>714.0</ele><time>2026-04-04T13:56:34.999Z</time></trkpt><trkpt lat="46.17726044858933" lon="9.813472904687302"><ele>714.0</ele><time>2026-04-04T13:56:35.999Z</time></trkpt><trkpt lat="46.177270193846496" lon="9.813593298331993"><ele>714.0</ele><time>2026-04-04T13:56:36.999Z</time></trkpt><trkpt lat="46.17729000762092" lon="9.813731255861988"><ele>714.0</ele><time>2026-04-04T13:56:37.999Z</time></trkpt><trkpt lat="46.17732842545938" lon="9.813869002069286"><ele>714.0</ele><time>2026-04-04T13:56:38.999Z</time></trkpt><trkpt lat="46.17735239989702" lon="9.813954822156942"><ele>714.0</ele><time>2026-04-04T13:56:39.999Z</time></trkpt><trkpt lat="46.17735052257707" lon="9.814064522555851"><ele>720.5</ele><time>2026-04-04T13:56:40.999Z</time></trkpt><trkpt lat="46.17736755413743" lon="9.814191679258947"><ele>727.0</ele><time>2026-04-04T13:56:41.999Z</time></trkpt><trkpt lat="46.17743128000137" lon="9.81432293913774"><ele>733.5</ele><time>2026-04-04T13:56:42.999Z</time></trkpt><trkpt lat="46.17746383283613" lon="9.814437327526448"><ele>740.0</ele><time>2026-04-04T13:56:43.999Z</time></trkpt><trkpt lat="46.17748810965649" lon="9.814549742501198"><ele>746.5</ele><time>2026-04-04T13:56:44.999Z</time></trkpt><trkpt lat="46.17751341683826" lon="9.81463728720762"><ele>753.0</ele><time>2026-04-04T13:56:45.999Z</time></trkpt><trkpt lat="46.17753653301675" lon="9.814725655212833"><ele>753.5999999999999</ele><time>2026-04-04T13:56:46.999Z</time></trkpt><trkpt lat="46.17757423984284" lon="9.814883586991932"><ele>754.1999999999999</ele><time>2026-04-04T13:56:48.999Z</time></trkpt><trkpt lat="46.17754440506945" lon="9.81502685115979"><ele>754.8</ele><time>2026-04-04T13:56:49.999Z</time></trkpt><trkpt lat="46.17754700002554" lon="9.815175161661708"><ele>755.4</ele><time>2026-04-04T13:56:50.999Z</time></trkpt><trkpt lat="46.17756228940401" lon="9.81527836387922"><ele>756.0</ele><time>2026-04-04T13:56:51.999Z</time></trkpt><trkpt lat="46.17759074248498" lon="9.815436693425362"><ele>756.1428571428571</ele><time>2026-04-04T13:56:53.999Z</time></trkpt><trkpt lat="46.17762762410692" lon="9.81553124690435"><ele>756.2857142857142</ele><time>2026-04-04T13:56:54.999Z</time></trkpt><trkpt lat="46.17766077102404" lon="9.81561363532289"><ele>756.4285714285714</ele><time>2026-04-04T13:56:55.999Z</time></trkpt><trkpt lat="46.17771327286542" lon="9.815703094706635"><ele>756.5714285714286</ele><time>2026-04-04T13:56:56.999Z</time></trkpt><trkpt lat="46.177771709065475" lon="9.815789751415569"><ele>756.7142857142857</ele><time>2026-04-04T13:56:57.999Z</time></trkpt><trkpt lat="46.17779298073077" lon="9.81588083626271"><ele>756.8571428571429</ele><time>2026-04-04T13:56:58.999Z</time></trkpt><trkpt lat="46.17780713481544" lon="9.815982038981868"><ele>757.0</ele><time>2026-04-04T13:56:59.999Z</time></trkpt><trkpt lat="46.17781974681066" lon="9.8160808071394"><ele>758.6666666666667</ele><time>2026-04-04T13:57:00.999Z</time></trkpt><trkpt lat="46.17781352583158" lon="9.816197353871699"><ele>760.3333333333334</ele><time>2026-04-04T13:57:01.999Z</time></trkpt><trkpt lat="46.17780535473784" lon="9.816329573791275"><ele>762.0</ele><time>2026-04-04T13:57:03.999Z</time></trkpt><trkpt lat="46.177778383577106" lon="9.816419875510437"><ele>763.6666666666666</ele><time>2026-04-04T13:57:05.999Z</time></trkpt><trkpt lat="46.17773096498272" lon="9.816489727142242"><ele>765.3333333333333</ele><time>2026-04-04T13:57:06.999Z</time></trkpt><trkpt lat="46.177693571231494" lon="9.816626079677196"><ele>767.0</ele><time>2026-04-04T13:57:07.999Z</time></trkpt><trkpt lat="46.17764381037346" lon="9.816728720678395"><ele>772.4000000000001</ele><time>2026-04-04T13:57:08.999Z</time></trkpt><trkpt lat="46.177635770523636" lon="9.81683535222799"><ele>777.8000000000001</ele><time>2026-04-04T13:57:09.999Z</time></trkpt><trkpt lat="46.17756280064922" lon="9.816991820777954"><ele>783.2</ele><time>2026-04-04T13:57:11.999Z</time></trkpt><trkpt lat="46.17751180863089" lon="9.817104701357643"><ele>788.6</ele><time>2026-04-04T13:57:12.999Z</time></trkpt><trkpt lat="46.17747025342358" lon="9.817257373396833"><ele>794.0</ele><time>2026-04-04T13:57:13.999Z</time></trkpt><trkpt lat="46.17743991691384" lon="9.817381772941417"><ele>794.0</ele><time>2026-04-04T13:57:14.999Z</time></trkpt><trkpt lat="46.177406946451356" lon="9.817493095776982"><ele>794.0</ele><time>2026-04-04T13:57:15.999Z</time></trkpt><trkpt lat="46.1773722481706" lon="9.817606214396312"><ele>794.0</ele><time>2026-04-04T13:57:16.999Z</time></trkpt><trkpt lat="46.17735174496857" lon="9.817707590699243"><ele>794.0</ele><time>2026-04-04T13:57:17.999Z</time></trkpt><trkpt lat="46.17732203171514" lon="9.817870849628394"><ele>794.0</ele><time>2026-04-04T13:57:19.999Z</time></trkpt><trkpt lat="46.17732531179814" lon="9.818052305740347"><ele>796.6</ele><time>2026-04-04T13:57:21.999Z</time></trkpt><trkpt lat="46.17737387938779" lon="9.818212795789973"><ele>799.2</ele><time>2026-04-04T13:57:23.999Z</time></trkpt><trkpt lat="46.177428770256746" lon="9.818304238043375"><ele>801.8000000000001</ele><time>2026-04-04T13:57:24.999Z</time></trkpt><trkpt lat="46.17748547485598" lon="9.818396004363414"><ele>804.4000000000001</ele><time>2026-04-04T13:57:26Z</time></trkpt><trkpt lat="46.177532496521444" lon="9.818472841875439"><ele>807.0</ele><time>2026-04-04T13:57:27Z</time></trkpt><trkpt lat="46.17759504861496" lon="9.818612771666144"><ele>807.75</ele><time>2026-04-04T13:57:29Z</time></trkpt><trkpt lat="46.177616294997485" lon="9.818741455008551"><ele>808.5</ele><time>2026-04-04T13:57:30.999Z</time></trkpt><trkpt lat="46.17766724300947" lon="9.818839680333387"><ele>809.25</ele><time>2026-04-04T13:57:33.999Z</time></trkpt><trkpt lat="46.17784686108204" lon="9.818590681197742"><ele>810.0</ele><time>2026-04-04T13:57:44Z</time></trkpt><trkpt lat="46.17786716462525" lon="9.818504604053476"><ele>809.5</ele><time>2026-04-04T13:57:45Z</time></trkpt><trkpt lat="46.17793138001847" lon="9.818433031259495"><ele>809.0</ele><time>2026-04-04T13:57:47Z</time></trkpt><trkpt lat="46.17800116078168" lon="9.818356770605307"><ele>808.5</ele><time>2026-04-04T13:57:49Z</time></trkpt><trkpt lat="46.17808787267854" lon="9.818270779438887"><ele>808.0</ele><time>2026-04-04T13:57:51Z</time></trkpt><trkpt lat="46.17813007342879" lon="9.818145736017428"><ele>807.5</ele><time>2026-04-04T13:57:53Z</time></trkpt><trkpt lat="46.17817086159715" lon="9.818065429034622"><ele>807.0</ele><time>2026-04-04T13:57:55Z</time></trkpt><trkpt lat="46.17822425878227" lon="9.81800636890607"><ele>814.0</ele><time>2026-04-04T13:57:57Z</time></trkpt><trkpt lat="46.17825453621293" lon="9.81791034439575"><ele>821.0</ele><time>2026-04-04T13:58:00Z</time></trkpt><trkpt lat="46.17836246071768" lon="9.817818573223853"><ele>828.0</ele><time>2026-04-04T13:58:02Z</time></trkpt><trkpt lat="46.17844294161029" lon="9.817778580074405"><ele>835.0</ele><time>2026-04-04T13:58:04Z</time></trkpt><trkpt lat="46.17845171375085" lon="9.81788299432636"><ele>842.0</ele><time>2026-04-04T13:58:07Z</time></trkpt><trkpt lat="46.17839520999816" lon="9.817935833869186"><ele>849.0</ele><time>2026-04-04T13:58:08Z</time></trkpt><trkpt lat="46.17847407769013" lon="9.818026196700188"><ele>849.0</ele><time>2026-04-04T13:58:13Z</time></trkpt><trkpt lat="46.17849988189678" lon="9.818122829525018"><ele>849.0</ele><time>2026-04-04T13:58:15Z</time></trkpt><trkpt lat="46.17847373310017" lon="9.818228595202607"><ele>849.0</ele><time>2026-04-04T13:58:17Z</time></trkpt><trkpt lat="46.17845011630452" lon="9.818371201759144"><ele>849.0</ele><time>2026-04-04T13:58:19Z</time></trkpt><trkpt lat="46.178497887403786" lon="9.818472608677325"><ele>849.0</ele><time>2026-04-04T13:58:21Z</time></trkpt><trkpt lat="46.17858765881511" lon="9.818539782515115"><ele>849.0</ele><time>2026-04-04T13:58:23Z</time></trkpt><trkpt lat="46.17872096857455" lon="9.818568731653158"><ele>850.2</ele><time>2026-04-04T13:58:25Z</time></trkpt><trkpt lat="46.17879124269075" lon="9.81861249222905"><ele>851.4000000000001</ele><time>2026-04-04T13:58:25.999Z</time></trkpt><trkpt lat="46.17884547760285" lon="9.818772393939929"><ele>852.6</ele><time>2026-04-04T13:58:27.999Z</time></trkpt><trkpt lat="46.17886471405341" lon="9.818895256442756"><ele>853.8</ele><time>2026-04-04T13:58:28.999Z</time></trkpt><trkpt lat="46.17887912228414" lon="9.819004329546132"><ele>855.0</ele><time>2026-04-04T13:58:29.999Z</time></trkpt><trkpt lat="46.178851148260094" lon="9.819169249240439"><ele>855.0</ele><time>2026-04-04T13:58:31.999Z</time></trkpt><trkpt lat="46.17884164651968" lon="9.81927592370938"><ele>855.0</ele><time>2026-04-04T13:58:32.999Z</time></trkpt><trkpt lat="46.17882205449517" lon="9.819363662425205"><ele>855.0</ele><time>2026-04-04T13:58:33.999Z</time></trkpt><trkpt lat="46.178811724089236" lon="9.819473280677597"><ele>855.0</ele><time>2026-04-04T13:58:34.999Z</time></trkpt><trkpt lat="46.17880911075093" lon="9.819586520468954"><ele>855.0</ele><time>2026-04-04T13:58:35.999Z</time></trkpt><trkpt lat="46.178820439844955" lon="9.819675956990908"><ele>855.0</ele><time>2026-04-04T13:58:36.999Z</time></trkpt><trkpt lat="46.178866284846606" lon="9.819802883974761"><ele>855.4</ele><time>2026-04-04T13:58:37.999Z</time></trkpt><trkpt lat="46.178862346517434" lon="9.81997127007395"><ele>855.8</ele><time>2026-04-04T13:58:39.999Z</time></trkpt><trkpt lat="46.17888516068435" lon="9.82016188167004"><ele>856.2</ele><time>2026-04-04T13:58:41.999Z</time></trkpt><trkpt lat="46.17890234582643" lon="9.82025368428413"><ele>856.6</ele><time>2026-04-04T13:58:42.999Z</time></trkpt><trkpt lat="46.17890138086691" lon="9.820363639344848"><ele>857.0</ele><time>2026-04-04T13:58:43.999Z</time></trkpt><trkpt lat="46.17892459252615" lon="9.82047786719778"><ele>857.3333333333334</ele><time>2026-04-04T13:58:44.999Z</time></trkpt><trkpt lat="46.17897883469862" lon="9.820613839497383"><ele>857.6666666666667</ele><time>2026-04-04T13:58:45.999Z</time></trkpt><trkpt lat="46.17905676535943" lon="9.820687853902202"><ele>858.0</ele><time>2026-04-04T13:58:46.999Z</time></trkpt><trkpt lat="46.17912045178665" lon="9.82075535521554"><ele>858.3333333333333</ele><time>2026-04-04T13:58:47.999Z</time></trkpt><trkpt lat="46.17918753421213" lon="9.820816412867726"><ele>858.6666666666666</ele><time>2026-04-04T13:58:48.999Z</time></trkpt><trkpt lat="46.179251267272384" lon="9.820869748306379"><ele>859.0</ele><time>2026-04-04T13:58:49.999Z</time></trkpt><trkpt lat="46.17931090419584" lon="9.82093569760385"><ele>865.1428571428571</ele><time>2026-04-04T13:58:50.999Z</time></trkpt><trkpt lat="46.17935798721837" lon="9.821008979047377"><ele>871.2857142857142</ele><time>2026-04-04T13:58:51.999Z</time></trkpt><trkpt lat="46.17935187134618" lon="9.82110467160528"><ele>877.4285714285713</ele><time>2026-04-04T13:58:52.999Z</time></trkpt><trkpt lat="46.17936966942323" lon="9.82119413660312"><ele>883.5714285714286</ele><time>2026-04-04T13:58:53.999Z</time></trkpt><trkpt lat="46.179425809777854" lon="9.821283015581745"><ele>889.7142857142858</ele><time>2026-04-04T13:58:55.999Z</time></trkpt><trkpt lat="46.1793941859873" lon="9.821373001206242"><ele>895.8571428571428</ele><time>2026-04-04T13:58:58.999Z</time></trkpt><trkpt lat="46.17946121166607" lon="9.821356775042748"><ele>902.0</ele><time>2026-04-04T13:59:03.999Z</time></trkpt><trkpt lat="46.179470334508444" lon="9.821454574759844"><ele>902.0</ele><time>2026-04-04T13:59:07.999Z</time></trkpt><trkpt lat="46.17949216294376" lon="9.82155107124667"><ele>902.0</ele><time>2026-04-04T13:59:09.999Z</time></trkpt><trkpt lat="46.17952192814836" lon="9.82168648065199"><ele>902.0</ele><time>2026-04-04T13:59:11.999Z</time></trkpt><trkpt lat="46.179552826156076" lon="9.82181358101975"><ele>902.0</ele><time>2026-04-04T13:59:13.999Z</time></trkpt><trkpt lat="46.17961599586118" lon="9.821949017400469"><ele>902.0</ele><time>2026-04-04T13:59:15.999Z</time></trkpt><trkpt lat="46.179643654117" lon="9.822076813982461"><ele>901.6</ele><time>2026-04-04T13:59:17.999Z</time></trkpt><trkpt lat="46.179742678925635" lon="9.8221537299773"><ele>901.2</ele><time>2026-04-04T13:59:19.999Z</time></trkpt><trkpt lat="46.17974668657372" lon="9.822323732165565"><ele>900.8</ele><time>2026-04-04T13:59:21.999Z</time></trkpt><trkpt lat="46.17978293778534" lon="9.822442139256212"><ele>900.4</ele><time>2026-04-04T13:59:22.999Z</time></trkpt><trkpt lat="46.17979862670614" lon="9.822611401077703"><ele>900.0</ele><time>2026-04-04T13:59:24.999Z</time></trkpt><trkpt lat="46.17980956631537" lon="9.822719665625963"><ele>908.2</ele><time>2026-04-04T13:59:25.999Z</time></trkpt><trkpt lat="46.179852937858634" lon="9.822824945591861"><ele>916.4</ele><time>2026-04-04T13:59:26.999Z</time></trkpt><trkpt lat="46.17990927091642" lon="9.822939882305011"><ele>924.5999999999999</ele><time>2026-04-04T13:59:27.999Z</time></trkpt><trkpt lat="46.17995737137697" lon="9.823031210565302"><ele>932.8</ele><time>2026-04-04T13:59:29Z</time></trkpt><trkpt lat="46.180007718596976" lon="9.823130103665086"><ele>941.0</ele><time>2026-04-04T13:59:30.999Z</time></trkpt><trkpt lat="46.180057980515116" lon="9.82327033250154"><ele>941.0</ele><time>2026-04-04T13:59:32.999Z</time></trkpt><trkpt lat="46.18005275043715" lon="9.82337189846543"><ele>940.9999999999999</ele><time>2026-04-04T13:59:33.999Z</time></trkpt><trkpt lat="46.180076888296675" lon="9.823492760974261"><ele>940.9999999999999</ele><time>2026-04-04T13:59:35.999Z</time></trkpt><trkpt lat="46.18005066498335" lon="9.823668984971974"><ele>941.0</ele><time>2026-04-04T13:59:37.999Z</time></trkpt><trkpt lat="46.180027397923766" lon="9.823785464894385"><ele>941.0</ele><time>2026-04-04T13:59:38.999Z</time></trkpt><trkpt lat="46.18003465001144" lon="9.823911108777763"><ele>940.8333333333334</ele><time>2026-04-04T13:59:40.999Z</time></trkpt><trkpt lat="46.180061485413546" lon="9.824001746920374"><ele>940.6666666666667</ele><time>2026-04-04T13:59:42Z</time></trkpt><trkpt lat="46.18009487481354" lon="9.82410960665811"><ele>940.5</ele><time>2026-04-04T13:59:43Z</time></trkpt><trkpt lat="46.18011944419102" lon="9.824221053401343"><ele>940.3333333333333</ele><time>2026-04-04T13:59:44Z</time></trkpt><trkpt lat="46.18020407894948" lon="9.824310015493383"><ele>940.1666666666666</ele><time>2026-04-04T13:59:46Z</time></trkpt><trkpt lat="46.18031363692113" lon="9.824327463608338"><ele>940.0</ele><time>2026-04-04T13:59:48Z</time></trkpt><trkpt lat="46.180308626691115" lon="9.824211958699916"><ele>939.9999999999999</ele><time>2026-04-04T13:59:51Z</time></trkpt><trkpt lat="46.18033580833568" lon="9.824127492747785"><ele>940.0</ele><time>2026-04-04T13:59:53Z</time></trkpt><trkpt lat="46.18037363435885" lon="9.824003328687514"><ele>940.0</ele><time>2026-04-04T13:59:55Z</time></trkpt><trkpt lat="46.180412984479936" lon="9.823916725954858"><ele>940.0</ele><time>2026-04-04T13:59:57Z</time></trkpt><trkpt lat="46.1804683888436" lon="9.823859459107698"><ele>939.9999999999999</ele><time>2026-04-04T13:59:59Z</time></trkpt><trkpt lat="46.180587264519566" lon="9.82382225400099"><ele>940.0</ele><time>2026-04-04T14:00:09Z</time></trkpt><trkpt lat="46.18062191459235" lon="9.823736322749685"><ele>940.0</ele><time>2026-04-04T14:00:10Z</time></trkpt><trkpt lat="46.180711553983535" lon="9.823666815262115"><ele>939.9999999999999</ele><time>2026-04-04T14:00:33.999Z</time></trkpt><trkpt lat="46.18076170735641" lon="9.823604134779464"><ele>940.0</ele><time>2026-04-04T14:01:19.999Z</time></trkpt><trkpt lat="46.180704162053004" lon="9.823680767248652"><ele>940.0</ele><time>2026-04-04T14:01:53.999Z</time></trkpt><trkpt lat="46.18066052024231" lon="9.823746569814187"><ele>939.9999999999999</ele><time>2026-04-04T14:02:29.999Z</time></trkpt><trkpt lat="46.18069654625493" lon="9.82367183622773"><ele>940.0</ele><time>2026-04-04T14:02:42.999Z</time></trkpt><trkpt lat="46.18073494836726" lon="9.823582225795036"><ele>940.0</ele><time>2026-04-04T14:06:05Z</time></trkpt><trkpt lat="46.18076447102332" lon="9.823403747686662"><ele>948.6</ele><time>2026-04-04T14:06:07Z</time></trkpt><trkpt lat="46.180816606137896" lon="9.823227012781247"><ele>957.2</ele><time>2026-04-04T14:06:09Z</time></trkpt><trkpt lat="46.18083981643975" lon="9.823080940712009"><ele>965.8</ele><time>2026-04-04T14:06:11Z</time></trkpt><trkpt lat="46.18081792489138" lon="9.822986338940305"><ele>974.4</ele><time>2026-04-04T14:06:12Z</time></trkpt><trkpt lat="46.1807415476572" lon="9.8228853325347"><ele>983.0</ele><time>2026-04-04T14:06:13Z</time></trkpt><trkpt lat="46.18072773866787" lon="9.822760817097477"><ele>983.4</ele><time>2026-04-04T14:06:14Z</time></trkpt><trkpt lat="46.18072767438422" lon="9.822643179600396"><ele>983.8</ele><time>2026-04-04T14:06:15Z</time></trkpt><trkpt lat="46.18076800401469" lon="9.822537807146697"><ele>984.2</ele><time>2026-04-04T14:06:16Z</time></trkpt><trkpt lat="46.180835502474665" lon="9.822437886667252"><ele>984.6</ele><time>2026-04-04T14:06:18Z</time></trkpt><trkpt lat="46.180837930328515" lon="9.82229282805624"><ele>985.0</ele><time>2026-04-04T14:06:19.999Z</time></trkpt><trkpt lat="46.180848256958775" lon="9.822149354585274"><ele>985.0</ele><time>2026-04-04T14:06:21.999Z</time></trkpt><trkpt lat="46.18083348927967" lon="9.822047027428225"><ele>985.0</ele><time>2026-04-04T14:06:23.999Z</time></trkpt><trkpt lat="46.18082748051553" lon="9.821916001856431"><ele>985.0</ele><time>2026-04-04T14:06:25.999Z</time></trkpt><trkpt lat="46.18081929556707" lon="9.82174389042387"><ele>985.0</ele><time>2026-04-04T14:06:27.999Z</time></trkpt><trkpt lat="46.1808120051352" lon="9.821573321763623"><ele>985.0</ele><time>2026-04-04T14:06:29.999Z</time></trkpt><trkpt lat="46.180796341904795" lon="9.821405330871828"><ele>984.4</ele><time>2026-04-04T14:06:31.999Z</time></trkpt><trkpt lat="46.18078262199588" lon="9.821243832395377"><ele>983.8</ele><time>2026-04-04T14:06:33.999Z</time></trkpt><trkpt lat="46.180812536787826" lon="9.821119062645858"><ele>983.2</ele><time>2026-04-04T14:06:35.999Z</time></trkpt><trkpt lat="46.18085042125184" lon="9.820996945287478"><ele>982.6</ele><time>2026-04-04T14:06:37.999Z</time></trkpt><trkpt lat="46.18085242313465" lon="9.82084903586802"><ele>982.0</ele><time>2026-04-04T14:06:39.999Z</time></trkpt><trkpt lat="46.180865856099494" lon="9.820696757074243"><ele>981.9999999999999</ele><time>2026-04-04T14:06:41.999Z</time></trkpt><trkpt lat="46.18087137334129" lon="9.8206007067898"><ele>982.0</ele><time>2026-04-04T14:06:42.999Z</time></trkpt><trkpt lat="46.18088663465005" lon="9.820504666782643"><ele>982.0</ele><time>2026-04-04T14:06:43.999Z</time></trkpt><trkpt lat="46.18090152107733" lon="9.820407089565144"><ele>982.0</ele><time>2026-04-04T14:06:44.999Z</time></trkpt><trkpt lat="46.18093795067239" lon="9.820252223446825"><ele>981.9999999999999</ele><time>2026-04-04T14:06:46.999Z</time></trkpt><trkpt lat="46.180960747778755" lon="9.820080882029517"><ele>982.0</ele><time>2026-04-04T14:06:48.999Z</time></trkpt><trkpt lat="46.180956237938645" lon="9.81994183915856"><ele>981.9999999999999</ele><time>2026-04-04T14:06:50.999Z</time></trkpt><trkpt lat="46.18095190453867" lon="9.819835610803686"><ele>982.0</ele><time>2026-04-04T14:06:52.999Z</time></trkpt><trkpt lat="46.18097641536971" lon="9.819681117733044"><ele>982.0</ele><time>2026-04-04T14:06:55.999Z</time></trkpt><trkpt lat="46.18102382221908" lon="9.819612465564619"><ele>982.0</ele><time>2026-04-04T14:06:58.999Z</time></trkpt><trkpt lat="46.181085332446486" lon="9.819520040014458"><ele>981.9999999999999</ele><time>2026-04-04T14:07:01.999Z</time></trkpt><trkpt lat="46.181109987606725" lon="9.819423537649067"><ele>982.0</ele><time>2026-04-04T14:07:05.999Z</time></trkpt><trkpt lat="46.181132134906015" lon="9.819338391834021"><ele>983.1666666666666</ele><time>2026-04-04T14:07:09.999Z</time></trkpt><trkpt lat="46.181162051972905" lon="9.819194272823605"><ele>984.3333333333333</ele><time>2026-04-04T14:07:12.999Z</time></trkpt><trkpt lat="46.18122342457925" lon="9.81909970332317"><ele>985.5</ele><time>2026-04-04T14:07:14.999Z</time></trkpt><trkpt lat="46.1812792096565" lon="9.819028170150794"><ele>986.6666666666667</ele><time>2026-04-04T14:07:16.999Z</time></trkpt><trkpt lat="46.181339110823465" lon="9.818928743843934"><ele>987.8333333333334</ele><time>2026-04-04T14:07:18.999Z</time></trkpt><trkpt lat="46.18139136630027" lon="9.818846187295836"><ele>989.0</ele><time>2026-04-04T14:07:22.999Z</time></trkpt><trkpt lat="46.18138878573762" lon="9.818735143102593"><ele>989.0</ele><time>2026-04-04T14:08:01Z</time></trkpt><trkpt lat="46.18144915472515" lon="9.818700618472844"><ele>988.9999999999999</ele><time>2026-04-04T14:08:02Z</time></trkpt><trkpt lat="46.181520133886586" lon="9.818627991243472"><ele>989.0</ele><time>2026-04-04T14:08:04Z</time></trkpt><trkpt lat="46.18157074573277" lon="9.81856385346369"><ele>989.0</ele><time>2026-04-04T14:08:06Z</time></trkpt><trkpt lat="46.181578777297595" lon="9.818460190028421"><ele>988.9999999999999</ele><time>2026-04-04T14:08:22Z</time></trkpt><trkpt lat="46.181589303284454" lon="9.818355758517221"><ele>989.0</ele><time>2026-04-04T14:08:25Z</time></trkpt><trkpt lat="46.18162755980001" lon="9.81825578753531"><ele>989.0</ele><time>2026-04-04T14:08:27Z</time></trkpt><trkpt lat="46.181646567814084" lon="9.81816703337845"><ele>997.2</ele><time>2026-04-04T14:08:29Z</time></trkpt><trkpt lat="46.18166148842168" lon="9.818030128497423"><ele>1005.4000000000001</ele><time>2026-04-04T14:08:32Z</time></trkpt><trkpt lat="46.181694716510854" lon="9.817914779331172"><ele>1013.6</ele><time>2026-04-04T14:08:34Z</time></trkpt><trkpt lat="46.181720415430796" lon="9.817796912346642"><ele>1021.8</ele><time>2026-04-04T14:08:37Z</time></trkpt><trkpt lat="46.18173692655713" lon="9.817655646361768"><ele>1030.0</ele><time>2026-04-04T14:08:39Z</time></trkpt><trkpt lat="46.18175259579097" lon="9.817533046494148"><ele>1030.0</ele><time>2026-04-04T14:08:40.999Z</time></trkpt><trkpt lat="46.1817991737927" lon="9.817467720566777"><ele>1030.0</ele><time>2026-04-04T14:08:41.999Z</time></trkpt><trkpt lat="46.18183931122784" lon="9.817387902078096"><ele>1030.0</ele><time>2026-04-04T14:08:42.999Z</time></trkpt><trkpt lat="46.181895568440304" lon="9.817276672705606"><ele>1030.0</ele><time>2026-04-04T14:08:43.999Z</time></trkpt><trkpt lat="46.18193893579714" lon="9.817206378082773"><ele>1030.0</ele><time>2026-04-04T14:08:44.999Z</time></trkpt><trkpt lat="46.18197398158923" lon="9.817073541371078"><ele>1030.0</ele><time>2026-04-04T14:08:46.999Z</time></trkpt><trkpt lat="46.182020077344696" lon="9.817009471552824"><ele>1030.0</ele><time>2026-04-04T14:08:47.999Z</time></trkpt><trkpt lat="46.18206943694277" lon="9.81687795982315"><ele>1030.0</ele><time>2026-04-04T14:08:50.999Z</time></trkpt><trkpt lat="46.18215247402846" lon="9.816739639201467"><ele>1030.0</ele><time>2026-04-04T14:08:52.999Z</time></trkpt><trkpt lat="46.182181400154256" lon="9.816620259665253"><ele>1030.0</ele><time>2026-04-04T14:08:54.999Z</time></trkpt><trkpt lat="46.182188445898504" lon="9.816499007904243"><ele>1030.0</ele><time>2026-04-04T14:08:56.999Z</time></trkpt><trkpt lat="46.18221741504732" lon="9.816393521679288"><ele>1030.5</ele><time>2026-04-04T14:08:58.999Z</time></trkpt><trkpt lat="46.18223715556729" lon="9.816297857153321"><ele>1031.0</ele><time>2026-04-04T14:09:00.999Z</time></trkpt><trkpt lat="46.18228258699437" lon="9.816138768352616"><ele>1031.5</ele><time>2026-04-04T14:09:02.999Z</time></trkpt><trkpt lat="46.18233959001505" lon="9.816001484302902"><ele>1032.0</ele><time>2026-04-04T14:09:04.999Z</time></trkpt><trkpt lat="46.182370050595246" lon="9.815916967430242"><ele>1032.5</ele><time>2026-04-04T14:09:06.999Z</time></trkpt><trkpt lat="46.18240254569098" lon="9.815814357784129"><ele>1033.0</ele><time>2026-04-04T14:09:09.999Z</time></trkpt><trkpt lat="46.18244537677202" lon="9.815741964886914"><ele>1045.2</ele><time>2026-04-04T14:09:11.999Z</time></trkpt><trkpt lat="46.182435564536625" lon="9.815600770005231"><ele>1057.4</ele><time>2026-04-04T14:09:20.999Z</time></trkpt><trkpt lat="46.18239172612055" lon="9.815479752694388"><ele>1069.6000000000001</ele><time>2026-04-04T14:09:23.999Z</time></trkpt><trkpt lat="46.18239479591036" lon="9.815354815430654"><ele>1081.8</ele><time>2026-04-04T14:09:25.999Z</time></trkpt><trkpt lat="46.182408523472574" lon="9.815192578636243"><ele>1094.0</ele><time>2026-04-04T14:09:27.999Z</time></trkpt><trkpt lat="46.182420747756645" lon="9.815055724288296"><ele>1094.6666666666667</ele><time>2026-04-04T14:09:29.999Z</time></trkpt><trkpt lat="46.1824324056464" lon="9.81489232780882"><ele>1095.3333333333335</ele><time>2026-04-04T14:09:31.999Z</time></trkpt><trkpt lat="46.182438092537346" lon="9.814760676546891"><ele>1096.0</ele><time>2026-04-04T14:09:33.999Z</time></trkpt><trkpt lat="46.182451676094495" lon="9.814670084690773"><ele>1096.6666666666667</ele><time>2026-04-04T14:09:36.999Z</time></trkpt><trkpt lat="46.18243545408881" lon="9.81457774206959"><ele>1097.3333333333333</ele><time>2026-04-04T14:09:37.999Z</time></trkpt><trkpt lat="46.18243291273208" lon="9.814484477069003"><ele>1098.0</ele><time>2026-04-04T14:09:38.999Z</time></trkpt><trkpt lat="46.182440430419476" lon="9.814391923380445"><ele>1099.0</ele><time>2026-04-04T14:09:39.999Z</time></trkpt><trkpt lat="46.18246335692852" lon="9.814224413843208"><ele>1100.0</ele><time>2026-04-04T14:09:41.999Z</time></trkpt><trkpt lat="46.18247674253582" lon="9.814131847296467"><ele>1101.0</ele><time>2026-04-04T14:09:42.999Z</time></trkpt><trkpt lat="46.18248655535234" lon="9.813988085433113"><ele>1102.0</ele><time>2026-04-04T14:09:44.999Z</time></trkpt><trkpt lat="46.1824560283817" lon="9.813876330521294"><ele>1103.0</ele><time>2026-04-04T14:09:45.999Z</time></trkpt><trkpt lat="46.182489287273874" lon="9.813781460842973"><ele>1104.0</ele><time>2026-04-04T14:09:47.999Z</time></trkpt><trkpt lat="46.18251847167608" lon="9.813697826119054"><ele>1104.0</ele><time>2026-04-04T14:09:48.999Z</time></trkpt><trkpt lat="46.18255687600908" lon="9.813533235985664"><ele>1104.0</ele><time>2026-04-04T14:09:50.999Z</time></trkpt><trkpt lat="46.18258619929805" lon="9.813424878494136"><ele>1104.0</ele><time>2026-04-04T14:09:51.999Z</time></trkpt><trkpt lat="46.18261123628361" lon="9.813254089251926"><ele>1104.0</ele><time>2026-04-04T14:09:53.999Z</time></trkpt><trkpt lat="46.1826065248286" lon="9.813147789329038"><ele>1104.0</ele><time>2026-04-04T14:09:54.999Z</time></trkpt><trkpt lat="46.182604325497586" lon="9.813000057795687"><ele>1104.8333333333333</ele><time>2026-04-04T14:09:57Z</time></trkpt><trkpt lat="46.18261122830046" lon="9.812845395443848"><ele>1105.6666666666667</ele><time>2026-04-04T14:09:59Z</time></trkpt><trkpt lat="46.18262989952717" lon="9.81270659829541"><ele>1106.5</ele><time>2026-04-04T14:10:01Z</time></trkpt><trkpt lat="46.18266216545231" lon="9.81262453073728"><ele>1107.3333333333335</ele><time>2026-04-04T14:10:02Z</time></trkpt><trkpt lat="46.18268380394428" lon="9.812539048198115"><ele>1108.1666666666667</ele><time>2026-04-04T14:10:03Z</time></trkpt><trkpt lat="46.18271515600323" lon="9.81241104041588"><ele>1109.0</ele><time>2026-04-04T14:10:05Z</time></trkpt><trkpt lat="46.1826503821421" lon="9.812340531279833"><ele>1109.3333333333335</ele><time>2026-04-04T14:10:10Z</time></trkpt><trkpt lat="46.1826541353374" lon="9.812228339957148"><ele>1109.6666666666667</ele><time>2026-04-04T14:10:17Z</time></trkpt><trkpt lat="46.18266034781676" lon="9.812107507606196"><ele>1110.0</ele><time>2026-04-04T14:10:19Z</time></trkpt><trkpt lat="46.18266647460977" lon="9.812007774573202"><ele>1110.3333333333333</ele><time>2026-04-04T14:10:20Z</time></trkpt><trkpt lat="46.18265422502337" lon="9.811863342387582"><ele>1110.6666666666665</ele><time>2026-04-04T14:10:22Z</time></trkpt><trkpt lat="46.18262515516305" lon="9.81175374268373"><ele>1111.0</ele><time>2026-04-04T14:10:24Z</time></trkpt><trkpt lat="46.18263825679062" lon="9.81164547705279"><ele>1112.3333333333333</ele><time>2026-04-04T14:10:26Z</time></trkpt><trkpt lat="46.18264758304836" lon="9.811514677001101"><ele>1113.6666666666665</ele><time>2026-04-04T14:10:29Z</time></trkpt><trkpt lat="46.18263971816015" lon="9.811336709540583"><ele>1115.0</ele><time>2026-04-04T14:10:31Z</time></trkpt><trkpt lat="46.1826146003234" lon="9.811234120492562"><ele>1116.3333333333333</ele><time>2026-04-04T14:10:32Z</time></trkpt><trkpt lat="46.1826052380166" lon="9.81111911846177"><ele>1117.6666666666667</ele><time>2026-04-04T14:10:33Z</time></trkpt><trkpt lat="46.18259054010868" lon="9.811009874761048"><ele>1119.0</ele><time>2026-04-04T14:10:34Z</time></trkpt><trkpt lat="46.182568271000825" lon="9.810873598570698"><ele>1121.0</ele><time>2026-04-04T14:10:35Z</time></trkpt><trkpt lat="46.18253453396325" lon="9.81069007345716"><ele>1123.0</ele><time>2026-04-04T14:10:37Z</time></trkpt><trkpt lat="46.182534046240356" lon="9.810595846255088"><ele>1125.0</ele><time>2026-04-04T14:10:38Z</time></trkpt><trkpt lat="46.1825206124182" lon="9.810496522452048"><ele>1127.0</ele><time>2026-04-04T14:10:39Z</time></trkpt><trkpt lat="46.182544574919845" lon="9.81038095153678"><ele>1129.0</ele><time>2026-04-04T14:10:41Z</time></trkpt><trkpt lat="46.18258690257946" lon="9.810256286899332"><ele>1131.0</ele><time>2026-04-04T14:10:43Z</time></trkpt><trkpt lat="46.182670456439595" lon="9.810259670015892"><ele>1131.0</ele><time>2026-04-04T14:10:45Z</time></trkpt><trkpt lat="46.18270743171952" lon="9.810340424649091"><ele>1131.0</ele><time>2026-04-04T14:10:48Z</time></trkpt><trkpt lat="46.182793056718836" lon="9.810545960808742"><ele>1131.0</ele><time>2026-04-04T14:11:01Z</time></trkpt><trkpt lat="46.182855695779494" lon="9.810667561171483"><ele>1131.0</ele><time>2026-04-04T14:11:03Z</time></trkpt><trkpt lat="46.182902885783605" lon="9.81074481324147"><ele>1131.0</ele><time>2026-04-04T14:11:04Z</time></trkpt><trkpt lat="46.18295461574396" lon="9.810842539375097"><ele>1131.0</ele><time>2026-04-04T14:11:07Z</time></trkpt><trkpt lat="46.18297541813087" lon="9.810716112158493"><ele>1131.0</ele><time>2026-04-04T14:11:10Z</time></trkpt><trkpt lat="46.18296500817959" lon="9.810603106890325"><ele>1131.0</ele><time>2026-04-04T14:11:13Z</time></trkpt><trkpt lat="46.18291445962752" lon="9.810502639001811"><ele>1131.0</ele><time>2026-04-04T14:11:15Z</time></trkpt><trkpt lat="46.182969590151245" lon="9.810363394112047"><ele>1131.0</ele><time>2026-04-04T14:11:17Z</time></trkpt><trkpt lat="46.18293159347433" lon="9.8102161739185"><ele>1133.0</ele><time>2026-04-04T14:11:20Z</time></trkpt><trkpt lat="46.1829311192448" lon="9.810079023703674"><ele>1135.0</ele><time>2026-04-04T14:11:22Z</time></trkpt><trkpt lat="46.18294225678617" lon="9.809987254606032"><ele>1137.0</ele><time>2026-04-04T14:11:23Z</time></trkpt><trkpt lat="46.182963542775994" lon="9.809881380868159"><ele>1139.0</ele><time>2026-04-04T14:11:24Z</time></trkpt><trkpt lat="46.1829986462323" lon="9.809776104936681"><ele>1141.0</ele><time>2026-04-04T14:11:26Z</time></trkpt><trkpt lat="46.18308151843859" lon="9.809686463743999"><ele>1143.0</ele><time>2026-04-04T14:11:29Z</time></trkpt><trkpt lat="46.183138771425355" lon="9.80964057185311"><ele>1153.6666666666667</ele><time>2026-04-04T14:11:30Z</time></trkpt><trkpt lat="46.1832033636262" lon="9.809583273742644"><ele>1164.3333333333333</ele><time>2026-04-04T14:11:31Z</time></trkpt><trkpt lat="46.18325717579577" lon="9.809522766937853"><ele>1175.0</ele><time>2026-04-04T14:11:32Z</time></trkpt><trkpt lat="46.183318540160506" lon="9.809433279633966"><ele>1185.6666666666665</ele><time>2026-04-04T14:11:33.999Z</time></trkpt><trkpt lat="46.18338489201898" lon="9.809366096388576"><ele>1196.3333333333333</ele><time>2026-04-04T14:11:35.999Z</time></trkpt><trkpt lat="46.18336631136498" lon="9.80927348338696"><ele>1207.0</ele><time>2026-04-04T14:11:37.999Z</time></trkpt><trkpt lat="46.18330754035794" lon="9.809134821941306"><ele>1207.0</ele><time>2026-04-04T14:11:39.999Z</time></trkpt><trkpt lat="46.18328590286211" lon="9.808997550501466"><ele>1207.0</ele><time>2026-04-04T14:11:41.999Z</time></trkpt><trkpt lat="46.18327867381529" lon="9.808868578981668"><ele>1207.0</ele><time>2026-04-04T14:11:43.999Z</time></trkpt><trkpt lat="46.18323458528952" lon="9.808718704168836"><ele>1207.0</ele><time>2026-04-04T14:11:45.999Z</time></trkpt><trkpt lat="46.18323862480659" lon="9.808623249734215"><ele>1207.0</ele><time>2026-04-04T14:11:46.999Z</time></trkpt><trkpt lat="46.183282500192384" lon="9.80853877853216"><ele>1207.0</ele><time>2026-04-04T14:11:47.999Z</time></trkpt><trkpt lat="46.18333872700162" lon="9.808369960660968"><ele>1206.4</ele><time>2026-04-04T14:11:49.999Z</time></trkpt><trkpt lat="46.18336883662356" lon="9.80827820701337"><ele>1205.8000000000002</ele><time>2026-04-04T14:11:50.999Z</time></trkpt><trkpt lat="46.183401750898184" lon="9.808182349115674"><ele>1205.2</ele><time>2026-04-04T14:11:51.999Z</time></trkpt><trkpt lat="46.18343144101269" lon="9.808055639071268"><ele>1204.6000000000001</ele><time>2026-04-04T14:11:53.999Z</time></trkpt><trkpt lat="46.183491806586325" lon="9.807875457495717"><ele>1204.0</ele><time>2026-04-04T14:11:55.999Z</time></trkpt><trkpt lat="46.183535453376805" lon="9.807748355911226"><ele>1203.5</ele><time>2026-04-04T14:11:56.999Z</time></trkpt><trkpt lat="46.18355765208122" lon="9.807632116057162"><ele>1203.0</ele><time>2026-04-04T14:11:57.999Z</time></trkpt><trkpt lat="46.18356919553055" lon="9.807538350632482"><ele>1202.5</ele><time>2026-04-04T14:11:58.999Z</time></trkpt><trkpt lat="46.18357170548114" lon="9.807386464478014"><ele>1202.0</ele><time>2026-04-04T14:11:59.999Z</time></trkpt><trkpt lat="46.18355496120986" lon="9.807287165839924"><ele>1201.5</ele><time>2026-04-04T14:12:00.999Z</time></trkpt><trkpt lat="46.18355193394765" lon="9.807171155608208"><ele>1201.0</ele><time>2026-04-04T14:12:01.999Z</time></trkpt><trkpt lat="46.183557442469855" lon="9.807079646475895"><ele>1201.0</ele><time>2026-04-04T14:12:03Z</time></trkpt><trkpt lat="46.18381168034493" lon="9.80708338665574"><ele>1201.0</ele><time>2026-04-04T14:12:18Z</time></trkpt><trkpt lat="46.18382782657407" lon="9.807192757578486"><ele>1201.0</ele><time>2026-04-04T14:12:20Z</time></trkpt><trkpt lat="46.18373835117645" lon="9.80754810580825"><ele>1201.6</ele><time>2026-04-04T14:12:24Z</time></trkpt><trkpt lat="46.18372485382648" lon="9.807667504277147"><ele>1202.1999999999998</ele><time>2026-04-04T14:12:25Z</time></trkpt><trkpt lat="46.183706130150334" lon="9.80779213514957"><ele>1202.8000000000002</ele><time>2026-04-04T14:12:26Z</time></trkpt><trkpt lat="46.1836890167999" lon="9.807919454480295"><ele>1203.4</ele><time>2026-04-04T14:12:27Z</time></trkpt><trkpt lat="46.1836914005236" lon="9.808063870127176"><ele>1204.0</ele><time>2026-04-04T14:12:28Z</time></trkpt><trkpt lat="46.183678586095326" lon="9.808213394782683"><ele>1204.0</ele><time>2026-04-04T14:12:29Z</time></trkpt><trkpt lat="46.18367172516424" lon="9.808354187770776"><ele>1204.0</ele><time>2026-04-04T14:12:30Z</time></trkpt><trkpt lat="46.18367892146878" lon="9.808510968185294"><ele>1204.0</ele><time>2026-04-04T14:12:31Z</time></trkpt><trkpt lat="46.18370629036723" lon="9.808666534693819"><ele>1204.0</ele><time>2026-04-04T14:12:32Z</time></trkpt><trkpt lat="46.18373216377219" lon="9.808814060737166"><ele>1204.0</ele><time>2026-04-04T14:12:33Z</time></trkpt><trkpt lat="46.183769649572845" lon="9.808957131219419"><ele>1204.6000000000001</ele><time>2026-04-04T14:12:34Z</time></trkpt><trkpt lat="46.183846175588656" lon="9.809070217026006"><ele>1205.2</ele><time>2026-04-04T14:12:35Z</time></trkpt><trkpt lat="46.18386911743693" lon="9.809189164038216"><ele>1205.8000000000002</ele><time>2026-04-04T14:12:36Z</time></trkpt><trkpt lat="46.18385163630001" lon="9.809302691803454"><ele>1206.4</ele><time>2026-04-04T14:12:37Z</time></trkpt><trkpt lat="46.183831207203966" lon="9.80943351730411"><ele>1207.0</ele><time>2026-04-04T14:12:38Z</time></trkpt><trkpt lat="46.18380322120693" lon="9.809589809484725"><ele>1207.4</ele><time>2026-04-04T14:12:39Z</time></trkpt><trkpt lat="46.183778591071565" lon="9.809736195930373"><ele>1207.8000000000002</ele><time>2026-04-04T14:12:40Z</time></trkpt><trkpt lat="46.18374686809099" lon="9.809880571081187"><ele>1208.2</ele><time>2026-04-04T14:12:41Z</time></trkpt><trkpt lat="46.18373082754347" lon="9.810017394360507"><ele>1208.6000000000001</ele><time>2026-04-04T14:12:42Z</time></trkpt><trkpt lat="46.18372887339382" lon="9.810156780739366"><ele>1209.0</ele><time>2026-04-04T14:12:43Z</time></trkpt><trkpt lat="46.18374695850728" lon="9.810275643788755"><ele>1207.8</ele><time>2026-04-04T14:12:44Z</time></trkpt><trkpt lat="46.18378119108338" lon="9.810441900012803"><ele>1206.6000000000001</ele><time>2026-04-04T14:12:46Z</time></trkpt><trkpt lat="46.18381164434814" lon="9.810622078728953"><ele>1205.4</ele><time>2026-04-04T14:12:48Z</time></trkpt><trkpt lat="46.183820445108154" lon="9.810735254565516"><ele>1204.2</ele><time>2026-04-04T14:12:49Z</time></trkpt><trkpt lat="46.183842421842854" lon="9.81084807545253"><ele>1203.0</ele><time>2026-04-04T14:12:50Z</time></trkpt><trkpt lat="46.18386385842043" lon="9.81095967257565"><ele>1200.2</ele><time>2026-04-04T14:12:51Z</time></trkpt><trkpt lat="46.183892821586085" lon="9.811058922467"><ele>1197.4</ele><time>2026-04-04T14:12:52Z</time></trkpt><trkpt lat="46.18393743218595" lon="9.811152314969092"><ele>1194.6000000000001</ele><time>2026-04-04T14:12:53Z</time></trkpt><trkpt lat="46.18397149028076" lon="9.811244398156488"><ele>1191.8</ele><time>2026-04-04T14:12:54Z</time></trkpt><trkpt lat="46.18395630688067" lon="9.811447504931595"><ele>1189.0</ele><time>2026-04-04T14:12:56Z</time></trkpt><trkpt lat="46.183964310633314" lon="9.811601062083687"><ele>1189.0</ele><time>2026-04-04T14:12:57Z</time></trkpt><trkpt lat="46.18394948789352" lon="9.81171186578632"><ele>1189.0</ele><time>2026-04-04T14:12:58Z</time></trkpt><trkpt lat="46.18391073291461" lon="9.811801203112374"><ele>1189.0</ele><time>2026-04-04T14:12:59Z</time></trkpt><trkpt lat="46.183888555947185" lon="9.811892095641308"><ele>1189.0</ele><time>2026-04-04T14:13:00Z</time></trkpt><trkpt lat="46.18391409225772" lon="9.812065047813013"><ele>1189.0</ele><time>2026-04-04T14:13:02Z</time></trkpt><trkpt lat="46.18393417445725" lon="9.812191825164707"><ele>1189.0</ele><time>2026-04-04T14:13:03Z</time></trkpt><trkpt lat="46.18395361786971" lon="9.812397099276977"><ele>1186.2</ele><time>2026-04-04T14:13:04Z</time></trkpt><trkpt lat="46.18394976588072" lon="9.812555765708513"><ele>1183.4</ele><time>2026-04-04T14:13:05Z</time></trkpt><trkpt lat="46.18393943297095" lon="9.812703122177844"><ele>1180.6</ele><time>2026-04-04T14:13:06Z</time></trkpt><trkpt lat="46.1839374423575" lon="9.812880562296485"><ele>1177.8</ele><time>2026-04-04T14:13:07Z</time></trkpt><trkpt lat="46.18394515548778" lon="9.813034781201047"><ele>1175.0</ele><time>2026-04-04T14:13:08Z</time></trkpt><trkpt lat="46.183968905338894" lon="9.81318682258087"><ele>1173.6</ele><time>2026-04-04T14:13:09Z</time></trkpt><trkpt lat="46.1839737326992" lon="9.813326309995437"><ele>1172.2</ele><time>2026-04-04T14:13:10Z</time></trkpt><trkpt lat="46.18394492706719" lon="9.81347110897619"><ele>1170.8</ele><time>2026-04-04T14:13:11Z</time></trkpt><trkpt lat="46.18390975171046" lon="9.81361145834934"><ele>1169.4</ele><time>2026-04-04T14:13:12Z</time></trkpt><trkpt lat="46.18388674844105" lon="9.813743186638945"><ele>1168.0</ele><time>2026-04-04T14:13:13Z</time></trkpt><trkpt lat="46.18389948785098" lon="9.813909586083476"><ele>1167.6</ele><time>2026-04-04T14:13:14Z</time></trkpt><trkpt lat="46.1839145572458" lon="9.814069903442741"><ele>1167.1999999999998</ele><time>2026-04-04T14:13:15Z</time></trkpt><trkpt lat="46.183934004024636" lon="9.814201688098734"><ele>1166.8</ele><time>2026-04-04T14:13:16Z</time></trkpt><trkpt lat="46.18396782454678" lon="9.814317540737294"><ele>1166.3999999999999</ele><time>2026-04-04T14:13:17Z</time></trkpt><trkpt lat="46.18400228554726" lon="9.81442102944111"><ele>1166.0</ele><time>2026-04-04T14:13:17.999Z</time></trkpt><trkpt lat="46.18399998288918" lon="9.814560176899553"><ele>1165.3999999999999</ele><time>2026-04-04T14:13:18.999Z</time></trkpt><trkpt lat="46.183982113143436" lon="9.81468192402112"><ele>1164.8</ele><time>2026-04-04T14:13:19.999Z</time></trkpt><trkpt lat="46.1839509657693" lon="9.814800465341849"><ele>1164.1999999999998</ele><time>2026-04-04T14:13:20.999Z</time></trkpt><trkpt lat="46.183938722403596" lon="9.81494074306371"><ele>1163.6</ele><time>2026-04-04T14:13:21.999Z</time></trkpt><trkpt lat="46.18392991744913" lon="9.815078970313563"><ele>1163.0</ele><time>2026-04-04T14:13:22.999Z</time></trkpt><trkpt lat="46.18392534372713" lon="9.815227708297181"><ele>1160.5</ele><time>2026-04-04T14:13:23.999Z</time></trkpt><trkpt lat="46.18392242127528" lon="9.815372947473566"><ele>1158.0</ele><time>2026-04-04T14:13:24.999Z</time></trkpt><trkpt lat="46.18392495076168" lon="9.81555476355855"><ele>1155.5</ele><time>2026-04-04T14:13:25.999Z</time></trkpt><trkpt lat="46.183943435710646" lon="9.815728473524091"><ele>1153.0</ele><time>2026-04-04T14:13:26.999Z</time></trkpt><trkpt lat="46.18395302412276" lon="9.815900518311492"><ele>1150.75</ele><time>2026-04-04T14:13:27.999Z</time></trkpt><trkpt lat="46.18397149608064" lon="9.816066461021343"><ele>1148.5</ele><time>2026-04-04T14:13:28.999Z</time></trkpt><trkpt lat="46.18397567584285" lon="9.8162206289836"><ele>1146.25</ele><time>2026-04-04T14:13:29.999Z</time></trkpt><trkpt lat="46.183978437815846" lon="9.816389658869584"><ele>1144.0</ele><time>2026-04-04T14:13:30.999Z</time></trkpt><trkpt lat="46.18400326332004" lon="9.816555882440914"><ele>1142.8</ele><time>2026-04-04T14:13:31.999Z</time></trkpt><trkpt lat="46.18404523114302" lon="9.816711999867664"><ele>1141.6000000000001</ele><time>2026-04-04T14:13:32.999Z</time></trkpt><trkpt lat="46.184049792718845" lon="9.816850554406326"><ele>1140.4</ele><time>2026-04-04T14:13:33.999Z</time></trkpt><trkpt lat="46.18402257957807" lon="9.816980826630543"><ele>1139.2</ele><time>2026-04-04T14:13:34.999Z</time></trkpt><trkpt lat="46.18400403847077" lon="9.817137991768552"><ele>1138.0</ele><time>2026-04-04T14:13:35.999Z</time></trkpt><trkpt lat="46.183994927343505" lon="9.817267739659009"><ele>1138.0</ele><time>2026-04-04T14:13:36.999Z</time></trkpt><trkpt lat="46.18398432963407" lon="9.817396307829563"><ele>1138.0</ele><time>2026-04-04T14:13:37.999Z</time></trkpt><trkpt lat="46.18399243269837" lon="9.81755334409435"><ele>1138.0</ele><time>2026-04-04T14:13:38.999Z</time></trkpt><trkpt lat="46.1839859692757" lon="9.817711272246447"><ele>1138.0</ele><time>2026-04-04T14:13:39.999Z</time></trkpt><trkpt lat="46.18396628205761" lon="9.81787303807272"><ele>1138.0</ele><time>2026-04-04T14:13:40.999Z</time></trkpt><trkpt lat="46.18396267279718" lon="9.81804167595394"><ele>1137.3333333333333</ele><time>2026-04-04T14:13:41.999Z</time></trkpt><trkpt lat="46.18397531093618" lon="9.818185383071564"><ele>1136.6666666666665</ele><time>2026-04-04T14:13:42.999Z</time></trkpt><trkpt lat="46.18400083973952" lon="9.818300555933478"><ele>1136.0</ele><time>2026-04-04T14:13:43.999Z</time></trkpt><trkpt lat="46.1840566269695" lon="9.818395664929394"><ele>1135.3333333333333</ele><time>2026-04-04T14:13:44.999Z</time></trkpt><trkpt lat="46.184082193349596" lon="9.81852003156049"><ele>1134.6666666666667</ele><time>2026-04-04T14:13:45.999Z</time></trkpt><trkpt lat="46.18407786064162" lon="9.818646592508518"><ele>1134.0</ele><time>2026-04-04T14:13:46.999Z</time></trkpt><trkpt lat="46.18404905897687" lon="9.818779113689612"><ele>1135.8</ele><time>2026-04-04T14:13:47.999Z</time></trkpt><trkpt lat="46.18398780797597" lon="9.818905539412414"><ele>1137.6000000000001</ele><time>2026-04-04T14:13:48.999Z</time></trkpt><trkpt lat="46.18391621714895" lon="9.818988502056664"><ele>1139.4</ele><time>2026-04-04T14:13:49.999Z</time></trkpt><trkpt lat="46.18384709367592" lon="9.819071253391028"><ele>1141.2</ele><time>2026-04-04T14:13:50.999Z</time></trkpt><trkpt lat="46.183778609881735" lon="9.819180269094383"><ele>1143.0</ele><time>2026-04-04T14:13:51.999Z</time></trkpt><trkpt lat="46.18371707202227" lon="9.81927184305726"><ele>1146.2</ele><time>2026-04-04T14:13:52.999Z</time></trkpt><trkpt lat="46.183661705164596" lon="9.819353212258001"><ele>1149.4</ele><time>2026-04-04T14:13:53.999Z</time></trkpt><trkpt lat="46.18358107332184" lon="9.81946124957509"><ele>1152.6000000000001</ele><time>2026-04-04T14:13:54.999Z</time></trkpt><trkpt lat="46.1835070591092" lon="9.819573561827779"><ele>1155.8</ele><time>2026-04-04T14:13:55.999Z</time></trkpt><trkpt lat="46.183435793283856" lon="9.819712283916402"><ele>1159.0</ele><time>2026-04-04T14:13:56.999Z</time></trkpt><trkpt lat="46.18336844479619" lon="9.819877439095789"><ele>1159.0</ele><time>2026-04-04T14:13:57.999Z</time></trkpt><trkpt lat="46.18331810566445" lon="9.820056115908217"><ele>1159.0</ele><time>2026-04-04T14:13:58.999Z</time></trkpt><trkpt lat="46.183289239627705" lon="9.820239610608212"><ele>1159.0</ele><time>2026-04-04T14:13:59.999Z</time></trkpt><trkpt lat="46.183260962186175" lon="9.820385861021796"><ele>1159.0</ele><time>2026-04-04T14:14:00.999Z</time></trkpt><trkpt lat="46.18322447731672" lon="9.820524870889539"><ele>1159.2</ele><time>2026-04-04T14:14:01.999Z</time></trkpt><trkpt lat="46.18320410958006" lon="9.820677399101408"><ele>1159.4</ele><time>2026-04-04T14:14:02.999Z</time></trkpt><trkpt lat="46.183191668155516" lon="9.820812540851518"><ele>1159.6</ele><time>2026-04-04T14:14:03.999Z</time></trkpt><trkpt lat="46.18319918186327" lon="9.820923615416344"><ele>1159.8</ele><time>2026-04-04T14:14:04.999Z</time></trkpt><trkpt lat="46.18323773242436" lon="9.821024104155066"><ele>1160.0</ele><time>2026-04-04T14:14:05.999Z</time></trkpt><trkpt lat="46.18326311369505" lon="9.821171134169123"><ele>1160.0</ele><time>2026-04-04T14:14:06.999Z</time></trkpt><trkpt lat="46.18328460533285" lon="9.821315798986852"><ele>1160.0</ele><time>2026-04-04T14:14:07.999Z</time></trkpt><trkpt lat="46.18330720591481" lon="9.821444397711767"><ele>1160.0</ele><time>2026-04-04T14:14:09Z</time></trkpt><trkpt lat="46.18329429030558" lon="9.821631239865928"><ele>1160.0</ele><time>2026-04-04T14:14:10Z</time></trkpt><trkpt lat="46.18330126582171" lon="9.821778143549139"><ele>1160.0</ele><time>2026-04-04T14:14:11Z</time></trkpt><trkpt lat="46.18330837606494" lon="9.821963741200818"><ele>1158.4</ele><time>2026-04-04T14:14:12Z</time></trkpt><trkpt lat="46.18331688863218" lon="9.822117939208335"><ele>1156.8</ele><time>2026-04-04T14:14:12.999Z</time></trkpt><trkpt lat="46.183349067835536" lon="9.822263791149371"><ele>1155.2</ele><time>2026-04-04T14:14:13.999Z</time></trkpt><trkpt lat="46.183382159991496" lon="9.822417152931234"><ele>1153.6</ele><time>2026-04-04T14:14:15Z</time></trkpt><trkpt lat="46.183397602719204" lon="9.822584145095583"><ele>1152.0</ele><time>2026-04-04T14:14:15.999Z</time></trkpt><trkpt lat="46.18337719934785" lon="9.822759597380074"><ele>1151.6</ele><time>2026-04-04T14:14:16.999Z</time></trkpt><trkpt lat="46.18334309517751" lon="9.82293537827928"><ele>1151.2</ele><time>2026-04-04T14:14:18Z</time></trkpt><trkpt lat="46.18332088611853" lon="9.823078878219277"><ele>1150.8</ele><time>2026-04-04T14:14:19Z</time></trkpt><trkpt lat="46.18330076171676" lon="9.82319988747086"><ele>1150.4</ele><time>2026-04-04T14:14:20Z</time></trkpt><trkpt lat="46.18326572790874" lon="9.82329588570985"><ele>1150.0</ele><time>2026-04-04T14:14:21Z</time></trkpt><trkpt lat="46.18323197589661" lon="9.823400170595948"><ele>1150.0</ele><time>2026-04-04T14:14:22Z</time></trkpt><trkpt lat="46.18321001491987" lon="9.823518452612955"><ele>1150.0</ele><time>2026-04-04T14:14:23Z</time></trkpt><trkpt lat="46.183216841329006" lon="9.8236606084753"><ele>1150.0</ele><time>2026-04-04T14:14:24Z</time></trkpt><trkpt lat="46.18324277224344" lon="9.823823998961636"><ele>1150.0</ele><time>2026-04-04T14:14:25Z</time></trkpt><trkpt lat="46.18325975085156" lon="9.823997968693531"><ele>1150.0</ele><time>2026-04-04T14:14:26Z</time></trkpt><trkpt lat="46.18328990924917" lon="9.824138482415924"><ele>1150.0</ele><time>2026-04-04T14:14:27Z</time></trkpt><trkpt lat="46.1833137896788" lon="9.82429926282011"><ele>1150.0</ele><time>2026-04-04T14:14:28Z</time></trkpt><trkpt lat="46.183328879878914" lon="9.824458709507956"><ele>1150.0</ele><time>2026-04-04T14:14:29Z</time></trkpt><trkpt lat="46.183355319135494" lon="9.824598561781933"><ele>1150.0</ele><time>2026-04-04T14:14:30Z</time></trkpt><trkpt lat="46.1833970282501" lon="9.8247599109922"><ele>1150.0</ele><time>2026-04-04T14:14:31Z</time></trkpt><trkpt lat="46.183437388765775" lon="9.824917327087162"><ele>1147.8</ele><time>2026-04-04T14:14:32Z</time></trkpt><trkpt lat="46.183482996850195" lon="9.825081081569758"><ele>1145.6</ele><time>2026-04-04T14:14:33Z</time></trkpt><trkpt lat="46.18350148671866" lon="9.825229946801512"><ele>1143.4</ele><time>2026-04-04T14:14:34Z</time></trkpt><trkpt lat="46.183501220199496" lon="9.825379260390335"><ele>1141.2</ele><time>2026-04-04T14:14:35Z</time></trkpt><trkpt lat="46.1834761090055" lon="9.825524634036155"><ele>1139.0</ele><time>2026-04-04T14:14:36Z</time></trkpt><trkpt lat="46.183446459401715" lon="9.825687519915387"><ele>1139.0</ele><time>2026-04-04T14:14:37Z</time></trkpt><trkpt lat="46.1834237070013" lon="9.825840836271096"><ele>1139.0</ele><time>2026-04-04T14:14:38Z</time></trkpt><trkpt lat="46.18339686303888" lon="9.825996178472778"><ele>1139.0</ele><time>2026-04-04T14:14:39Z</time></trkpt><trkpt lat="46.183385695042645" lon="9.826162198809428"><ele>1139.0</ele><time>2026-04-04T14:14:40Z</time></trkpt><trkpt lat="46.183363595274436" lon="9.826302499027458"><ele>1139.0</ele><time>2026-04-04T14:14:41Z</time></trkpt><trkpt lat="46.183347304189155" lon="9.826456115675963"><ele>1140.4</ele><time>2026-04-04T14:14:42Z</time></trkpt><trkpt lat="46.183325285885346" lon="9.826611739415869"><ele>1141.8000000000002</ele><time>2026-04-04T14:14:43Z</time></trkpt><trkpt lat="46.183300691850036" lon="9.826754982151344"><ele>1143.1999999999998</ele><time>2026-04-04T14:14:44Z</time></trkpt><trkpt lat="46.18328489201054" lon="9.826900769545292"><ele>1144.6</ele><time>2026-04-04T14:14:45Z</time></trkpt><trkpt lat="46.183269675629795" lon="9.827050376068966"><ele>1146.0</ele><time>2026-04-04T14:14:46Z</time></trkpt><trkpt lat="46.18324130550096" lon="9.827196992498264"><ele>1147.3999999999999</ele><time>2026-04-04T14:14:47Z</time></trkpt><trkpt lat="46.18322823787199" lon="9.827328457736158"><ele>1148.8</ele><time>2026-04-04T14:14:48Z</time></trkpt><trkpt lat="46.183200607120995" lon="9.827467080787141"><ele>1150.1999999999998</ele><time>2026-04-04T14:14:49Z</time></trkpt><trkpt lat="46.183172793549815" lon="9.827583458505769"><ele>1151.6</ele><time>2026-04-04T14:14:50Z</time></trkpt><trkpt lat="46.18314641330592" lon="9.827722505311552"><ele>1153.0</ele><time>2026-04-04T14:14:51Z</time></trkpt><trkpt lat="46.18311419505891" lon="9.82788938832209"><ele>1145.5</ele><time>2026-04-04T14:14:52Z</time></trkpt><trkpt lat="46.183076673495236" lon="9.828035112150596"><ele>1138.0</ele><time>2026-04-04T14:14:53Z</time></trkpt><trkpt lat="46.18302956840636" lon="9.828190521446745"><ele>1130.5</ele><time>2026-04-04T14:14:54Z</time></trkpt><trkpt lat="46.18296976768805" lon="9.828347780298516"><ele>1123.0</ele><time>2026-04-04T14:14:55Z</time></trkpt><trkpt lat="46.182938440199116" lon="9.82849964075177"><ele>1123.0</ele><time>2026-04-04T14:14:56Z</time></trkpt><trkpt lat="46.182921205355825" lon="9.828667537758234"><ele>1123.0</ele><time>2026-04-04T14:14:57Z</time></trkpt><trkpt lat="46.182901754997644" lon="9.828829349457235"><ele>1123.0</ele><time>2026-04-04T14:14:58Z</time></trkpt><trkpt lat="46.18289479712941" lon="9.828992023032637"><ele>1123.0</ele><time>2026-04-04T14:14:59Z</time></trkpt><trkpt lat="46.18288437201752" lon="9.829142481127507"><ele>1123.0</ele><time>2026-04-04T14:15:00Z</time></trkpt><trkpt lat="46.18287821444605" lon="9.829281437073169"><ele>1123.8</ele><time>2026-04-04T14:15:01Z</time></trkpt><trkpt lat="46.18288198098516" lon="9.8294083349144"><ele>1124.6</ele><time>2026-04-04T14:15:02Z</time></trkpt><trkpt lat="46.18288405753033" lon="9.829519685476171"><ele>1125.4</ele><time>2026-04-04T14:15:03Z</time></trkpt><trkpt lat="46.18288020522685" lon="9.829650519763103"><ele>1126.2</ele><time>2026-04-04T14:15:04Z</time></trkpt><trkpt lat="46.18286171583493" lon="9.829805326524436"><ele>1127.0</ele><time>2026-04-04T14:15:05Z</time></trkpt><trkpt lat="46.18284375239948" lon="9.829944513166327"><ele>1127.0</ele><time>2026-04-04T14:15:06Z</time></trkpt><trkpt lat="46.18282246629071" lon="9.830059586581138"><ele>1127.0</ele><time>2026-04-04T14:15:07Z</time></trkpt><trkpt lat="46.182810288582154" lon="9.830175767336344"><ele>1127.0</ele><time>2026-04-04T14:15:08Z</time></trkpt><trkpt lat="46.18277358261682" lon="9.830288051639599"><ele>1127.0</ele><time>2026-04-04T14:15:10Z</time></trkpt><trkpt lat="46.18280090775411" lon="9.830392680958326"><ele>1127.0</ele><time>2026-04-04T14:15:13Z</time></trkpt><trkpt lat="46.18289675861818" lon="9.83017129422697"><ele>1127.0</ele><time>2026-04-04T14:15:19Z</time></trkpt><trkpt lat="46.18295187375956" lon="9.830030578051083"><ele>1127.0</ele><time>2026-04-04T14:15:21Z</time></trkpt><trkpt lat="46.18299964714753" lon="9.82989334930396"><ele>1127.0</ele><time>2026-04-04T14:15:23Z</time></trkpt><trkpt lat="46.183001332332466" lon="9.829717408380363"><ele>1127.0</ele><time>2026-04-04T14:15:25Z</time></trkpt><trkpt lat="46.182992765568216" lon="9.8295493634521"><ele>1127.0</ele><time>2026-04-04T14:15:27Z</time></trkpt><trkpt lat="46.183030858859546" lon="9.829421504488057"><ele>1127.0</ele><time>2026-04-04T14:15:29Z</time></trkpt><trkpt lat="46.18306553629565" lon="9.829317992165903"><ele>1127.0</ele><time>2026-04-04T14:15:30.999Z</time></trkpt><trkpt lat="46.18311718950113" lon="9.829254716657461"><ele>1127.0</ele><time>2026-04-04T14:15:32.999Z</time></trkpt><trkpt lat="46.183179860159306" lon="9.82912626647326"><ele>1127.0</ele><time>2026-04-04T14:15:35.999Z</time></trkpt><trkpt lat="46.18324527145545" lon="9.829093181648686"><ele>1127.0</ele><time>2026-04-04T14:15:37.999Z</time></trkpt><trkpt lat="46.1832580755592" lon="9.82898742735802"><ele>1132.6666666666667</ele><time>2026-04-04T14:15:40.999Z</time></trkpt><trkpt lat="46.18328174510066" lon="9.828900280520575"><ele>1138.3333333333335</ele><time>2026-04-04T14:15:42.999Z</time></trkpt><trkpt lat="46.183312383431144" lon="9.82880781860684"><ele>1144.0</ele><time>2026-04-04T14:15:44.999Z</time></trkpt><trkpt lat="46.183345433894466" lon="9.82872966213786"><ele>1149.6666666666667</ele><time>2026-04-04T14:15:46.999Z</time></trkpt><trkpt lat="46.183386859837945" lon="9.828632760276072"><ele>1155.3333333333333</ele><time>2026-04-04T14:15:49.999Z</time></trkpt><trkpt lat="46.18343444804835" lon="9.82852041874918"><ele>1161.0</ele><time>2026-04-04T14:15:53.999Z</time></trkpt><trkpt lat="46.18347623453286" lon="9.828404133913283"><ele>1161.0</ele><time>2026-04-04T14:15:55.999Z</time></trkpt><trkpt lat="46.18349830304354" lon="9.828318888710964"><ele>1161.0</ele><time>2026-04-04T14:15:57.999Z</time></trkpt><trkpt lat="46.183581878839085" lon="9.828281969222857"><ele>1161.0</ele><time>2026-04-04T14:16:00.999Z</time></trkpt><trkpt lat="46.183658988256106" lon="9.828223814770123"><ele>1161.0</ele><time>2026-04-04T14:16:03.999Z</time></trkpt><trkpt lat="46.18370465583653" lon="9.828143866440932"><ele>1161.0</ele><time>2026-04-04T14:16:06.999Z</time></trkpt><trkpt lat="46.18375752094437" lon="9.82805906557205"><ele>1161.0</ele><time>2026-04-04T14:16:08.999Z</time></trkpt><trkpt lat="46.18381938880643" lon="9.82796500456311"><ele>1161.0</ele><time>2026-04-04T14:16:10.999Z</time></trkpt><trkpt lat="46.18390513221549" lon="9.82787820797662"><ele>1161.0</ele><time>2026-04-04T14:16:12.999Z</time></trkpt><trkpt lat="46.18395488549012" lon="9.827795882547854"><ele>1161.0</ele><time>2026-04-04T14:16:13.999Z</time></trkpt><trkpt lat="46.184021519618845" lon="9.827670510090455"><ele>1161.0</ele><time>2026-04-04T14:16:16Z</time></trkpt><trkpt lat="46.18406957259043" lon="9.827585940078436"><ele>1161.0</ele><time>2026-04-04T14:16:19Z</time></trkpt><trkpt lat="46.1841349084378" lon="9.827504331121627"><ele>1168.3999999999999</ele><time>2026-04-04T14:16:21Z</time></trkpt><trkpt lat="46.184189476671484" lon="9.827354307878863"><ele>1175.8</ele><time>2026-04-04T14:16:23Z</time></trkpt><trkpt lat="46.18423144781328" lon="9.827285675522631"><ele>1183.1999999999998</ele><time>2026-04-04T14:16:24Z</time></trkpt><trkpt lat="46.18428553406759" lon="9.827167323077557"><ele>1190.6</ele><time>2026-04-04T14:16:26Z</time></trkpt><trkpt lat="46.18432022068664" lon="9.827036662595447"><ele>1198.0</ele><time>2026-04-04T14:16:28Z</time></trkpt><trkpt lat="46.18438081157983" lon="9.826933721374301"><ele>1198.0</ele><time>2026-04-04T14:16:31Z</time></trkpt><trkpt lat="46.18439068296274" lon="9.826817306309238"><ele>1198.0</ele><time>2026-04-04T14:16:34Z</time></trkpt><trkpt lat="46.18442254927639" lon="9.826736810270866"><ele>1198.0</ele><time>2026-04-04T14:16:36Z</time></trkpt><trkpt lat="46.1844990020552" lon="9.826634540008225"><ele>1198.0</ele><time>2026-04-04T14:16:38Z</time></trkpt><trkpt lat="46.18454802205616" lon="9.826494550193832"><ele>1198.0</ele><time>2026-04-04T14:16:40Z</time></trkpt><trkpt lat="46.18453852102919" lon="9.826396195310727"><ele>1198.0</ele><time>2026-04-04T14:16:41Z</time></trkpt><trkpt lat="46.18454784765484" lon="9.826246098414881"><ele>1196.6</ele><time>2026-04-04T14:16:43Z</time></trkpt><trkpt lat="46.184555236596076" lon="9.826122106651558"><ele>1195.1999999999998</ele><time>2026-04-04T14:16:45Z</time></trkpt><trkpt lat="46.18462700224434" lon="9.825960659266451"><ele>1193.8</ele><time>2026-04-04T14:16:47Z</time></trkpt><trkpt lat="46.18467105748225" lon="9.825832003949373"><ele>1192.3999999999999</ele><time>2026-04-04T14:16:48Z</time></trkpt><trkpt lat="46.184691237299106" lon="9.825654343566278"><ele>1191.0</ele><time>2026-04-04T14:16:49Z</time></trkpt><trkpt lat="46.18471606909471" lon="9.825562750812582"><ele>1190.5</ele><time>2026-04-04T14:16:50Z</time></trkpt><trkpt lat="46.18471643104162" lon="9.825469518512795"><ele>1190.0</ele><time>2026-04-04T14:16:51Z</time></trkpt><trkpt lat="46.184736019566856" lon="9.825322686274655"><ele>1189.5</ele><time>2026-04-04T14:16:52Z</time></trkpt><trkpt lat="46.18492639314545" lon="9.82530258751153"><ele>1189.0</ele><time>2026-04-04T14:16:54Z</time></trkpt><trkpt lat="46.18492950142908" lon="9.825122289035237"><ele>1189.3333333333333</ele><time>2026-04-04T14:16:55Z</time></trkpt><trkpt lat="46.184913591219704" lon="9.824956147842814"><ele>1189.6666666666665</ele><time>2026-04-04T14:16:56Z</time></trkpt><trkpt lat="46.184895829325164" lon="9.82485812405374"><ele>1190.0</ele><time>2026-04-04T14:16:57Z</time></trkpt><trkpt lat="46.18487195356474" lon="9.824765302924115"><ele>1190.3333333333333</ele><time>2026-04-04T14:16:58Z</time></trkpt><trkpt lat="46.184852990792066" lon="9.824591600568874"><ele>1190.6666666666667</ele><time>2026-04-04T14:17:00Z</time></trkpt><trkpt lat="46.18483118215885" lon="9.824493597357407"><ele>1191.0</ele><time>2026-04-04T14:17:01Z</time></trkpt><trkpt lat="46.184829602464966" lon="9.824361442135825"><ele>1202.2</ele><time>2026-04-04T14:17:03Z</time></trkpt><trkpt lat="46.18488186380122" lon="9.824282916439687"><ele>1213.3999999999999</ele><time>2026-04-04T14:17:05Z</time></trkpt><trkpt lat="46.18494861529001" lon="9.824243743129943"><ele>1224.6</ele><time>2026-04-04T14:17:07Z</time></trkpt><trkpt lat="46.18506906091795" lon="9.824333979370262"><ele>1235.8</ele><time>2026-04-04T14:17:11Z</time></trkpt><trkpt lat="46.18518086749687" lon="9.824342116356126"><ele>1247.0</ele><time>2026-04-04T14:17:13Z</time></trkpt><trkpt lat="46.18525705099533" lon="9.824336860757748"><ele>1247.0</ele><time>2026-04-04T14:17:15Z</time></trkpt><trkpt lat="46.18535250304213" lon="9.82436390018165"><ele>1247.0</ele><time>2026-04-04T14:17:17Z</time></trkpt><trkpt lat="46.18541666767652" lon="9.824291547551292"><ele>1247.0</ele><time>2026-04-04T14:17:18Z</time></trkpt><trkpt lat="46.18553493803591" lon="9.824211498661073"><ele>1247.0</ele><time>2026-04-04T14:17:19Z</time></trkpt><trkpt lat="46.18560140162207" lon="9.824218268736614"><ele>1247.0</ele><time>2026-04-04T14:17:20Z</time></trkpt><trkpt lat="46.18564873970217" lon="9.82430731897769"><ele>1254.5</ele><time>2026-04-04T14:17:22Z</time></trkpt><trkpt lat="46.18570823794052" lon="9.824353941825272"><ele>1262.0</ele><time>2026-04-04T14:17:23Z</time></trkpt><trkpt lat="46.18575355663331" lon="9.824487926000222"><ele>1269.5</ele><time>2026-04-04T14:17:25Z</time></trkpt><trkpt lat="46.185789375517736" lon="9.824598025426837"><ele>1277.0</ele><time>2026-04-04T14:17:27.14Z</time></trkpt><trkpt lat="46.18583675068354" lon="9.824727034234595"><ele>1284.5</ele><time>2026-04-04T14:17:29Z</time></trkpt><trkpt lat="46.18586411100638" lon="9.824842155235457"><ele>1292.0</ele><time>2026-04-04T14:17:31Z</time></trkpt><trkpt lat="46.185870908101464" lon="9.824963268541998"><ele>1292.0</ele><time>2026-04-04T14:17:36Z</time></trkpt><trkpt lat="46.185954073265904" lon="9.825032113301278"><ele>1292.0</ele><time>2026-04-04T14:17:44Z</time></trkpt><trkpt lat="46.18599765332537" lon="9.825122235811193"><ele>1292.0</ele><time>2026-04-04T14:17:50.999Z</time></trkpt><trkpt lat="46.18604809997449" lon="9.825209953140124"><ele>1292.0</ele><time>2026-04-04T14:17:53.999Z</time></trkpt><trkpt lat="46.186095403309174" lon="9.825271059738318"><ele>1292.0</ele><time>2026-04-04T14:17:56.999Z</time></trkpt><trkpt lat="46.18610143501025" lon="9.825395653623453"><ele>1292.0</ele><time>2026-04-04T14:17:59.999Z</time></trkpt><trkpt lat="46.186136067205894" lon="9.825507853458884"><ele>1292.3999999999999</ele><time>2026-04-04T14:18:01.999Z</time></trkpt><trkpt lat="46.186173495201906" lon="9.825658593368356"><ele>1292.8</ele><time>2026-04-04T14:18:03.999Z</time></trkpt><trkpt lat="46.18617289043092" lon="9.825818169731528"><ele>1293.2</ele><time>2026-04-04T14:18:05.999Z</time></trkpt><trkpt lat="46.18617035357938" lon="9.825949518928581"><ele>1293.6</ele><time>2026-04-04T14:18:07.999Z</time></trkpt><trkpt lat="46.18619126108145" lon="9.826080418602295"><ele>1294.0</ele><time>2026-04-04T14:18:08.999Z</time></trkpt><trkpt lat="46.18623924422196" lon="9.826147527340366"><ele>1294.1666666666665</ele><time>2026-04-04T14:18:09.999Z</time></trkpt><trkpt lat="46.186273629125495" lon="9.826237630804592"><ele>1294.3333333333333</ele><time>2026-04-04T14:18:10.999Z</time></trkpt><trkpt lat="46.18627814288811" lon="9.826335617629413"><ele>1294.5</ele><time>2026-04-04T14:18:12.999Z</time></trkpt><trkpt lat="46.186286756128716" lon="9.826448490278441"><ele>1294.6666666666667</ele><time>2026-04-04T14:18:14.999Z</time></trkpt><trkpt lat="46.18627071129512" lon="9.8265464732766"><ele>1294.8333333333335</ele><time>2026-04-04T14:18:15.999Z</time></trkpt><trkpt lat="46.18625531536515" lon="9.826649726094143"><ele>1295.0</ele><time>2026-04-04T14:18:16.999Z</time></trkpt><trkpt lat="46.18626875766805" lon="9.826814523525895"><ele>1296.6</ele><time>2026-04-04T14:18:18.999Z</time></trkpt><trkpt lat="46.18628160565062" lon="9.826925175057877"><ele>1298.2</ele><time>2026-04-04T14:18:21Z</time></trkpt><trkpt lat="46.186283210720624" lon="9.827055452140645"><ele>1299.8000000000002</ele><time>2026-04-04T14:18:23Z</time></trkpt><trkpt lat="46.18633086200454" lon="9.82717573996947"><ele>1301.4</ele><time>2026-04-04T14:18:25Z</time></trkpt><trkpt lat="46.18640154615745" lon="9.827301281388538"><ele>1303.0</ele><time>2026-04-04T14:18:26Z</time></trkpt><trkpt lat="46.186451003561444" lon="9.827402908758664"><ele>1303.0</ele><time>2026-04-04T14:18:27Z</time></trkpt><trkpt lat="46.18646274188847" lon="9.827522636235027"><ele>1303.0</ele><time>2026-04-04T14:18:29Z</time></trkpt><trkpt lat="46.18653816995709" lon="9.827512157540491"><ele>1303.0</ele><time>2026-04-04T14:18:33Z</time></trkpt><trkpt lat="46.18662074114587" lon="9.827450948447765"><ele>1303.0</ele><time>2026-04-04T14:18:35Z</time></trkpt><trkpt lat="46.18665692495468" lon="9.827339452227791"><ele>1303.0</ele><time>2026-04-04T14:18:37Z</time></trkpt><trkpt lat="46.186677732738126" lon="9.827203301141315"><ele>1303.0</ele><time>2026-04-04T14:18:39Z</time></trkpt><trkpt lat="46.18664690557923" lon="9.82710457917636"><ele>1314.0</ele><time>2026-04-04T14:18:41Z</time></trkpt><trkpt lat="46.18670731441716" lon="9.827045551042676"><ele>1325.0</ele><time>2026-04-04T14:18:42Z</time></trkpt><trkpt lat="46.18676464346731" lon="9.82696864483008"><ele>1336.0</ele><time>2026-04-04T14:18:43Z</time></trkpt><trkpt lat="46.18685117965337" lon="9.826947512856789"><ele>1347.0</ele><time>2026-04-04T14:18:47Z</time></trkpt><trkpt lat="46.18692727347025" lon="9.827052563111778"><ele>1358.0</ele><time>2026-04-04T14:18:50Z</time></trkpt><trkpt lat="46.18700968100817" lon="9.827157711798346"><ele>1358.0</ele><time>2026-04-04T14:18:52Z</time></trkpt><trkpt lat="46.187075210898456" lon="9.827265948437795"><ele>1358.0</ele><time>2026-04-04T14:18:54Z</time></trkpt><trkpt lat="46.187172204679875" lon="9.82733406700458"><ele>1358.0</ele><time>2026-04-04T14:19:00Z</time></trkpt><trkpt lat="46.1872037890926" lon="9.827430644357383"><ele>1358.0</ele><time>2026-04-04T14:19:02Z</time></trkpt><trkpt lat="46.18724262740299" lon="9.827512672085732"><ele>1358.0</ele><time>2026-04-04T14:19:04Z</time></trkpt><trkpt lat="46.18729331147156" lon="9.827615971674852"><ele>1358.0</ele><time>2026-04-04T14:19:07Z</time></trkpt><trkpt lat="46.187306710956506" lon="9.827740731474606"><ele>1358.8000000000002</ele><time>2026-04-04T14:19:10Z</time></trkpt><trkpt lat="46.187318436555124" lon="9.827847421079738"><ele>1359.6</ele><time>2026-04-04T14:19:12Z</time></trkpt><trkpt lat="46.187349149405684" lon="9.827974023907045"><ele>1360.4</ele><time>2026-04-04T14:19:14Z</time></trkpt><trkpt lat="46.18738914227228" lon="9.82808116418569"><ele>1361.1999999999998</ele><time>2026-04-04T14:19:18Z</time></trkpt><trkpt lat="46.18746078788787" lon="9.828215875971383"><ele>1362.0</ele><time>2026-04-04T14:19:19.999Z</time></trkpt><trkpt lat="46.18749399670601" lon="9.828360121636774"><ele>1372.0</ele><time>2026-04-04T14:19:22.999Z</time></trkpt><trkpt lat="46.18752900686604" lon="9.828437594933071"><ele>1382.0</ele><time>2026-04-04T14:19:23.999Z</time></trkpt><trkpt lat="46.187583092121926" lon="9.828567797472822"><ele>1392.0</ele><time>2026-04-04T14:19:25.999Z</time></trkpt><trkpt lat="46.1876293029818" lon="9.828706703022819"><ele>1402.0</ele><time>2026-04-04T14:19:27.999Z</time></trkpt><trkpt lat="46.18766769946989" lon="9.828859600333766"><ele>1412.0</ele><time>2026-04-04T14:19:29.999Z</time></trkpt><trkpt lat="46.18771744463526" lon="9.828939844780265"><ele>1413.3333333333335</ele><time>2026-04-04T14:19:31.999Z</time></trkpt><trkpt lat="46.18774266995187" lon="9.829027003364915"><ele>1414.6666666666667</ele><time>2026-04-04T14:19:32.999Z</time></trkpt><trkpt lat="46.18777423714854" lon="9.829210971655925"><ele>1416.0</ele><time>2026-04-04T14:19:34.999Z</time></trkpt><trkpt lat="46.187812121071055" lon="9.82934150663374"><ele>1417.3333333333333</ele><time>2026-04-04T14:19:36.999Z</time></trkpt><trkpt lat="46.18781878242926" lon="9.829452348244907"><ele>1418.6666666666665</ele><time>2026-04-04T14:19:38.999Z</time></trkpt><trkpt lat="46.18781145289679" lon="9.829543784372136"><ele>1420.0</ele><time>2026-04-04T14:19:40.999Z</time></trkpt><trkpt lat="46.187741261064254" lon="9.829571872315851"><ele>1422.2</ele><time>2026-04-04T14:19:43.999Z</time></trkpt><trkpt lat="46.18775563274287" lon="9.829710361404777"><ele>1424.4</ele><time>2026-04-04T14:19:46.999Z</time></trkpt><trkpt lat="46.18771360416349" lon="9.829858290162651"><ele>1426.6</ele><time>2026-04-04T14:19:49.999Z</time></trkpt><trkpt lat="46.18772932972197" lon="9.82997088895287"><ele>1428.8</ele><time>2026-04-04T14:19:51.999Z</time></trkpt><trkpt lat="46.18781964969533" lon="9.830109789646187"><ele>1431.0</ele><time>2026-04-04T14:19:54.999Z</time></trkpt><trkpt lat="46.187862974488176" lon="9.83018923186272"><ele>1433.0</ele><time>2026-04-04T14:19:57.999Z</time></trkpt><trkpt lat="46.187882040882165" lon="9.830287308424445"><ele>1435.0</ele><time>2026-04-04T14:20:01.999Z</time></trkpt><trkpt lat="46.18792220630575" lon="9.830393945985753"><ele>1437.0</ele><time>2026-04-04T14:20:03.999Z</time></trkpt><trkpt lat="46.18799489305911" lon="9.830541230813338"><ele>1439.0</ele><time>2026-04-04T14:20:05.999Z</time></trkpt><trkpt lat="46.187996278000384" lon="9.830674059506675"><ele>1441.0</ele><time>2026-04-04T14:20:07.999Z</time></trkpt><trkpt lat="46.18799977632775" lon="9.830784543696792"><ele>1443.0</ele><time>2026-04-04T14:20:09.999Z</time></trkpt><trkpt lat="46.188035829028415" lon="9.830890954788751"><ele>1443.0</ele><time>2026-04-04T14:20:10.999Z</time></trkpt><trkpt lat="46.18808973304747" lon="9.830965276276613"><ele>1443.0</ele><time>2026-04-04T14:20:11.999Z</time></trkpt><trkpt lat="46.188141602542785" lon="9.831050410380195"><ele>1443.0</ele><time>2026-04-04T14:20:12.999Z</time></trkpt><trkpt lat="46.188180502567846" lon="9.831135474479902"><ele>1443.0</ele><time>2026-04-04T14:20:14.999Z</time></trkpt><trkpt lat="46.18819859372027" lon="9.831252454365071"><ele>1443.0</ele><time>2026-04-04T14:20:19.999Z</time></trkpt><trkpt lat="46.18826762560508" lon="9.831300188826944"><ele>1443.0</ele><time>2026-04-04T14:20:22.999Z</time></trkpt><trkpt lat="46.188335571711946" lon="9.831360245645806"><ele>1458.3333333333333</ele><time>2026-04-04T14:20:25.999Z</time></trkpt><trkpt lat="46.18869015412053" lon="9.831372730774577"><ele>1473.6666666666665</ele><time>2026-04-04T14:20:59Z</time></trkpt><trkpt lat="46.18870106452659" lon="9.831480212972762"><ele>1489.0</ele><time>2026-04-04T14:21:01Z</time></trkpt><trkpt lat="46.188760993229195" lon="9.83154845828416"><ele>1489.0</ele><time>2026-04-04T14:21:09Z</time></trkpt><trkpt lat="46.18877884347474" lon="9.831665847603093"><ele>1489.0</ele><time>2026-04-04T14:21:12Z</time></trkpt><trkpt lat="46.188712443548454" lon="9.831700225190064"><ele>1489.0</ele><time>2026-04-04T14:21:14Z</time></trkpt><trkpt lat="46.1887219553531" lon="9.831800941424353"><ele>1489.0</ele><time>2026-04-04T14:21:17Z</time></trkpt><trkpt lat="46.18872369637314" lon="9.83191856708001"><ele>1489.0</ele><time>2026-04-04T14:21:21Z</time></trkpt><trkpt lat="46.188786991608666" lon="9.832063457597057"><ele>1489.0</ele><time>2026-04-04T14:21:24Z</time></trkpt><trkpt lat="46.18884929017355" lon="9.832151363215752"><ele>1489.0</ele><time>2026-04-04T14:21:26Z</time></trkpt><trkpt lat="46.18891993924402" lon="9.832231533398014"><ele>1489.0</ele><time>2026-04-04T14:21:29Z</time></trkpt><trkpt lat="46.18914251256554" lon="9.832274637152285"><ele>1489.0</ele><time>2026-04-04T14:21:36.999Z</time></trkpt><trkpt lat="46.18922394211209" lon="9.832323325685381"><ele>1489.0</ele><time>2026-04-04T14:21:40.999Z</time></trkpt><trkpt lat="46.1893551301244" lon="9.832297728766205"><ele>1501.0</ele><time>2026-04-04T14:21:46.145Z</time></trkpt><trkpt lat="46.189377659029304" lon="9.83209360806402"><ele>1513.0</ele><time>2026-04-04T14:21:49.999Z</time></trkpt><trkpt lat="46.189447371305484" lon="9.832064396339804"><ele>1525.0</ele><time>2026-04-04T14:21:50.999Z</time></trkpt><trkpt lat="46.18964619417165" lon="9.832092386995962"><ele>1537.0</ele><time>2026-04-04T14:22:01.999Z</time></trkpt><trkpt lat="46.189709233603814" lon="9.83202108241377"><ele>1537.0</ele><time>2026-04-04T14:22:03.999Z</time></trkpt><trkpt lat="46.18977053701259" lon="9.831956192467272"><ele>1537.0</ele><time>2026-04-04T14:22:06.999Z</time></trkpt><trkpt lat="46.1898786211446" lon="9.831901182640376"><ele>1537.0</ele><time>2026-04-04T14:22:08.999Z</time></trkpt><trkpt lat="46.18998701130962" lon="9.831839411306861"><ele>1537.0</ele><time>2026-04-04T14:22:10.999Z</time></trkpt><trkpt lat="46.190053034893666" lon="9.831825673617685"><ele>1537.0</ele><time>2026-04-04T14:22:11.999Z</time></trkpt><trkpt lat="46.19013919658358" lon="9.831835710547853"><ele>1544.0000000000002</ele><time>2026-04-04T14:22:13.999Z</time></trkpt><trkpt lat="46.19021443948593" lon="9.831895848289564"><ele>1551.0</ele><time>2026-04-04T14:22:15.999Z</time></trkpt><trkpt lat="46.19026319624304" lon="9.832015910393695"><ele>1558.0</ele><time>2026-04-04T14:22:19.999Z</time></trkpt><trkpt lat="46.19032497333038" lon="9.832091353924376"><ele>1565.0</ele><time>2026-04-04T14:22:22.999Z</time></trkpt><trkpt lat="46.19035384350273" lon="9.832189137252392"><ele>1572.0000000000002</ele><time>2026-04-04T14:22:27.999Z</time></trkpt><trkpt lat="46.190397117236785" lon="9.832267637561028"><ele>1579.0</ele><time>2026-04-04T14:22:33Z</time></trkpt><trkpt lat="46.19044720418798" lon="9.832350466120465"><ele>1579.0</ele><time>2026-04-04T14:22:35Z</time></trkpt><trkpt lat="46.1905231421292" lon="9.832462385203371"><ele>1579.0</ele><time>2026-04-04T14:22:37Z</time></trkpt><trkpt lat="46.19055418094478" lon="9.832623588961072"><ele>1579.0</ele><time>2026-04-04T14:22:39Z</time></trkpt><trkpt lat="46.190559810581576" lon="9.832734660528958"><ele>1579.0</ele><time>2026-04-04T14:22:41Z</time></trkpt><trkpt lat="46.190568299461944" lon="9.832865357771357"><ele>1579.0</ele><time>2026-04-04T14:22:43Z</time></trkpt><trkpt lat="46.19054690220484" lon="9.832953517307384"><ele>1580.3333333333335</ele><time>2026-04-04T14:22:44Z</time></trkpt><trkpt lat="46.1904741611027" lon="9.833080762936707"><ele>1581.6666666666667</ele><time>2026-04-04T14:22:46Z</time></trkpt><trkpt lat="46.19047025390001" lon="9.833194183687638"><ele>1583.0</ele><time>2026-04-04T14:22:48Z</time></trkpt><trkpt lat="46.1905078344593" lon="9.833275433687481"><ele>1584.3333333333335</ele><time>2026-04-04T14:22:50Z</time></trkpt><trkpt lat="46.19053224029148" lon="9.83336835929698"><ele>1585.6666666666667</ele><time>2026-04-04T14:23:11Z</time></trkpt><trkpt lat="46.19052607334666" lon="9.833486737113413"><ele>1587.0</ele><time>2026-04-04T14:25:12Z</time></trkpt><trkpt lat="46.190526379227194" lon="9.833577949899993"><ele>1587.3999999999999</ele><time>2026-04-04T14:25:13Z</time></trkpt><trkpt lat="46.190528508933554" lon="9.833735257835457"><ele>1587.8</ele><time>2026-04-04T14:25:15Z</time></trkpt><trkpt lat="46.19052364590281" lon="9.833833829305359"><ele>1588.2</ele><time>2026-04-04T14:25:16.999Z</time></trkpt><trkpt lat="46.1905307313154" lon="9.833964414105004"><ele>1588.6</ele><time>2026-04-04T14:25:18.999Z</time></trkpt><trkpt lat="46.19057421765728" lon="9.834127677426055"><ele>1589.0</ele><time>2026-04-04T14:25:20.999Z</time></trkpt><trkpt lat="46.19062144407135" lon="9.834265194825106"><ele>1588.0</ele><time>2026-04-04T14:25:22.999Z</time></trkpt><trkpt lat="46.190643758075204" lon="9.834396278962625"><ele>1587.0</ele><time>2026-04-04T14:25:24.999Z</time></trkpt><trkpt lat="46.190779102260315" lon="9.834204036217901"><ele>1586.0</ele><time>2026-04-04T14:25:28.999Z</time></trkpt><trkpt lat="46.190789881195776" lon="9.834077530452388"><ele>1585.0</ele><time>2026-04-04T14:25:29.999Z</time></trkpt><trkpt lat="46.190772009733536" lon="9.833962259714774"><ele>1590.2</ele><time>2026-04-04T14:25:30.999Z</time></trkpt><trkpt lat="46.190758086479676" lon="9.833832054542913"><ele>1595.4</ele><time>2026-04-04T14:25:31.999Z</time></trkpt><trkpt lat="46.190751548537925" lon="9.833678849621053"><ele>1600.6</ele><time>2026-04-04T14:25:32.999Z</time></trkpt><trkpt lat="46.19075229757934" lon="9.833535218558085"><ele>1605.8</ele><time>2026-04-04T14:25:33.999Z</time></trkpt><trkpt lat="46.19076832614249" lon="9.833405102421592"><ele>1611.0</ele><time>2026-04-04T14:25:34.999Z</time></trkpt><trkpt lat="46.190782116000285" lon="9.833248942800006"><ele>1611.0</ele><time>2026-04-04T14:25:35.999Z</time></trkpt><trkpt lat="46.19078790612192" lon="9.833113527115108"><ele>1611.0</ele><time>2026-04-04T14:25:36.999Z</time></trkpt><trkpt lat="46.19079605594243" lon="9.832992172838905"><ele>1611.0</ele><time>2026-04-04T14:25:37.999Z</time></trkpt><trkpt lat="46.19080711659134" lon="9.832883359250415"><ele>1611.0</ele><time>2026-04-04T14:25:38.999Z</time></trkpt><trkpt lat="46.1908267278816" lon="9.832779866498672"><ele>1611.0</ele><time>2026-04-04T14:25:39.999Z</time></trkpt><trkpt lat="46.1908640491023" lon="9.832694675552558"><ele>1611.0</ele><time>2026-04-04T14:25:40.999Z</time></trkpt><trkpt lat="46.190916756645215" lon="9.832635290548716"><ele>1610.8333333333333</ele><time>2026-04-04T14:25:41.999Z</time></trkpt><trkpt lat="46.19099085735266" lon="9.832588736125011"><ele>1610.6666666666665</ele><time>2026-04-04T14:25:42.999Z</time></trkpt><trkpt lat="46.19106402751141" lon="9.832518586585651"><ele>1610.5</ele><time>2026-04-04T14:25:43.999Z</time></trkpt><trkpt lat="46.191118651034785" lon="9.832415866701151"><ele>1610.3333333333333</ele><time>2026-04-04T14:25:44.999Z</time></trkpt><trkpt lat="46.19113282223421" lon="9.832296168506995"><ele>1610.1666666666665</ele><time>2026-04-04T14:25:45.999Z</time></trkpt><trkpt lat="46.191135331081156" lon="9.832155633803707"><ele>1610.0</ele><time>2026-04-04T14:25:46.999Z</time></trkpt><trkpt lat="46.19113127252149" lon="9.831993276600752"><ele>1610.0</ele><time>2026-04-04T14:25:47.999Z</time></trkpt><trkpt lat="46.19113399539279" lon="9.831839051327387"><ele>1610.0</ele><time>2026-04-04T14:25:48.999Z</time></trkpt><trkpt lat="46.19114032780844" lon="9.831676536545018"><ele>1610.0</ele><time>2026-04-04T14:25:49.999Z</time></trkpt><trkpt lat="46.191144863520066" lon="9.831527332611621"><ele>1610.0</ele><time>2026-04-04T14:25:50.999Z</time></trkpt><trkpt lat="46.191132747049195" lon="9.831393872385403"><ele>1610.0</ele><time>2026-04-04T14:25:51.999Z</time></trkpt><trkpt lat="46.19112043782412" lon="9.831284108785646"><ele>1610.6666666666665</ele><time>2026-04-04T14:25:52.999Z</time></trkpt><trkpt lat="46.191106832632336" lon="9.831172219325595"><ele>1611.3333333333333</ele><time>2026-04-04T14:25:53.999Z</time></trkpt><trkpt lat="46.191107063431815" lon="9.831049012621095"><ele>1612.0</ele><time>2026-04-04T14:25:54.999Z</time></trkpt><trkpt lat="46.191119187539215" lon="9.830948281852397"><ele>1612.6666666666665</ele><time>2026-04-04T14:25:55.999Z</time></trkpt><trkpt lat="46.19114096516815" lon="9.830855521912655"><ele>1613.3333333333333</ele><time>2026-04-04T14:25:56.999Z</time></trkpt><trkpt lat="46.19114876163815" lon="9.83074020958061"><ele>1614.0</ele><time>2026-04-04T14:25:57.999Z</time></trkpt><trkpt lat="46.19113322436817" lon="9.830548686651563"><ele>1614.6666666666667</ele><time>2026-04-04T14:25:59.999Z</time></trkpt><trkpt lat="46.19111953944467" lon="9.830412821565526"><ele>1615.3333333333335</ele><time>2026-04-04T14:26:00.999Z</time></trkpt><trkpt lat="46.19110934057166" lon="9.830295155218352"><ele>1616.0</ele><time>2026-04-04T14:26:01.999Z</time></trkpt><trkpt lat="46.19109567708873" lon="9.83017422698282"><ele>1616.6666666666667</ele><time>2026-04-04T14:26:02.999Z</time></trkpt><trkpt lat="46.191091921252784" lon="9.830051310576268"><ele>1617.3333333333335</ele><time>2026-04-04T14:26:03.999Z</time></trkpt><trkpt lat="46.191047254314086" lon="9.829952481162813"><ele>1618.0</ele><time>2026-04-04T14:26:04.999Z</time></trkpt><trkpt lat="46.19100052025169" lon="9.829854148010044"><ele>1618.8333333333335</ele><time>2026-04-04T14:26:05.999Z</time></trkpt><trkpt lat="46.19098233488712" lon="9.82973203862569"><ele>1619.6666666666667</ele><time>2026-04-04T14:26:07.999Z</time></trkpt><trkpt lat="46.19100690343742" lon="9.829631152313254"><ele>1620.5</ele><time>2026-04-04T14:26:08.999Z</time></trkpt><trkpt lat="46.19102616970607" lon="9.829542704809118"><ele>1621.3333333333335</ele><time>2026-04-04T14:26:09.999Z</time></trkpt><trkpt lat="46.1910283030262" lon="9.829428487562364"><ele>1622.1666666666667</ele><time>2026-04-04T14:26:10.999Z</time></trkpt><trkpt lat="46.190987210440476" lon="9.829331959044438"><ele>1623.0</ele><time>2026-04-04T14:26:11.999Z</time></trkpt><trkpt lat="46.19095743880036" lon="9.829237743956313"><ele>1623.4</ele><time>2026-04-04T14:26:12.999Z</time></trkpt><trkpt lat="46.190949542026" lon="9.829105908385035"><ele>1623.8000000000002</ele><time>2026-04-04T14:26:13.999Z</time></trkpt><trkpt lat="46.19091856767439" lon="9.828952260934127"><ele>1624.2</ele><time>2026-04-04T14:26:14.999Z</time></trkpt><trkpt lat="46.19089500973085" lon="9.828811304002626"><ele>1624.6</ele><time>2026-04-04T14:26:15.999Z</time></trkpt><trkpt lat="46.190883523960444" lon="9.828696668497518"><ele>1625.0</ele><time>2026-04-04T14:26:16.999Z</time></trkpt><trkpt lat="46.19087055070941" lon="9.828580112350425"><ele>1625.0</ele><time>2026-04-04T14:26:17.999Z</time></trkpt><trkpt lat="46.190865847047235" lon="9.828479577712955"><ele>1625.0</ele><time>2026-04-04T14:26:18.999Z</time></trkpt><trkpt lat="46.190850573466896" lon="9.82837594464824"><ele>1625.0</ele><time>2026-04-04T14:26:19.999Z</time></trkpt><trkpt lat="46.190851754910305" lon="9.828274157664476"><ele>1625.0</ele><time>2026-04-04T14:26:20.999Z</time></trkpt><trkpt lat="46.19084993737531" lon="9.82817418485775"><ele>1625.0</ele><time>2026-04-04T14:26:21.999Z</time></trkpt><trkpt lat="46.190819778939385" lon="9.828088382387637"><ele>1625.0</ele><time>2026-04-04T14:26:22.999Z</time></trkpt><trkpt lat="46.19079754970204" lon="9.827964138647932"><ele>1625.0</ele><time>2026-04-04T14:26:23.999Z</time></trkpt><trkpt lat="46.19078711974175" lon="9.827861693549327"><ele>1625.8333333333333</ele><time>2026-04-04T14:26:24.999Z</time></trkpt><trkpt lat="46.19078610326971" lon="9.827747713194729"><ele>1626.6666666666665</ele><time>2026-04-04T14:26:25.999Z</time></trkpt><trkpt lat="46.19082682553261" lon="9.827628249783215"><ele>1627.5</ele><time>2026-04-04T14:26:26.999Z</time></trkpt><trkpt lat="46.19083965358751" lon="9.827494638579472"><ele>1628.3333333333335</ele><time>2026-04-04T14:26:27.999Z</time></trkpt><trkpt lat="46.190820497591645" lon="9.82737180267061"><ele>1629.1666666666667</ele><time>2026-04-04T14:26:28.999Z</time></trkpt><trkpt lat="46.190829547203705" lon="9.827270317823173"><ele>1630.0</ele><time>2026-04-04T14:26:29.999Z</time></trkpt><trkpt lat="46.19081426109467" lon="9.827152947026098"><ele>1630.6</ele><time>2026-04-04T14:26:30.999Z</time></trkpt><trkpt lat="46.190806677936564" lon="9.827001071486462"><ele>1631.2</ele><time>2026-04-04T14:26:32.999Z</time></trkpt><trkpt lat="46.19079764345767" lon="9.826907526425206"><ele>1631.8000000000002</ele><time>2026-04-04T14:26:33.999Z</time></trkpt><trkpt lat="46.19074951167028" lon="9.826692826411245"><ele>1632.4</ele><time>2026-04-04T14:26:35.999Z</time></trkpt><trkpt lat="46.19070733912155" lon="9.82653939746341"><ele>1633.0</ele><time>2026-04-04T14:26:36.999Z</time></trkpt><trkpt lat="46.19069926631583" lon="9.826401581499411"><ele>1623.0</ele><time>2026-04-04T14:26:37.999Z</time></trkpt><trkpt lat="46.19066128994375" lon="9.826266325968044"><ele>1613.0</ele><time>2026-04-04T14:26:38.999Z</time></trkpt><trkpt lat="46.190602038792036" lon="9.826135923874434"><ele>1603.0</ele><time>2026-04-04T14:26:39.999Z</time></trkpt><trkpt lat="46.19056936400254" lon="9.82601176617708"><ele>1593.0</ele><time>2026-04-04T14:26:40.999Z</time></trkpt><trkpt lat="46.19055394771157" lon="9.825885842830166"><ele>1583.0</ele><time>2026-04-04T14:26:41.999Z</time></trkpt><trkpt lat="46.19050589863825" lon="9.82577459655991"><ele>1582.9999999999998</ele><time>2026-04-04T14:26:42.999Z</time></trkpt><trkpt lat="46.19048657618788" lon="9.825643527908703"><ele>1583.0</ele><time>2026-04-04T14:26:43.999Z</time></trkpt><trkpt lat="46.190535375144975" lon="9.825547228402712"><ele>1583.0</ele><time>2026-04-04T14:26:45Z</time></trkpt><trkpt lat="46.19052209242468" lon="9.825431136429446"><ele>1583.0</ele><time>2026-04-04T14:26:46Z</time></trkpt><trkpt lat="46.1905118196921" lon="9.825302641792147"><ele>1582.9999999999998</ele><time>2026-04-04T14:26:47Z</time></trkpt><trkpt lat="46.190500987486374" lon="9.825159077532481"><ele>1583.0</ele><time>2026-04-04T14:26:48Z</time></trkpt><trkpt lat="46.19050376797875" lon="9.825017388425993"><ele>1583.8000000000002</ele><time>2026-04-04T14:26:49Z</time></trkpt><trkpt lat="46.19049045251668" lon="9.824883138700669"><ele>1584.6</ele><time>2026-04-04T14:26:50Z</time></trkpt><trkpt lat="46.19047533150384" lon="9.824757660990732"><ele>1585.4</ele><time>2026-04-04T14:26:51Z</time></trkpt><trkpt lat="46.19045885324632" lon="9.824590128637576"><ele>1586.1999999999998</ele><time>2026-04-04T14:26:52Z</time></trkpt><trkpt lat="46.1904152893098" lon="9.824427371115444"><ele>1587.0</ele><time>2026-04-04T14:26:53Z</time></trkpt><trkpt lat="46.190380146583706" lon="9.824285066487022"><ele>1587.6666666666667</ele><time>2026-04-04T14:26:54Z</time></trkpt><trkpt lat="46.1903712013309" lon="9.82414090183298"><ele>1588.3333333333335</ele><time>2026-04-04T14:26:55Z</time></trkpt><trkpt lat="46.19035552252815" lon="9.823995794146937"><ele>1589.0</ele><time>2026-04-04T14:26:56Z</time></trkpt><trkpt lat="46.19034948273082" lon="9.823884054713206"><ele>1589.6666666666667</ele><time>2026-04-04T14:26:57Z</time></trkpt><trkpt lat="46.190349143275185" lon="9.823767671865445"><ele>1590.3333333333335</ele><time>2026-04-04T14:26:58Z</time></trkpt><trkpt lat="46.19033424619578" lon="9.823652242384014"><ele>1591.0</ele><time>2026-04-04T14:26:59Z</time></trkpt><trkpt lat="46.19033396965641" lon="9.823524946474489"><ele>1591.1999999999998</ele><time>2026-04-04T14:27:00Z</time></trkpt><trkpt lat="46.19032891058334" lon="9.823393639966218"><ele>1591.3999999999999</ele><time>2026-04-04T14:27:01Z</time></trkpt><trkpt lat="46.1903161178013" lon="9.82327232005799"><ele>1591.6</ele><time>2026-04-04T14:27:02Z</time></trkpt><trkpt lat="46.19030438832423" lon="9.823132682710373"><ele>1591.8</ele><time>2026-04-04T14:27:03Z</time></trkpt><trkpt lat="46.19029225268237" lon="9.822991910929304"><ele>1592.0</ele><time>2026-04-04T14:27:04Z</time></trkpt><trkpt lat="46.19026699972362" lon="9.822835935070088"><ele>1592.0</ele><time>2026-04-04T14:27:05Z</time></trkpt><trkpt lat="46.19022915761694" lon="9.822670110675471"><ele>1592.0</ele><time>2026-04-04T14:27:06Z</time></trkpt><trkpt lat="46.19024629342608" lon="9.822506227264203"><ele>1592.0</ele><time>2026-04-04T14:27:07Z</time></trkpt><trkpt lat="46.19023092928678" lon="9.822365715575913"><ele>1592.0</ele><time>2026-04-04T14:27:08Z</time></trkpt><trkpt lat="46.19021135824961" lon="9.822248712997462"><ele>1592.0</ele><time>2026-04-04T14:27:08.999Z</time></trkpt><trkpt lat="46.19018207522458" lon="9.822147204074767"><ele>1591.8</ele><time>2026-04-04T14:27:09.999Z</time></trkpt><trkpt lat="46.19017672671963" lon="9.82203807351558"><ele>1591.6</ele><time>2026-04-04T14:27:10.999Z</time></trkpt><trkpt lat="46.19020355969583" lon="9.821867149851643"><ele>1591.3999999999999</ele><time>2026-04-04T14:27:12.999Z</time></trkpt><trkpt lat="46.19018198723851" lon="9.821775865355828"><ele>1591.1999999999998</ele><time>2026-04-04T14:27:13.999Z</time></trkpt><trkpt lat="46.19011879393511" lon="9.821655688435671"><ele>1591.0</ele><time>2026-04-04T14:27:14.999Z</time></trkpt><trkpt lat="46.190058360933556" lon="9.821547430767843"><ele>1592.1999999999998</ele><time>2026-04-04T14:27:15.999Z</time></trkpt><trkpt lat="46.190029314277176" lon="9.821450931110297"><ele>1593.3999999999999</ele><time>2026-04-04T14:27:16.999Z</time></trkpt><trkpt lat="46.190037626168014" lon="9.82131903132048"><ele>1594.6</ele><time>2026-04-04T14:27:17.999Z</time></trkpt><trkpt lat="46.1900722209035" lon="9.821183265110621"><ele>1595.8</ele><time>2026-04-04T14:27:18.999Z</time></trkpt><trkpt lat="46.19008061655059" lon="9.821039144910035"><ele>1597.0</ele><time>2026-04-04T14:27:19.999Z</time></trkpt><trkpt lat="46.190065053276626" lon="9.820909892927402"><ele>1599.0000000000002</ele><time>2026-04-04T14:27:20.999Z</time></trkpt><trkpt lat="46.19006638946188" lon="9.820797702319396"><ele>1601.0</ele><time>2026-04-04T14:27:21.999Z</time></trkpt><trkpt lat="46.190047621081995" lon="9.820672022323908"><ele>1603.0</ele><time>2026-04-04T14:27:22.999Z</time></trkpt><trkpt lat="46.1900153260268" lon="9.820553160424197"><ele>1605.0</ele><time>2026-04-04T14:27:23.999Z</time></trkpt><trkpt lat="46.1899783401947" lon="9.820452793143952"><ele>1607.0000000000002</ele><time>2026-04-04T14:27:24.999Z</time></trkpt><trkpt lat="46.18994616975525" lon="9.820339489826956"><ele>1609.0</ele><time>2026-04-04T14:27:25.999Z</time></trkpt><trkpt lat="46.18991067191715" lon="9.820196570672053"><ele>1612.8000000000002</ele><time>2026-04-04T14:27:26.999Z</time></trkpt><trkpt lat="46.18985789377711" lon="9.820060489515336"><ele>1616.6000000000001</ele><time>2026-04-04T14:27:27.999Z</time></trkpt><trkpt lat="46.18981110350725" lon="9.819933721792022"><ele>1620.4</ele><time>2026-04-04T14:27:28.999Z</time></trkpt><trkpt lat="46.18979241434422" lon="9.81980698613437"><ele>1624.2</ele><time>2026-04-04T14:27:29.999Z</time></trkpt><trkpt lat="46.189770223777664" lon="9.819677361772463"><ele>1628.0</ele><time>2026-04-04T14:27:30.999Z</time></trkpt><trkpt lat="46.18974703633292" lon="9.819543140363647"><ele>1618.0</ele><time>2026-04-04T14:27:31.999Z</time></trkpt><trkpt lat="46.189728376056166" lon="9.819410847470904"><ele>1608.0</ele><time>2026-04-04T14:27:32.999Z</time></trkpt><trkpt lat="46.18970914078634" lon="9.819263909169567"><ele>1598.0</ele><time>2026-04-04T14:27:33.999Z</time></trkpt><trkpt lat="46.18968411287143" lon="9.819122156862838"><ele>1588.0</ele><time>2026-04-04T14:27:34.999Z</time></trkpt><trkpt lat="46.18966088624976" lon="9.81899650316425"><ele>1578.0</ele><time>2026-04-04T14:27:35.999Z</time></trkpt><trkpt lat="46.18965115254961" lon="9.818872541517647"><ele>1578.0</ele><time>2026-04-04T14:27:36.999Z</time></trkpt><trkpt lat="46.18966074166918" lon="9.818753840891983"><ele>1578.0</ele><time>2026-04-04T14:27:37.999Z</time></trkpt><trkpt lat="46.18963520322922" lon="9.818643339898683"><ele>1578.0</ele><time>2026-04-04T14:27:38.999Z</time></trkpt><trkpt lat="46.18960834390033" lon="9.818529779774087"><ele>1578.0</ele><time>2026-04-04T14:27:39.999Z</time></trkpt><trkpt lat="46.18957519230495" lon="9.818405339708647"><ele>1578.0</ele><time>2026-04-04T14:27:40.999Z</time></trkpt><trkpt lat="46.189538045792" lon="9.818286803781412"><ele>1578.0</ele><time>2026-04-04T14:27:41.999Z</time></trkpt><trkpt lat="46.1895217070396" lon="9.818153858085326"><ele>1580.4</ele><time>2026-04-04T14:27:42.999Z</time></trkpt><trkpt lat="46.18951750622175" lon="9.81801764038537"><ele>1582.8000000000002</ele><time>2026-04-04T14:27:43.999Z</time></trkpt><trkpt lat="46.18952844344441" lon="9.81789441250852"><ele>1585.2</ele><time>2026-04-04T14:27:44.999Z</time></trkpt><trkpt lat="46.189540779007494" lon="9.817779497426805"><ele>1587.6</ele><time>2026-04-04T14:27:45.999Z</time></trkpt><trkpt lat="46.18959766088553" lon="9.817680510919846"><ele>1590.0</ele><time>2026-04-04T14:27:46.999Z</time></trkpt><trkpt lat="46.18964208208793" lon="9.817537963226258"><ele>1590.2</ele><time>2026-04-04T14:27:47.999Z</time></trkpt><trkpt lat="46.189693616567865" lon="9.817424130286705"><ele>1590.4</ele><time>2026-04-04T14:27:48.999Z</time></trkpt><trkpt lat="46.18974540150986" lon="9.817318347424834"><ele>1590.6</ele><time>2026-04-04T14:27:49.999Z</time></trkpt><trkpt lat="46.189794821869874" lon="9.817202377130489"><ele>1590.8</ele><time>2026-04-04T14:27:50.999Z</time></trkpt><trkpt lat="46.18986086577225" lon="9.817114322015671"><ele>1591.0</ele><time>2026-04-04T14:27:51.999Z</time></trkpt><trkpt lat="46.189920230159444" lon="9.817020359161745"><ele>1591.0</ele><time>2026-04-04T14:27:53.999Z</time></trkpt><trkpt lat="46.18986758609798" lon="9.816921574685734"><ele>1591.0</ele><time>2026-04-04T14:27:58.999Z</time></trkpt><trkpt lat="46.18979241267439" lon="9.816859877323303"><ele>1591.0</ele><time>2026-04-04T14:28:00.999Z</time></trkpt><trkpt lat="46.18975379789871" lon="9.816762087290085"><ele>1591.0</ele><time>2026-04-04T14:28:03.999Z</time></trkpt><trkpt lat="46.18975118419225" lon="9.816514298988665"><ele>1591.0</ele><time>2026-04-04T14:29:50.999Z</time></trkpt><trkpt lat="46.189674339682355" lon="9.816422604696898"><ele>1590.4</ele><time>2026-04-04T14:30:17.999Z</time></trkpt><trkpt lat="46.189761383806726" lon="9.816566704880303"><ele>1589.8</ele><time>2026-04-04T14:33:32.999Z</time></trkpt><trkpt lat="46.189678598200004" lon="9.81652151735198"><ele>1589.2</ele><time>2026-04-04T14:36:48.997Z</time></trkpt><trkpt lat="46.189607500876235" lon="9.816429969290233"><ele>1588.6000000000001</ele><time>2026-04-04T14:36:50.997Z</time></trkpt><trkpt lat="46.18954058446932" lon="9.816396806609712"><ele>1588.0</ele><time>2026-04-04T14:36:52.997Z</time></trkpt><trkpt lat="46.18950475281394" lon="9.81625575862073"><ele>1588.0000000000002</ele><time>2026-04-04T14:36:54.997Z</time></trkpt><trkpt lat="46.18948053741715" lon="9.816149836103339"><ele>1588.0</ele><time>2026-04-04T14:36:57.997Z</time></trkpt><trkpt lat="46.18942357723762" lon="9.816075355345665"><ele>1588.0</ele><time>2026-04-04T14:37:01.997Z</time></trkpt><trkpt lat="46.189360165495124" lon="9.815991398683304"><ele>1588.0</ele><time>2026-04-04T14:37:04.997Z</time></trkpt><trkpt lat="46.189306756915464" lon="9.815910778530334"><ele>1588.0000000000002</ele><time>2026-04-04T14:37:07.997Z</time></trkpt><trkpt lat="46.18930622938041" lon="9.81581895333628"><ele>1588.0</ele><time>2026-04-04T14:37:10.997Z</time></trkpt><trkpt lat="46.18924565873228" lon="9.815649426337007"><ele>1590.6666666666667</ele><time>2026-04-04T14:37:12.997Z</time></trkpt><trkpt lat="46.189188209094304" lon="9.815554122487148"><ele>1593.3333333333335</ele><time>2026-04-04T14:37:13.997Z</time></trkpt><trkpt lat="46.18911850974634" lon="9.815478422323947"><ele>1596.0</ele><time>2026-04-04T14:37:14.997Z</time></trkpt><trkpt lat="46.18904442560144" lon="9.81541215857572"><ele>1598.6666666666665</ele><time>2026-04-04T14:37:15.997Z</time></trkpt><trkpt lat="46.188994160504826" lon="9.815356351736177"><ele>1601.3333333333333</ele><time>2026-04-04T14:37:16.997Z</time></trkpt><trkpt lat="46.18895639783828" lon="9.815185481322874"><ele>1604.0</ele><time>2026-04-04T14:37:19.997Z</time></trkpt><trkpt lat="46.18893904423959" lon="9.815010294493781"><ele>1597.6</ele><time>2026-04-04T14:37:20.997Z</time></trkpt><trkpt lat="46.18889672279545" lon="9.81491234407102"><ele>1591.2</ele><time>2026-04-04T14:37:21.997Z</time></trkpt><trkpt lat="46.188830208917764" lon="9.814872007336403"><ele>1584.8</ele><time>2026-04-04T14:37:22.997Z</time></trkpt><trkpt lat="46.18870760654471" lon="9.81483723111238"><ele>1578.3999999999999</ele><time>2026-04-04T14:37:23.997Z</time></trkpt><trkpt lat="46.18859726330665" lon="9.81479523543974"><ele>1572.0</ele><time>2026-04-04T14:37:24.997Z</time></trkpt><trkpt lat="46.188518938277625" lon="9.814774030215547"><ele>1572.0</ele><time>2026-04-04T14:37:25.997Z</time></trkpt><trkpt lat="46.188463521477864" lon="9.814714933025492"><ele>1572.0</ele><time>2026-04-04T14:37:26.997Z</time></trkpt><trkpt lat="46.188430481524605" lon="9.814627237705713"><ele>1572.0</ele><time>2026-04-04T14:37:27.997Z</time></trkpt><trkpt lat="46.18847220941209" lon="9.814469557664406"><ele>1572.0</ele><time>2026-04-04T14:37:29.997Z</time></trkpt><trkpt lat="46.18853800720053" lon="9.814314431440787"><ele>1572.0</ele><time>2026-04-04T14:37:31.997Z</time></trkpt><trkpt lat="46.18851171928104" lon="9.814216738211268"><ele>1574.6666666666667</ele><time>2026-04-04T14:37:32.997Z</time></trkpt><trkpt lat="46.18847748478514" lon="9.81408560966573"><ele>1577.3333333333335</ele><time>2026-04-04T14:37:33.997Z</time></trkpt><trkpt lat="46.188469222850074" lon="9.813977813385907"><ele>1580.0</ele><time>2026-04-04T14:37:34.997Z</time></trkpt><trkpt lat="46.188469082350366" lon="9.813865996916672"><ele>1582.6666666666667</ele><time>2026-04-04T14:37:35.997Z</time></trkpt><trkpt lat="46.188421630730694" lon="9.813754610144738"><ele>1585.3333333333335</ele><time>2026-04-04T14:37:37.997Z</time></trkpt><trkpt lat="46.18835617646429" lon="9.81369150597924"><ele>1588.0</ele><time>2026-04-04T14:37:38.997Z</time></trkpt><trkpt lat="46.18828151429843" lon="9.813594993129048"><ele>1588.6666666666667</ele><time>2026-04-04T14:37:39.997Z</time></trkpt><trkpt lat="46.18826732448026" lon="9.813486871537393"><ele>1589.3333333333335</ele><time>2026-04-04T14:37:40.997Z</time></trkpt><trkpt lat="46.18823838689464" lon="9.813380108889033"><ele>1590.0</ele><time>2026-04-04T14:37:42.997Z</time></trkpt><trkpt lat="46.188145481931485" lon="9.813268446341835"><ele>1590.6666666666665</ele><time>2026-04-04T14:37:44.997Z</time></trkpt><trkpt lat="46.18810277964579" lon="9.81318314299458"><ele>1591.3333333333333</ele><time>2026-04-04T14:37:45.997Z</time></trkpt><trkpt lat="46.188079866692505" lon="9.81308060802011"><ele>1592.0</ele><time>2026-04-04T14:37:47.997Z</time></trkpt><trkpt lat="46.18812629465703" lon="9.81297568043818"><ele>1592.0</ele><time>2026-04-04T14:37:49.997Z</time></trkpt><trkpt lat="46.18815397067042" lon="9.812789331657472"><ele>1592.0</ele><time>2026-04-04T14:37:51.997Z</time></trkpt><trkpt lat="46.18817859857562" lon="9.812704904751076"><ele>1592.0</ele><time>2026-04-04T14:37:52.997Z</time></trkpt><trkpt lat="46.188201903772416" lon="9.812556355153415"><ele>1592.0</ele><time>2026-04-04T14:37:54.997Z</time></trkpt><trkpt lat="46.188141692224896" lon="9.812408774884597"><ele>1592.0</ele><time>2026-04-04T14:37:56.997Z</time></trkpt><trkpt lat="46.18810470401187" lon="9.81232917422391"><ele>1584.2857142857142</ele><time>2026-04-04T14:37:57.997Z</time></trkpt><trkpt lat="46.18806599476944" lon="9.812245218110354"><ele>1576.5714285714284</ele><time>2026-04-04T14:37:58.997Z</time></trkpt><trkpt lat="46.1880267882082" lon="9.812169291829836"><ele>1568.8571428571427</ele><time>2026-04-04T14:37:59.997Z</time></trkpt><trkpt lat="46.1879864739399" lon="9.81208787213822"><ele>1561.142857142857</ele><time>2026-04-04T14:38:00.997Z</time></trkpt><trkpt lat="46.18793385119031" lon="9.812013574291205"><ele>1553.4285714285716</ele><time>2026-04-04T14:38:01.997Z</time></trkpt><trkpt lat="46.18787882892277" lon="9.811927544605242"><ele>1545.7142857142856</ele><time>2026-04-04T14:38:02.997Z</time></trkpt><trkpt lat="46.18783528723157" lon="9.811836389896184"><ele>1538.0</ele><time>2026-04-04T14:38:03.997Z</time></trkpt><trkpt lat="46.18779870306891" lon="9.811752743927498"><ele>1538.0</ele><time>2026-04-04T14:38:04.997Z</time></trkpt><trkpt lat="46.187715263738596" lon="9.811636960355596"><ele>1538.0</ele><time>2026-04-04T14:38:06.997Z</time></trkpt><trkpt lat="46.187662818002735" lon="9.811547050842455"><ele>1538.0</ele><time>2026-04-04T14:38:08.996Z</time></trkpt><trkpt lat="46.18761383491464" lon="9.8116766124224"><ele>1538.0</ele><time>2026-04-04T14:38:12.996Z</time></trkpt><trkpt lat="46.18758453672141" lon="9.811775022218264"><ele>1538.0</ele><time>2026-04-04T14:38:13.996Z</time></trkpt><trkpt lat="46.18755732262402" lon="9.811893697346914"><ele>1537.9999999999998</ele><time>2026-04-04T14:38:14.996Z</time></trkpt><trkpt lat="46.18754610023477" lon="9.811991370715251"><ele>1538.0</ele><time>2026-04-04T14:38:15.996Z</time></trkpt><trkpt lat="46.1875586388702" lon="9.812086097008248"><ele>1538.0</ele><time>2026-04-04T14:38:16.996Z</time></trkpt><trkpt lat="46.187525913692134" lon="9.81221255691773"><ele>1538.0</ele><time>2026-04-04T14:38:18.996Z</time></trkpt><trkpt lat="46.18747671513523" lon="9.812270157330865"><ele>1537.9999999999998</ele><time>2026-04-04T14:38:19.996Z</time></trkpt><trkpt lat="46.18741411749242" lon="9.812395690504852"><ele>1538.0</ele><time>2026-04-04T14:38:21.996Z</time></trkpt><trkpt lat="46.187363874515505" lon="9.812493522338453"><ele>1529.5714285714284</ele><time>2026-04-04T14:38:23.996Z</time></trkpt><trkpt lat="46.1872905353084" lon="9.812582241286984"><ele>1521.1428571428573</ele><time>2026-04-04T14:38:25.996Z</time></trkpt><trkpt lat="46.18726141530917" lon="9.812688270490666"><ele>1512.7142857142858</ele><time>2026-04-04T14:38:28.996Z</time></trkpt><trkpt lat="46.18720078304216" lon="9.812756164558447"><ele>1504.2857142857142</ele><time>2026-04-04T14:38:38.996Z</time></trkpt><trkpt lat="46.1871671750746" lon="9.812677407529836"><ele>1495.8571428571427</ele><time>2026-04-04T14:38:53.996Z</time></trkpt><trkpt lat="46.18713390351487" lon="9.812597574492427"><ele>1487.4285714285716</ele><time>2026-04-04T14:39:06.996Z</time></trkpt><trkpt lat="46.18706780423496" lon="9.812570293373195"><ele>1479.0</ele><time>2026-04-04T14:39:23.996Z</time></trkpt><trkpt lat="46.18708449751974" lon="9.812452441405895"><ele>1479.0</ele><time>2026-04-04T14:39:26.996Z</time></trkpt><trkpt lat="46.18707868264351" lon="9.812326154107465"><ele>1479.0</ele><time>2026-04-04T14:39:28.996Z</time></trkpt><trkpt lat="46.18710769079377" lon="9.812216438446088"><ele>1479.0</ele><time>2026-04-04T14:39:31.996Z</time></trkpt><trkpt lat="46.18707668345882" lon="9.812091562593322"><ele>1479.0</ele><time>2026-04-04T14:39:34.996Z</time></trkpt><trkpt lat="46.187063808411104" lon="9.811985358293553"><ele>1479.0</ele><time>2026-04-04T14:39:39.996Z</time></trkpt><trkpt lat="46.187062849185146" lon="9.811880161048299"><ele>1479.0</ele><time>2026-04-04T14:39:42.996Z</time></trkpt><trkpt lat="46.18705896372866" lon="9.811775126258405"><ele>1479.3333333333333</ele><time>2026-04-04T14:39:45.996Z</time></trkpt><trkpt lat="46.18705213752519" lon="9.811646645095282"><ele>1479.6666666666667</ele><time>2026-04-04T14:39:48.996Z</time></trkpt><trkpt lat="46.1870526619509" lon="9.811554954828354"><ele>1480.0</ele><time>2026-04-04T14:39:50.996Z</time></trkpt><trkpt lat="46.18701094139636" lon="9.811469084354272"><ele>1480.3333333333335</ele><time>2026-04-04T14:39:53.996Z</time></trkpt><trkpt lat="46.1869982907778" lon="9.811365204942065"><ele>1480.6666666666667</ele><time>2026-04-04T14:39:56.996Z</time></trkpt><trkpt lat="46.1869920779098" lon="9.811254183202426"><ele>1481.0</ele><time>2026-04-04T14:39:58.996Z</time></trkpt><trkpt lat="46.18696230588737" lon="9.811143026524501"><ele>1481.0000000000002</ele><time>2026-04-04T14:40:02.996Z</time></trkpt><trkpt lat="46.18692411044382" lon="9.81105565475679"><ele>1481.0</ele><time>2026-04-04T14:40:04.996Z</time></trkpt><trkpt lat="46.18686598389316" lon="9.810970787844289"><ele>1481.0</ele><time>2026-04-04T14:40:07.996Z</time></trkpt><trkpt lat="46.18678657472706" lon="9.810983736826163"><ele>1481.0</ele><time>2026-04-04T14:40:11.995Z</time></trkpt><trkpt lat="46.18671569588193" lon="9.810982401540546"><ele>1481.0</ele><time>2026-04-04T14:40:16.995Z</time></trkpt><trkpt lat="46.18668195524888" lon="9.810904374973921"><ele>1481.0000000000002</ele><time>2026-04-04T14:40:19.995Z</time></trkpt><trkpt lat="46.18668400849275" lon="9.810805596667583"><ele>1481.0</ele><time>2026-04-04T14:40:22.995Z</time></trkpt><trkpt lat="46.18667618780249" lon="9.81066333771581"><ele>1478.8333333333335</ele><time>2026-04-04T14:40:25.995Z</time></trkpt><trkpt lat="46.186607751134545" lon="9.810591203794116"><ele>1476.6666666666667</ele><time>2026-04-04T14:40:27.995Z</time></trkpt><trkpt lat="46.18657022393908" lon="9.81047078507196"><ele>1474.5</ele><time>2026-04-04T14:40:30.995Z</time></trkpt><trkpt lat="46.18652294423026" lon="9.810355792090574"><ele>1472.3333333333333</ele><time>2026-04-04T14:40:32.995Z</time></trkpt><trkpt lat="46.186496354249066" lon="9.810268887266767"><ele>1470.1666666666665</ele><time>2026-04-04T14:40:34.995Z</time></trkpt><trkpt lat="46.18644903497875" lon="9.810198605276073"><ele>1468.0</ele><time>2026-04-04T14:40:37.995Z</time></trkpt><trkpt lat="46.18641633360944" lon="9.810108240748027"><ele>1456.5</ele><time>2026-04-04T14:40:40.995Z</time></trkpt><trkpt lat="46.18641215155593" lon="9.810016100283114"><ele>1445.0</ele><time>2026-04-04T14:40:44.995Z</time></trkpt><trkpt lat="46.18633298625998" lon="9.809900760218927"><ele>1433.5</ele><time>2026-04-04T14:40:47.995Z</time></trkpt><trkpt lat="46.18627298938012" lon="9.809823548284529"><ele>1422.0</ele><time>2026-04-04T14:40:50.995Z</time></trkpt><trkpt lat="46.18623815701638" lon="9.809689141535241"><ele>1410.5</ele><time>2026-04-04T14:40:54.995Z</time></trkpt><trkpt lat="46.186172896141365" lon="9.809598722373195"><ele>1399.0</ele><time>2026-04-04T14:40:59.995Z</time></trkpt><trkpt lat="46.18610850096641" lon="9.809546910964414"><ele>1399.0</ele><time>2026-04-04T14:41:02.995Z</time></trkpt><trkpt lat="46.186104112779816" lon="9.809427316409337"><ele>1399.0</ele><time>2026-04-04T14:41:04.995Z</time></trkpt><trkpt lat="46.18605623100545" lon="9.80932286680388"><ele>1399.0</ele><time>2026-04-04T14:41:07.995Z</time></trkpt><trkpt lat="46.185985351421465" lon="9.809325024937971"><ele>1399.0</ele><time>2026-04-04T14:41:10.995Z</time></trkpt><trkpt lat="46.18593606984435" lon="9.809387673102195"><ele>1399.0</ele><time>2026-04-04T14:41:13.995Z</time></trkpt><trkpt lat="46.18591745228898" lon="9.80928239715709"><ele>1399.0</ele><time>2026-04-04T14:41:17.995Z</time></trkpt><trkpt lat="46.18587610931471" lon="9.809155033692061"><ele>1397.0</ele><time>2026-04-04T14:41:20.995Z</time></trkpt><trkpt lat="46.18590160966021" lon="9.809039091670162"><ele>1395.0</ele><time>2026-04-04T14:41:25.995Z</time></trkpt><trkpt lat="46.18586955305508" lon="9.80891892125474"><ele>1393.0</ele><time>2026-04-04T14:41:29.995Z</time></trkpt><trkpt lat="46.185843454051145" lon="9.808830216531515"><ele>1391.0</ele><time>2026-04-04T14:41:33.995Z</time></trkpt><trkpt lat="46.18579310746412" lon="9.808763084166896"><ele>1389.0</ele><time>2026-04-04T14:41:39.995Z</time></trkpt><trkpt lat="46.1857201837187" lon="9.808712580192958"><ele>1387.0</ele><time>2026-04-04T14:41:44.995Z</time></trkpt><trkpt lat="46.18572410125591" lon="9.808620970509587"><ele>1387.0</ele><time>2026-04-04T14:41:47.995Z</time></trkpt><trkpt lat="46.18573827573958" lon="9.808531539465005"><ele>1387.0</ele><time>2026-04-04T14:41:51.995Z</time></trkpt><trkpt lat="46.18572545985425" lon="9.808418739782855"><ele>1387.0</ele><time>2026-04-04T14:41:55.995Z</time></trkpt><trkpt lat="46.18572265056573" lon="9.808310273122656"><ele>1387.0</ele><time>2026-04-04T14:42:02.995Z</time></trkpt><trkpt lat="46.185722021549694" lon="9.808205444151456"><ele>1387.0</ele><time>2026-04-04T14:42:05.995Z</time></trkpt><trkpt lat="46.18572723221625" lon="9.808076511816383"><ele>1387.0</ele><time>2026-04-04T14:42:09.995Z</time></trkpt><trkpt lat="46.185749348260785" lon="9.80795607480387"><ele>1383.7142857142858</ele><time>2026-04-04T14:42:14.994Z</time></trkpt><trkpt lat="46.18575327265082" lon="9.807863968378019"><ele>1380.4285714285713</ele><time>2026-04-04T14:42:16.994Z</time></trkpt><trkpt lat="46.18577992151053" lon="9.807756279350818"><ele>1377.142857142857</ele><time>2026-04-04T14:42:20.994Z</time></trkpt><trkpt lat="46.185748430462866" lon="9.80766458511881"><ele>1373.857142857143</ele><time>2026-04-04T14:42:27.994Z</time></trkpt><trkpt lat="46.185677180577464" lon="9.807659053481084"><ele>1370.5714285714287</ele><time>2026-04-04T14:42:31.994Z</time></trkpt><trkpt lat="46.18559962241728" lon="9.807680010911087"><ele>1367.2857142857142</ele><time>2026-04-04T14:42:52.994Z</time></trkpt><trkpt lat="46.18553369406993" lon="9.807677625452941"><ele>1364.0</ele><time>2026-04-04T14:42:58.994Z</time></trkpt><trkpt lat="46.18547120931908" lon="9.807695400428397"><ele>1357.142857142857</ele><time>2026-04-04T14:43:04.994Z</time></trkpt><trkpt lat="46.18540659113731" lon="9.807668409517266"><ele>1350.2857142857142</ele><time>2026-04-04T14:43:11.994Z</time></trkpt><trkpt lat="46.18536216865797" lon="9.80759658348"><ele>1343.4285714285716</ele><time>2026-04-04T14:43:15.994Z</time></trkpt><trkpt lat="46.18532582038658" lon="9.807515767845326"><ele>1336.5714285714284</ele><time>2026-04-04T14:43:20.994Z</time></trkpt><trkpt lat="46.185327556905115" lon="9.807424747102983"><ele>1329.7142857142858</ele><time>2026-04-04T14:43:36.994Z</time></trkpt><trkpt lat="46.18533696120235" lon="9.807333992961803"><ele>1322.857142857143</ele><time>2026-04-04T14:43:40.994Z</time></trkpt><trkpt lat="46.18531585087382" lon="9.807230628270942"><ele>1316.0</ele><time>2026-04-04T14:43:43.994Z</time></trkpt><trkpt lat="46.18525931481001" lon="9.807184380406401"><ele>1312.8333333333335</ele><time>2026-04-04T14:43:54.994Z</time></trkpt><trkpt lat="46.18519214737124" lon="9.80718588331407"><ele>1309.6666666666667</ele><time>2026-04-04T14:43:56.994Z</time></trkpt><trkpt lat="46.18511990240521" lon="9.807224839492578"><ele>1306.5</ele><time>2026-04-04T14:43:58.994Z</time></trkpt><trkpt lat="46.18505873329037" lon="9.807270660009214"><ele>1303.3333333333333</ele><time>2026-04-04T14:44:00.994Z</time></trkpt><trkpt lat="46.18498098061334" lon="9.807304202206762"><ele>1300.1666666666665</ele><time>2026-04-04T14:44:02.994Z</time></trkpt><trkpt lat="46.1848931651586" lon="9.807393604813567"><ele>1297.0</ele><time>2026-04-04T14:44:05.994Z</time></trkpt><trkpt lat="46.18482962222502" lon="9.807427002491703"><ele>1291.1999999999998</ele><time>2026-04-04T14:44:06.994Z</time></trkpt><trkpt lat="46.18474703217088" lon="9.807463608064635"><ele>1285.3999999999999</ele><time>2026-04-04T14:44:08.994Z</time></trkpt><trkpt lat="46.184656209410406" lon="9.807506698576743"><ele>1279.6</ele><time>2026-04-04T14:44:14.993Z</time></trkpt><trkpt lat="46.18458982950802" lon="9.807600302524321"><ele>1273.8</ele><time>2026-04-04T14:44:16.993Z</time></trkpt><trkpt lat="46.184520118187145" lon="9.807722348776664"><ele>1268.0</ele><time>2026-04-04T14:44:18.993Z</time></trkpt><trkpt lat="46.18440937226645" lon="9.807752117434163"><ele>1268.0</ele><time>2026-04-04T14:44:20.993Z</time></trkpt><trkpt lat="46.18434233531312" lon="9.807830430304879"><ele>1268.0</ele><time>2026-04-04T14:44:22.993Z</time></trkpt><trkpt lat="46.18424085061057" lon="9.807896815275596"><ele>1268.0</ele><time>2026-04-04T14:44:24.993Z</time></trkpt><trkpt lat="46.18415466177704" lon="9.80793676799064"><ele>1268.0</ele><time>2026-04-04T14:44:26.993Z</time></trkpt><trkpt lat="46.18403333126854" lon="9.807903251037619"><ele>1268.0</ele><time>2026-04-04T14:44:28.993Z</time></trkpt><trkpt lat="46.183940538409345" lon="9.807806990097912"><ele>1254.6</ele><time>2026-04-04T14:44:30.993Z</time></trkpt><trkpt lat="46.18387619346395" lon="9.807646036114381"><ele>1241.1999999999998</ele><time>2026-04-04T14:44:32.993Z</time></trkpt><trkpt lat="46.18384268596227" lon="9.807557642579853"><ele>1227.8</ele><time>2026-04-04T14:44:33.993Z</time></trkpt><trkpt lat="46.18379614744983" lon="9.807410954183753"><ele>1214.3999999999999</ele><time>2026-04-04T14:44:35.993Z</time></trkpt><trkpt lat="46.18376434685658" lon="9.80731133493823"><ele>1201.0</ele><time>2026-04-04T14:44:40.993Z</time></trkpt><trkpt lat="46.18371870009381" lon="9.807628395348598"><ele>1201.75</ele><time>2026-04-04T14:45:41.993Z</time></trkpt><trkpt lat="46.183695708519004" lon="9.80779624451867"><ele>1202.5</ele><time>2026-04-04T14:45:42.993Z</time></trkpt><trkpt lat="46.18367575297406" lon="9.807976735196165"><ele>1203.25</ele><time>2026-04-04T14:45:43.993Z</time></trkpt><trkpt lat="46.183672203751094" lon="9.808142732167834"><ele>1204.0</ele><time>2026-04-04T14:45:44.993Z</time></trkpt><trkpt lat="46.18366707106355" lon="9.808327539811321"><ele>1204.75</ele><time>2026-04-04T14:45:45.993Z</time></trkpt><trkpt lat="46.18368779271139" lon="9.808504068039815"><ele>1205.5</ele><time>2026-04-04T14:45:46.993Z</time></trkpt><trkpt lat="46.18372061323342" lon="9.808670747512604"><ele>1206.25</ele><time>2026-04-04T14:45:47.993Z</time></trkpt><trkpt lat="46.18375874439107" lon="9.80881545323091"><ele>1207.0</ele><time>2026-04-04T14:45:48.993Z</time></trkpt><trkpt lat="46.183789841816754" lon="9.808957085795246"><ele>1207.0</ele><time>2026-04-04T14:45:49.993Z</time></trkpt><trkpt lat="46.18385349824551" lon="9.809071498075877"><ele>1207.0</ele><time>2026-04-04T14:45:50.993Z</time></trkpt><trkpt lat="46.183852547931934" lon="9.809225635082981"><ele>1207.0</ele><time>2026-04-04T14:45:51.993Z</time></trkpt><trkpt lat="46.18384005983981" lon="9.809375407377932"><ele>1207.0</ele><time>2026-04-04T14:45:52.993Z</time></trkpt><trkpt lat="46.183802571062856" lon="9.809506389216047"><ele>1207.0</ele><time>2026-04-04T14:45:53.993Z</time></trkpt><trkpt lat="46.183767018455555" lon="9.809649235778721"><ele>1207.4</ele><time>2026-04-04T14:45:54.993Z</time></trkpt><trkpt lat="46.18374627492199" lon="9.809792876698735"><ele>1207.8000000000002</ele><time>2026-04-04T14:45:55.993Z</time></trkpt><trkpt lat="46.18372518136756" lon="9.80994897570702"><ele>1208.2</ele><time>2026-04-04T14:45:56.993Z</time></trkpt><trkpt lat="46.183731097775386" lon="9.810108112304176"><ele>1208.6000000000001</ele><time>2026-04-04T14:45:57.993Z</time></trkpt><trkpt lat="46.18375485601424" lon="9.810261362669165"><ele>1209.0</ele><time>2026-04-04T14:45:58.993Z</time></trkpt><trkpt lat="46.18378902802553" lon="9.810428290080102"><ele>1207.5</ele><time>2026-04-04T14:45:59.993Z</time></trkpt><trkpt lat="46.18382034200872" lon="9.810610680996929"><ele>1206.0</ele><time>2026-04-04T14:46:00.993Z</time></trkpt><trkpt lat="46.18383864237854" lon="9.810799933976387"><ele>1204.5</ele><time>2026-04-04T14:46:01.993Z</time></trkpt><trkpt lat="46.183876229170764" lon="9.8109716328536"><ele>1203.0</ele><time>2026-04-04T14:46:02.993Z</time></trkpt><trkpt lat="46.183914834725094" lon="9.811105729921458"><ele>1200.2</ele><time>2026-04-04T14:46:03.993Z</time></trkpt><trkpt lat="46.183929698780965" lon="9.811200098155641"><ele>1197.4</ele><time>2026-04-04T14:46:04.993Z</time></trkpt><trkpt lat="46.18397302435712" lon="9.811393800232034"><ele>1194.6000000000001</ele><time>2026-04-04T14:46:06.993Z</time></trkpt><trkpt lat="46.18395599950039" lon="9.81154776695169"><ele>1191.8</ele><time>2026-04-04T14:46:07.993Z</time></trkpt><trkpt lat="46.18393949445287" lon="9.811671416571526"><ele>1189.0</ele><time>2026-04-04T14:46:08.993Z</time></trkpt><trkpt lat="46.183908849939364" lon="9.811797148184334"><ele>1186.2</ele><time>2026-04-04T14:46:09.993Z</time></trkpt><trkpt lat="46.18389832111992" lon="9.811903542684016"><ele>1183.4</ele><time>2026-04-04T14:46:10.993Z</time></trkpt><trkpt lat="46.183917881530135" lon="9.812004918896593"><ele>1180.6</ele><time>2026-04-04T14:46:11.993Z</time></trkpt><trkpt lat="46.18393238309702" lon="9.812126219036044"><ele>1177.8</ele><time>2026-04-04T14:46:12.992Z</time></trkpt><trkpt lat="46.183960785237346" lon="9.812302025424843"><ele>1175.0</ele><time>2026-04-04T14:46:13.992Z</time></trkpt><trkpt lat="46.183957591529456" lon="9.81247665631864"><ele>1173.25</ele><time>2026-04-04T14:46:14.992Z</time></trkpt><trkpt lat="46.18393656362612" lon="9.812662093858926"><ele>1171.5</ele><time>2026-04-04T14:46:15.992Z</time></trkpt><trkpt lat="46.183922770601264" lon="9.81282520385695"><ele>1169.75</ele><time>2026-04-04T14:46:16.992Z</time></trkpt><trkpt lat="46.18393321822406" lon="9.812963862055586"><ele>1168.0</ele><time>2026-04-04T14:46:17.992Z</time></trkpt><trkpt lat="46.183947411256426" lon="9.813134368844938"><ele>1168.0</ele><time>2026-04-04T14:46:18.992Z</time></trkpt><trkpt lat="46.18394862957966" lon="9.813283167847533"><ele>1168.0</ele><time>2026-04-04T14:46:19.992Z</time></trkpt><trkpt lat="46.1839201389107" lon="9.813414964000755"><ele>1168.0</ele><time>2026-04-04T14:46:20.992Z</time></trkpt><trkpt lat="46.18389605869402" lon="9.813518915337065"><ele>1168.0</ele><time>2026-04-04T14:46:21.992Z</time></trkpt><trkpt lat="46.18384956867339" lon="9.813680994388083"><ele>1168.0</ele><time>2026-04-04T14:46:22.992Z</time></trkpt><trkpt lat="46.183872577371524" lon="9.813840934321336"><ele>1167.6</ele><time>2026-04-04T14:46:23.992Z</time></trkpt><trkpt lat="46.183892202997825" lon="9.814010787903424"><ele>1167.1999999999998</ele><time>2026-04-04T14:46:24.992Z</time></trkpt><trkpt lat="46.18391634763885" lon="9.814155980533378"><ele>1166.8</ele><time>2026-04-04T14:46:25.992Z</time></trkpt><trkpt lat="46.18394333646982" lon="9.81429115218529"><ele>1166.3999999999999</ele><time>2026-04-04T14:46:26.992Z</time></trkpt><trkpt lat="46.18397117537666" lon="9.814408615796564"><ele>1166.0</ele><time>2026-04-04T14:46:27.992Z</time></trkpt><trkpt lat="46.183956397265916" lon="9.814513283608179"><ele>1165.3999999999999</ele><time>2026-04-04T14:46:28.992Z</time></trkpt><trkpt lat="46.18393399496659" lon="9.814648420298866"><ele>1164.8</ele><time>2026-04-04T14:46:29.992Z</time></trkpt><trkpt lat="46.18392987857455" lon="9.814794724590023"><ele>1164.1999999999998</ele><time>2026-04-04T14:46:30.992Z</time></trkpt><trkpt lat="46.183928643440744" lon="9.814940362900339"><ele>1163.6</ele><time>2026-04-04T14:46:31.992Z</time></trkpt><trkpt lat="46.18391686603312" lon="9.815094237738942"><ele>1163.0</ele><time>2026-04-04T14:46:32.992Z</time></trkpt><trkpt lat="46.18391985514422" lon="9.815255494486912"><ele>1160.5</ele><time>2026-04-04T14:46:33.992Z</time></trkpt><trkpt lat="46.18391716731265" lon="9.815433355809763"><ele>1158.0</ele><time>2026-04-04T14:46:34.992Z</time></trkpt><trkpt lat="46.183921341639774" lon="9.81560717870964"><ele>1155.5</ele><time>2026-04-04T14:46:35.992Z</time></trkpt><trkpt lat="46.18393104054787" lon="9.815804399727012"><ele>1153.0</ele><time>2026-04-04T14:46:36.992Z</time></trkpt><trkpt lat="46.18395895538629" lon="9.816019622932012"><ele>1150.75</ele><time>2026-04-04T14:46:37.992Z</time></trkpt><trkpt lat="46.183972680869395" lon="9.816188476604301"><ele>1148.5</ele><time>2026-04-04T14:46:38.992Z</time></trkpt><trkpt lat="46.18397005366676" lon="9.816354360766043"><ele>1146.25</ele><time>2026-04-04T14:46:39.992Z</time></trkpt><trkpt lat="46.183990501332964" lon="9.816522955792841"><ele>1144.0</ele><time>2026-04-04T14:46:40.992Z</time></trkpt><trkpt lat="46.184013626646134" lon="9.81667411713839"><ele>1142.5</ele><time>2026-04-04T14:46:41.992Z</time></trkpt><trkpt lat="46.1840194164701" lon="9.816839467455221"><ele>1141.0</ele><time>2026-04-04T14:46:42.992Z</time></trkpt><trkpt lat="46.18400003625543" lon="9.817007654281264"><ele>1139.5</ele><time>2026-04-04T14:46:43.992Z</time></trkpt><trkpt lat="46.18398931524111" lon="9.81717747376149"><ele>1138.0</ele><time>2026-04-04T14:46:44.992Z</time></trkpt><trkpt lat="46.18397803200748" lon="9.817340725815198"><ele>1138.0</ele><time>2026-04-04T14:46:45.992Z</time></trkpt><trkpt lat="46.18397575218069" lon="9.817513034192642"><ele>1138.0</ele><time>2026-04-04T14:46:46.992Z</time></trkpt><trkpt lat="46.18397049271898" lon="9.817674792977959"><ele>1138.0</ele><time>2026-04-04T14:46:47.992Z</time></trkpt><trkpt lat="46.18396164138821" lon="9.817869164033022"><ele>1138.0</ele><time>2026-04-04T14:46:48.992Z</time></trkpt><trkpt lat="46.18395053072779" lon="9.818022477948595"><ele>1137.2</ele><time>2026-04-04T14:46:49.992Z</time></trkpt><trkpt lat="46.18396753790428" lon="9.818181881671185"><ele>1136.4</ele><time>2026-04-04T14:46:50.992Z</time></trkpt><trkpt lat="46.183982969146314" lon="9.818313143837816"><ele>1135.6000000000001</ele><time>2026-04-04T14:46:51.992Z</time></trkpt><trkpt lat="46.184025584078015" lon="9.8183804176195"><ele>1134.8</ele><time>2026-04-04T14:46:52.992Z</time></trkpt><trkpt lat="46.18404158248038" lon="9.81851888395472"><ele>1134.0</ele><time>2026-04-04T14:46:53.992Z</time></trkpt><trkpt lat="46.18402572068219" lon="9.818644516943317"><ele>1135.8</ele><time>2026-04-04T14:46:54.992Z</time></trkpt><trkpt lat="46.1839850040321" lon="9.818788199441713"><ele>1137.6000000000001</ele><time>2026-04-04T14:46:55.992Z</time></trkpt><trkpt lat="46.183931420251895" lon="9.818920013205307"><ele>1139.4</ele><time>2026-04-04T14:46:56.992Z</time></trkpt><trkpt lat="46.18387370766351" lon="9.819040357129122"><ele>1141.2</ele><time>2026-04-04T14:46:57.992Z</time></trkpt><trkpt lat="46.18381714602217" lon="9.819144173995063"><ele>1143.0</ele><time>2026-04-04T14:46:58.992Z</time></trkpt><trkpt lat="46.18376516143683" lon="9.819252102863778"><ele>1147.0</ele><time>2026-04-04T14:46:59.992Z</time></trkpt><trkpt lat="46.1836901818036" lon="9.819356571909402"><ele>1151.0</ele><time>2026-04-04T14:47:00.992Z</time></trkpt><trkpt lat="46.18358468162942" lon="9.819472784535721"><ele>1155.0</ele><time>2026-04-04T14:47:01.992Z</time></trkpt><trkpt lat="46.18350456988933" lon="9.819605838600886"><ele>1159.0</ele><time>2026-04-04T14:47:02.992Z</time></trkpt><trkpt lat="46.1834496500543" lon="9.81973315811463"><ele>1159.0</ele><time>2026-04-04T14:47:03.992Z</time></trkpt><trkpt lat="46.1833939141202" lon="9.819847688852617"><ele>1159.0</ele><time>2026-04-04T14:47:04.992Z</time></trkpt><trkpt lat="46.183360024717096" lon="9.81999091362933"><ele>1159.0</ele><time>2026-04-04T14:47:05.992Z</time></trkpt><trkpt lat="46.183323547460844" lon="9.820153478690722"><ele>1159.0</ele><time>2026-04-04T14:47:06.992Z</time></trkpt><trkpt lat="46.18327735128441" lon="9.820325176153371"><ele>1159.0</ele><time>2026-04-04T14:47:07.992Z</time></trkpt><trkpt lat="46.1832319729763" lon="9.82047611952231"><ele>1159.2</ele><time>2026-04-04T14:47:08.992Z</time></trkpt><trkpt lat="46.18319509218191" lon="9.820622896740003"><ele>1159.4</ele><time>2026-04-04T14:47:09.992Z</time></trkpt><trkpt lat="46.18318534319242" lon="9.820778143611017"><ele>1159.6</ele><time>2026-04-04T14:47:10.992Z</time></trkpt><trkpt lat="46.1831937080784" lon="9.82090576751761"><ele>1159.8</ele><time>2026-04-04T14:47:11.992Z</time></trkpt><trkpt lat="46.18323314504759" lon="9.821047099555322"><ele>1160.0</ele><time>2026-04-04T14:47:12.992Z</time></trkpt><trkpt lat="46.183298544977966" lon="9.821185412914122"><ele>1160.0</ele><time>2026-04-04T14:47:13.992Z</time></trkpt><trkpt lat="46.18333503433958" lon="9.821325056095183"><ele>1160.0</ele><time>2026-04-04T14:47:14.992Z</time></trkpt><trkpt lat="46.18335674311351" lon="9.821466764327662"><ele>1160.0</ele><time>2026-04-04T14:47:15.992Z</time></trkpt><trkpt lat="46.18334502291975" lon="9.82170008405136"><ele>1160.0</ele><time>2026-04-04T14:47:16.992Z</time></trkpt><trkpt lat="46.18333835410191" lon="9.82189775973568"><ele>1158.0</ele><time>2026-04-04T14:47:17.992Z</time></trkpt><trkpt lat="46.18334430593082" lon="9.822071914729358"><ele>1156.0</ele><time>2026-04-04T14:47:18.992Z</time></trkpt><trkpt lat="46.18335702126642" lon="9.822232901188032"><ele>1154.0</ele><time>2026-04-04T14:47:19.992Z</time></trkpt><trkpt lat="46.18337851013988" lon="9.82240681468108"><ele>1152.0</ele><time>2026-04-04T14:47:20.992Z</time></trkpt><trkpt lat="46.183385052329704" lon="9.822572329161881"><ele>1151.5</ele><time>2026-04-04T14:47:21.992Z</time></trkpt><trkpt lat="46.18336273882455" lon="9.822767935920151"><ele>1151.0</ele><time>2026-04-04T14:47:22.992Z</time></trkpt><trkpt lat="46.183332186981545" lon="9.822976585183724"><ele>1150.5</ele><time>2026-04-04T14:47:23.992Z</time></trkpt><trkpt lat="46.18329412376496" lon="9.823134301779136"><ele>1150.0</ele><time>2026-04-04T14:47:24.992Z</time></trkpt><trkpt lat="46.18326027661428" lon="9.82328137791722"><ele>1150.0</ele><time>2026-04-04T14:47:25.992Z</time></trkpt><trkpt lat="46.18323034721366" lon="9.823394055559474"><ele>1150.0</ele><time>2026-04-04T14:47:26.992Z</time></trkpt><trkpt lat="46.18321944440204" lon="9.823546192777258"><ele>1150.0</ele><time>2026-04-04T14:47:27.992Z</time></trkpt><trkpt lat="46.18323756789011" lon="9.823667446905857"><ele>1150.0</ele><time>2026-04-04T14:47:28.992Z</time></trkpt><trkpt lat="46.18326295420432" lon="9.82386721601533"><ele>1150.0</ele><time>2026-04-04T14:47:29.992Z</time></trkpt><trkpt lat="46.18328646051196" lon="9.824048146553462"><ele>1150.0</ele><time>2026-04-04T14:47:30.992Z</time></trkpt><trkpt lat="46.18332031932248" lon="9.824207718365859"><ele>1150.0</ele><time>2026-04-04T14:47:31.992Z</time></trkpt><trkpt lat="46.18332502869925" lon="9.824375269540731"><ele>1150.0</ele><time>2026-04-04T14:47:32.992Z</time></trkpt><trkpt lat="46.18334680800067" lon="9.824528742379297"><ele>1150.0</ele><time>2026-04-04T14:47:33.992Z</time></trkpt><trkpt lat="46.18337992704973" lon="9.824678146968896"><ele>1150.0</ele><time>2026-04-04T14:47:34.992Z</time></trkpt><trkpt lat="46.18338817855281" lon="9.824841733140886"><ele>1147.8</ele><time>2026-04-04T14:47:35.992Z</time></trkpt><trkpt lat="46.18345853871291" lon="9.824961539080531"><ele>1145.6</ele><time>2026-04-04T14:47:36.992Z</time></trkpt><trkpt lat="46.18349241702019" lon="9.825124717753827"><ele>1143.4</ele><time>2026-04-04T14:47:37.992Z</time></trkpt><trkpt lat="46.18352728976051" lon="9.825271479325453"><ele>1141.2</ele><time>2026-04-04T14:47:38.992Z</time></trkpt><trkpt lat="46.18352288765551" lon="9.825385983106052"><ele>1139.0</ele><time>2026-04-04T14:47:39.992Z</time></trkpt><trkpt lat="46.18347015302406" lon="9.825511810420515"><ele>1139.0</ele><time>2026-04-04T14:47:40.992Z</time></trkpt><trkpt lat="46.183431116520744" lon="9.825642382372363"><ele>1139.0</ele><time>2026-04-04T14:47:41.992Z</time></trkpt><trkpt lat="46.18339297426964" lon="9.825810053983275"><ele>1139.0</ele><time>2026-04-04T14:47:42.992Z</time></trkpt><trkpt lat="46.18337266974118" lon="9.825992903643295"><ele>1139.0</ele><time>2026-04-04T14:47:43.992Z</time></trkpt><trkpt lat="46.18334775474213" lon="9.826185994174883"><ele>1140.75</ele><time>2026-04-04T14:47:44.992Z</time></trkpt><trkpt lat="46.183304406832626" lon="9.826402682640731"><ele>1142.5</ele><time>2026-04-04T14:47:45.992Z</time></trkpt><trkpt lat="46.183300645239" lon="9.826575620511973"><ele>1144.25</ele><time>2026-04-04T14:47:46.992Z</time></trkpt><trkpt lat="46.18327726148279" lon="9.82674245168499"><ele>1146.0</ele><time>2026-04-04T14:47:47.992Z</time></trkpt><trkpt lat="46.18326171833951" lon="9.826905793657401"><ele>1147.3999999999999</ele><time>2026-04-04T14:47:48.992Z</time></trkpt><trkpt lat="46.1832385810899" lon="9.827063837582157"><ele>1148.8</ele><time>2026-04-04T14:47:49.992Z</time></trkpt><trkpt lat="46.18321616492522" lon="9.827229555233298"><ele>1150.1999999999998</ele><time>2026-04-04T14:47:50.992Z</time></trkpt><trkpt lat="46.18319398563481" lon="9.827336635679517"><ele>1151.6</ele><time>2026-04-04T14:47:51.992Z</time></trkpt><trkpt lat="46.183159743311435" lon="9.827459661551146"><ele>1153.0</ele><time>2026-04-04T14:47:52.992Z</time></trkpt><trkpt lat="46.183144354756365" lon="9.827621714479106"><ele>1146.0</ele><time>2026-04-04T14:47:53.992Z</time></trkpt><trkpt lat="46.18311618446143" lon="9.8277535642348"><ele>1139.0</ele><time>2026-04-04T14:47:54.992Z</time></trkpt><trkpt lat="46.18308557117565" lon="9.827920385475757"><ele>1132.0</ele><time>2026-04-04T14:47:55.992Z</time></trkpt><trkpt lat="46.183048219970715" lon="9.82805957050952"><ele>1125.0</ele><time>2026-04-04T14:47:56.992Z</time></trkpt><trkpt lat="46.18301414572614" lon="9.828164790544932"><ele>1118.0</ele><time>2026-04-04T14:47:57.992Z</time></trkpt><trkpt lat="46.18298913423648" lon="9.828249237980895"><ele>1118.0</ele><time>2026-04-04T14:47:58.992Z</time></trkpt><trkpt lat="46.18294928317963" lon="9.828331342757794"><ele>1118.0</ele><time>2026-04-04T14:47:59.992Z</time></trkpt><trkpt lat="46.18291022355771" lon="9.82841578625326"><ele>1118.0</ele><time>2026-04-04T14:48:00.992Z</time></trkpt><trkpt lat="46.182883248979635" lon="9.828554021610278"><ele>1118.0</ele><time>2026-04-04T14:48:01.992Z</time></trkpt><trkpt lat="46.18287865167871" lon="9.828720862137565"><ele>1118.0</ele><time>2026-04-04T14:48:02.992Z</time></trkpt><trkpt lat="46.182867874965126" lon="9.82888935467973"><ele>1119.25</ele><time>2026-04-04T14:48:03.992Z</time></trkpt><trkpt lat="46.18285669898242" lon="9.829087351107043"><ele>1120.5</ele><time>2026-04-04T14:48:04.992Z</time></trkpt><trkpt lat="46.182850394174444" lon="9.8292892961186"><ele>1121.75</ele><time>2026-04-04T14:48:05.992Z</time></trkpt><trkpt lat="46.18284360331326" lon="9.829477078328978"><ele>1123.0</ele><time>2026-04-04T14:48:06.992Z</time></trkpt><trkpt lat="46.18284266388302" lon="9.82965357230683"><ele>1123.8</ele><time>2026-04-04T14:48:07.992Z</time></trkpt><trkpt lat="46.18283759364976" lon="9.82981816371802"><ele>1124.6</ele><time>2026-04-04T14:48:08.992Z</time></trkpt><trkpt lat="46.182814065903436" lon="9.829970516319658"><ele>1125.4</ele><time>2026-04-04T14:48:09.992Z</time></trkpt><trkpt lat="46.1827870868967" lon="9.830115164360393"><ele>1126.2</ele><time>2026-04-04T14:48:10.992Z</time></trkpt><trkpt lat="46.18277153040689" lon="9.830214429306222"><ele>1127.0</ele><time>2026-04-04T14:48:11.992Z</time></trkpt><trkpt lat="46.18274549991806" lon="9.830309579201524"><ele>1127.8333333333335</ele><time>2026-04-04T14:48:12.992Z</time></trkpt><trkpt lat="46.18273606649657" lon="9.83040311018799"><ele>1128.6666666666667</ele><time>2026-04-04T14:48:13.991Z</time></trkpt><trkpt lat="46.18271953083127" lon="9.830497882369363"><ele>1129.5</ele><time>2026-04-04T14:48:14.991Z</time></trkpt><trkpt lat="46.1826525606194" lon="9.830606949634838"><ele>1130.3333333333333</ele><time>2026-04-04T14:48:16.991Z</time></trkpt><trkpt lat="46.18261603059929" lon="9.830703529284714"><ele>1131.1666666666665</ele><time>2026-04-04T14:48:18.991Z</time></trkpt><trkpt lat="46.18256854898779" lon="9.830796107278239"><ele>1132.0</ele><time>2026-04-04T14:48:20.991Z</time></trkpt><trkpt lat="46.18255656299177" lon="9.830894775494388"><ele>1132.0</ele><time>2026-04-04T14:48:22.991Z</time></trkpt><trkpt lat="46.18251796333158" lon="9.830983208136477"><ele>1132.0</ele><time>2026-04-04T14:48:24.991Z</time></trkpt><trkpt lat="46.18244986776953" lon="9.830972981296977"><ele>1132.0</ele><time>2026-04-04T14:48:30.991Z</time></trkpt><trkpt lat="46.18237168856027" lon="9.831017113169477"><ele>1132.0</ele><time>2026-04-04T14:48:33.991Z</time></trkpt><trkpt lat="46.182292939514554" lon="9.830992087225923"><ele>1132.0</ele><time>2026-04-04T14:48:35.991Z</time></trkpt><trkpt lat="46.18223207119081" lon="9.830939536232625"><ele>1132.0</ele><time>2026-04-04T14:48:37.991Z</time></trkpt><trkpt lat="46.18222496171689" lon="9.830817485332261"><ele>1125.8333333333333</ele><time>2026-04-04T14:48:40.991Z</time></trkpt><trkpt lat="46.18222559892229" lon="9.830725828845642"><ele>1119.6666666666665</ele><time>2026-04-04T14:48:44.991Z</time></trkpt><trkpt lat="46.18214087738171" lon="9.830752544990089"><ele>1113.5</ele><time>2026-04-04T14:48:46.991Z</time></trkpt><trkpt lat="46.18208602475893" lon="9.830806512208133"><ele>1107.3333333333333</ele><time>2026-04-04T14:48:49.991Z</time></trkpt><trkpt lat="46.18205585466728" lon="9.830659847932782"><ele>1101.1666666666667</ele><time>2026-04-04T14:48:51.991Z</time></trkpt><trkpt lat="46.1820281063602" lon="9.83049412216871"><ele>1095.0</ele><time>2026-04-04T14:48:52.991Z</time></trkpt><trkpt lat="46.18198975486076" lon="9.830334357661545"><ele>1095.0</ele><time>2026-04-04T14:48:53.991Z</time></trkpt><trkpt lat="46.181966496400605" lon="9.830169547907142"><ele>1095.0</ele><time>2026-04-04T14:48:54.991Z</time></trkpt><trkpt lat="46.181939104581964" lon="9.829987166389591"><ele>1095.0</ele><time>2026-04-04T14:48:55.991Z</time></trkpt><trkpt lat="46.181945236084054" lon="9.829793450916705"><ele>1095.0</ele><time>2026-04-04T14:48:56.991Z</time></trkpt><trkpt lat="46.18199657141908" lon="9.829644014923037"><ele>1094.0</ele><time>2026-04-04T14:48:57.991Z</time></trkpt><trkpt lat="46.18200926502609" lon="9.829484632638305"><ele>1093.0</ele><time>2026-04-04T14:48:58.991Z</time></trkpt><trkpt lat="46.1820285094607" lon="9.829343799486812"><ele>1092.0</ele><time>2026-04-04T14:48:59.991Z</time></trkpt><trkpt lat="46.18201903365654" lon="9.829224206968433"><ele>1091.0</ele><time>2026-04-04T14:49:00.991Z</time></trkpt><trkpt lat="46.18198027801406" lon="9.829132420532424"><ele>1090.0</ele><time>2026-04-04T14:49:01.991Z</time></trkpt><trkpt lat="46.18193712313502" lon="9.829039644130646"><ele>1089.0</ele><time>2026-04-04T14:49:02.991Z</time></trkpt><trkpt lat="46.18183279658679" lon="9.829028787210692"><ele>1089.0</ele><time>2026-04-04T14:49:04.991Z</time></trkpt><trkpt lat="46.181773153006475" lon="9.829089036711236"><ele>1089.0</ele><time>2026-04-04T14:49:05.991Z</time></trkpt><trkpt lat="46.181740071113275" lon="9.8291779153413"><ele>1089.0</ele><time>2026-04-04T14:49:06.991Z</time></trkpt><trkpt lat="46.1817098795649" lon="9.829331188997498"><ele>1089.0</ele><time>2026-04-04T14:49:08.991Z</time></trkpt><trkpt lat="46.181615645680424" lon="9.829466467898506"><ele>1089.0</ele><time>2026-04-04T14:49:10.991Z</time></trkpt><trkpt lat="46.18156645746175" lon="9.829528273212997"><ele>1089.0</ele><time>2026-04-04T14:49:11.991Z</time></trkpt><trkpt lat="46.18154143872032" lon="9.829635065507775"><ele>1089.0</ele><time>2026-04-04T14:49:12.991Z</time></trkpt><trkpt lat="46.18149303843676" lon="9.829801873498232"><ele>1089.0</ele><time>2026-04-04T14:49:14.991Z</time></trkpt><trkpt lat="46.181429918421706" lon="9.829908457582302"><ele>1089.0</ele><time>2026-04-04T14:49:16.991Z</time></trkpt><trkpt lat="46.18141473594029" lon="9.830018442002872"><ele>1089.0</ele><time>2026-04-04T14:49:18.991Z</time></trkpt><trkpt lat="46.181409419511404" lon="9.830127912973934"><ele>1082.5</ele><time>2026-04-04T14:49:19.991Z</time></trkpt><trkpt lat="46.181408942116995" lon="9.8302608684139"><ele>1076.0</ele><time>2026-04-04T14:49:21.991Z</time></trkpt><trkpt lat="46.181394271633444" lon="9.830376318759125"><ele>1069.5</ele><time>2026-04-04T14:49:22.991Z</time></trkpt><trkpt lat="46.181380036650964" lon="9.830481061115082"><ele>1063.0</ele><time>2026-04-04T14:49:23.991Z</time></trkpt><trkpt lat="46.181329489809116" lon="9.83055762908448"><ele>1056.5</ele><time>2026-04-04T14:49:24.991Z</time></trkpt><trkpt lat="46.1812868370482" lon="9.830645265776655"><ele>1050.0</ele><time>2026-04-04T14:49:25.991Z</time></trkpt><trkpt lat="46.18124253498913" lon="9.830754524444384"><ele>1050.0</ele><time>2026-04-04T14:49:26.991Z</time></trkpt><trkpt lat="46.18120581188439" lon="9.830852070620029"><ele>1050.0</ele><time>2026-04-04T14:49:27.991Z</time></trkpt><trkpt lat="46.18116724344864" lon="9.83094653720912"><ele>1050.0</ele><time>2026-04-04T14:49:28.991Z</time></trkpt><trkpt lat="46.18111411031195" lon="9.831020849062329"><ele>1050.0</ele><time>2026-04-04T14:49:29.991Z</time></trkpt><trkpt lat="46.181018531892974" lon="9.831102232237198"><ele>1050.0</ele><time>2026-04-04T14:49:31.991Z</time></trkpt><trkpt lat="46.18098119171701" lon="9.831265480287316"><ele>1051.5</ele><time>2026-04-04T14:49:33.991Z</time></trkpt><trkpt lat="46.18097096255829" lon="9.831361768218601"><ele>1053.0</ele><time>2026-04-04T14:49:34.991Z</time></trkpt><trkpt lat="46.180934625188044" lon="9.831496311507944"><ele>1054.5</ele><time>2026-04-04T14:49:36.991Z</time></trkpt><trkpt lat="46.18090274998075" lon="9.831601249376307"><ele>1056.0</ele><time>2026-04-04T14:49:38.991Z</time></trkpt><trkpt lat="46.18088314103941" lon="9.831724099922157"><ele>1057.5</ele><time>2026-04-04T14:49:40.991Z</time></trkpt><trkpt lat="46.180852624025356" lon="9.831811782951274"><ele>1059.0</ele><time>2026-04-04T14:49:41.991Z</time></trkpt><trkpt lat="46.18081046207916" lon="9.831909770308041"><ele>1061.8</ele><time>2026-04-04T14:49:42.991Z</time></trkpt><trkpt lat="46.180752424126155" lon="9.832076179231917"><ele>1064.6000000000001</ele><time>2026-04-04T14:49:44.991Z</time></trkpt><trkpt lat="46.180712478668305" lon="9.83218942388125"><ele>1067.4</ele><time>2026-04-04T14:49:45.991Z</time></trkpt><trkpt lat="46.180682428334634" lon="9.832276128982494"><ele>1070.2</ele><time>2026-04-04T14:49:46.991Z</time></trkpt><trkpt lat="46.180666653528036" lon="9.832438088341721"><ele>1073.0</ele><time>2026-04-04T14:49:48.991Z</time></trkpt><trkpt lat="46.18064099765452" lon="9.832532311087085"><ele>1066.4285714285713</ele><time>2026-04-04T14:49:49.991Z</time></trkpt><trkpt lat="46.180598780060905" lon="9.832623851833361"><ele>1059.8571428571427</ele><time>2026-04-04T14:49:50.991Z</time></trkpt><trkpt lat="46.18055759938533" lon="9.832733697251003"><ele>1053.2857142857142</ele><time>2026-04-04T14:49:51.991Z</time></trkpt><trkpt lat="46.180517046726365" lon="9.832819749906857"><ele>1046.7142857142858</ele><time>2026-04-04T14:49:52.991Z</time></trkpt><trkpt lat="46.180468584762785" lon="9.83288971593128"><ele>1040.1428571428573</ele><time>2026-04-04T14:49:53.991Z</time></trkpt><trkpt lat="46.18042912370093" lon="9.832965931592858"><ele>1033.5714285714287</ele><time>2026-04-04T14:49:54.991Z</time></trkpt><trkpt lat="46.1803964432618" lon="9.833052627156416"><ele>1027.0</ele><time>2026-04-04T14:49:55.991Z</time></trkpt><trkpt lat="46.18039992154929" lon="9.83318959914977"><ele>1027.0</ele><time>2026-04-04T14:49:56.991Z</time></trkpt><trkpt lat="46.180419827494646" lon="9.833323117440194"><ele>1027.0</ele><time>2026-04-04T14:49:57.991Z</time></trkpt><trkpt lat="46.18041852256189" lon="9.833471673332243"><ele>1027.0</ele><time>2026-04-04T14:49:58.991Z</time></trkpt><trkpt lat="46.18040967437667" lon="9.83361498618099"><ele>1027.0</ele><time>2026-04-04T14:49:59.991Z</time></trkpt><trkpt lat="46.180369229288644" lon="9.833778423534335"><ele>1027.0</ele><time>2026-04-04T14:50:01.991Z</time></trkpt><trkpt lat="46.18033217853305" lon="9.833884353486312"><ele>1027.5</ele><time>2026-04-04T14:50:04.991Z</time></trkpt><trkpt lat="46.18031039162553" lon="9.833993355155288"><ele>1028.0</ele><time>2026-04-04T14:50:06.991Z</time></trkpt><trkpt lat="46.180236769496645" lon="9.834106397078196"><ele>1028.5</ele><time>2026-04-04T14:50:08.991Z</time></trkpt><trkpt lat="46.180189564763296" lon="9.834210483035655"><ele>1029.0</ele><time>2026-04-04T14:50:10.991Z</time></trkpt><trkpt lat="46.18012986879069" lon="9.834279994212126"><ele>1029.5</ele><time>2026-04-04T14:50:12.991Z</time></trkpt><trkpt lat="46.180061189806366" lon="9.834282833255223"><ele>1030.0</ele><time>2026-04-04T14:50:15.99Z</time></trkpt><trkpt lat="46.180102120232334" lon="9.834166440472336"><ele>1030.0</ele><time>2026-04-04T14:50:17.99Z</time></trkpt><trkpt lat="46.180139068813496" lon="9.834002358025357"><ele>1030.0</ele><time>2026-04-04T14:50:18.99Z</time></trkpt><trkpt lat="46.180119162568154" lon="9.833895035837818"><ele>1030.0</ele><time>2026-04-04T14:50:19.99Z</time></trkpt><trkpt lat="46.180060545304286" lon="9.833762295382092"><ele>1030.0</ele><time>2026-04-04T14:50:21.99Z</time></trkpt><trkpt lat="46.180018231551024" lon="9.833677439196174"><ele>1030.0</ele><time>2026-04-04T14:50:22.99Z</time></trkpt><trkpt lat="46.17997164639783" lon="9.833593903724362"><ele>1030.0</ele><time>2026-04-04T14:50:23.99Z</time></trkpt><trkpt lat="46.179932178141264" lon="9.83350549148707"><ele>1030.0</ele><time>2026-04-04T14:50:24.99Z</time></trkpt><trkpt lat="46.179878739622964" lon="9.83342415413006"><ele>1030.0</ele><time>2026-04-04T14:50:26.99Z</time></trkpt><trkpt lat="46.17981382946052" lon="9.83335982558826"><ele>1030.0</ele><time>2026-04-04T14:50:28.99Z</time></trkpt><trkpt lat="46.17976752869047" lon="9.833185834277822"><ele>1030.0</ele><time>2026-04-04T14:50:30.99Z</time></trkpt><trkpt lat="46.1797562723472" lon="9.833074145129673"><ele>1030.0</ele><time>2026-04-04T14:50:32.99Z</time></trkpt><trkpt lat="46.179732781117885" lon="9.832954441446752"><ele>1022.1666666666666</ele><time>2026-04-04T14:50:35.99Z</time></trkpt><trkpt lat="46.17969681366084" lon="9.832854917320347"><ele>1014.3333333333333</ele><time>2026-04-04T14:50:37.99Z</time></trkpt><trkpt lat="46.179709792229524" lon="9.832754644826682"><ele>1006.5</ele><time>2026-04-04T14:50:40.99Z</time></trkpt><trkpt lat="46.17969423517512" lon="9.832651034529112"><ele>998.6666666666667</ele><time>2026-04-04T14:50:49.99Z</time></trkpt><trkpt lat="46.17963199368165" lon="9.832532669878336"><ele>990.8333333333334</ele><time>2026-04-04T14:51:27.999Z</time></trkpt><trkpt lat="46.17965205162111" lon="9.832649115476213"><ele>983.0</ele><time>2026-04-04T14:51:53.999Z</time></trkpt><trkpt lat="46.17964881394292" lon="9.832749664562972"><ele>983.0000000000001</ele><time>2026-04-04T14:51:55.999Z</time></trkpt><trkpt lat="46.17968709652882" lon="9.832857542781305"><ele>983.0</ele><time>2026-04-04T14:51:59Z</time></trkpt><trkpt lat="46.17969965401067" lon="9.832961474820296"><ele>983.0</ele><time>2026-04-04T14:52:01Z</time></trkpt><trkpt lat="46.179708876044344" lon="9.833110141727055"><ele>983.0</ele><time>2026-04-04T14:52:04.001Z</time></trkpt><trkpt lat="46.179709693512024" lon="9.833201845173498"><ele>983.0000000000001</ele><time>2026-04-04T14:52:05.001Z</time></trkpt><trkpt lat="46.179751794506835" lon="9.83328205568322"><ele>983.0</ele><time>2026-04-04T14:52:07Z</time></trkpt><trkpt lat="46.17982122909846" lon="9.833330928767001"><ele>990.3333333333334</ele><time>2026-04-04T14:52:09.001Z</time></trkpt><trkpt lat="46.17987123171967" lon="9.833407058676304"><ele>997.6666666666667</ele><time>2026-04-04T14:52:11Z</time></trkpt><trkpt lat="46.17989761116753" lon="9.833549885081782"><ele>1005.0</ele><time>2026-04-04T14:52:13Z</time></trkpt><trkpt lat="46.17994254246366" lon="9.833644782741368"><ele>1012.3333333333333</ele><time>2026-04-04T14:52:14Z</time></trkpt><trkpt lat="46.17999072732438" lon="9.833743688810802"><ele>1019.6666666666666</ele><time>2026-04-04T14:52:15Z</time></trkpt><trkpt lat="46.180024459300945" lon="9.833851942844282"><ele>1027.0</ele><time>2026-04-04T14:52:16Z</time></trkpt><trkpt lat="46.18000805550454" lon="9.8340007110509"><ele>1027.5</ele><time>2026-04-04T14:52:18Z</time></trkpt><trkpt lat="46.180008517529636" lon="9.834105135025316"><ele>1028.0</ele><time>2026-04-04T14:52:20Z</time></trkpt><trkpt lat="46.179943083416674" lon="9.834138644901797"><ele>1028.5</ele><time>2026-04-04T14:52:48.999Z</time></trkpt><trkpt lat="46.179877468134265" lon="9.834108750665749"><ele>1029.0</ele><time>2026-04-04T14:52:50.999Z</time></trkpt><trkpt lat="46.179775762254295" lon="9.834078815548766"><ele>1029.5</ele><time>2026-04-04T14:52:53.999Z</time></trkpt><trkpt lat="46.17970369126718" lon="9.83405302973808"><ele>1030.0</ele><time>2026-04-04T14:52:54.999Z</time></trkpt><trkpt lat="46.179705488704464" lon="9.833941985513576"><ele>1025.2857142857142</ele><time>2026-04-04T14:52:58.999Z</time></trkpt><trkpt lat="46.1796364509333" lon="9.833933401063476"><ele>1020.5714285714284</ele><time>2026-04-04T14:53:02.999Z</time></trkpt><trkpt lat="46.17955442410889" lon="9.833905314261251"><ele>1015.8571428571428</ele><time>2026-04-04T14:53:09.999Z</time></trkpt><trkpt lat="46.17950298019226" lon="9.833959569203609"><ele>1011.1428571428571</ele><time>2026-04-04T14:53:11.999Z</time></trkpt><trkpt lat="46.179493023091084" lon="9.834071750117477"><ele>1006.4285714285713</ele><time>2026-04-04T14:53:13.999Z</time></trkpt><trkpt lat="46.17947427962649" lon="9.834181559104207"><ele>1001.7142857142856</ele><time>2026-04-04T14:54:03Z</time></trkpt><trkpt lat="46.17945629286846" lon="9.834281964979063"><ele>996.9999999999999</ele><time>2026-04-04T14:54:36Z</time></trkpt><trkpt lat="46.17943759556528" lon="9.834399912813426"><ele>997.0</ele><time>2026-04-04T14:54:42Z</time></trkpt><trkpt lat="46.17943587244573" lon="9.834504739034431"><ele>997.0</ele><time>2026-04-04T14:54:45Z</time></trkpt><trkpt lat="46.17941674679733" lon="9.834650993042185"><ele>997.0</ele><time>2026-04-04T14:54:46.999Z</time></trkpt><trkpt lat="46.179419687010906" lon="9.834786986718012"><ele>997.0</ele><time>2026-04-04T14:54:47.999Z</time></trkpt><trkpt lat="46.1794329206586" lon="9.834953707026045"><ele>997.0</ele><time>2026-04-04T14:54:48.999Z</time></trkpt><trkpt lat="46.17943952851034" lon="9.83513356023457"><ele>996.6</ele><time>2026-04-04T14:54:49.999Z</time></trkpt><trkpt lat="46.179446567513835" lon="9.835306324076964"><ele>996.2</ele><time>2026-04-04T14:54:50.999Z</time></trkpt><trkpt lat="46.1794632999961" lon="9.835433084457167"><ele>995.8</ele><time>2026-04-04T14:54:51.999Z</time></trkpt><trkpt lat="46.179466265662676" lon="9.835530816841134"><ele>995.4</ele><time>2026-04-04T14:54:52.999Z</time></trkpt><trkpt lat="46.17947162495447" lon="9.835655308932132"><ele>995.0</ele><time>2026-04-04T14:54:53.999Z</time></trkpt><trkpt lat="46.179489665919895" lon="9.8357849769913"><ele>995.0000000000001</ele><time>2026-04-04T14:54:54.999Z</time></trkpt><trkpt lat="46.179509837268945" lon="9.835911908631394"><ele>995.0</ele><time>2026-04-04T14:54:55.999Z</time></trkpt><trkpt lat="46.17952184325245" lon="9.836035428815302"><ele>995.0</ele><time>2026-04-04T14:54:56.999Z</time></trkpt><trkpt lat="46.17953563792628" lon="9.836137291745032"><ele>995.0</ele><time>2026-04-04T14:54:57.999Z</time></trkpt><trkpt lat="46.17955837348004" lon="9.836251570122661"><ele>995.0000000000001</ele><time>2026-04-04T14:54:58.999Z</time></trkpt><trkpt lat="46.179581140980915" lon="9.836390245539834"><ele>995.0</ele><time>2026-04-04T14:54:59.999Z</time></trkpt><trkpt lat="46.17961240226848" lon="9.836527075602516"><ele>994.5000000000001</ele><time>2026-04-04T14:55:00.999Z</time></trkpt><trkpt lat="46.17964297303023" lon="9.836649535345568"><ele>994.0</ele><time>2026-04-04T14:55:01.999Z</time></trkpt><trkpt lat="46.17969804671783" lon="9.836746869666575"><ele>993.5</ele><time>2026-04-04T14:55:02.999Z</time></trkpt><trkpt lat="46.17976253395488" lon="9.836799935848836"><ele>993.0</ele><time>2026-04-04T14:55:03.999Z</time></trkpt><trkpt lat="46.179852652062195" lon="9.836820169307723"><ele>992.5000000000001</ele><time>2026-04-04T14:55:04.999Z</time></trkpt><trkpt lat="46.17995011147661" lon="9.836821095394635"><ele>992.0</ele><time>2026-04-04T14:55:05.999Z</time></trkpt><trkpt lat="46.180036557636086" lon="9.83684106687892"><ele>997.5000000000001</ele><time>2026-04-04T14:55:06.999Z</time></trkpt><trkpt lat="46.18010922372023" lon="9.83686269394292"><ele>1003.0</ele><time>2026-04-04T14:55:07.999Z</time></trkpt><trkpt lat="46.18018145129071" lon="9.83684975092574"><ele>1008.5</ele><time>2026-04-04T14:55:08.999Z</time></trkpt><trkpt lat="46.18030282222849" lon="9.836799781858746"><ele>1014.0</ele><time>2026-04-04T14:55:10.999Z</time></trkpt><trkpt lat="46.180366098814716" lon="9.836795125378949"><ele>1019.5000000000001</ele><time>2026-04-04T14:55:11.999Z</time></trkpt><trkpt lat="46.18045836044783" lon="9.836871675465082"><ele>1025.0</ele><time>2026-04-04T14:55:13.999Z</time></trkpt><trkpt lat="46.180474159127805" lon="9.8369971021772"><ele>1025.0</ele><time>2026-04-04T14:55:14.999Z</time></trkpt><trkpt lat="46.18048039212584" lon="9.837127081773312"><ele>1025.0</ele><time>2026-04-04T14:55:15.999Z</time></trkpt><trkpt lat="46.18047910632827" lon="9.837308734202406"><ele>1025.0</ele><time>2026-04-04T14:55:17.999Z</time></trkpt><trkpt lat="46.180516847338474" lon="9.837405390903612"><ele>1025.0</ele><time>2026-04-04T14:55:19.999Z</time></trkpt><trkpt lat="46.18052763263835" lon="9.837539757048283"><ele>1025.0</ele><time>2026-04-04T14:55:21.999Z</time></trkpt><trkpt lat="46.180558047741776" lon="9.837657627598063"><ele>1022.1666666666667</ele><time>2026-04-04T14:55:23.999Z</time></trkpt><trkpt lat="46.18055277369388" lon="9.837789300035114"><ele>1019.3333333333334</ele><time>2026-04-04T14:55:25.999Z</time></trkpt><trkpt lat="46.180494159269465" lon="9.837824136132184"><ele>1016.5</ele><time>2026-04-04T14:55:26.999Z</time></trkpt><trkpt lat="46.18041564480073" lon="9.837798960551913"><ele>1013.6666666666667</ele><time>2026-04-04T14:55:27.999Z</time></trkpt><trkpt lat="46.18034703714827" lon="9.837770062926884"><ele>1010.8333333333334</ele><time>2026-04-04T14:55:28.999Z</time></trkpt><trkpt lat="46.180276760276776" lon="9.83776007630361"><ele>1008.0</ele><time>2026-04-04T14:55:29.999Z</time></trkpt><trkpt lat="46.18019750477304" lon="9.837809174860485"><ele>1008.0</ele><time>2026-04-04T14:55:31.999Z</time></trkpt><trkpt lat="46.180143717347356" lon="9.837856579441087"><ele>1008.0</ele><time>2026-04-04T14:55:34.999Z</time></trkpt><trkpt lat="46.18009363290679" lon="9.837989299692678"><ele>1008.0</ele><time>2026-04-04T14:55:37.999Z</time></trkpt><trkpt lat="46.18000924444094" lon="9.838067113157042"><ele>1008.0</ele><time>2026-04-04T14:55:39.999Z</time></trkpt><trkpt lat="46.17995654164981" lon="9.838127701489814"><ele>1008.0</ele><time>2026-04-04T14:55:40.999Z</time></trkpt><trkpt lat="46.17991610413279" lon="9.83822663412454"><ele>1008.0</ele><time>2026-04-04T14:55:41.999Z</time></trkpt><trkpt lat="46.1798913698242" lon="9.838366005171709"><ele>1005.2</ele><time>2026-04-04T14:55:43.999Z</time></trkpt><trkpt lat="46.17986931119168" lon="9.838478177759052"><ele>1002.4</ele><time>2026-04-04T14:55:45.999Z</time></trkpt><trkpt lat="46.179806074310775" lon="9.838586508741807"><ele>999.6000000000001</ele><time>2026-04-04T14:55:47.999Z</time></trkpt><trkpt lat="46.17975979608633" lon="9.838715958345933"><ele>996.8000000000001</ele><time>2026-04-04T14:55:49.999Z</time></trkpt><trkpt lat="46.179712535395005" lon="9.838850661140421"><ele>994.0</ele><time>2026-04-04T14:55:51.999Z</time></trkpt><trkpt lat="46.17968168347461" lon="9.83897812298357"><ele>988.2</ele><time>2026-04-04T14:55:55.999Z</time></trkpt><trkpt lat="46.17971197679751" lon="9.839169150779117"><ele>982.4000000000001</ele><time>2026-04-04T14:55:57.999Z</time></trkpt><trkpt lat="46.17971988778432" lon="9.839264731554723"><ele>976.6</ele><time>2026-04-04T14:55:58.999Z</time></trkpt><trkpt lat="46.17971957206447" lon="9.839390715612874"><ele>970.8</ele><time>2026-04-04T14:56:00.999Z</time></trkpt><trkpt lat="46.17972946999704" lon="9.839535247346147"><ele>965.0</ele><time>2026-04-04T14:56:02.999Z</time></trkpt><trkpt lat="46.17973897449844" lon="9.839719652155845"><ele>964.0</ele><time>2026-04-04T14:56:04.999Z</time></trkpt><trkpt lat="46.17969865222229" lon="9.839868277276238"><ele>963.0</ele><time>2026-04-04T14:56:06.999Z</time></trkpt><trkpt lat="46.179678769216856" lon="9.840032132073661"><ele>962.0</ele><time>2026-04-04T14:56:09Z</time></trkpt><trkpt lat="46.179641561125536" lon="9.840180386700485"><ele>961.0</ele><time>2026-04-04T14:56:11Z</time></trkpt><trkpt lat="46.17957213714858" lon="9.840208489417916"><ele>960.0</ele><time>2026-04-04T14:56:19Z</time></trkpt><trkpt lat="46.17952183823775" lon="9.840276768406595"><ele>958.6666666666666</ele><time>2026-04-04T14:56:31Z</time></trkpt><trkpt lat="46.17956570937496" lon="9.840389944513479"><ele>957.3333333333333</ele><time>2026-04-04T14:56:35Z</time></trkpt><trkpt lat="46.179606980257475" lon="9.84048023540937"><ele>956.0</ele><time>2026-04-04T14:56:37Z</time></trkpt><trkpt lat="46.17963464343704" lon="9.84057668641558"><ele>954.6666666666666</ele><time>2026-04-04T14:56:39Z</time></trkpt><trkpt lat="46.179560273432756" lon="9.840586263709968"><ele>953.3333333333333</ele><time>2026-04-04T14:56:41Z</time></trkpt><trkpt lat="46.179492544181606" lon="9.840616170742171"><ele>952.0</ele><time>2026-04-04T14:56:45Z</time></trkpt><trkpt lat="46.17941987010821" lon="9.840586689702425"><ele>952.0</ele><time>2026-04-04T14:56:49Z</time></trkpt><trkpt lat="46.17936383844632" lon="9.84065917727504"><ele>952.0</ele><time>2026-04-04T14:56:51Z</time></trkpt><trkpt lat="46.17930313078618" lon="9.840737725157547"><ele>952.0</ele><time>2026-04-04T14:56:54Z</time></trkpt><trkpt lat="46.17924664677571" lon="9.840802035143906"><ele>952.0</ele><time>2026-04-04T14:56:57Z</time></trkpt><trkpt lat="46.179105161962696" lon="9.840810314925994"><ele>952.0</ele><time>2026-04-04T14:56:59Z</time></trkpt><trkpt lat="46.179038090555224" lon="9.840899990087282"><ele>949.6666666666666</ele><time>2026-04-04T14:57:02Z</time></trkpt><trkpt lat="46.17898016689168" lon="9.840962639495931"><ele>947.3333333333333</ele><time>2026-04-04T14:57:04Z</time></trkpt><trkpt lat="46.178914806985716" lon="9.84102680215506"><ele>945.0</ele><time>2026-04-04T14:57:06Z</time></trkpt><trkpt lat="46.17885677431868" lon="9.841094257390404"><ele>942.6666666666667</ele><time>2026-04-04T14:57:08Z</time></trkpt><trkpt lat="46.178768953517604" lon="9.841136804576308"><ele>940.3333333333334</ele><time>2026-04-04T14:57:10Z</time></trkpt><trkpt lat="46.17866115948625" lon="9.841188090986696"><ele>938.0</ele><time>2026-04-04T14:57:12Z</time></trkpt><trkpt lat="46.17859243000802" lon="9.841148786148885"><ele>938.0</ele><time>2026-04-04T14:57:16Z</time></trkpt><trkpt lat="46.1785261250103" lon="9.841095840332468"><ele>938.0</ele><time>2026-04-04T14:57:18Z</time></trkpt><trkpt lat="46.17846459095666" lon="9.841076420459018"><ele>938.0</ele><time>2026-04-04T14:57:20Z</time></trkpt><trkpt lat="46.17840356285342" lon="9.841026877088844"><ele>938.0</ele><time>2026-04-04T14:57:22Z</time></trkpt><trkpt lat="46.178331481302166" lon="9.84100971550142"><ele>938.0</ele><time>2026-04-04T14:57:25Z</time></trkpt><trkpt lat="46.17825071189412" lon="9.840935813422172"><ele>938.0</ele><time>2026-04-04T14:57:28Z</time></trkpt><trkpt lat="46.17819438666407" lon="9.840888226958485"><ele>938.0</ele><time>2026-04-04T14:57:30Z</time></trkpt><trkpt lat="46.17812913983233" lon="9.840870905467106"><ele>933.8333333333334</ele><time>2026-04-04T14:57:31Z</time></trkpt><trkpt lat="46.17805233965006" lon="9.840839836386314"><ele>929.6666666666667</ele><time>2026-04-04T14:57:33Z</time></trkpt><trkpt lat="46.17799563214743" lon="9.840798925417017"><ele>925.5</ele><time>2026-04-04T14:57:35Z</time></trkpt><trkpt lat="46.177960312664545" lon="9.840693433576785"><ele>921.3333333333333</ele><time>2026-04-04T14:57:37Z</time></trkpt><trkpt lat="46.177922773443626" lon="9.840615446969498"><ele>917.1666666666666</ele><time>2026-04-04T14:57:39Z</time></trkpt><trkpt lat="46.177836609890285" lon="9.840551348572296"><ele>913.0</ele><time>2026-04-04T14:57:42Z</time></trkpt><trkpt lat="46.17773552177543" lon="9.840506667321574"><ele>913.0</ele><time>2026-04-04T14:57:44Z</time></trkpt><trkpt lat="46.17766837153651" lon="9.840495829018048"><ele>913.0</ele><time>2026-04-04T14:57:46Z</time></trkpt><trkpt lat="46.17758127176392" lon="9.840486086463171"><ele>913.0</ele><time>2026-04-04T14:57:48Z</time></trkpt><trkpt lat="46.177465441200326" lon="9.84049383882103"><ele>913.0</ele><time>2026-04-04T14:57:50Z</time></trkpt><trkpt lat="46.17738303942276" lon="9.840513580303114"><ele>913.0</ele><time>2026-04-04T14:57:52Z</time></trkpt><trkpt lat="46.177288996395724" lon="9.84057236856448"><ele>907.4999999999999</ele><time>2026-04-04T14:57:54Z</time></trkpt><trkpt lat="46.17721269865619" lon="9.840705048844923"><ele>902.0</ele><time>2026-04-04T14:57:56Z</time></trkpt><trkpt lat="46.17715383089596" lon="9.840777606292683"><ele>896.5</ele><time>2026-04-04T14:57:58Z</time></trkpt><trkpt lat="46.17709752640137" lon="9.840821171832179"><ele>891.0</ele><time>2026-04-04T14:58:00Z</time></trkpt><trkpt lat="46.1770661815471" lon="9.84091345324109"><ele>885.4999999999999</ele><time>2026-04-04T14:58:02Z</time></trkpt><trkpt lat="46.177057280923414" lon="9.841047493943224"><ele>880.0</ele><time>2026-04-04T14:58:04Z</time></trkpt><trkpt lat="46.17704961536136" lon="9.841193958059392"><ele>877.5714285714286</ele><time>2026-04-04T14:58:07Z</time></trkpt><trkpt lat="46.177062877616116" lon="9.841292125234459"><ele>875.1428571428571</ele><time>2026-04-04T14:58:10Z</time></trkpt><trkpt lat="46.17702475542761" lon="9.84137300210107"><ele>872.7142857142858</ele><time>2026-04-04T14:58:13Z</time></trkpt><trkpt lat="46.17697023388322" lon="9.84142819652156"><ele>870.2857142857142</ele><time>2026-04-04T14:58:15Z</time></trkpt><trkpt lat="46.176898330743334" lon="9.84146702050992"><ele>867.8571428571429</ele><time>2026-04-04T14:58:18.999Z</time></trkpt><trkpt lat="46.17686208107789" lon="9.84155130233673"><ele>865.4285714285714</ele><time>2026-04-04T14:58:21Z</time></trkpt><trkpt lat="46.17681768043338" lon="9.841626473603043"><ele>863.0</ele><time>2026-04-04T14:58:24Z</time></trkpt><trkpt lat="46.17674997689389" lon="9.841592324123507"><ele>863.0000000000001</ele><time>2026-04-04T14:58:26Z</time></trkpt><trkpt lat="46.17671122770985" lon="9.841484631885766"><ele>863.0</ele><time>2026-04-04T14:58:28.999Z</time></trkpt><trkpt lat="46.176644234283486" lon="9.841455741394732"><ele>863.0</ele><time>2026-04-04T14:58:30.999Z</time></trkpt><trkpt lat="46.17657513622466" lon="9.841433867552949"><ele>863.0</ele><time>2026-04-04T14:58:33.999Z</time></trkpt><trkpt lat="46.176533000829025" lon="9.841366015035275"><ele>863.0000000000001</ele><time>2026-04-04T14:58:35.999Z</time></trkpt><trkpt lat="46.176434384483485" lon="9.841277960861772"><ele>863.0</ele><time>2026-04-04T14:58:38.999Z</time></trkpt><trkpt lat="46.176376894000114" lon="9.84117075908831"><ele>857.8571428571429</ele><time>2026-04-04T14:58:40.999Z</time></trkpt><trkpt lat="46.17633953809601" lon="9.841080756309779"><ele>852.7142857142858</ele><time>2026-04-04T14:58:44.999Z</time></trkpt><trkpt lat="46.176296579871504" lon="9.841006650204163"><ele>847.5714285714287</ele><time>2026-04-04T14:58:46.999Z</time></trkpt><trkpt lat="46.17623905721522" lon="9.84092847727417"><ele>842.4285714285714</ele><time>2026-04-04T14:58:49.999Z</time></trkpt><trkpt lat="46.176165585780204" lon="9.840895231027083"><ele>837.2857142857142</ele><time>2026-04-04T14:58:51.999Z</time></trkpt><trkpt lat="46.17609502473917" lon="9.8408898641774"><ele>832.1428571428572</ele><time>2026-04-04T14:58:52.999Z</time></trkpt><trkpt lat="46.17604079778411" lon="9.84081713467938"><ele>827.0</ele><time>2026-04-04T14:58:54.999Z</time></trkpt><trkpt lat="46.17593985431524" lon="9.84069854804622"><ele>827.0000000000001</ele><time>2026-04-04T14:58:56.999Z</time></trkpt><trkpt lat="46.17585264195042" lon="9.840652661186082"><ele>827.0</ele><time>2026-04-04T14:58:57.999Z</time></trkpt><trkpt lat="46.17581044316372" lon="9.84058400939596"><ele>827.0</ele><time>2026-04-04T14:58:58.999Z</time></trkpt><trkpt lat="46.17573181382397" lon="9.8404840960197"><ele>827.0</ele><time>2026-04-04T14:59:00.999Z</time></trkpt><trkpt lat="46.1757194267771" lon="9.84038094577286"><ele>827.0000000000001</ele><time>2026-04-04T14:59:02.999Z</time></trkpt><trkpt lat="46.1756702142803" lon="9.840270636114775"><ele>827.0</ele><time>2026-04-04T14:59:04.999Z</time></trkpt><trkpt lat="46.17561309242955" lon="9.840182749744164"><ele>819.0</ele><time>2026-04-04T14:59:06.999Z</time></trkpt><trkpt lat="46.17554019338534" lon="9.840038722499468"><ele>811.0</ele><time>2026-04-04T14:59:08.999Z</time></trkpt><trkpt lat="46.175457586293305" lon="9.839929416527527"><ele>803.0</ele><time>2026-04-04T14:59:09.999Z</time></trkpt><trkpt lat="46.175375632438985" lon="9.83985112607981"><ele>795.0</ele><time>2026-04-04T14:59:10.999Z</time></trkpt><trkpt lat="46.17530673156514" lon="9.839728249143592"><ele>787.0</ele><time>2026-04-04T14:59:12.999Z</time></trkpt><trkpt lat="46.17525136560626" lon="9.839684417579967"><ele>786.9999999999999</ele><time>2026-04-04T14:59:13.999Z</time></trkpt><trkpt lat="46.175192993871015" lon="9.839633410485403"><ele>787.0</ele><time>2026-04-04T14:59:14.999Z</time></trkpt><trkpt lat="46.175136297838705" lon="9.83959147075698"><ele>787.0</ele><time>2026-04-04T14:59:16.999Z</time></trkpt><trkpt lat="46.17502373869189" lon="9.839606650543304"><ele>787.0</ele><time>2026-04-04T14:59:18.999Z</time></trkpt><trkpt lat="46.17493986757851" lon="9.839629971289071"><ele>786.9999999999999</ele><time>2026-04-04T14:59:20.999Z</time></trkpt><trkpt lat="46.174906998686495" lon="9.839734084491054"><ele>787.0</ele><time>2026-04-04T14:59:25.999Z</time></trkpt><trkpt lat="46.17487071644062" lon="9.839874907644528"><ele>780.4999999999999</ele><time>2026-04-04T14:59:27.999Z</time></trkpt><trkpt lat="46.174852441514325" lon="9.83996864945698"><ele>774.0</ele><time>2026-04-04T14:59:28.999Z</time></trkpt><trkpt lat="46.17483905765904" lon="9.84012243840138"><ele>767.5</ele><time>2026-04-04T14:59:30.999Z</time></trkpt><trkpt lat="46.17480471320424" lon="9.840255623408764"><ele>761.0</ele><time>2026-04-04T14:59:32.999Z</time></trkpt><trkpt lat="46.174742069026564" lon="9.840286613154879"><ele>754.5</ele><time>2026-04-04T14:59:34.999Z</time></trkpt><trkpt lat="46.17469797438147" lon="9.840357865147855"><ele>748.0</ele><time>2026-04-04T14:59:37.999Z</time></trkpt><trkpt lat="46.17470392397567" lon="9.84048871204838"><ele>749.8</ele><time>2026-04-04T14:59:39.999Z</time></trkpt><trkpt lat="46.17471810645856" lon="9.840622143755224"><ele>751.5999999999999</ele><time>2026-04-04T14:59:41.999Z</time></trkpt><trkpt lat="46.17476744353045" lon="9.840736802294995"><ele>753.4000000000001</ele><time>2026-04-04T14:59:43.999Z</time></trkpt><trkpt lat="46.17484658100229" lon="9.840836952733127"><ele>755.2</ele><time>2026-04-04T14:59:45.999Z</time></trkpt><trkpt lat="46.1748669396293" lon="9.840978897198903"><ele>757.0</ele><time>2026-04-04T14:59:47.999Z</time></trkpt><trkpt lat="46.17493486291971" lon="9.841148439455834"><ele>757.0</ele><time>2026-04-04T14:59:49.999Z</time></trkpt><trkpt lat="46.17493759710742" lon="9.841275683491027"><ele>757.0</ele><time>2026-04-04T14:59:50.999Z</time></trkpt><trkpt lat="46.17493304215608" lon="9.84141318265705"><ele>757.0</ele><time>2026-04-04T14:59:51.999Z</time></trkpt><trkpt lat="46.17494736592972" lon="9.841541946281373"><ele>757.0</ele><time>2026-04-04T14:59:52.999Z</time></trkpt><trkpt lat="46.174951685845" lon="9.841656989241148"><ele>757.0</ele><time>2026-04-04T14:59:53.999Z</time></trkpt><trkpt lat="46.17493746321537" lon="9.841763513484889"><ele>757.0</ele><time>2026-04-04T14:59:54.999Z</time></trkpt><trkpt lat="46.17484570562401" lon="9.841875420522488"><ele>749.8</ele><time>2026-04-04T14:59:56.998Z</time></trkpt><trkpt lat="46.174715612451784" lon="9.841913730257982"><ele>742.6</ele><time>2026-04-04T14:59:58.998Z</time></trkpt><trkpt lat="46.174645767929775" lon="9.841937969160904"><ele>735.4</ele><time>2026-04-04T14:59:59.998Z</time></trkpt><trkpt lat="46.1745592233117" lon="9.841899197602618"><ele>728.1999999999999</ele><time>2026-04-04T15:00:01.998Z</time></trkpt><trkpt lat="46.174504649377305" lon="9.841744492161375"><ele>721.0</ele><time>2026-04-04T15:00:03.998Z</time></trkpt><trkpt lat="46.17441666578299" lon="9.84177135007282"><ele>721.0</ele><time>2026-04-04T15:00:05.998Z</time></trkpt><trkpt lat="46.174314092111175" lon="9.841758276730308"><ele>721.0</ele><time>2026-04-04T15:00:07.998Z</time></trkpt><trkpt lat="46.17425722646244" lon="9.841641911029296"><ele>721.0</ele><time>2026-04-04T15:00:09.998Z</time></trkpt><trkpt lat="46.1741737969798" lon="9.841532850282812"><ele>721.0</ele><time>2026-04-04T15:00:11.998Z</time></trkpt><trkpt lat="46.17410510025187" lon="9.841492612751184"><ele>721.0</ele><time>2026-04-04T15:00:12.998Z</time></trkpt><trkpt lat="46.17403730510419" lon="9.841508309028736"><ele>721.5999999999999</ele><time>2026-04-04T15:00:13.998Z</time></trkpt><trkpt lat="46.17397384441849" lon="9.841597751925303"><ele>722.2</ele><time>2026-04-04T15:00:15.998Z</time></trkpt><trkpt lat="46.173864343826516" lon="9.841656002753796"><ele>722.8</ele><time>2026-04-04T15:00:18.998Z</time></trkpt><trkpt lat="46.173788486493784" lon="9.841707362144211"><ele>723.4000000000001</ele><time>2026-04-04T15:00:19.998Z</time></trkpt><trkpt lat="46.17369798688589" lon="9.84177793208843"><ele>724.0</ele><time>2026-04-04T15:00:20.999Z</time></trkpt><trkpt lat="46.1736048217564" lon="9.841855747613131"><ele>722.4000000000001</ele><time>2026-04-04T15:00:22Z</time></trkpt><trkpt lat="46.17353495626969" lon="9.841893261362152"><ele>720.8</ele><time>2026-04-04T15:00:23Z</time></trkpt><trkpt lat="46.17348469453019" lon="9.84199064742413"><ele>719.2</ele><time>2026-04-04T15:00:25Z</time></trkpt><trkpt lat="46.17342717628363" lon="9.842154392923776"><ele>717.5999999999999</ele><time>2026-04-04T15:00:26.999Z</time></trkpt><trkpt lat="46.17340864141238" lon="9.842268205321824"><ele>716.0</ele><time>2026-04-04T15:00:28Z</time></trkpt><trkpt lat="46.17339305171466" lon="9.842390351103436"><ele>716.0</ele><time>2026-04-04T15:00:29Z</time></trkpt><trkpt lat="46.17334133548275" lon="9.842495383462438"><ele>716.0</ele><time>2026-04-04T15:00:31Z</time></trkpt><trkpt lat="46.17332986488255" lon="9.842588320100992"><ele>716.0</ele><time>2026-04-04T15:01:04.999Z</time></trkpt><trkpt lat="46.173281915504695" lon="9.842689629992773"><ele>716.0</ele><time>2026-04-04T15:01:06.999Z</time></trkpt><trkpt lat="46.17320740039548" lon="9.842826626673746"><ele>716.0</ele><time>2026-04-04T15:01:08.999Z</time></trkpt><trkpt lat="46.173159523377365" lon="9.842929008222065"><ele>716.0</ele><time>2026-04-04T15:01:10.999Z</time></trkpt><trkpt lat="46.17309677810471" lon="9.843010504138727"><ele>715.5</ele><time>2026-04-04T15:01:12.999Z</time></trkpt><trkpt lat="46.173042261246195" lon="9.843061664698245"><ele>715.0</ele><time>2026-04-04T15:01:14.999Z</time></trkpt><trkpt lat="46.17296994817903" lon="9.843121885957883"><ele>714.5</ele><time>2026-04-04T15:01:16.999Z</time></trkpt><trkpt lat="46.17288740873966" lon="9.84312724921701"><ele>714.0</ele><time>2026-04-04T15:01:17.999Z</time></trkpt><trkpt lat="46.172806429518765" lon="9.843115700823946"><ele>713.5</ele><time>2026-04-04T15:01:18.999Z</time></trkpt><trkpt lat="46.17271378445455" lon="9.843096823713708"><ele>713.0</ele><time>2026-04-04T15:01:20.999Z</time></trkpt><trkpt lat="46.172657476650684" lon="9.843007108678835"><ele>713.0</ele><time>2026-04-04T15:01:22.999Z</time></trkpt><trkpt lat="46.172688507717815" lon="9.842903111336026"><ele>713.0</ele><time>2026-04-04T15:01:24.999Z</time></trkpt><trkpt lat="46.172765866228474" lon="9.842799079540194"><ele>713.0</ele><time>2026-04-04T15:01:26.999Z</time></trkpt><trkpt lat="46.17275262845834" lon="9.842705230479885"><ele>713.0</ele><time>2026-04-04T15:01:28.999Z</time></trkpt><trkpt lat="46.17271728753922" lon="9.842586894362912"><ele>713.0</ele><time>2026-04-04T15:01:30.999Z</time></trkpt><trkpt lat="46.17269695468404" lon="9.842436752115882"><ele>713.0</ele><time>2026-04-04T15:01:32.999Z</time></trkpt><trkpt lat="46.1726850423473" lon="9.842302437734457"><ele>715.1666666666666</ele><time>2026-04-04T15:01:34.999Z</time></trkpt><trkpt lat="46.17267995516599" lon="9.842121482803428"><ele>717.3333333333333</ele><time>2026-04-04T15:01:36.999Z</time></trkpt><trkpt lat="46.17267552394349" lon="9.842007381890138"><ele>719.5</ele><time>2026-04-04T15:01:37.999Z</time></trkpt><trkpt lat="46.17265743385765" lon="9.841887657222992"><ele>721.6666666666666</ele><time>2026-04-04T15:01:38.999Z</time></trkpt><trkpt lat="46.172638097311946" lon="9.841773586211291"><ele>723.8333333333334</ele><time>2026-04-04T15:01:39.999Z</time></trkpt><trkpt lat="46.17260839073034" lon="9.841669260273179"><ele>726.0</ele><time>2026-04-04T15:01:40.999Z</time></trkpt><trkpt lat="46.17259916251783" lon="9.841568768348019"><ele>728.0</ele><time>2026-04-04T15:01:41.999Z</time></trkpt><trkpt lat="46.17259272799369" lon="9.841449204493228"><ele>730.0</ele><time>2026-04-04T15:01:42.999Z</time></trkpt><trkpt lat="46.17258441652626" lon="9.841342597294124"><ele>732.0</ele><time>2026-04-04T15:01:43.999Z</time></trkpt><trkpt lat="46.172571271531766" lon="9.841236053447194"><ele>734.0</ele><time>2026-04-04T15:01:44.999Z</time></trkpt><trkpt lat="46.172542955792935" lon="9.841135693210738"><ele>736.0</ele><time>2026-04-04T15:01:45.999Z</time></trkpt><trkpt lat="46.17251683742379" lon="9.841009856465382"><ele>738.0</ele><time>2026-04-04T15:01:46.999Z</time></trkpt><trkpt lat="46.17249730717542" lon="9.840874488173567"><ele>740.0</ele><time>2026-04-04T15:01:47.999Z</time></trkpt><trkpt lat="46.172480330271554" lon="9.840713554424937"><ele>742.0</ele><time>2026-04-04T15:01:48.999Z</time></trkpt><trkpt lat="46.17245054259649" lon="9.840555975082022"><ele>744.0</ele><time>2026-04-04T15:01:49.999Z</time></trkpt><trkpt lat="46.17241924605753" lon="9.840401929237082"><ele>746.0</ele><time>2026-04-04T15:01:50.999Z</time></trkpt><trkpt lat="46.17239384317554" lon="9.84025548911805"><ele>748.0</ele><time>2026-04-04T15:01:51.999Z</time></trkpt><trkpt lat="46.17237483628803" lon="9.840105890022297"><ele>748.0</ele><time>2026-04-04T15:01:52.999Z</time></trkpt><trkpt lat="46.17236984575493" lon="9.8399585615466"><ele>748.0</ele><time>2026-04-04T15:01:53.999Z</time></trkpt><trkpt lat="46.17237888373863" lon="9.839824404994337"><ele>748.0</ele><time>2026-04-04T15:01:54.999Z</time></trkpt><trkpt lat="46.172373886902434" lon="9.839694579221746"><ele>748.0</ele><time>2026-04-04T15:01:55.999Z</time></trkpt><trkpt lat="46.17236114499323" lon="9.839560918511566"><ele>748.0</ele><time>2026-04-04T15:01:56.999Z</time></trkpt><trkpt lat="46.172323134549536" lon="9.83943588699208"><ele>748.0</ele><time>2026-04-04T15:01:57.999Z</time></trkpt><trkpt lat="46.172306757636356" lon="9.839313208322972"><ele>748.0</ele><time>2026-04-04T15:01:58.999Z</time></trkpt><trkpt lat="46.172289372612155" lon="9.839222843687228"><ele>748.0</ele><time>2026-04-04T15:01:59.999Z</time></trkpt><trkpt lat="46.172248961593944" lon="9.83914351213506"><ele>748.0</ele><time>2026-04-04T15:02:00.999Z</time></trkpt><trkpt lat="46.17220149419319" lon="9.839049594563896"><ele>748.0</ele><time>2026-04-04T15:02:01.999Z</time></trkpt><trkpt lat="46.172148962751" lon="9.838959147367158"><ele>748.0</ele><time>2026-04-04T15:02:02.999Z</time></trkpt><trkpt lat="46.172093038616715" lon="9.838855105937341"><ele>750.5999999999999</ele><time>2026-04-04T15:02:03.999Z</time></trkpt><trkpt lat="46.17206378170819" lon="9.838756203192412"><ele>753.1999999999999</ele><time>2026-04-04T15:02:04.999Z</time></trkpt><trkpt lat="46.172058848164056" lon="9.838646847717413"><ele>755.8</ele><time>2026-04-04T15:02:05.999Z</time></trkpt><trkpt lat="46.17207369419833" lon="9.838503161364056"><ele>758.4</ele><time>2026-04-04T15:02:06.999Z</time></trkpt><trkpt lat="46.17207628274301" lon="9.83833591319634"><ele>761.0</ele><time>2026-04-04T15:02:07.999Z</time></trkpt><trkpt lat="46.17207315980505" lon="9.838208324671294"><ele>763.3333333333333</ele><time>2026-04-04T15:02:08.999Z</time></trkpt><trkpt lat="46.172088153877404" lon="9.838076152439514"><ele>765.6666666666666</ele><time>2026-04-04T15:02:09.999Z</time></trkpt><trkpt lat="46.1721042139348" lon="9.837951147006622"><ele>768.0</ele><time>2026-04-04T15:02:10.999Z</time></trkpt><trkpt lat="46.17211689755907" lon="9.83783324126566"><ele>770.3333333333333</ele><time>2026-04-04T15:02:11.999Z</time></trkpt><trkpt lat="46.17212284861634" lon="9.837711925362095"><ele>772.6666666666666</ele><time>2026-04-04T15:02:12.999Z</time></trkpt><trkpt lat="46.172134770251" lon="9.837615785334805"><ele>775.0</ele><time>2026-04-04T15:02:13.999Z</time></trkpt><trkpt lat="46.17219917121965" lon="9.837557386341492"><ele>777.75</ele><time>2026-04-04T15:02:14.999Z</time></trkpt><trkpt lat="46.17226623449971" lon="9.837460882233248"><ele>780.5</ele><time>2026-04-04T15:02:15.999Z</time></trkpt><trkpt lat="46.17234073532412" lon="9.837317592979556"><ele>783.25</ele><time>2026-04-04T15:02:16.999Z</time></trkpt><trkpt lat="46.172435445644815" lon="9.837163637372427"><ele>786.0</ele><time>2026-04-04T15:02:17.999Z</time></trkpt><trkpt lat="46.17250945542808" lon="9.837062425017036"><ele>786.0</ele><time>2026-04-04T15:02:18.999Z</time></trkpt><trkpt lat="46.172547299165736" lon="9.836965989561229"><ele>786.0</ele><time>2026-04-04T15:02:19.999Z</time></trkpt><trkpt lat="46.172567347870014" lon="9.836843169420053"><ele>786.0</ele><time>2026-04-04T15:02:20.999Z</time></trkpt><trkpt lat="46.17256852699033" lon="9.83666396574591"><ele>786.0</ele><time>2026-04-04T15:02:21.999Z</time></trkpt><trkpt lat="46.172557163761496" lon="9.83644657722276"><ele>786.0</ele><time>2026-04-04T15:02:22.999Z</time></trkpt><trkpt lat="46.17255527930374" lon="9.83623329795836"><ele>786.5999999999999</ele><time>2026-04-04T15:02:23.999Z</time></trkpt><trkpt lat="46.17254572880288" lon="9.83605089103257"><ele>787.2</ele><time>2026-04-04T15:02:24.999Z</time></trkpt><trkpt lat="46.17254371633914" lon="9.835881594446038"><ele>787.8</ele><time>2026-04-04T15:02:25.999Z</time></trkpt><trkpt lat="46.17254049572219" lon="9.835724744401764"><ele>788.4000000000001</ele><time>2026-04-04T15:02:26.999Z</time></trkpt><trkpt lat="46.17253996387975" lon="9.835600149664316"><ele>789.0</ele><time>2026-04-04T15:02:27.999Z</time></trkpt><trkpt lat="46.17253524468969" lon="9.835478745877259"><ele>789.3333333333334</ele><time>2026-04-04T15:02:28.999Z</time></trkpt><trkpt lat="46.172530790812736" lon="9.835347467342752"><ele>789.6666666666667</ele><time>2026-04-04T15:02:29.999Z</time></trkpt><trkpt lat="46.17253067890367" lon="9.835226542755692"><ele>790.0</ele><time>2026-04-04T15:02:30.999Z</time></trkpt><trkpt lat="46.17252460405266" lon="9.83510883225488"><ele>790.3333333333334</ele><time>2026-04-04T15:02:31.999Z</time></trkpt><trkpt lat="46.172497234864935" lon="9.834982619088109"><ele>790.6666666666667</ele><time>2026-04-04T15:02:32.999Z</time></trkpt><trkpt lat="46.1724682278137" lon="9.834862248573012"><ele>791.0</ele><time>2026-04-04T15:02:33.999Z</time></trkpt><trkpt lat="46.17246343168435" lon="9.834758228800913"><ele>790.8</ele><time>2026-04-04T15:02:34.999Z</time></trkpt><trkpt lat="46.1724546620499" lon="9.834644459522465"><ele>790.5999999999999</ele><time>2026-04-04T15:02:35.999Z</time></trkpt><trkpt lat="46.172442481287" lon="9.834505560250944"><ele>790.4</ele><time>2026-04-04T15:02:36.999Z</time></trkpt><trkpt lat="46.17242607524461" lon="9.834351691130912"><ele>790.2</ele><time>2026-04-04T15:02:37.999Z</time></trkpt><trkpt lat="46.17240746850394" lon="9.834192233903845"><ele>790.0</ele><time>2026-04-04T15:02:39Z</time></trkpt><trkpt lat="46.17236732491649" lon="9.834038662780019"><ele>789.0</ele><time>2026-04-04T15:02:39.999Z</time></trkpt><trkpt lat="46.17232634921165" lon="9.833887496086131"><ele>788.0</ele><time>2026-04-04T15:02:40.999Z</time></trkpt><trkpt lat="46.172295274647816" lon="9.833796385522191"><ele>787.0</ele><time>2026-04-04T15:02:41.999Z</time></trkpt><trkpt lat="46.17226453601587" lon="9.833667027865582"><ele>786.0</ele><time>2026-04-04T15:02:43.999Z</time></trkpt><trkpt lat="46.17224541600733" lon="9.833507439146066"><ele>785.0</ele><time>2026-04-04T15:02:45.999Z</time></trkpt><trkpt lat="46.17222974470111" lon="9.833390552515908"><ele>784.8333333333334</ele><time>2026-04-04T15:02:46.999Z</time></trkpt><trkpt lat="46.17222237955226" lon="9.833282318620258"><ele>784.6666666666667</ele><time>2026-04-04T15:02:47.999Z</time></trkpt><trkpt lat="46.172215158326985" lon="9.83317315311692"><ele>784.5</ele><time>2026-04-04T15:02:48.999Z</time></trkpt><trkpt lat="46.172206390124046" lon="9.833064481733215"><ele>784.3333333333333</ele><time>2026-04-04T15:02:49.999Z</time></trkpt><trkpt lat="46.17220068506478" lon="9.83294972211937"><ele>784.1666666666666</ele><time>2026-04-04T15:02:50.999Z</time></trkpt><trkpt lat="46.17217790582509" lon="9.832817344428015"><ele>784.0</ele><time>2026-04-04T15:02:51.999Z</time></trkpt><trkpt lat="46.17216207711876" lon="9.832695703093195"><ele>784.0</ele><time>2026-04-04T15:02:52.999Z</time></trkpt><trkpt lat="46.17215278809052" lon="9.832587175421818"><ele>784.0</ele><time>2026-04-04T15:02:53.999Z</time></trkpt><trkpt lat="46.1721400143205" lon="9.83248332063732"><ele>784.0</ele><time>2026-04-04T15:02:54.999Z</time></trkpt><trkpt lat="46.17212057385919" lon="9.832385058274566"><ele>784.0</ele><time>2026-04-04T15:02:55.999Z</time></trkpt><trkpt lat="46.172113459169815" lon="9.832274077850203"><ele>784.0</ele><time>2026-04-04T15:02:56.999Z</time></trkpt><trkpt lat="46.172109684030126" lon="9.832157268355896"><ele>784.0</ele><time>2026-04-04T15:02:57.999Z</time></trkpt><trkpt lat="46.17210833229111" lon="9.83205913795057"><ele>784.0</ele><time>2026-04-04T15:02:58.999Z</time></trkpt><trkpt lat="46.172103876027094" lon="9.831953329788378"><ele>784.0</ele><time>2026-04-04T15:02:59.999Z</time></trkpt><trkpt lat="46.17209534161323" lon="9.83185692629975"><ele>784.0</ele><time>2026-04-04T15:03:00.999Z</time></trkpt><trkpt lat="46.17208762151727" lon="9.83175434998082"><ele>784.0</ele><time>2026-04-04T15:03:01.999Z</time></trkpt><trkpt lat="46.172105314009336" lon="9.831610447425112"><ele>784.0</ele><time>2026-04-04T15:03:03.999Z</time></trkpt><trkpt lat="46.172116138000085" lon="9.83146069875029"><ele>784.0</ele><time>2026-04-04T15:03:05.999Z</time></trkpt><trkpt lat="46.17211198620421" lon="9.83125739624464"><ele>783.6666666666666</ele><time>2026-04-04T15:03:07.999Z</time></trkpt><trkpt lat="46.17211527658349" lon="9.831162059784067"><ele>783.3333333333333</ele><time>2026-04-04T15:03:08.999Z</time></trkpt><trkpt lat="46.17212032998535" lon="9.831065307578951"><ele>783.0</ele><time>2026-04-04T15:03:09.999Z</time></trkpt><trkpt lat="46.172103614765845" lon="9.830975705138512"><ele>782.6666666666667</ele><time>2026-04-04T15:03:10.999Z</time></trkpt><trkpt lat="46.17207548417637" lon="9.830882783014237"><ele>782.3333333333334</ele><time>2026-04-04T15:03:11.999Z</time></trkpt><trkpt lat="46.17205785807825" lon="9.830775953632678"><ele>782.0</ele><time>2026-04-04T15:03:12.999Z</time></trkpt><trkpt lat="46.17210843887594" lon="9.830610340010987"><ele>781.8333333333334</ele><time>2026-04-04T15:03:14.999Z</time></trkpt><trkpt lat="46.172108095311344" lon="9.830501304677677"><ele>781.6666666666667</ele><time>2026-04-04T15:03:15.999Z</time></trkpt><trkpt lat="46.1721067172366" lon="9.83038238641894"><ele>781.5</ele><time>2026-04-04T15:03:16.999Z</time></trkpt><trkpt lat="46.172114044000125" lon="9.83027638750713"><ele>781.3333333333333</ele><time>2026-04-04T15:03:17.999Z</time></trkpt><trkpt lat="46.17209645631439" lon="9.830186274560196"><ele>781.1666666666666</ele><time>2026-04-04T15:03:18.999Z</time></trkpt><trkpt lat="46.172052705784736" lon="9.830110382707405"><ele>781.0</ele><time>2026-04-04T15:03:19.999Z</time></trkpt><trkpt lat="46.17205187834737" lon="9.829978091201559"><ele>780.3333333333333</ele><time>2026-04-04T15:03:21.999Z</time></trkpt><trkpt lat="46.172079009938415" lon="9.829867329311295"><ele>779.6666666666666</ele><time>2026-04-04T15:03:22.999Z</time></trkpt><trkpt lat="46.17207974773403" lon="9.82976502291747"><ele>779.0</ele><time>2026-04-04T15:03:23.999Z</time></trkpt><trkpt lat="46.172131615612514" lon="9.829631861928702"><ele>778.3333333333333</ele><time>2026-04-04T15:03:25.999Z</time></trkpt><trkpt lat="46.17214760830525" lon="9.829472378722388"><ele>777.6666666666666</ele><time>2026-04-04T15:03:27.999Z</time></trkpt><trkpt lat="46.17213756500272" lon="9.829372830965625"><ele>777.0</ele><time>2026-04-04T15:03:28.999Z</time></trkpt><trkpt lat="46.17210786294817" lon="9.829250196971744"><ele>775.3333333333334</ele><time>2026-04-04T15:03:29.999Z</time></trkpt><trkpt lat="46.172092661780475" lon="9.829148089490577"><ele>773.6666666666666</ele><time>2026-04-04T15:03:30.999Z</time></trkpt><trkpt lat="46.17208359533816" lon="9.829049445229568"><ele>772.0</ele><time>2026-04-04T15:03:33.999Z</time></trkpt><trkpt lat="46.17211158463743" lon="9.828936276328372"><ele>770.3333333333333</ele><time>2026-04-04T15:03:36.999Z</time></trkpt><trkpt lat="46.17208401847758" lon="9.82880460212054"><ele>768.6666666666666</ele><time>2026-04-04T15:03:38.999Z</time></trkpt><trkpt lat="46.172065391561716" lon="9.828650424764152"><ele>767.0</ele><time>2026-04-04T15:03:40.999Z</time></trkpt><trkpt lat="46.17209285260141" lon="9.828518575408513"><ele>765.8</ele><time>2026-04-04T15:03:42.999Z</time></trkpt><trkpt lat="46.1720778125082" lon="9.828334539749681"><ele>764.6</ele><time>2026-04-04T15:03:44.999Z</time></trkpt><trkpt lat="46.172075542532134" lon="9.828200381903912"><ele>763.4</ele><time>2026-04-04T15:03:45.999Z</time></trkpt><trkpt lat="46.17206776225912" lon="9.828075340899842"><ele>762.1999999999999</ele><time>2026-04-04T15:03:46.999Z</time></trkpt><trkpt lat="46.17206503453258" lon="9.827958913579314"><ele>761.0</ele><time>2026-04-04T15:03:47.999Z</time></trkpt><trkpt lat="46.17206263259025" lon="9.827836034629296"><ele>761.0</ele><time>2026-04-04T15:03:48.999Z</time></trkpt><trkpt lat="46.1720727460318" lon="9.827718600676823"><ele>761.0</ele><time>2026-04-04T15:03:49.999Z</time></trkpt><trkpt lat="46.17207698147112" lon="9.827618818031487"><ele>761.0</ele><time>2026-04-04T15:03:50.999Z</time></trkpt><trkpt lat="46.17209395273318" lon="9.827515928655501"><ele>761.0</ele><time>2026-04-04T15:03:51.999Z</time></trkpt><trkpt lat="46.172123062041955" lon="9.827394628570085"><ele>761.0</ele><time>2026-04-04T15:03:53.999Z</time></trkpt><trkpt lat="46.17204323639467" lon="9.827331985594174"><ele>761.0</ele><time>2026-04-04T15:03:59.999Z</time></trkpt><trkpt lat="46.171930760489104" lon="9.827316417472181"><ele>759.4</ele><time>2026-04-04T15:04:01.999Z</time></trkpt><trkpt lat="46.171950589230704" lon="9.827142848377466"><ele>757.8</ele><time>2026-04-04T15:04:05.999Z</time></trkpt><trkpt lat="46.17197387254003" lon="9.82702215335255"><ele>756.1999999999999</ele><time>2026-04-04T15:04:06.999Z</time></trkpt><trkpt lat="46.171997093530784" lon="9.826895071987183"><ele>754.5999999999999</ele><time>2026-04-04T15:04:07.999Z</time></trkpt><trkpt lat="46.17201143254456" lon="9.826784949941429"><ele>753.0</ele><time>2026-04-04T15:04:08.999Z</time></trkpt><trkpt lat="46.17204260384567" lon="9.826675041705464"><ele>752.0</ele><time>2026-04-04T15:04:10.999Z</time></trkpt><trkpt lat="46.17203912352407" lon="9.826549120004511"><ele>751.0</ele><time>2026-04-04T15:04:12.999Z</time></trkpt><trkpt lat="46.17203852104469" lon="9.82638798980337"><ele>750.0</ele><time>2026-04-04T15:04:13.999Z</time></trkpt><trkpt lat="46.172055015552814" lon="9.826216666894686"><ele>749.0</ele><time>2026-04-04T15:04:14.999Z</time></trkpt><trkpt lat="46.17207612813048" lon="9.826071771431678"><ele>748.0</ele><time>2026-04-04T15:04:15.999Z</time></trkpt><trkpt lat="46.17209162467253" lon="9.825941666309545"><ele>746.5</ele><time>2026-04-04T15:04:16.999Z</time></trkpt><trkpt lat="46.17210474826263" lon="9.825848495341761"><ele>745.0</ele><time>2026-04-04T15:04:17.999Z</time></trkpt><trkpt lat="46.172072167963165" lon="9.825715220103353"><ele>743.5</ele><time>2026-04-04T15:04:19.999Z</time></trkpt><trkpt lat="46.172055236245164" lon="9.825623824677521"><ele>742.0</ele><time>2026-04-04T15:04:20.999Z</time></trkpt><trkpt lat="46.17204063695859" lon="9.825489531831368"><ele>740.5</ele><time>2026-04-04T15:04:21.999Z</time></trkpt><trkpt lat="46.17201094824319" lon="9.825349222511825"><ele>739.0</ele><time>2026-04-04T15:04:22.999Z</time></trkpt><trkpt lat="46.171999868631396" lon="9.825213873549401"><ele>736.8000000000001</ele><time>2026-04-04T15:04:23.999Z</time></trkpt><trkpt lat="46.17198588749787" lon="9.8251063162764"><ele>734.6</ele><time>2026-04-04T15:04:24.999Z</time></trkpt><trkpt lat="46.17197003781326" lon="9.824980738353792"><ele>732.4</ele><time>2026-04-04T15:04:25.999Z</time></trkpt><trkpt lat="46.17194657724468" lon="9.824859770586391"><ele>730.2</ele><time>2026-04-04T15:04:26.999Z</time></trkpt><trkpt lat="46.17193200534412" lon="9.824763585713297"><ele>728.0</ele><time>2026-04-04T15:04:27.999Z</time></trkpt><trkpt lat="46.1719239366252" lon="9.824548968778554"><ele>728.0</ele><time>2026-04-04T15:04:29.999Z</time></trkpt><trkpt lat="46.171918728173" lon="9.824418930372465"><ele>728.0</ele><time>2026-04-04T15:04:30.999Z</time></trkpt><trkpt lat="46.171909758414074" lon="9.824309202476925"><ele>728.0</ele><time>2026-04-04T15:04:31.998Z</time></trkpt><trkpt lat="46.17189664078591" lon="9.824204021089432"><ele>728.0</ele><time>2026-04-04T15:04:33Z</time></trkpt><trkpt lat="46.17189100247191" lon="9.824109691488399"><ele>728.0</ele><time>2026-04-04T15:04:33.999Z</time></trkpt><trkpt lat="46.1718851462884" lon="9.824005654312325"><ele>728.0</ele><time>2026-04-04T15:04:34.999Z</time></trkpt><trkpt lat="46.171884191513854" lon="9.823903128075143"><ele>726.3333333333333</ele><time>2026-04-04T15:04:36Z</time></trkpt><trkpt lat="46.17186962842759" lon="9.823790156704"><ele>724.6666666666666</ele><time>2026-04-04T15:04:37.999Z</time></trkpt><trkpt lat="46.17185420921576" lon="9.823612088309206"><ele>723.0</ele><time>2026-04-04T15:04:40.999Z</time></trkpt><trkpt lat="46.17183910352406" lon="9.823500672898087"><ele>721.3333333333334</ele><time>2026-04-04T15:04:42Z</time></trkpt><trkpt lat="46.1718312807769" lon="9.823386366900662"><ele>719.6666666666667</ele><time>2026-04-04T15:04:43Z</time></trkpt><trkpt lat="46.1718262980366" lon="9.823278143830558"><ele>718.0</ele><time>2026-04-04T15:04:44Z</time></trkpt><trkpt lat="46.171819381622235" lon="9.823182771240205"><ele>716.5999999999999</ele><time>2026-04-04T15:04:45Z</time></trkpt><trkpt lat="46.171796563236036" lon="9.82296698642175"><ele>715.1999999999999</ele><time>2026-04-04T15:04:46.999Z</time></trkpt><trkpt lat="46.17180526998113" lon="9.822825393947328"><ele>713.8</ele><time>2026-04-04T15:04:47.999Z</time></trkpt><trkpt lat="46.17181342524758" lon="9.82269821055319"><ele>712.4</ele><time>2026-04-04T15:04:48.999Z</time></trkpt><trkpt lat="46.17182256443232" lon="9.822589712708595"><ele>711.0</ele><time>2026-04-04T15:04:49.999Z</time></trkpt><trkpt lat="46.17182246439746" lon="9.822492063016211"><ele>709.6666666666666</ele><time>2026-04-04T15:04:50.999Z</time></trkpt><trkpt lat="46.17180716935019" lon="9.8223636173207"><ele>708.3333333333334</ele><time>2026-04-04T15:04:54.999Z</time></trkpt><trkpt lat="46.17187471672022" lon="9.822313585711761"><ele>707.0</ele><time>2026-04-04T15:04:57.999Z</time></trkpt><trkpt lat="46.171954511742356" lon="9.822291841022164"><ele>705.6666666666667</ele><time>2026-04-04T15:04:58.999Z</time></trkpt><trkpt lat="46.172035350054685" lon="9.822241990823768"><ele>704.3333333333334</ele><time>2026-04-04T15:04:59.999Z</time></trkpt><trkpt lat="46.17210381082014" lon="9.822123566948266"><ele>703.0</ele><time>2026-04-04T15:05:00.999Z</time></trkpt><trkpt lat="46.17215872008192" lon="9.821973920268357"><ele>703.0</ele><time>2026-04-04T15:05:01.999Z</time></trkpt><trkpt lat="46.17221490279141" lon="9.821825865982976"><ele>703.0</ele><time>2026-04-04T15:05:02.999Z</time></trkpt><trkpt lat="46.17229659991053" lon="9.821720929160888"><ele>703.0</ele><time>2026-04-04T15:05:03.999Z</time></trkpt><trkpt lat="46.172385553859016" lon="9.821643958861564"><ele>703.0</ele><time>2026-04-04T15:05:04.999Z</time></trkpt><trkpt lat="46.172467394847885" lon="9.821600132035186"><ele>703.0</ele><time>2026-04-04T15:05:05.999Z</time></trkpt><trkpt lat="46.17255157447821" lon="9.821594096098861"><ele>704.8</ele><time>2026-04-04T15:05:06.999Z</time></trkpt><trkpt lat="46.17262706921736" lon="9.821645666879677"><ele>706.5999999999999</ele><time>2026-04-04T15:05:07.999Z</time></trkpt><trkpt lat="46.17267539190462" lon="9.821755759876673"><ele>708.4000000000001</ele><time>2026-04-04T15:05:08.999Z</time></trkpt><trkpt lat="46.17271942233624" lon="9.82188210908749"><ele>710.2</ele><time>2026-04-04T15:05:09.999Z</time></trkpt><trkpt lat="46.172785781719355" lon="9.82199514245076"><ele>712.0</ele><time>2026-04-04T15:05:10.999Z</time></trkpt><trkpt lat="46.17287373150973" lon="9.82208605203931"><ele>713.6</ele><time>2026-04-04T15:05:11.999Z</time></trkpt><trkpt lat="46.17296382642961" lon="9.822182843009557"><ele>715.2</ele><time>2026-04-04T15:05:12.999Z</time></trkpt><trkpt lat="46.17303299544774" lon="9.822268752841582"><ele>716.8</ele><time>2026-04-04T15:05:13.999Z</time></trkpt><trkpt lat="46.17306028308987" lon="9.82238786674735"><ele>718.4</ele><time>2026-04-04T15:05:14.999Z</time></trkpt><trkpt lat="46.1730669263443" lon="9.822547531502659"><ele>720.0</ele><time>2026-04-04T15:05:15.999Z</time></trkpt><trkpt lat="46.17308705175958" lon="9.822738633768651"><ele>721.6</ele><time>2026-04-04T15:05:16.999Z</time></trkpt><trkpt lat="46.17310150173462" lon="9.822919237322376"><ele>723.2</ele><time>2026-04-04T15:05:17.999Z</time></trkpt><trkpt lat="46.17313028008744" lon="9.82306448822265"><ele>724.8</ele><time>2026-04-04T15:05:18.999Z</time></trkpt><trkpt lat="46.17319560431681" lon="9.823190262118715"><ele>726.4</ele><time>2026-04-04T15:05:19.999Z</time></trkpt><trkpt lat="46.17327389296319" lon="9.823261469517297"><ele>728.0</ele><time>2026-04-04T15:05:20.999Z</time></trkpt><trkpt lat="46.17339716848316" lon="9.823245342613744"><ele>729.25</ele><time>2026-04-04T15:05:21.999Z</time></trkpt><trkpt lat="46.173518937777835" lon="9.823200093466081"><ele>730.5</ele><time>2026-04-04T15:05:22.999Z</time></trkpt><trkpt lat="46.17365446347477" lon="9.823071840732505"><ele>731.75</ele><time>2026-04-04T15:05:23.999Z</time></trkpt><trkpt lat="46.173777040579935" lon="9.822967528390649"><ele>733.0</ele><time>2026-04-04T15:05:24.999Z</time></trkpt><trkpt lat="46.17387639460492" lon="9.822853700059769"><ele>733.0</ele><time>2026-04-04T15:05:25.999Z</time></trkpt><trkpt lat="46.17394288466423" lon="9.822704720849005"><ele>733.0</ele><time>2026-04-04T15:05:26.999Z</time></trkpt><trkpt lat="46.17399255987415" lon="9.82251087880341"><ele>733.0</ele><time>2026-04-04T15:05:27.999Z</time></trkpt><trkpt lat="46.17401214086071" lon="9.822305670947053"><ele>733.0</ele><time>2026-04-04T15:05:28.999Z</time></trkpt><trkpt lat="46.17403864600942" lon="9.822136818292963"><ele>734.4</ele><time>2026-04-04T15:05:29.999Z</time></trkpt><trkpt lat="46.174085369472714" lon="9.822032088742352"><ele>735.8</ele><time>2026-04-04T15:05:30.999Z</time></trkpt><trkpt lat="46.17418323871071" lon="9.82201964477914"><ele>737.2</ele><time>2026-04-04T15:05:31.999Z</time></trkpt><trkpt lat="46.174285882243446" lon="9.822066279497593"><ele>738.6</ele><time>2026-04-04T15:05:32.999Z</time></trkpt><trkpt lat="46.17437139765715" lon="9.822111611340873"><ele>740.0</ele><time>2026-04-04T15:05:33.999Z</time></trkpt><trkpt lat="46.1744755124802" lon="9.822098497672002"><ele>740.0</ele><time>2026-04-04T15:05:34.999Z</time></trkpt><trkpt lat="46.17461527801107" lon="9.822048845954027"><ele>740.0</ele><time>2026-04-04T15:05:35.999Z</time></trkpt><trkpt lat="46.17472375776864" lon="9.82204912396603"><ele>740.0</ele><time>2026-04-04T15:05:36.999Z</time></trkpt><trkpt lat="46.17480097200132" lon="9.822105933436488"><ele>740.0</ele><time>2026-04-04T15:05:37.999Z</time></trkpt><trkpt lat="46.174852360847964" lon="9.822185711014374"><ele>740.0</ele><time>2026-04-04T15:05:38.999Z</time></trkpt><trkpt lat="46.17484722347648" lon="9.822321751172712"><ele>740.0</ele><time>2026-04-04T15:05:39.999Z</time></trkpt><trkpt lat="46.17483873132638" lon="9.822437371942291"><ele>740.0</ele><time>2026-04-04T15:05:40.999Z</time></trkpt><trkpt lat="46.17494420120736" lon="9.822347718089933"><ele>740.0</ele><time>2026-04-04T15:05:43.999Z</time></trkpt><trkpt lat="46.1749759420153" lon="9.822222220745058"><ele>740.0</ele><time>2026-04-04T15:05:44.999Z</time></trkpt><trkpt lat="46.174999444914945" lon="9.822062881412169"><ele>740.0</ele><time>2026-04-04T15:05:45.999Z</time></trkpt><trkpt lat="46.17499459954592" lon="9.82187628439187"><ele>741.5</ele><time>2026-04-04T15:05:46.999Z</time></trkpt><trkpt lat="46.17499672540064" lon="9.821671609514178"><ele>743.0</ele><time>2026-04-04T15:05:47.999Z</time></trkpt><trkpt lat="46.175015457417494" lon="9.821490676037593"><ele>744.5</ele><time>2026-04-04T15:05:48.999Z</time></trkpt><trkpt lat="46.17506067812597" lon="9.821336023764433"><ele>746.0</ele><time>2026-04-04T15:05:49.999Z</time></trkpt><trkpt lat="46.175127040964995" lon="9.821190614684982"><ele>746.0</ele><time>2026-04-04T15:05:50.999Z</time></trkpt><trkpt lat="46.1751911229812" lon="9.82104339706496"><ele>746.0</ele><time>2026-04-04T15:05:51.999Z</time></trkpt><trkpt lat="46.17522620422343" lon="9.820881630091659"><ele>746.0</ele><time>2026-04-04T15:05:52.999Z</time></trkpt><trkpt lat="46.17522483948599" lon="9.820695233628012"><ele>746.0</ele><time>2026-04-04T15:05:53.999Z</time></trkpt><trkpt lat="46.17520968448467" lon="9.820499872325781"><ele>743.0</ele><time>2026-04-04T15:05:54.999Z</time></trkpt><trkpt lat="46.17520654316517" lon="9.820307227107826"><ele>740.0</ele><time>2026-04-04T15:05:55.999Z</time></trkpt><trkpt lat="46.17522253825186" lon="9.820107420369986"><ele>737.0</ele><time>2026-04-04T15:05:56.999Z</time></trkpt><trkpt lat="46.175253556551226" lon="9.819910590372324"><ele>734.0</ele><time>2026-04-04T15:05:57.999Z</time></trkpt><trkpt lat="46.17528026196863" lon="9.819744600677911"><ele>732.5</ele><time>2026-04-04T15:05:58.999Z</time></trkpt><trkpt lat="46.175337269058694" lon="9.819642450538062"><ele>731.0</ele><time>2026-04-04T15:05:59.999Z</time></trkpt><trkpt lat="46.17540949372116" lon="9.819593081517183"><ele>729.5</ele><time>2026-04-04T15:06:00.999Z</time></trkpt><trkpt lat="46.17547507140913" lon="9.819568788984807"><ele>728.0</ele><time>2026-04-04T15:06:01.999Z</time></trkpt><trkpt lat="46.17551237476703" lon="9.819400150032756"><ele>726.5</ele><time>2026-04-04T15:06:04.999Z</time></trkpt><trkpt lat="46.175559448394885" lon="9.819307787425029"><ele>725.0</ele><time>2026-04-04T15:06:05.999Z</time></trkpt><trkpt lat="46.17560471580412" lon="9.819243785828622"><ele>723.2</ele><time>2026-04-04T15:06:06.999Z</time></trkpt><trkpt lat="46.175528317920474" lon="9.81915095786711"><ele>721.4</ele><time>2026-04-04T15:06:09.999Z</time></trkpt><trkpt lat="46.17553937407418" lon="9.819033667947643"><ele>719.5999999999999</ele><time>2026-04-04T15:06:11.999Z</time></trkpt><trkpt lat="46.175624657798394" lon="9.818967445276604"><ele>717.8</ele><time>2026-04-04T15:06:12.999Z</time></trkpt><trkpt lat="46.175722852833104" lon="9.818924098595858"><ele>716.0</ele><time>2026-04-04T15:06:13.999Z</time></trkpt><trkpt lat="46.175833126299494" lon="9.818868145508079"><ele>718.0</ele><time>2026-04-04T15:06:14.999Z</time></trkpt><trkpt lat="46.175905493580345" lon="9.818804704354319"><ele>720.0</ele><time>2026-04-04T15:06:15.999Z</time></trkpt><trkpt lat="46.17595311364963" lon="9.818731529245436"><ele>722.0</ele><time>2026-04-04T15:06:16.999Z</time></trkpt><trkpt lat="46.17597727022149" lon="9.81861771336052"><ele>724.0</ele><time>2026-04-04T15:06:17.999Z</time></trkpt><trkpt lat="46.17596175976913" lon="9.818457198148401"><ele>726.0</ele><time>2026-04-04T15:06:18.999Z</time></trkpt><trkpt lat="46.17595450516114" lon="9.818284127617"><ele>726.0</ele><time>2026-04-04T15:06:19.999Z</time></trkpt><trkpt lat="46.175960805407854" lon="9.818111819541597"><ele>726.0</ele><time>2026-04-04T15:06:20.999Z</time></trkpt><trkpt lat="46.17598885321074" lon="9.817968086187161"><ele>726.0</ele><time>2026-04-04T15:06:21.999Z</time></trkpt><trkpt lat="46.176011033463865" lon="9.817806563101636"><ele>726.0</ele><time>2026-04-04T15:06:22.999Z</time></trkpt><trkpt lat="46.17603990448725" lon="9.81764255254538"><ele>723.5</ele><time>2026-04-04T15:06:23.999Z</time></trkpt><trkpt lat="46.17605914289988" lon="9.817451229660415"><ele>721.0</ele><time>2026-04-04T15:06:24.999Z</time></trkpt><trkpt lat="46.176073713896365" lon="9.817270570048892"><ele>718.5</ele><time>2026-04-04T15:06:25.999Z</time></trkpt><trkpt lat="46.176079036012666" lon="9.817061214833037"><ele>716.0</ele><time>2026-04-04T15:06:26.999Z</time></trkpt><trkpt lat="46.176081341078216" lon="9.816857614752506"><ele>711.0</ele><time>2026-04-04T15:06:27.999Z</time></trkpt><trkpt lat="46.17605348711259" lon="9.816660116457154"><ele>706.0</ele><time>2026-04-04T15:06:28.999Z</time></trkpt><trkpt lat="46.17603227563643" lon="9.81647819338424"><ele>701.0</ele><time>2026-04-04T15:06:29.999Z</time></trkpt><trkpt lat="46.176042782136314" lon="9.816325770668168"><ele>696.0</ele><time>2026-04-04T15:06:30.999Z</time></trkpt><trkpt lat="46.17604930937142" lon="9.816154522669995"><ele>694.5</ele><time>2026-04-04T15:06:31.999Z</time></trkpt><trkpt lat="46.176044999861276" lon="9.815986061656718"><ele>693.0</ele><time>2026-04-04T15:06:32.999Z</time></trkpt><trkpt lat="46.176019712955124" lon="9.815807298982117"><ele>691.5</ele><time>2026-04-04T15:06:33.998Z</time></trkpt><trkpt lat="46.17598089280579" lon="9.815642603110208"><ele>690.0</ele><time>2026-04-04T15:06:34.998Z</time></trkpt><trkpt lat="46.175951375272746" lon="9.815489619873803"><ele>690.0</ele><time>2026-04-04T15:06:35.998Z</time></trkpt><trkpt lat="46.17594552193132" lon="9.815303392715736"><ele>690.0</ele><time>2026-04-04T15:06:36.998Z</time></trkpt><trkpt lat="46.17595267346436" lon="9.81511484886191"><ele>690.0</ele><time>2026-04-04T15:06:38Z</time></trkpt><trkpt lat="46.17599556743299" lon="9.814920017148955"><ele>690.0</ele><time>2026-04-04T15:06:39Z</time></trkpt><trkpt lat="46.176017948537485" lon="9.8147165226258"><ele>690.25</ele><time>2026-04-04T15:06:40Z</time></trkpt><trkpt lat="46.1760479122938" lon="9.814531482217678"><ele>690.5</ele><time>2026-04-04T15:06:41Z</time></trkpt><trkpt lat="46.176073440615134" lon="9.814366610618453"><ele>690.75</ele><time>2026-04-04T15:06:41.999Z</time></trkpt><trkpt lat="46.176100796735" lon="9.814202162948972"><ele>691.0</ele><time>2026-04-04T15:06:42.999Z</time></trkpt><trkpt lat="46.17614299196814" lon="9.8140506297987"><ele>689.25</ele><time>2026-04-04T15:06:44Z</time></trkpt><trkpt lat="46.17617505520403" lon="9.813892922667513"><ele>687.5</ele><time>2026-04-04T15:06:45Z</time></trkpt><trkpt lat="46.176217379634735" lon="9.813725253183696"><ele>685.75</ele><time>2026-04-04T15:06:46Z</time></trkpt><trkpt lat="46.17621442196113" lon="9.813567080942416"><ele>684.0</ele><time>2026-04-04T15:06:47Z</time></trkpt><trkpt lat="46.176208381996965" lon="9.813383088402215"><ele>683.0</ele><time>2026-04-04T15:06:48Z</time></trkpt><trkpt lat="46.176202317712445" lon="9.813151440230937"><ele>682.0</ele><time>2026-04-04T15:06:49Z</time></trkpt><trkpt lat="46.17620585358148" lon="9.812912023641555"><ele>681.0</ele><time>2026-04-04T15:06:50Z</time></trkpt><trkpt lat="46.17622380427393" lon="9.812685928986143"><ele>679.3333333333334</ele><time>2026-04-04T15:06:51Z</time></trkpt><trkpt lat="46.176224822395284" lon="9.812462665543476"><ele>677.6666666666667</ele><time>2026-04-04T15:06:52Z</time></trkpt><trkpt lat="46.17621375182011" lon="9.81222979251103"><ele>676.0</ele><time>2026-04-04T15:06:53Z</time></trkpt><trkpt lat="46.176196325762724" lon="9.81203889000038"><ele>676.0</ele><time>2026-04-04T15:06:54Z</time></trkpt><trkpt lat="46.17616384890804" lon="9.811879473915514"><ele>676.0</ele><time>2026-04-04T15:06:55Z</time></trkpt><trkpt lat="46.17612585049196" lon="9.811752610657317"><ele>676.0</ele><time>2026-04-04T15:06:56Z</time></trkpt><trkpt lat="46.176087881241024" lon="9.811595312949269"><ele>676.0</ele><time>2026-04-04T15:06:57Z</time></trkpt><trkpt lat="46.1760621847055" lon="9.81145175125799"><ele>676.0</ele><time>2026-04-04T15:06:58Z</time></trkpt><trkpt lat="46.17605161308764" lon="9.811322173822347"><ele>674.75</ele><time>2026-04-04T15:06:59Z</time></trkpt><trkpt lat="46.17609546695736" lon="9.811172797802833"><ele>673.5</ele><time>2026-04-04T15:07:00Z</time></trkpt><trkpt lat="46.17614047074279" lon="9.810965620464827"><ele>672.25</ele><time>2026-04-04T15:07:01Z</time></trkpt><trkpt lat="46.176186115501075" lon="9.810773859948014"><ele>671.0</ele><time>2026-04-04T15:07:02Z</time></trkpt><trkpt lat="46.176245882517556" lon="9.810619243290532"><ele>670.25</ele><time>2026-04-04T15:07:03Z</time></trkpt><trkpt lat="46.17632210080902" lon="9.810463713891997"><ele>669.5</ele><time>2026-04-04T15:07:04Z</time></trkpt><trkpt lat="46.1764051975883" lon="9.810296450131387"><ele>668.75</ele><time>2026-04-04T15:07:04.999Z</time></trkpt><trkpt lat="46.17645149144119" lon="9.810085976849475"><ele>668.0</ele><time>2026-04-04T15:07:05.999Z</time></trkpt><trkpt lat="46.176503102966805" lon="9.809908703563268"><ele>675.25</ele><time>2026-04-04T15:07:06.999Z</time></trkpt><trkpt lat="46.17654970852783" lon="9.809708818469478"><ele>682.5</ele><time>2026-04-04T15:07:07.999Z</time></trkpt><trkpt lat="46.17660218723898" lon="9.809527162833312"><ele>689.75</ele><time>2026-04-04T15:07:08.999Z</time></trkpt><trkpt lat="46.17664383451831" lon="9.80934603587037"><ele>697.0</ele><time>2026-04-04T15:07:09.999Z</time></trkpt><trkpt lat="46.17667248379612" lon="9.809186242079404"><ele>697.0</ele><time>2026-04-04T15:07:10.999Z</time></trkpt><trkpt lat="46.1766684521283" lon="9.809009305190312"><ele>697.0</ele><time>2026-04-04T15:07:11.999Z</time></trkpt><trkpt lat="46.17663570416988" lon="9.808862731867357"><ele>697.0</ele><time>2026-04-04T15:07:12.999Z</time></trkpt><trkpt lat="46.17658432476622" lon="9.808676187057928"><ele>697.0</ele><time>2026-04-04T15:07:13.999Z</time></trkpt><trkpt lat="46.176525789974804" lon="9.808467187710837"><ele>688.25</ele><time>2026-04-04T15:07:14.999Z</time></trkpt><trkpt lat="46.17647500695143" lon="9.808288409168277"><ele>679.5</ele><time>2026-04-04T15:07:15.999Z</time></trkpt><trkpt lat="46.1764462535686" lon="9.80811295467245"><ele>670.75</ele><time>2026-04-04T15:07:16.999Z</time></trkpt><trkpt lat="46.1764007930161" lon="9.807944738902615"><ele>662.0</ele><time>2026-04-04T15:07:17.999Z</time></trkpt><trkpt lat="46.17635818341342" lon="9.807794359672595"><ele>661.0</ele><time>2026-04-04T15:07:18.999Z</time></trkpt><trkpt lat="46.17631580200506" lon="9.807636597565958"><ele>660.0</ele><time>2026-04-04T15:07:19.999Z</time></trkpt><trkpt lat="46.176294897712275" lon="9.807509744823589"><ele>659.0</ele><time>2026-04-04T15:07:20.999Z</time></trkpt><trkpt lat="46.17629770006518" lon="9.807361568705188"><ele>658.0</ele><time>2026-04-04T15:07:21.999Z</time></trkpt><trkpt lat="46.17631667283841" lon="9.807199565455361"><ele>657.0</ele><time>2026-04-04T15:07:22.999Z</time></trkpt><trkpt lat="46.17633926396519" lon="9.80699778664936"><ele>655.2</ele><time>2026-04-04T15:07:23.999Z</time></trkpt><trkpt lat="46.17634760213476" lon="9.80681685305014"><ele>653.4000000000001</ele><time>2026-04-04T15:07:24.999Z</time></trkpt><trkpt lat="46.17635897950999" lon="9.806636223432449"><ele>651.5999999999999</ele><time>2026-04-04T15:07:25.999Z</time></trkpt><trkpt lat="46.176368388957805" lon="9.806492486568942"><ele>649.8</ele><time>2026-04-04T15:07:26.999Z</time></trkpt><trkpt lat="46.176354972821876" lon="9.806368132051045"><ele>648.0</ele><time>2026-04-04T15:07:27.999Z</time></trkpt><trkpt lat="46.17633730615134" lon="9.806277527508971"><ele>648.0</ele><time>2026-04-04T15:07:28.999Z</time></trkpt><trkpt lat="46.176337246001715" lon="9.806179119256125"><ele>648.0</ele><time>2026-04-04T15:07:29.999Z</time></trkpt><trkpt lat="46.17635098871037" lon="9.80603974806935"><ele>648.0</ele><time>2026-04-04T15:07:30.999Z</time></trkpt><trkpt lat="46.1763656441495" lon="9.805857672962118"><ele>648.0</ele><time>2026-04-04T15:07:31.999Z</time></trkpt><trkpt lat="46.176373050774664" lon="9.805656483309638"><ele>648.0</ele><time>2026-04-04T15:07:32.999Z</time></trkpt><trkpt lat="46.17636885117673" lon="9.805455913824856"><ele>644.75</ele><time>2026-04-04T15:07:33.999Z</time></trkpt><trkpt lat="46.17637158116296" lon="9.805276277941815"><ele>641.5</ele><time>2026-04-04T15:07:34.999Z</time></trkpt><trkpt lat="46.17639329390316" lon="9.805096499759777"><ele>638.25</ele><time>2026-04-04T15:07:35.999Z</time></trkpt><trkpt lat="46.17642260490865" lon="9.804929765091225"><ele>635.0</ele><time>2026-04-04T15:07:36.999Z</time></trkpt><trkpt lat="46.17645012974147" lon="9.804766287160355"><ele>632.6</ele><time>2026-04-04T15:07:37.999Z</time></trkpt><trkpt lat="46.17647088297559" lon="9.804610802945348"><ele>630.2</ele><time>2026-04-04T15:07:38.999Z</time></trkpt><trkpt lat="46.176491588180404" lon="9.804465973729926"><ele>627.8</ele><time>2026-04-04T15:07:39.999Z</time></trkpt><trkpt lat="46.17650948057915" lon="9.80431982765232"><ele>625.4</ele><time>2026-04-04T15:07:40.999Z</time></trkpt><trkpt lat="46.17650422280697" lon="9.804168954328304"><ele>623.0</ele><time>2026-04-04T15:07:41.999Z</time></trkpt><trkpt lat="46.17649310389617" lon="9.80401178412088"><ele>620.1999999999999</ele><time>2026-04-04T15:07:42.999Z</time></trkpt><trkpt lat="46.17646710959747" lon="9.803832936993269"><ele>617.4</ele><time>2026-04-04T15:07:43.999Z</time></trkpt><trkpt lat="46.176426717409484" lon="9.803651353847945"><ele>614.5999999999999</ele><time>2026-04-04T15:07:44.999Z</time></trkpt><trkpt lat="46.17642653095545" lon="9.803519620777447"><ele>611.8</ele><time>2026-04-04T15:07:45.999Z</time></trkpt><trkpt lat="46.1764300560215" lon="9.803406415701978"><ele>609.0</ele><time>2026-04-04T15:07:46.999Z</time></trkpt><trkpt lat="46.17643856671616" lon="9.803308716424926"><ele>608.0</ele><time>2026-04-04T15:07:48.999Z</time></trkpt><trkpt lat="46.17641126059145" lon="9.803103675958779"><ele>607.0</ele><time>2026-04-04T15:07:50.999Z</time></trkpt><trkpt lat="46.17640160786523" lon="9.802923574873462"><ele>606.0</ele><time>2026-04-04T15:07:51.999Z</time></trkpt><trkpt lat="46.17639392701576" lon="9.802746646046787"><ele>605.0</ele><time>2026-04-04T15:07:52.999Z</time></trkpt><trkpt lat="46.176387424898365" lon="9.802548034473638"><ele>602.4</ele><time>2026-04-04T15:07:53.999Z</time></trkpt><trkpt lat="46.17638082900842" lon="9.802392114601851"><ele>599.8</ele><time>2026-04-04T15:07:54.999Z</time></trkpt><trkpt lat="46.17636601007365" lon="9.802237680055347"><ele>597.2</ele><time>2026-04-04T15:07:55.999Z</time></trkpt><trkpt lat="46.176358426387196" lon="9.802094202962882"><ele>594.6</ele><time>2026-04-04T15:07:56.999Z</time></trkpt><trkpt lat="46.176344189512506" lon="9.801933023042103"><ele>592.0</ele><time>2026-04-04T15:07:57.999Z</time></trkpt><trkpt lat="46.176344791524855" lon="9.801806393792113"><ele>591.0</ele><time>2026-04-04T15:07:58.999Z</time></trkpt><trkpt lat="46.17635871760006" lon="9.80170072991961"><ele>590.0</ele><time>2026-04-04T15:07:59.999Z</time></trkpt><trkpt lat="46.176382453949294" lon="9.801584570156283"><ele>589.0</ele><time>2026-04-04T15:08:00.999Z</time></trkpt><trkpt lat="46.17637257220439" lon="9.801469139065544"><ele>588.0</ele><time>2026-04-04T15:08:01.999Z</time></trkpt><trkpt lat="46.17636255224696" lon="9.801336332780334"><ele>587.0</ele><time>2026-04-04T15:08:02.999Z</time></trkpt><trkpt lat="46.17633327915628" lon="9.801196791165498"><ele>586.0</ele><time>2026-04-04T15:08:03.999Z</time></trkpt><trkpt lat="46.17630067125825" lon="9.801074348568214"><ele>584.1666666666667</ele><time>2026-04-04T15:08:04.999Z</time></trkpt><trkpt lat="46.17627628168492" lon="9.800976461469794"><ele>582.3333333333334</ele><time>2026-04-04T15:08:05.999Z</time></trkpt><trkpt lat="46.17625578541538" lon="9.800878651302522"><ele>580.5</ele><time>2026-04-04T15:08:06.999Z</time></trkpt><trkpt lat="46.17625691692885" lon="9.800779669700031"><ele>578.6666666666666</ele><time>2026-04-04T15:08:07.999Z</time></trkpt><trkpt lat="46.1762627023691" lon="9.80066192997458"><ele>576.8333333333333</ele><time>2026-04-04T15:08:08.999Z</time></trkpt><trkpt lat="46.17627252950061" lon="9.80053429655924"><ele>575.0</ele><time>2026-04-04T15:08:09.999Z</time></trkpt><trkpt lat="46.176276086948214" lon="9.800372560401033"><ele>575.0</ele><time>2026-04-04T15:08:10.999Z</time></trkpt><trkpt lat="46.17626510112642" lon="9.800214301679551"><ele>575.0</ele><time>2026-04-04T15:08:11.999Z</time></trkpt><trkpt lat="46.17625385356069" lon="9.800079288791792"><ele>575.0</ele><time>2026-04-04T15:08:12.999Z</time></trkpt><trkpt lat="46.17623386280169" lon="9.799922198633553"><ele>575.0</ele><time>2026-04-04T15:08:13.999Z</time></trkpt><trkpt lat="46.17622564895783" lon="9.799802086218563"><ele>575.0</ele><time>2026-04-04T15:08:14.999Z</time></trkpt><trkpt lat="46.17619498046532" lon="9.799692841805607"><ele>574.4</ele><time>2026-04-04T15:08:16.999Z</time></trkpt><trkpt lat="46.17616895504199" lon="9.799594530863107"><ele>573.8</ele><time>2026-04-04T15:08:20.999Z</time></trkpt><trkpt lat="46.17614038904186" lon="9.799496268137007"><ele>573.2</ele><time>2026-04-04T15:08:24.999Z</time></trkpt><trkpt lat="46.17608828505005" lon="9.799416379929731"><ele>572.6</ele><time>2026-04-04T15:08:32.999Z</time></trkpt><trkpt lat="46.17612441426887" lon="9.799199173753719"><ele>572.0</ele><time>2026-04-04T15:08:35.999Z</time></trkpt><trkpt lat="46.17614106246318" lon="9.799077082594273"><ele>571.2</ele><time>2026-04-04T15:08:36.999Z</time></trkpt><trkpt lat="46.176061449343194" lon="9.798916992612998"><ele>570.4000000000001</ele><time>2026-04-04T15:08:38.999Z</time></trkpt><trkpt lat="46.17598358642288" lon="9.798866087424777"><ele>569.5999999999999</ele><time>2026-04-04T15:08:39.999Z</time></trkpt><trkpt lat="46.17589250301439" lon="9.798795321168143"><ele>568.8</ele><time>2026-04-04T15:08:41.999Z</time></trkpt><trkpt lat="46.175795388540266" lon="9.79875887329808"><ele>568.0</ele><time>2026-04-04T15:08:43.999Z</time></trkpt><trkpt lat="46.175730066434106" lon="9.798660187615216"><ele>568.0</ele><time>2026-04-04T15:08:45.999Z</time></trkpt><trkpt lat="46.175696521997764" lon="9.798567646815542"><ele>568.0</ele><time>2026-04-04T15:08:47Z</time></trkpt><trkpt lat="46.175664109571876" lon="9.79848165023552"><ele>568.0</ele><time>2026-04-04T15:08:47.999Z</time></trkpt><trkpt lat="46.175556710344445" lon="9.798359981113094"><ele>568.0</ele><time>2026-04-04T15:08:50Z</time></trkpt><trkpt lat="46.17547661650269" lon="9.798281968264547"><ele>568.0</ele><time>2026-04-04T15:08:50.999Z</time></trkpt><trkpt lat="46.17540531832687" lon="9.798195968332058"><ele>561.8</ele><time>2026-04-04T15:08:51.999Z</time></trkpt><trkpt lat="46.17529241850294" lon="9.79811538160473"><ele>555.5999999999999</ele><time>2026-04-04T15:08:53.999Z</time></trkpt><trkpt lat="46.175213667477735" lon="9.798077849369049"><ele>549.4000000000001</ele><time>2026-04-04T15:08:54.999Z</time></trkpt><trkpt lat="46.1751351834836" lon="9.797982390417257"><ele>543.2</ele><time>2026-04-04T15:08:56.999Z</time></trkpt><trkpt lat="46.17503848490242" lon="9.797879191264379"><ele>537.0</ele><time>2026-04-04T15:08:58.999Z</time></trkpt><trkpt lat="46.17496265628441" lon="9.797861242628105"><ele>537.0</ele><time>2026-04-04T15:08:59.999Z</time></trkpt><trkpt lat="46.174879729128186" lon="9.797777792825517"><ele>537.0</ele><time>2026-04-04T15:09:01.999Z</time></trkpt><trkpt lat="46.17479117441514" lon="9.79777807686164"><ele>537.0</ele><time>2026-04-04T15:09:03.999Z</time></trkpt><trkpt lat="46.17471282913444" lon="9.797846911109282"><ele>537.0</ele><time>2026-04-04T15:09:05.999Z</time></trkpt><trkpt lat="46.17475377550514" lon="9.79799827994028"><ele>537.0</ele><time>2026-04-04T15:09:07.999Z</time></trkpt><trkpt lat="46.17484787713855" lon="9.798117854088956"><ele>537.0</ele><time>2026-04-04T15:09:09.999Z</time></trkpt><trkpt lat="46.174879851003645" lon="9.798249488115157"><ele>537.0</ele><time>2026-04-04T15:09:11.999Z</time></trkpt><trkpt lat="46.17483077929004" lon="9.798415843428659"><ele>537.0</ele><time>2026-04-04T15:09:13.999Z</time></trkpt><trkpt lat="46.17479087165508" lon="9.798542038844344"><ele>537.0</ele><time>2026-04-04T15:09:14.999Z</time></trkpt><trkpt lat="46.17475029049274" lon="9.79863115877338"><ele>537.0</ele><time>2026-04-04T15:09:15.999Z</time></trkpt><trkpt lat="46.17470481622534" lon="9.798712477316721"><ele>528.8000000000001</ele><time>2026-04-04T15:09:16.999Z</time></trkpt><trkpt lat="46.17458408481312" lon="9.798746407520998"><ele>520.6</ele><time>2026-04-04T15:09:18.999Z</time></trkpt><trkpt lat="46.17450434501729" lon="9.798739279360642"><ele>512.4000000000001</ele><time>2026-04-04T15:09:19.999Z</time></trkpt><trkpt lat="46.174406249580755" lon="9.798743823627698"><ele>504.20000000000005</ele><time>2026-04-04T15:09:20.999Z</time></trkpt><trkpt lat="46.174323199922455" lon="9.798795549920218"><ele>496.0</ele><time>2026-04-04T15:09:21.999Z</time></trkpt><trkpt lat="46.17427026288431" lon="9.79884570453971"><ele>496.0</ele><time>2026-04-04T15:09:22.999Z</time></trkpt><trkpt lat="46.17416673296225" lon="9.798926921951969"><ele>496.0</ele><time>2026-04-04T15:09:24.999Z</time></trkpt><trkpt lat="46.174036502088285" lon="9.798897291993653"><ele>496.0</ele><time>2026-04-04T15:09:26.999Z</time></trkpt><trkpt lat="46.17396426959587" lon="9.798849439158221"><ele>496.0</ele><time>2026-04-04T15:09:27.999Z</time></trkpt><trkpt lat="46.17387009691931" lon="9.798789260349892"><ele>496.0</ele><time>2026-04-04T15:09:28.999Z</time></trkpt><trkpt lat="46.173777159466155" lon="9.798693997141129"><ele>493.25</ele><time>2026-04-04T15:09:29.999Z</time></trkpt><trkpt lat="46.173688877476174" lon="9.798604899608442"><ele>490.5</ele><time>2026-04-04T15:09:30.999Z</time></trkpt><trkpt lat="46.173590264136074" lon="9.798541212401053"><ele>487.75</ele><time>2026-04-04T15:09:31.999Z</time></trkpt><trkpt lat="46.17346108612216" lon="9.798456545434455"><ele>485.0</ele><time>2026-04-04T15:09:32.999Z</time></trkpt><trkpt lat="46.17334631992776" lon="9.798391622445013"><ele>485.0</ele><time>2026-04-04T15:09:33.999Z</time></trkpt><trkpt lat="46.17323004817593" lon="9.798398182232983"><ele>485.0</ele><time>2026-04-04T15:09:34.999Z</time></trkpt><trkpt lat="46.17312850412174" lon="9.798405392674539"><ele>485.0</ele><time>2026-04-04T15:09:35.999Z</time></trkpt><trkpt lat="46.17301728116679" lon="9.798414649681336"><ele>485.0</ele><time>2026-04-04T15:09:36.999Z</time></trkpt><trkpt lat="46.1729053733054" lon="9.798438375789368"><ele>485.0</ele><time>2026-04-04T15:09:37.999Z</time></trkpt><trkpt lat="46.1727946497429" lon="9.798463458116279"><ele>483.3333333333333</ele><time>2026-04-04T15:09:38.999Z</time></trkpt><trkpt lat="46.172700779104716" lon="9.798465900492726"><ele>481.66666666666663</ele><time>2026-04-04T15:09:39.999Z</time></trkpt><trkpt lat="46.17262158313261" lon="9.798427021651344"><ele>480.0</ele><time>2026-04-04T15:09:40.999Z</time></trkpt><trkpt lat="46.172544991410234" lon="9.798351537615705"><ele>478.33333333333337</ele><time>2026-04-04T15:09:41.999Z</time></trkpt><trkpt lat="46.172471820250074" lon="9.798287064822427"><ele>476.6666666666667</ele><time>2026-04-04T15:09:42.999Z</time></trkpt><trkpt lat="46.17240672919387" lon="9.798198856966039"><ele>475.0</ele><time>2026-04-04T15:09:43.999Z</time></trkpt><trkpt lat="46.17234902194572" lon="9.798106879416979"><ele>476.33333333333337</ele><time>2026-04-04T15:09:44.999Z</time></trkpt><trkpt lat="46.17231649619965" lon="9.79798400239868"><ele>477.6666666666667</ele><time>2026-04-04T15:09:45.999Z</time></trkpt><trkpt lat="46.17230441339161" lon="9.797844721348637"><ele>479.0</ele><time>2026-04-04T15:09:46.999Z</time></trkpt><trkpt lat="46.17230028054306" lon="9.797719033324025"><ele>480.33333333333337</ele><time>2026-04-04T15:09:47.999Z</time></trkpt><trkpt lat="46.172322560405" lon="9.797599790744876"><ele>481.6666666666667</ele><time>2026-04-04T15:09:48.999Z</time></trkpt><trkpt lat="46.17237606283488" lon="9.797499784196084"><ele>483.0</ele><time>2026-04-04T15:09:49.999Z</time></trkpt><trkpt lat="46.17246066887695" lon="9.797401347641756"><ele>483.0</ele><time>2026-04-04T15:09:50.999Z</time></trkpt><trkpt lat="46.17257217567077" lon="9.797320994978929"><ele>483.0</ele><time>2026-04-04T15:09:51.999Z</time></trkpt><trkpt lat="46.17270300559312" lon="9.797276656136736"><ele>483.0</ele><time>2026-04-04T15:09:52.999Z</time></trkpt><trkpt lat="46.17281516745136" lon="9.797209006286824"><ele>483.0</ele><time>2026-04-04T15:09:53.999Z</time></trkpt><trkpt lat="46.17290767599787" lon="9.797131460454636"><ele>483.0</ele><time>2026-04-04T15:09:54.999Z</time></trkpt><trkpt lat="46.17296377374794" lon="9.797035358632721"><ele>483.0</ele><time>2026-04-04T15:09:55.999Z</time></trkpt><trkpt lat="46.172975992811516" lon="9.796905245566235"><ele>483.0</ele><time>2026-04-04T15:09:56.999Z</time></trkpt><trkpt lat="46.17297032762809" lon="9.796738195016715"><ele>483.0</ele><time>2026-04-04T15:09:57.999Z</time></trkpt><trkpt lat="46.17294063633524" lon="9.796514704695515"><ele>480.25</ele><time>2026-04-04T15:09:58.999Z</time></trkpt><trkpt lat="46.17292903279748" lon="9.796313707589519"><ele>477.5</ele><time>2026-04-04T15:09:59.999Z</time></trkpt><trkpt lat="46.172922475051145" lon="9.79613595659989"><ele>474.75</ele><time>2026-04-04T15:10:00.999Z</time></trkpt><trkpt lat="46.172914640915565" lon="9.795975165568546"><ele>472.0</ele><time>2026-04-04T15:10:01.999Z</time></trkpt><trkpt lat="46.17290573574453" lon="9.7958248068844"><ele>470.6666666666667</ele><time>2026-04-04T15:10:02.999Z</time></trkpt><trkpt lat="46.172917135358965" lon="9.79571309947084"><ele>469.33333333333337</ele><time>2026-04-04T15:10:03.999Z</time></trkpt><trkpt lat="46.172951189963655" lon="9.795627550905348"><ele>468.0</ele><time>2026-04-04T15:10:04.999Z</time></trkpt><trkpt lat="46.17300497953615" lon="9.795572777817524"><ele>466.66666666666663</ele><time>2026-04-04T15:10:05.999Z</time></trkpt><trkpt lat="46.17311636957656" lon="9.795544754797639"><ele>465.3333333333333</ele><time>2026-04-04T15:10:06.999Z</time></trkpt><trkpt lat="46.17323458652655" lon="9.795503173735305"><ele>464.0</ele><time>2026-04-04T15:10:07.999Z</time></trkpt><trkpt lat="46.17337535556004" lon="9.795413892536962"><ele>465.66666666666663</ele><time>2026-04-04T15:10:08.999Z</time></trkpt><trkpt lat="46.1735020318917" lon="9.79527569063376"><ele>467.33333333333337</ele><time>2026-04-04T15:10:09.999Z</time></trkpt><trkpt lat="46.17362917199785" lon="9.795129506751586"><ele>469.0</ele><time>2026-04-04T15:10:10.999Z</time></trkpt><trkpt lat="46.173739736040915" lon="9.795000659756598"><ele>469.0</ele><time>2026-04-04T15:10:11.999Z</time></trkpt><trkpt lat="46.17383550820722" lon="9.79490855869765"><ele>469.0</ele><time>2026-04-04T15:10:12.999Z</time></trkpt><trkpt lat="46.17393811401333" lon="9.79484741979938"><ele>469.0</ele><time>2026-04-04T15:10:13.999Z</time></trkpt><trkpt lat="46.174067641682086" lon="9.7948031883944"><ele>469.0</ele><time>2026-04-04T15:10:14.999Z</time></trkpt><trkpt lat="46.174220928941544" lon="9.794765429500725"><ele>473.0</ele><time>2026-04-04T15:10:15.999Z</time></trkpt><trkpt lat="46.1743519491905" lon="9.794707207966557"><ele>477.0</ele><time>2026-04-04T15:10:16.999Z</time></trkpt><trkpt lat="46.17446046564741" lon="9.79465062327197"><ele>481.0</ele><time>2026-04-04T15:10:17.999Z</time></trkpt><trkpt lat="46.17451766761889" lon="9.794571618773261"><ele>485.0</ele><time>2026-04-04T15:10:18.999Z</time></trkpt><trkpt lat="46.17451276272004" lon="9.794467043541962"><ele>489.0</ele><time>2026-04-04T15:10:19.999Z</time></trkpt><trkpt lat="46.17444850754346" lon="9.794356652206416"><ele>486.0</ele><time>2026-04-04T15:10:20.999Z</time></trkpt><trkpt lat="46.17434853919443" lon="9.794249482854822"><ele>483.0</ele><time>2026-04-04T15:10:21.999Z</time></trkpt><trkpt lat="46.17425851663208" lon="9.79415029888531"><ele>480.0</ele><time>2026-04-04T15:10:22.999Z</time></trkpt><trkpt lat="46.174194565917176" lon="9.794045665922622"><ele>477.0</ele><time>2026-04-04T15:10:23.999Z</time></trkpt><trkpt lat="46.17415999530803" lon="9.793948427286923"><ele>474.0</ele><time>2026-04-04T15:10:24.999Z</time></trkpt><trkpt lat="46.17411005411162" lon="9.793823751139543"><ele>474.0</ele><time>2026-04-04T15:10:26.999Z</time></trkpt><trkpt lat="46.17408546554153" lon="9.793609134576146"><ele>474.0</ele><time>2026-04-04T15:10:28.999Z</time></trkpt><trkpt lat="46.17402901719849" lon="9.793517154314397"><ele>474.0</ele><time>2026-04-04T15:10:29.999Z</time></trkpt><trkpt lat="46.17398519333501" lon="9.79344365131717"><ele>474.0</ele><time>2026-04-04T15:10:30.999Z</time></trkpt><trkpt lat="46.17396274269388" lon="9.793288006872064"><ele>474.0</ele><time>2026-04-04T15:10:31.999Z</time></trkpt><trkpt lat="46.17394908492525" lon="9.793090683537894"><ele>469.66666666666663</ele><time>2026-04-04T15:10:32.998Z</time></trkpt><trkpt lat="46.173893340770235" lon="9.792841744026106"><ele>465.3333333333333</ele><time>2026-04-04T15:10:33.998Z</time></trkpt><trkpt lat="46.17381287735568" lon="9.792622666104478"><ele>461.0</ele><time>2026-04-04T15:10:34.998Z</time></trkpt><trkpt lat="46.17374367436312" lon="9.792434281753042"><ele>460.66666666666663</ele><time>2026-04-04T15:10:35.998Z</time></trkpt><trkpt lat="46.17370038917453" lon="9.79223372300114"><ele>460.33333333333337</ele><time>2026-04-04T15:10:36.998Z</time></trkpt><trkpt lat="46.173677858100795" lon="9.792004614998593"><ele>460.0</ele><time>2026-04-04T15:10:37.998Z</time></trkpt><trkpt lat="46.173644557968984" lon="9.791719886967376"><ele>458.0</ele><time>2026-04-04T15:10:38.998Z</time></trkpt><trkpt lat="46.173609204747926" lon="9.791378515055694"><ele>456.0</ele><time>2026-04-04T15:10:39.998Z</time></trkpt><trkpt lat="46.1735536153228" lon="9.79102219940453"><ele>456.33333333333337</ele><time>2026-04-04T15:10:40.998Z</time></trkpt><trkpt lat="46.17350506400275" lon="9.790691826218913"><ele>456.6666666666667</ele><time>2026-04-04T15:10:41.998Z</time></trkpt><trkpt lat="46.17346146227868" lon="9.790398314594494"><ele>457.0</ele><time>2026-04-04T15:10:42.998Z</time></trkpt><trkpt lat="46.17341841444148" lon="9.790142341947083"><ele>458.0</ele><time>2026-04-04T15:10:43.998Z</time></trkpt><trkpt lat="46.17337061805927" lon="9.789928834758053"><ele>459.0</ele><time>2026-04-04T15:10:44.998Z</time></trkpt><trkpt lat="46.17330694670556" lon="9.789744111056798"><ele>460.0</ele><time>2026-04-04T15:10:45.998Z</time></trkpt><trkpt lat="46.1732266585805" lon="9.789597963225138"><ele>461.0</ele><time>2026-04-04T15:10:46.998Z</time></trkpt><trkpt lat="46.17311027702071" lon="9.789469247417117"><ele>458.0</ele><time>2026-04-04T15:10:47.998Z</time></trkpt><trkpt lat="46.172984951932044" lon="9.789387611720914"><ele>455.0</ele><time>2026-04-04T15:10:48.998Z</time></trkpt><trkpt lat="46.172840413204156" lon="9.789346188014388"><ele>452.0</ele><time>2026-04-04T15:10:50Z</time></trkpt><trkpt lat="46.172683840525494" lon="9.789338056952005"><ele>449.0</ele><time>2026-04-04T15:10:50.999Z</time></trkpt><trkpt lat="46.17253617793919" lon="9.789381410878617"><ele>449.0</ele><time>2026-04-04T15:10:51.999Z</time></trkpt><trkpt lat="46.17237228888993" lon="9.789412396410498"><ele>449.0</ele><time>2026-04-04T15:10:53Z</time></trkpt><trkpt lat="46.17218853968397" lon="9.789452365458022"><ele>449.0</ele><time>2026-04-04T15:10:53.999Z</time></trkpt><trkpt lat="46.17200534469477" lon="9.789473786028822"><ele>446.66666666666663</ele><time>2026-04-04T15:10:54.999Z</time></trkpt><trkpt lat="46.17183559228358" lon="9.78951251106927"><ele>444.33333333333337</ele><time>2026-04-04T15:10:56Z</time></trkpt><trkpt lat="46.17168044408559" lon="9.789529172239689"><ele>442.0</ele><time>2026-04-04T15:10:56.999Z</time></trkpt><trkpt lat="46.17153516606363" lon="9.78955067065162"><ele>441.5</ele><time>2026-04-04T15:10:57.999Z</time></trkpt><trkpt lat="46.171398209194095" lon="9.78956669790657"><ele>441.0</ele><time>2026-04-04T15:10:59Z</time></trkpt><trkpt lat="46.1712784675127" lon="9.789601696918593"><ele>440.5</ele><time>2026-04-04T15:11:00Z</time></trkpt><trkpt lat="46.17117465863798" lon="9.789620571616947"><ele>440.0</ele><time>2026-04-04T15:11:01Z</time></trkpt><trkpt lat="46.171086053415706" lon="9.78963068242261"><ele>440.0</ele><time>2026-04-04T15:11:02Z</time></trkpt><trkpt lat="46.17100037429249" lon="9.789572603246299"><ele>440.0</ele><time>2026-04-04T15:11:03.999Z</time></trkpt><trkpt lat="46.17098944704803" lon="9.789423277281252"><ele>440.0</ele><time>2026-04-04T15:11:05.999Z</time></trkpt><trkpt lat="46.17107129006936" lon="9.78935075829887"><ele>440.0</ele><time>2026-04-04T15:11:07.999Z</time></trkpt><trkpt lat="46.17116969954528" lon="9.789351844251406"><ele>440.0</ele><time>2026-04-04T15:11:08.999Z</time></trkpt><trkpt lat="46.17125688957095" lon="9.789343056319579"><ele>444.4</ele><time>2026-04-04T15:11:09.999Z</time></trkpt><trkpt lat="46.17133393699285" lon="9.789301766056935"><ele>448.8</ele><time>2026-04-04T15:11:10.999Z</time></trkpt><trkpt lat="46.17141959417554" lon="9.789243901413306"><ele>453.20000000000005</ele><time>2026-04-04T15:11:11.999Z</time></trkpt><trkpt lat="46.17150752692727" lon="9.789194359793402"><ele>457.6</ele><time>2026-04-04T15:11:12.999Z</time></trkpt><trkpt lat="46.171574871443276" lon="9.789140827481637"><ele>462.0</ele><time>2026-04-04T15:11:13.999Z</time></trkpt><trkpt lat="46.17165174936027" lon="9.78902981828901"><ele>465.8</ele><time>2026-04-04T15:11:14.999Z</time></trkpt><trkpt lat="46.171736458789034" lon="9.788940939670262"><ele>469.6</ele><time>2026-04-04T15:11:15.999Z</time></trkpt><trkpt lat="46.171815329273976" lon="9.788904706439775"><ele>473.40000000000003</ele><time>2026-04-04T15:11:16.999Z</time></trkpt><trkpt lat="46.171896199557985" lon="9.788898153936648"><ele>477.20000000000005</ele><time>2026-04-04T15:11:17.999Z</time></trkpt><trkpt lat="46.17198775011828" lon="9.788848510011533"><ele>481.0</ele><time>2026-04-04T15:11:18.999Z</time></trkpt><trkpt lat="46.17207746701036" lon="9.788839441784468"><ele>481.0</ele><time>2026-04-04T15:11:19.999Z</time></trkpt><trkpt lat="46.172172230048005" lon="9.788806874765449"><ele>481.0</ele><time>2026-04-04T15:11:20.999Z</time></trkpt><trkpt lat="46.17224914271659" lon="9.788772811365202"><ele>481.0</ele><time>2026-04-04T15:11:21.999Z</time></trkpt><trkpt lat="46.172343915650224" lon="9.78868322532294"><ele>481.0</ele><time>2026-04-04T15:11:22.999Z</time></trkpt><trkpt lat="46.17243701476551" lon="9.788617304293453"><ele>481.0</ele><time>2026-04-04T15:11:23.999Z</time></trkpt><trkpt lat="46.17250811069485" lon="9.788578140102949"><ele>481.0</ele><time>2026-04-04T15:11:24.999Z</time></trkpt><trkpt lat="46.172557408661916" lon="9.788511522379267"><ele>481.0</ele><time>2026-04-04T15:11:26.999Z</time></trkpt><trkpt lat="46.17267722023337" lon="9.788435985131208"><ele>481.0</ele><time>2026-04-04T15:11:28.999Z</time></trkpt><trkpt lat="46.17275905602529" lon="9.788340789137758"><ele>481.0</ele><time>2026-04-04T15:11:29.999Z</time></trkpt><trkpt lat="46.17287569270082" lon="9.78824905413732"><ele>481.0</ele><time>2026-04-04T15:11:30.999Z</time></trkpt><trkpt lat="46.17299247561216" lon="9.788223175269334"><ele>487.4</ele><time>2026-04-04T15:11:31.999Z</time></trkpt><trkpt lat="46.173122637773396" lon="9.788232395431839"><ele>493.8</ele><time>2026-04-04T15:11:32.999Z</time></trkpt><trkpt lat="46.173213423197936" lon="9.788250756225727"><ele>500.19999999999993</ele><time>2026-04-04T15:11:33.999Z</time></trkpt><trkpt lat="46.173307072970296" lon="9.788214572446073"><ele>506.59999999999997</ele><time>2026-04-04T15:11:35.999Z</time></trkpt><trkpt lat="46.1733713036899" lon="9.788220380742208"><ele>513.0</ele><time>2026-04-04T15:11:38.999Z</time></trkpt><trkpt lat="46.17347134763682" lon="9.788208878512366"><ele>513.0</ele><time>2026-04-04T15:11:45.999Z</time></trkpt><trkpt lat="46.17355133448769" lon="9.78819773526827"><ele>513.0</ele><time>2026-04-04T15:11:47.999Z</time></trkpt><trkpt lat="46.17361883568234" lon="9.788102105625267"><ele>513.0</ele><time>2026-04-04T15:11:51.999Z</time></trkpt><trkpt lat="46.173670325985334" lon="9.788018660265903"><ele>513.0</ele><time>2026-04-04T15:11:53.999Z</time></trkpt><trkpt lat="46.17370919660381" lon="9.787926745703672"><ele>513.0</ele><time>2026-04-04T15:11:55.999Z</time></trkpt><trkpt lat="46.17373049805365" lon="9.78777852968641"><ele>513.0</ele><time>2026-04-04T15:11:58.999Z</time></trkpt><trkpt lat="46.173743079950256" lon="9.787631388840806"><ele>515.1999999999999</ele><time>2026-04-04T15:12:00.999Z</time></trkpt><trkpt lat="46.17377519314817" lon="9.787517971094829"><ele>517.4</ele><time>2026-04-04T15:12:02.999Z</time></trkpt><trkpt lat="46.173811130303555" lon="9.787380867024469"><ele>519.5999999999999</ele><time>2026-04-04T15:12:04.999Z</time></trkpt><trkpt lat="46.17386670818483" lon="9.78723738028855"><ele>521.8</ele><time>2026-04-04T15:12:06.999Z</time></trkpt><trkpt lat="46.17389725830604" lon="9.7871478355345"><ele>524.0</ele><time>2026-04-04T15:12:08.999Z</time></trkpt><trkpt lat="46.17397631517704" lon="9.787088124518515"><ele>529.5</ele><time>2026-04-04T15:12:10.999Z</time></trkpt><trkpt lat="46.17405358622234" lon="9.787104049592445"><ele>535.0</ele><time>2026-04-04T15:12:12.999Z</time></trkpt><trkpt lat="46.17414099864113" lon="9.787105924498404"><ele>540.5</ele><time>2026-04-04T15:12:15.999Z</time></trkpt><trkpt lat="46.17426439173104" lon="9.787117685888528"><ele>546.0</ele><time>2026-04-04T15:12:17.999Z</time></trkpt><trkpt lat="46.17434964834359" lon="9.787120760035501"><ele>551.5</ele><time>2026-04-04T15:12:18.999Z</time></trkpt><trkpt lat="46.174422920204755" lon="9.78711563677482"><ele>557.0</ele><time>2026-04-04T15:12:19.999Z</time></trkpt><trkpt lat="46.17452849502144" lon="9.787109499170274"><ele>557.0</ele><time>2026-04-04T15:12:21.999Z</time></trkpt><trkpt lat="46.17462689183503" lon="9.787185464754073"><ele>557.0</ele><time>2026-04-04T15:12:23.999Z</time></trkpt><trkpt lat="46.17472719298472" lon="9.78720905501332"><ele>557.0</ele><time>2026-04-04T15:12:25.999Z</time></trkpt><trkpt lat="46.174858144529374" lon="9.78723504153023"><ele>557.0</ele><time>2026-04-04T15:12:27.999Z</time></trkpt><trkpt lat="46.17492533590504" lon="9.78724657568465"><ele>557.0</ele><time>2026-04-04T15:12:28.999Z</time></trkpt><trkpt lat="46.17499640525396" lon="9.787249412113365"><ele>561.1666666666666</ele><time>2026-04-04T15:12:29.999Z</time></trkpt><trkpt lat="46.17506488357296" lon="9.787269101688599"><ele>565.3333333333333</ele><time>2026-04-04T15:12:30.999Z</time></trkpt><trkpt lat="46.1751405337953" lon="9.787326414622566"><ele>569.5</ele><time>2026-04-04T15:12:32.999Z</time></trkpt><trkpt lat="46.17527763410181" lon="9.787320627210761"><ele>573.6666666666666</ele><time>2026-04-04T15:12:47.999Z</time></trkpt><trkpt lat="46.17535706544987" lon="9.787332715152427"><ele>577.8333333333334</ele><time>2026-04-04T15:12:59Z</time></trkpt><trkpt lat="46.17542395823171" lon="9.787350296800135"><ele>582.0</ele><time>2026-04-04T15:13:56.999Z</time></trkpt><trkpt lat="46.17549389727137" lon="9.787381681720245"><ele>582.0</ele><time>2026-04-04T15:14:08.999Z</time></trkpt><trkpt lat="46.17552096206768" lon="9.78746817686146"><ele>582.0</ele><time>2026-04-04T15:14:20.999Z</time></trkpt><trkpt lat="46.17548154920044" lon="9.787547649488063"><ele>582.0</ele><time>2026-04-04T15:14:27.999Z</time></trkpt><trkpt lat="46.17542582749146" lon="9.787594468737936"><ele>582.0</ele><time>2026-04-04T15:14:38.999Z</time></trkpt><trkpt lat="46.17534917763243" lon="9.787599599701519"><ele>582.0</ele><time>2026-04-04T15:14:41.999Z</time></trkpt><trkpt lat="46.17527680831725" lon="9.787602925182474"><ele>582.0</ele><time>2026-04-04T15:14:53.999Z</time></trkpt><trkpt lat="46.17516958537636" lon="9.787646766397433"><ele>582.0</ele><time>2026-04-04T15:14:57.999Z</time></trkpt><trkpt lat="46.17510444465176" lon="9.787670108912296"><ele>582.0</ele><time>2026-04-04T15:14:59.999Z</time></trkpt><trkpt lat="46.175013115191746" lon="9.787663622138304"><ele>582.0</ele><time>2026-04-04T15:15:03Z</time></trkpt><trkpt lat="46.17494586745008" lon="9.787700989740028"><ele>582.0</ele><time>2026-04-04T15:15:05Z</time></trkpt><trkpt lat="46.17499324382411" lon="9.787781442649246"><ele>582.0</ele><time>2026-04-04T15:15:08Z</time></trkpt><trkpt lat="46.17503677429218" lon="9.78784762112135"><ele>582.0</ele><time>2026-04-04T15:15:14Z</time></trkpt><trkpt lat="46.17508183718773" lon="9.787915161667003"><ele>582.0</ele><time>2026-04-04T15:15:39.999Z</time></trkpt><trkpt lat="46.17514089582572" lon="9.787955172600798"><ele>583.4285714285714</ele><time>2026-04-04T15:15:42.999Z</time></trkpt><trkpt lat="46.17519662088486" lon="9.7880309894908"><ele>584.8571428571428</ele><time>2026-04-04T15:15:45.999Z</time></trkpt><trkpt lat="46.17525843693886" lon="9.788066769735542"><ele>586.2857142857142</ele><time>2026-04-04T15:15:47.999Z</time></trkpt><trkpt lat="46.17533028125156" lon="9.78812773662892"><ele>587.7142857142857</ele><time>2026-04-04T15:15:49.999Z</time></trkpt><trkpt lat="46.17539141370799" lon="9.788181126633086"><ele>589.1428571428571</ele><time>2026-04-04T15:15:51.999Z</time></trkpt><trkpt lat="46.175454638361096" lon="9.788232154629213"><ele>590.5714285714286</ele><time>2026-04-04T15:15:54.999Z</time></trkpt><trkpt lat="46.17552226400684" lon="9.788276910424331"><ele>592.0</ele><time>2026-04-04T15:15:56.999Z</time></trkpt><trkpt lat="46.175629366784506" lon="9.788330044448575"><ele>592.0</ele><time>2026-04-04T15:15:59.999Z</time></trkpt><trkpt lat="46.17564261918764" lon="9.788424065480157"><ele>592.0</ele><time>2026-04-04T15:16:01.999Z</time></trkpt><trkpt lat="46.17571078816054" lon="9.788501983708494"><ele>592.0</ele><time>2026-04-04T15:16:05.999Z</time></trkpt><trkpt lat="46.1757928881431" lon="9.788494525632272"><ele>592.0</ele><time>2026-04-04T15:16:07.999Z</time></trkpt><trkpt lat="46.17586505971437" lon="9.788479862974501"><ele>592.0</ele><time>2026-04-04T15:16:09.999Z</time></trkpt><trkpt lat="46.175941184327364" lon="9.788554550953984"><ele>592.0</ele><time>2026-04-04T15:16:11.999Z</time></trkpt><trkpt lat="46.176020594250836" lon="9.78859020629001"><ele>598.2</ele><time>2026-04-04T15:16:13.999Z</time></trkpt><trkpt lat="46.17611250312378" lon="9.788636445300378"><ele>604.4000000000001</ele><time>2026-04-04T15:16:14.999Z</time></trkpt><trkpt lat="46.17620906874394" lon="9.788612242292931"><ele>610.5999999999999</ele><time>2026-04-04T15:16:16.999Z</time></trkpt><trkpt lat="46.176281641969204" lon="9.788629048177983"><ele>616.8</ele><time>2026-04-04T15:16:18.999Z</time></trkpt><trkpt lat="46.17635763774667" lon="9.788688322421251"><ele>623.0</ele><time>2026-04-04T15:16:20.999Z</time></trkpt><trkpt lat="46.17645245166623" lon="9.788741967226676"><ele>630.3333333333333</ele><time>2026-04-04T15:16:22.999Z</time></trkpt><trkpt lat="46.17653215109724" lon="9.788728561127723"><ele>637.6666666666666</ele><time>2026-04-04T15:16:24.999Z</time></trkpt><trkpt lat="46.17660476319281" lon="9.788728864080216"><ele>645.0</ele><time>2026-04-04T15:16:26.999Z</time></trkpt><trkpt lat="46.17669651100397" lon="9.788732372066509"><ele>652.3333333333334</ele><time>2026-04-04T15:16:28.999Z</time></trkpt><trkpt lat="46.17677227848262" lon="9.788770655297151"><ele>659.6666666666667</ele><time>2026-04-04T15:16:29.999Z</time></trkpt><trkpt lat="46.17684009861258" lon="9.788800614483957"><ele>667.0</ele><time>2026-04-04T15:16:31.999Z</time></trkpt><trkpt lat="46.1769213049986" lon="9.788767833485812"><ele>667.0</ele><time>2026-04-04T15:16:33.999Z</time></trkpt><trkpt lat="46.17699664942939" lon="9.788757456993874"><ele>667.0</ele><time>2026-04-04T15:16:34.999Z</time></trkpt><trkpt lat="46.177083899886554" lon="9.78874986731888"><ele>667.0</ele><time>2026-04-04T15:16:35.999Z</time></trkpt><trkpt lat="46.17715302674102" lon="9.788695548666269"><ele>667.0</ele><time>2026-04-04T15:16:36.999Z</time></trkpt><trkpt lat="46.177220942089036" lon="9.788665395329506"><ele>667.0</ele><time>2026-04-04T15:16:37.999Z</time></trkpt><trkpt lat="46.17727949683034" lon="9.788631490157393"><ele>667.0</ele><time>2026-04-04T15:16:38.999Z</time></trkpt><trkpt lat="46.177351478406706" lon="9.788657545628443"><ele>669.0</ele><time>2026-04-04T15:16:39.999Z</time></trkpt><trkpt lat="46.17742730183485" lon="9.78865443900197"><ele>671.0</ele><time>2026-04-04T15:16:40.999Z</time></trkpt><trkpt lat="46.1775027770784" lon="9.78864023261336"><ele>673.0</ele><time>2026-04-04T15:16:41.999Z</time></trkpt><trkpt lat="46.177576994746524" lon="9.788620112463743"><ele>675.0</ele><time>2026-04-04T15:16:42.999Z</time></trkpt><trkpt lat="46.17758733668191" lon="9.78849922652334"><ele>677.0</ele><time>2026-04-04T15:16:45.999Z</time></trkpt><trkpt lat="46.1776163351835" lon="9.788366001016358"><ele>679.0</ele><time>2026-04-04T15:16:47.999Z</time></trkpt><trkpt lat="46.17761797329142" lon="9.788267435366413"><ele>679.0</ele><time>2026-04-04T15:16:49.999Z</time></trkpt><trkpt lat="46.177701401192344" lon="9.788246896216092"><ele>679.0</ele><time>2026-04-04T15:16:54.999Z</time></trkpt><trkpt lat="46.17777335828604" lon="9.78814923447027"><ele>679.0</ele><time>2026-04-04T15:16:58.999Z</time></trkpt><trkpt lat="46.17783111825829" lon="9.788096996668825"><ele>679.0</ele><time>2026-04-04T15:17:00.999Z</time></trkpt><trkpt lat="46.177846168201405" lon="9.787981284009824"><ele>679.0</ele><time>2026-04-04T15:17:03.999Z</time></trkpt><trkpt lat="46.17781750871044" lon="9.787861268892435"><ele>679.0</ele><time>2026-04-04T15:17:04.999Z</time></trkpt><trkpt lat="46.17778715089737" lon="9.787711781948515"><ele>679.0</ele><time>2026-04-04T15:17:05.999Z</time></trkpt><trkpt lat="46.17783766409367" lon="9.787655705947945"><ele>679.0</ele><time>2026-04-04T15:17:25Z</time></trkpt><trkpt lat="46.177814966082124" lon="9.787567146286944"><ele>679.0</ele><time>2026-04-04T15:17:27Z</time></trkpt><trkpt lat="46.177824624998145" lon="9.78740016665437"><ele>679.0</ele><time>2026-04-04T15:17:29Z</time></trkpt><trkpt lat="46.177809516715286" lon="9.78729433822577"><ele>679.0</ele><time>2026-04-04T15:17:31Z</time></trkpt><trkpt lat="46.17788368386553" lon="9.787299128676738"><ele>679.0</ele><time>2026-04-04T15:17:34.999Z</time></trkpt><trkpt lat="46.177967207750214" lon="9.787355506388995"><ele>679.0</ele><time>2026-04-04T15:17:36.999Z</time></trkpt><trkpt lat="46.17802378639893" lon="9.787428018572824"><ele>679.0</ele><time>2026-04-04T15:17:38.999Z</time></trkpt><trkpt lat="46.17805730713282" lon="9.787544965995847"><ele>679.0</ele><time>2026-04-04T15:17:40.999Z</time></trkpt><trkpt lat="46.178134738547634" lon="9.787583441828094"><ele>679.0</ele><time>2026-04-04T15:17:42.999Z</time></trkpt><trkpt lat="46.1781254800631" lon="9.7874677731601"><ele>679.0</ele><time>2026-04-04T15:17:46.999Z</time></trkpt><trkpt lat="46.178137604537945" lon="9.787374020151516"><ele>679.0</ele><time>2026-04-04T15:17:48.999Z</time></trkpt><trkpt lat="46.17820520418519" lon="9.78733322592893"><ele>688.0</ele><time>2026-04-04T15:17:49.999Z</time></trkpt><trkpt lat="46.17829876399525" lon="9.787264231225095"><ele>697.0</ele><time>2026-04-04T15:17:51.999Z</time></trkpt><trkpt lat="46.17838051434129" lon="9.787257423252711"><ele>706.0</ele><time>2026-04-04T15:17:53.999Z</time></trkpt><trkpt lat="46.17848991133785" lon="9.787248894041083"><ele>715.0</ele><time>2026-04-04T15:17:55.999Z</time></trkpt><trkpt lat="46.178574610488866" lon="9.787178862352983"><ele>724.0</ele><time>2026-04-04T15:17:57.999Z</time></trkpt><trkpt lat="46.17863927542313" lon="9.787126644750774"><ele>724.0</ele><time>2026-04-04T15:17:59.999Z</time></trkpt><trkpt lat="46.178717597173716" lon="9.787131966603905"><ele>724.0</ele><time>2026-04-04T15:18:02.999Z</time></trkpt><trkpt lat="46.178800755217466" lon="9.787094769346073"><ele>724.0</ele><time>2026-04-04T15:18:07.999Z</time></trkpt><trkpt lat="46.178754547671915" lon="9.786966586040371"><ele>724.0</ele><time>2026-04-04T15:18:09.999Z</time></trkpt><trkpt lat="46.178714210352595" lon="9.786887843048417"><ele>724.0</ele><time>2026-04-04T15:18:10.999Z</time></trkpt><trkpt lat="46.17871765444441" lon="9.78678339458141"><ele>724.0</ele><time>2026-04-04T15:18:12.999Z</time></trkpt><trkpt lat="46.178796973463285" lon="9.786617145552007"><ele>723.5</ele><time>2026-04-04T15:18:14.999Z</time></trkpt><trkpt lat="46.17884507937173" lon="9.786524988538721"><ele>723.0</ele><time>2026-04-04T15:18:15.999Z</time></trkpt><trkpt lat="46.1788964737415" lon="9.786428812612142"><ele>722.5</ele><time>2026-04-04T15:18:17.999Z</time></trkpt><trkpt lat="46.17892671342433" lon="9.786531419463126"><ele>722.0</ele><time>2026-04-04T15:18:23.999Z</time></trkpt><trkpt lat="46.17899123416686" lon="9.786533281361258"><ele>721.5</ele><time>2026-04-04T15:18:26.999Z</time></trkpt><trkpt lat="46.179060482837464" lon="9.786512767972873"><ele>721.0</ele><time>2026-04-04T15:18:28.999Z</time></trkpt><trkpt lat="46.17914675708265" lon="9.786464690531668"><ele>731.1999999999999</ele><time>2026-04-04T15:18:31.999Z</time></trkpt><trkpt lat="46.17916056937298" lon="9.78660457432113"><ele>741.4</ele><time>2026-04-04T15:18:58.999Z</time></trkpt><trkpt lat="46.17918911834268" lon="9.786692161545904"><ele>751.6</ele><time>2026-04-04T15:19:02.999Z</time></trkpt><trkpt lat="46.179299759709004" lon="9.786722427556871"><ele>761.8</ele><time>2026-04-04T15:19:08.999Z</time></trkpt><trkpt lat="46.17938858998558" lon="9.786600960891581"><ele>772.0</ele><time>2026-04-04T15:19:14.999Z</time></trkpt><trkpt lat="46.179448366957736" lon="9.786497660419984"><ele>771.9999999999999</ele><time>2026-04-04T15:19:15.999Z</time></trkpt><trkpt lat="46.1795227816212" lon="9.78645534664674"><ele>772.0</ele><time>2026-04-04T15:19:17.999Z</time></trkpt><trkpt lat="46.17953281169617" lon="9.786365418168447"><ele>772.0</ele><time>2026-04-04T15:19:22.999Z</time></trkpt><trkpt lat="46.179495754406425" lon="9.786207151019752"><ele>772.0</ele><time>2026-04-04T15:19:36.999Z</time></trkpt><trkpt lat="46.179446468054564" lon="9.786065901539978"><ele>771.9999999999999</ele><time>2026-04-04T15:19:39.999Z</time></trkpt><trkpt lat="46.179431709279875" lon="9.785977419912806"><ele>772.0</ele><time>2026-04-04T15:19:41.999Z</time></trkpt><trkpt lat="46.17943074916424" lon="9.78587605379215"><ele>772.4000000000001</ele><time>2026-04-04T15:19:44.999Z</time></trkpt><trkpt lat="46.179356929974226" lon="9.785784313782425"><ele>772.8000000000001</ele><time>2026-04-04T15:19:47.999Z</time></trkpt><trkpt lat="46.179297656895464" lon="9.785710408543654"><ele>773.2</ele><time>2026-04-04T15:19:49.999Z</time></trkpt><trkpt lat="46.17923493327189" lon="9.785519806492895"><ele>773.6</ele><time>2026-04-04T15:19:51.999Z</time></trkpt><trkpt lat="46.17917149178354" lon="9.785371715363105"><ele>774.0</ele><time>2026-04-04T15:19:53.999Z</time></trkpt><trkpt lat="46.179142033863094" lon="9.785282331536367"><ele>775.0</ele><time>2026-04-04T15:19:54.999Z</time></trkpt><trkpt lat="46.179082094146075" lon="9.785175307736449"><ele>776.0</ele><time>2026-04-04T15:19:56.999Z</time></trkpt><trkpt lat="46.17898960745471" lon="9.785071014386553"><ele>777.0</ele><time>2026-04-04T15:19:59.999Z</time></trkpt><trkpt lat="46.178859119471674" lon="9.784943181429226"><ele>778.0</ele><time>2026-04-04T15:20:01.999Z</time></trkpt><trkpt lat="46.17878230824555" lon="9.784872027744449"><ele>771.4285714285714</ele><time>2026-04-04T15:20:02.999Z</time></trkpt><trkpt lat="46.178708524575164" lon="9.784825674200777"><ele>764.8571428571428</ele><time>2026-04-04T15:20:03.999Z</time></trkpt><trkpt lat="46.17864200313575" lon="9.784783457285751"><ele>758.2857142857142</ele><time>2026-04-04T15:20:04.999Z</time></trkpt><trkpt lat="46.17858057466742" lon="9.784754066842844"><ele>751.7142857142858</ele><time>2026-04-04T15:20:06.999Z</time></trkpt><trkpt lat="46.17850132220885" lon="9.78479541400492"><ele>745.1428571428571</ele><time>2026-04-04T15:20:09.999Z</time></trkpt><trkpt lat="46.178435709557206" lon="9.784790962124179"><ele>738.5714285714286</ele><time>2026-04-04T15:20:11.999Z</time></trkpt><trkpt lat="46.17837271701061" lon="9.784784089172781"><ele>732.0</ele><time>2026-04-04T15:20:13.999Z</time></trkpt><trkpt lat="46.17830321061407" lon="9.784711799837977"><ele>732.0</ele><time>2026-04-04T15:20:15.999Z</time></trkpt><trkpt lat="46.178235086307765" lon="9.784650269849928"><ele>732.0</ele><time>2026-04-04T15:20:19.999Z</time></trkpt><trkpt lat="46.17812109105069" lon="9.784680976245841"><ele>732.0</ele><time>2026-04-04T15:20:29.999Z</time></trkpt><trkpt lat="46.178057852081686" lon="9.784668273546968"><ele>732.0</ele><time>2026-04-04T15:20:36.999Z</time></trkpt><trkpt lat="46.177994092317725" lon="9.7846829326559"><ele>732.0</ele><time>2026-04-04T15:20:57.999Z</time></trkpt><trkpt lat="46.177942188895145" lon="9.784623043942906"><ele>732.0</ele><time>2026-04-04T15:21:01.998Z</time></trkpt><trkpt lat="46.177879125799976" lon="9.784649151933547"><ele>723.6666666666666</ele><time>2026-04-04T15:21:10.998Z</time></trkpt><trkpt lat="46.17788180345104" lon="9.784743502680053"><ele>715.3333333333334</ele><time>2026-04-04T15:21:19.999Z</time></trkpt><trkpt lat="46.177817431776" lon="9.784713872610723"><ele>707.0</ele><time>2026-04-04T15:21:40.999Z</time></trkpt><trkpt lat="46.17775870867188" lon="9.78463618304501"><ele>698.6666666666667</ele><time>2026-04-04T15:21:49.999Z</time></trkpt><trkpt lat="46.17768626936297" lon="9.7846420180522"><ele>690.3333333333334</ele><time>2026-04-04T15:21:54.999Z</time></trkpt><trkpt lat="46.17762611369709" lon="9.784670140564947"><ele>682.0</ele><time>2026-04-04T15:22:01.999Z</time></trkpt><trkpt lat="46.177546564869836" lon="9.784568549132588"><ele>682.0</ele><time>2026-04-04T15:22:16.999Z</time></trkpt><trkpt lat="46.1774599035983" lon="9.784501407603177"><ele>682.0</ele><time>2026-04-04T15:22:19.999Z</time></trkpt><trkpt lat="46.17742487583437" lon="9.784371580109315"><ele>682.0</ele><time>2026-04-04T15:22:22.999Z</time></trkpt><trkpt lat="46.177390263236525" lon="9.78427174211256"><ele>682.0</ele><time>2026-04-04T15:22:25.999Z</time></trkpt><trkpt lat="46.17731131823293" lon="9.784244184681127"><ele>682.0</ele><time>2026-04-04T15:22:29.999Z</time></trkpt><trkpt lat="46.17722478160501" lon="9.784193416284934"><ele>682.0</ele><time>2026-04-04T15:22:33.999Z</time></trkpt><trkpt lat="46.1771629862674" lon="9.78416874103465"><ele>674.1666666666667</ele><time>2026-04-04T15:22:36.999Z</time></trkpt><trkpt lat="46.17715022865921" lon="9.78407333036688"><ele>666.3333333333334</ele><time>2026-04-04T15:22:39.999Z</time></trkpt><trkpt lat="46.17712178515957" lon="9.783979200563195"><ele>658.5</ele><time>2026-04-04T15:22:42.999Z</time></trkpt><trkpt lat="46.17716095233925" lon="9.783904810899577"><ele>650.6666666666666</ele><time>2026-04-04T15:22:46.999Z</time></trkpt><trkpt lat="46.17718867031032" lon="9.783777274461297"><ele>642.8333333333333</ele><time>2026-04-04T15:22:50.999Z</time></trkpt><trkpt lat="46.17721367314792" lon="9.783584246892474"><ele>635.0</ele><time>2026-04-04T15:22:53.999Z</time></trkpt><trkpt lat="46.17718186526184" lon="9.78349234083183"><ele>634.9999999999999</ele><time>2026-04-04T15:22:56.999Z</time></trkpt><trkpt lat="46.177107791438154" lon="9.783403243045912"><ele>635.0</ele><time>2026-04-04T15:22:58.999Z</time></trkpt><trkpt lat="46.17707654466906" lon="9.783314995542947"><ele>635.0</ele><time>2026-04-04T15:23:00.999Z</time></trkpt><trkpt lat="46.17703159625709" lon="9.78324943906345"><ele>635.0</ele><time>2026-04-04T15:23:02.999Z</time></trkpt><trkpt lat="46.17698055767259" lon="9.783187921315255"><ele>635.0</ele><time>2026-04-04T15:23:04.999Z</time></trkpt><trkpt lat="46.17692953182882" lon="9.783115576088234"><ele>634.9999999999999</ele><time>2026-04-04T15:23:07.999Z</time></trkpt><trkpt lat="46.17690804023891" lon="9.783002918858582"><ele>635.0</ele><time>2026-04-04T15:23:21.998Z</time></trkpt><trkpt lat="46.17685411473871" lon="9.783050867293987"><ele>635.0</ele><time>2026-04-04T15:23:30.999Z</time></trkpt><trkpt lat="46.17678553899507" lon="9.783053634970585"><ele>635.0</ele><time>2026-04-04T15:23:35Z</time></trkpt><trkpt lat="46.17673660395616" lon="9.783127546547878"><ele>635.0</ele><time>2026-04-04T15:23:36.999Z</time></trkpt><trkpt lat="46.17670197737864" lon="9.783241505828606"><ele>635.0</ele><time>2026-04-04T15:23:39Z</time></trkpt><trkpt lat="46.17660213611177" lon="9.783306173958223"><ele>635.0</ele><time>2026-04-04T15:23:41Z</time></trkpt><trkpt lat="46.176587108774505" lon="9.783396392508772"><ele>635.0</ele><time>2026-04-04T15:23:43Z</time></trkpt><trkpt lat="46.17658510596609" lon="9.783495943811687"><ele>634.4</ele><time>2026-04-04T15:23:45Z</time></trkpt><trkpt lat="46.176604022175454" lon="9.783627023297878"><ele>633.8</ele><time>2026-04-04T15:23:47Z</time></trkpt><trkpt lat="46.176596791074076" lon="9.783763324479724"><ele>633.2</ele><time>2026-04-04T15:23:49Z</time></trkpt><trkpt lat="46.17660567774213" lon="9.78390380984503"><ele>632.6</ele><time>2026-04-04T15:23:51Z</time></trkpt><trkpt lat="46.17658673124105" lon="9.784061075314279"><ele>632.0</ele><time>2026-04-04T15:23:53Z</time></trkpt><trkpt lat="46.17656094597396" lon="9.784193174688333"><ele>632.0</ele><time>2026-04-04T15:23:55Z</time></trkpt><trkpt lat="46.17656421492296" lon="9.784327860774113"><ele>632.0</ele><time>2026-04-04T15:23:57Z</time></trkpt><trkpt lat="46.176536188080824" lon="9.784455849851337"><ele>632.0</ele><time>2026-04-04T15:23:58.999Z</time></trkpt><trkpt lat="46.17651191802347" lon="9.784614835616681"><ele>632.0</ele><time>2026-04-04T15:24:00.999Z</time></trkpt><trkpt lat="46.176489147755845" lon="9.784713879365457"><ele>632.0</ele><time>2026-04-04T15:24:02.999Z</time></trkpt><trkpt lat="46.17649804745416" lon="9.784828820619074"><ele>630.2</ele><time>2026-04-04T15:24:05.999Z</time></trkpt><trkpt lat="46.17651595778057" lon="9.784989913049145"><ele>628.4000000000001</ele><time>2026-04-04T15:24:08.999Z</time></trkpt><trkpt lat="46.17653106088527" lon="9.785128768382078"><ele>626.5999999999999</ele><time>2026-04-04T15:24:10.999Z</time></trkpt><trkpt lat="46.176578938732845" lon="9.785209378391592"><ele>624.8</ele><time>2026-04-04T15:24:12.999Z</time></trkpt><trkpt lat="46.17663305806653" lon="9.785288288077036"><ele>623.0</ele><time>2026-04-04T15:24:15.999Z</time></trkpt><trkpt lat="46.176688774752726" lon="9.785450844202332"><ele>623.0</ele><time>2026-04-04T15:24:35.999Z</time></trkpt><trkpt lat="46.176716058565425" lon="9.785540842246494"><ele>623.0</ele><time>2026-04-04T15:24:43.999Z</time></trkpt><trkpt lat="46.17664977018856" lon="9.785571096302197"><ele>623.0</ele><time>2026-04-04T15:24:57.999Z</time></trkpt><trkpt lat="46.176575511919" lon="9.785499409365327"><ele>623.0</ele><time>2026-04-04T15:24:59.999Z</time></trkpt><trkpt lat="46.17650192354259" lon="9.785561788590487"><ele>623.0</ele><time>2026-04-04T15:25:02.999Z</time></trkpt><trkpt lat="46.17642916450456" lon="9.785704263111631"><ele>623.0</ele><time>2026-04-04T15:25:05.999Z</time></trkpt><trkpt lat="46.176332437579475" lon="9.785741387650225"><ele>615.6666666666666</ele><time>2026-04-04T15:25:07.999Z</time></trkpt><trkpt lat="46.176246245061506" lon="9.785765301848732"><ele>608.3333333333333</ele><time>2026-04-04T15:25:10.999Z</time></trkpt><trkpt lat="46.17617916092295" lon="9.785773069983982"><ele>601.0</ele><time>2026-04-04T15:25:12.999Z</time></trkpt><trkpt lat="46.1760988173424" lon="9.785824305692618"><ele>593.6666666666666</ele><time>2026-04-04T15:25:14.999Z</time></trkpt><trkpt lat="46.17602893120177" lon="9.785847280040398"><ele>586.3333333333334</ele><time>2026-04-04T15:25:16.999Z</time></trkpt><trkpt lat="46.175954845271434" lon="9.785859594154914"><ele>579.0</ele><time>2026-04-04T15:25:18.999Z</time></trkpt><trkpt lat="46.17585551991252" lon="9.785871874640847"><ele>579.0</ele><time>2026-04-04T15:25:23.999Z</time></trkpt><trkpt lat="46.17575759690463" lon="9.785807845668414"><ele>579.0</ele><time>2026-04-04T15:25:26.999Z</time></trkpt><trkpt lat="46.1756780220175" lon="9.785674899923993"><ele>579.0</ele><time>2026-04-04T15:25:28.999Z</time></trkpt><trkpt lat="46.17559856318284" lon="9.785501906003995"><ele>579.0</ele><time>2026-04-04T15:25:30.999Z</time></trkpt><trkpt lat="46.17551664687737" lon="9.785464632215854"><ele>573.0</ele><time>2026-04-04T15:25:32.999Z</time></trkpt><trkpt lat="46.17542670621395" lon="9.78537400128161"><ele>567.0</ele><time>2026-04-04T15:25:35Z</time></trkpt><trkpt lat="46.175364675132684" lon="9.7853529578048"><ele>561.0</ele><time>2026-04-04T15:25:35.999Z</time></trkpt><trkpt lat="46.17529392118485" lon="9.78531674002091"><ele>555.0</ele><time>2026-04-04T15:25:36.999Z</time></trkpt><trkpt lat="46.17521562368569" lon="9.785228137598928"><ele>549.0</ele><time>2026-04-04T15:25:38.999Z</time></trkpt><trkpt lat="46.17515041782702" lon="9.785150904391674"><ele>543.0</ele><time>2026-04-04T15:25:41Z</time></trkpt><trkpt lat="46.17508369103848" lon="9.785136999046555"><ele>543.0</ele><time>2026-04-04T15:25:42.999Z</time></trkpt><trkpt lat="46.1750003755082" lon="9.785115231438231"><ele>543.0</ele><time>2026-04-04T15:25:44.999Z</time></trkpt><trkpt lat="46.17490410636148" lon="9.785043397169149"><ele>543.0</ele><time>2026-04-04T15:25:46.999Z</time></trkpt><trkpt lat="46.17484560725734" lon="9.78499215097069"><ele>543.0</ele><time>2026-04-04T15:25:48.999Z</time></trkpt><trkpt lat="46.17474276119585" lon="9.78496236065535"><ele>543.0</ele><time>2026-04-04T15:25:51.999Z</time></trkpt><trkpt lat="46.174636558377415" lon="9.784936680823774"><ele>537.5</ele><time>2026-04-04T15:25:53.999Z</time></trkpt><trkpt lat="46.17456166457506" lon="9.784911666133889"><ele>532.0</ele><time>2026-04-04T15:25:55.999Z</time></trkpt><trkpt lat="46.17448444423224" lon="9.784853984482123"><ele>526.5</ele><time>2026-04-04T15:25:59.999Z</time></trkpt><trkpt lat="46.174410062544105" lon="9.784829906026966"><ele>521.0</ele><time>2026-04-04T15:26:02.999Z</time></trkpt><trkpt lat="46.174476212005764" lon="9.78480559628086"><ele>515.5</ele><time>2026-04-04T15:26:06.999Z</time></trkpt><trkpt lat="46.17460918951714" lon="9.784802237171574"><ele>510.0</ele><time>2026-04-04T15:26:08.999Z</time></trkpt><trkpt lat="46.17468904276253" lon="9.784787794818719"><ele>510.0</ele><time>2026-04-04T15:26:09.999Z</time></trkpt><trkpt lat="46.17477132749438" lon="9.784779700254383"><ele>510.0</ele><time>2026-04-04T15:26:10.999Z</time></trkpt><trkpt lat="46.174850481511946" lon="9.784766683290442"><ele>510.0</ele><time>2026-04-04T15:26:11.999Z</time></trkpt><trkpt lat="46.17494035414679" lon="9.784759693448846"><ele>510.0</ele><time>2026-04-04T15:26:12.999Z</time></trkpt><trkpt lat="46.175025085254944" lon="9.784757394560332"><ele>510.0</ele><time>2026-04-04T15:26:13.999Z</time></trkpt><trkpt lat="46.17509310498611" lon="9.784738491067348"><ele>510.0</ele><time>2026-04-04T15:26:14.999Z</time></trkpt><trkpt lat="46.17515809910959" lon="9.784629478572654"><ele>515.0</ele><time>2026-04-04T15:26:16.999Z</time></trkpt><trkpt lat="46.1751225736124" lon="9.784483654242566"><ele>520.0</ele><time>2026-04-04T15:26:18.999Z</time></trkpt><trkpt lat="46.17506699658784" lon="9.784380299173153"><ele>525.0</ele><time>2026-04-04T15:26:19.999Z</time></trkpt><trkpt lat="46.17502893376195" lon="9.784261546741902"><ele>530.0</ele><time>2026-04-04T15:26:20.999Z</time></trkpt><trkpt lat="46.174994397032336" lon="9.784106882829223"><ele>535.0</ele><time>2026-04-04T15:26:21.999Z</time></trkpt><trkpt lat="46.17496521723676" lon="9.783935043060625"><ele>535.0</ele><time>2026-04-04T15:26:22.999Z</time></trkpt><trkpt lat="46.17492937140693" lon="9.783750385123914"><ele>535.0</ele><time>2026-04-04T15:26:23.999Z</time></trkpt><trkpt lat="46.17489359392532" lon="9.783609028981507"><ele>535.0</ele><time>2026-04-04T15:26:24.999Z</time></trkpt><trkpt lat="46.17486552836023" lon="9.783497070899877"><ele>535.0</ele><time>2026-04-04T15:26:25.999Z</time></trkpt><trkpt lat="46.17491731177771" lon="9.783314284105977"><ele>535.1666666666667</ele><time>2026-04-04T15:26:27.999Z</time></trkpt><trkpt lat="46.17494552247471" lon="9.78322629390386"><ele>535.3333333333334</ele><time>2026-04-04T15:26:28.999Z</time></trkpt><trkpt lat="46.17497339252825" lon="9.783140879791011"><ele>535.5</ele><time>2026-04-04T15:26:29.999Z</time></trkpt><trkpt lat="46.17503010057774" lon="9.783019882357852"><ele>535.6666666666666</ele><time>2026-04-04T15:26:31.999Z</time></trkpt><trkpt lat="46.17504171838598" lon="9.782840804244719"><ele>535.8333333333333</ele><time>2026-04-04T15:26:33.999Z</time></trkpt><trkpt lat="46.17501340284342" lon="9.782728907977203"><ele>536.0</ele><time>2026-04-04T15:26:35Z</time></trkpt><trkpt lat="46.17497135579616" lon="9.782622309611837"><ele>536.0</ele><time>2026-04-04T15:26:36Z</time></trkpt><trkpt lat="46.17492604625242" lon="9.782511047152889"><ele>536.0</ele><time>2026-04-04T15:26:37Z</time></trkpt><trkpt lat="46.1749007127235" lon="9.782380977259978"><ele>536.0</ele><time>2026-04-04T15:26:38Z</time></trkpt><trkpt lat="46.174866592578134" lon="9.782235471077808"><ele>536.0</ele><time>2026-04-04T15:26:39Z</time></trkpt><trkpt lat="46.17483433596136" lon="9.782102764714777"><ele>536.0</ele><time>2026-04-04T15:26:40Z</time></trkpt><trkpt lat="46.174811890387325" lon="9.781980007758165"><ele>530.6666666666666</ele><time>2026-04-04T15:26:41Z</time></trkpt><trkpt lat="46.17479707903861" lon="9.781857352909459"><ele>525.3333333333333</ele><time>2026-04-04T15:26:42Z</time></trkpt><trkpt lat="46.174791335148925" lon="9.781730599902044"><ele>520.0</ele><time>2026-04-04T15:26:43Z</time></trkpt><trkpt lat="46.174783551270906" lon="9.78160041169072"><ele>514.6666666666666</ele><time>2026-04-04T15:26:44Z</time></trkpt><trkpt lat="46.17476203958482" lon="9.781483779953144"><ele>509.3333333333333</ele><time>2026-04-04T15:26:45Z</time></trkpt><trkpt lat="46.17475415944421" lon="9.781381419620406"><ele>504.0</ele><time>2026-04-04T15:26:46Z</time></trkpt><trkpt lat="46.174760316298105" lon="9.781208264614598"><ele>504.0</ele><time>2026-04-04T15:26:48Z</time></trkpt><trkpt lat="46.17480214965504" lon="9.78110611926997"><ele>504.0</ele><time>2026-04-04T15:26:50Z</time></trkpt><trkpt lat="46.17491183061997" lon="9.7810787354875"><ele>504.0</ele><time>2026-04-04T15:26:58Z</time></trkpt><trkpt lat="46.17487362698375" lon="9.78095023805825"><ele>504.0</ele><time>2026-04-04T15:27:00Z</time></trkpt><trkpt lat="46.17482819414044" lon="9.780843871829713"><ele>504.0</ele><time>2026-04-04T15:27:01Z</time></trkpt><trkpt lat="46.174787061282785" lon="9.780734387433611"><ele>504.0</ele><time>2026-04-04T15:27:02Z</time></trkpt><trkpt lat="46.17476150173167" lon="9.780604112341445"><ele>504.0</ele><time>2026-04-04T15:27:03Z</time></trkpt><trkpt lat="46.174733870087096" lon="9.780484839615458"><ele>504.0</ele><time>2026-04-04T15:27:04Z</time></trkpt><trkpt lat="46.17470880450644" lon="9.780358793859435"><ele>504.0</ele><time>2026-04-04T15:27:05Z</time></trkpt><trkpt lat="46.17468214144489" lon="9.780242654211575"><ele>504.0</ele><time>2026-04-04T15:27:06Z</time></trkpt><trkpt lat="46.17466055575485" lon="9.780111921546334"><ele>504.0</ele><time>2026-04-04T15:27:07Z</time></trkpt><trkpt lat="46.174667979252185" lon="9.77998243755654"><ele>504.0</ele><time>2026-04-04T15:27:08Z</time></trkpt><trkpt lat="46.17469967327243" lon="9.779848122086019"><ele>504.0</ele><time>2026-04-04T15:27:09Z</time></trkpt><trkpt lat="46.17471723948874" lon="9.77971749842975"><ele>504.0</ele><time>2026-04-04T15:27:10Z</time></trkpt><trkpt lat="46.17472874745696" lon="9.779612190936243"><ele>504.0</ele><time>2026-04-04T15:27:11Z</time></trkpt><trkpt lat="46.17473841805226" lon="9.77943937692322"><ele>504.0</ele><time>2026-04-04T15:27:13Z</time></trkpt><trkpt lat="46.17475276539035" lon="9.779324106841097"><ele>504.5</ele><time>2026-04-04T15:27:14Z</time></trkpt><trkpt lat="46.17473693020191" lon="9.779173064050207"><ele>505.0</ele><time>2026-04-04T15:27:15Z</time></trkpt><trkpt lat="46.174717665567556" lon="9.779002676975479"><ele>505.5</ele><time>2026-04-04T15:27:16Z</time></trkpt><trkpt lat="46.17468992294494" lon="9.778809533848346"><ele>506.0</ele><time>2026-04-04T15:27:17Z</time></trkpt><trkpt lat="46.17466591551131" lon="9.778646530276685"><ele>505.8</ele><time>2026-04-04T15:27:18Z</time></trkpt><trkpt lat="46.17465831664053" lon="9.778494117880987"><ele>505.6</ele><time>2026-04-04T15:27:19Z</time></trkpt><trkpt lat="46.17465412774028" lon="9.778337717181971"><ele>505.4</ele><time>2026-04-04T15:27:20Z</time></trkpt><trkpt lat="46.17466693111239" lon="9.778175146075872"><ele>505.2</ele><time>2026-04-04T15:27:21Z</time></trkpt><trkpt lat="46.174677531314686" lon="9.778003087758366"><ele>505.0</ele><time>2026-04-04T15:27:22Z</time></trkpt><trkpt lat="46.17469905621512" lon="9.777825873614633"><ele>504.0</ele><time>2026-04-04T15:27:23Z</time></trkpt><trkpt lat="46.1747152676955" lon="9.777638806706186"><ele>503.0</ele><time>2026-04-04T15:27:24Z</time></trkpt><trkpt lat="46.17471985641245" lon="9.777455860736556"><ele>502.0</ele><time>2026-04-04T15:27:25Z</time></trkpt><trkpt lat="46.17472389618641" lon="9.777278882404666"><ele>501.0</ele><time>2026-04-04T15:27:26Z</time></trkpt><trkpt lat="46.174714718233226" lon="9.777110494345692"><ele>501.0</ele><time>2026-04-04T15:27:27Z</time></trkpt><trkpt lat="46.17467210212384" lon="9.776942587358866"><ele>501.0</ele><time>2026-04-04T15:27:28Z</time></trkpt><trkpt lat="46.17462319287755" lon="9.776776532155104"><ele>501.0</ele><time>2026-04-04T15:27:29Z</time></trkpt><trkpt lat="46.17460316522046" lon="9.776635477077537"><ele>501.0</ele><time>2026-04-04T15:27:30Z</time></trkpt><trkpt lat="46.1745905548526" lon="9.776484664813797"><ele>500.8</ele><time>2026-04-04T15:27:31Z</time></trkpt><trkpt lat="46.174617818025375" lon="9.776332921072408"><ele>500.6</ele><time>2026-04-04T15:27:32Z</time></trkpt><trkpt lat="46.17458342693247" lon="9.77620534572246"><ele>500.4</ele><time>2026-04-04T15:27:33Z</time></trkpt><trkpt lat="46.17450737721307" lon="9.776089060549861"><ele>500.2</ele><time>2026-04-04T15:27:34Z</time></trkpt><trkpt lat="46.17441996535817" lon="9.77595028978684"><ele>500.0</ele><time>2026-04-04T15:27:35Z</time></trkpt><trkpt lat="46.17434727628574" lon="9.775819879499611"><ele>500.6</ele><time>2026-04-04T15:27:36Z</time></trkpt><trkpt lat="46.17431688386522" lon="9.775681985931573"><ele>501.2</ele><time>2026-04-04T15:27:37Z</time></trkpt><trkpt lat="46.174314915479165" lon="9.77552934025914"><ele>501.79999999999995</ele><time>2026-04-04T15:27:38.001Z</time></trkpt><trkpt lat="46.174326982082846" lon="9.775362052408413"><ele>502.4</ele><time>2026-04-04T15:27:39Z</time></trkpt><trkpt lat="46.174333102262736" lon="9.775184897732053"><ele>503.0</ele><time>2026-04-04T15:27:40Z</time></trkpt><trkpt lat="46.17433172002354" lon="9.775018519668475"><ele>503.4</ele><time>2026-04-04T15:27:41.001Z</time></trkpt><trkpt lat="46.17433638743464" lon="9.77486059114981"><ele>503.79999999999995</ele><time>2026-04-04T15:27:42Z</time></trkpt><trkpt lat="46.174338345692675" lon="9.774723825140743"><ele>504.2</ele><time>2026-04-04T15:27:43Z</time></trkpt><trkpt lat="46.17435992999009" lon="9.774590974503743"><ele>504.6</ele><time>2026-04-04T15:27:44.001Z</time></trkpt><trkpt lat="46.174371034591" lon="9.774460097119645"><ele>505.0</ele><time>2026-04-04T15:27:45Z</time></trkpt><trkpt lat="46.17434513143857" lon="9.774358380944546"><ele>505.0</ele><time>2026-04-04T15:27:46Z</time></trkpt><trkpt lat="46.17426555745831" lon="9.774289807223385"><ele>505.0</ele><time>2026-04-04T15:27:48.001Z</time></trkpt><trkpt lat="46.17423595109578" lon="9.774400358683751"><ele>505.0</ele><time>2026-04-04T15:27:50.001Z</time></trkpt><trkpt lat="46.174140721503896" lon="9.774597233433632"><ele>505.0</ele><time>2026-04-04T15:27:52Z</time></trkpt><trkpt lat="46.17407913238253" lon="9.774742438359338"><ele>501.50000000000006</ele><time>2026-04-04T15:27:53Z</time></trkpt><trkpt lat="46.174000627968255" lon="9.774844100157148"><ele>498.0</ele><time>2026-04-04T15:27:54Z</time></trkpt><trkpt lat="46.1739196170034" lon="9.774924873193305"><ele>494.5</ele><time>2026-04-04T15:27:55Z</time></trkpt><trkpt lat="46.173849525878296" lon="9.77499206579078"><ele>491.0</ele><time>2026-04-04T15:27:56Z</time></trkpt><trkpt lat="46.17379705709387" lon="9.77504876339848"><ele>487.50000000000006</ele><time>2026-04-04T15:27:57Z</time></trkpt><trkpt lat="46.17374945583139" lon="9.775116234703571"><ele>484.0</ele><time>2026-04-04T15:27:58Z</time></trkpt><trkpt lat="46.17374674026748" lon="9.77526122011293"><ele>483.00000000000006</ele><time>2026-04-04T15:27:59Z</time></trkpt><trkpt lat="46.173735941546305" lon="9.775375049643625"><ele>482.0</ele><time>2026-04-04T15:28:00Z</time></trkpt><trkpt lat="46.1737209979357" lon="9.775511438539505"><ele>481.0</ele><time>2026-04-04T15:28:01Z</time></trkpt><trkpt lat="46.17371235377671" lon="9.775610365676531"><ele>480.0</ele><time>2026-04-04T15:28:02Z</time></trkpt><trkpt lat="46.17370186084988" lon="9.775739696073636"><ele>479.00000000000006</ele><time>2026-04-04T15:28:04Z</time></trkpt><trkpt lat="46.173609736804615" lon="9.775754620886488"><ele>478.0</ele><time>2026-04-04T15:28:05Z</time></trkpt><trkpt lat="46.173532652023034" lon="9.775770178689301"><ele>478.0</ele><time>2026-04-04T15:28:06Z</time></trkpt><trkpt lat="46.17346481499762" lon="9.775797833693574"><ele>477.99999999999994</ele><time>2026-04-04T15:28:07Z</time></trkpt><trkpt lat="46.173400877332945" lon="9.775860601695364"><ele>477.99999999999994</ele><time>2026-04-04T15:28:08Z</time></trkpt><trkpt lat="46.173342199219654" lon="9.77590469552752"><ele>478.0</ele><time>2026-04-04T15:28:09Z</time></trkpt><trkpt lat="46.17322232936707" lon="9.775803851310137"><ele>478.0</ele><time>2026-04-04T15:28:11Z</time></trkpt><trkpt lat="46.1730604402949" lon="9.775709195657626"><ele>475.0</ele><time>2026-04-04T15:28:12Z</time></trkpt><trkpt lat="46.172943497845324" lon="9.775575460661276"><ele>471.99999999999994</ele><time>2026-04-04T15:28:13Z</time></trkpt><trkpt lat="46.17288301082953" lon="9.775454596434738"><ele>468.99999999999994</ele><time>2026-04-04T15:28:14Z</time></trkpt><trkpt lat="46.17282386944928" lon="9.775391683350318"><ele>466.0</ele><time>2026-04-04T15:28:15Z</time></trkpt><trkpt lat="46.172756663936866" lon="9.775337648721413"><ele>463.0</ele><time>2026-04-04T15:28:16Z</time></trkpt><trkpt lat="46.17269975470756" lon="9.775271182312748"><ele>462.25</ele><time>2026-04-04T15:28:17Z</time></trkpt><trkpt lat="46.172609259161966" lon="9.775148371344805"><ele>461.5</ele><time>2026-04-04T15:28:18Z</time></trkpt><trkpt lat="46.172507013886325" lon="9.775026515233305"><ele>460.75</ele><time>2026-04-04T15:28:19Z</time></trkpt><trkpt lat="46.172416019790845" lon="9.77492754896596"><ele>460.0</ele><time>2026-04-04T15:28:20Z</time></trkpt><trkpt lat="46.17232183570255" lon="9.774841263882001"><ele>460.0</ele><time>2026-04-04T15:28:21Z</time></trkpt><trkpt lat="46.17221564203081" lon="9.774760950330439"><ele>460.0</ele><time>2026-04-04T15:28:22Z</time></trkpt><trkpt lat="46.17212638714449" lon="9.774681261693598"><ele>460.0</ele><time>2026-04-04T15:28:23Z</time></trkpt><trkpt lat="46.17202499145549" lon="9.7745947111442"><ele>460.0</ele><time>2026-04-04T15:28:24Z</time></trkpt><trkpt lat="46.171915971751325" lon="9.774514245821079"><ele>460.0</ele><time>2026-04-04T15:28:25Z</time></trkpt><trkpt lat="46.17180935729707" lon="9.77443251903233"><ele>460.0</ele><time>2026-04-04T15:28:26Z</time></trkpt><trkpt lat="46.17171278382098" lon="9.774351465837283"><ele>460.0</ele><time>2026-04-04T15:28:27Z</time></trkpt><trkpt lat="46.17162233927021" lon="9.774271866789041"><ele>460.0</ele><time>2026-04-04T15:28:28Z</time></trkpt><trkpt lat="46.1715391101899" lon="9.774182717187811"><ele>460.0</ele><time>2026-04-04T15:28:29Z</time></trkpt><trkpt lat="46.17147846566015" lon="9.774075284990012"><ele>458.2</ele><time>2026-04-04T15:28:30Z</time></trkpt><trkpt lat="46.171458221371914" lon="9.773947977852972"><ele>456.4</ele><time>2026-04-04T15:28:31Z</time></trkpt><trkpt lat="46.17144964188138" lon="9.773826426219399"><ele>454.6</ele><time>2026-04-04T15:28:32Z</time></trkpt><trkpt lat="46.1714492951014" lon="9.773702478522683"><ele>452.8</ele><time>2026-04-04T15:28:33Z</time></trkpt><trkpt lat="46.17145629552783" lon="9.773574502182834"><ele>451.0</ele><time>2026-04-04T15:28:34Z</time></trkpt><trkpt lat="46.171489276961516" lon="9.773430689360344"><ele>451.0</ele><time>2026-04-04T15:28:35Z</time></trkpt><trkpt lat="46.1715115926271" lon="9.773270559814582"><ele>451.0</ele><time>2026-04-04T15:28:36Z</time></trkpt><trkpt lat="46.171508062209604" lon="9.773135523786237"><ele>451.0</ele><time>2026-04-04T15:28:37Z</time></trkpt><trkpt lat="46.171504222326114" lon="9.772982544946164"><ele>451.0</ele><time>2026-04-04T15:28:38Z</time></trkpt><trkpt lat="46.171491764724166" lon="9.772833233143462"><ele>451.0</ele><time>2026-04-04T15:28:39Z</time></trkpt><trkpt lat="46.17146721143889" lon="9.772713704471876"><ele>451.1666666666667</ele><time>2026-04-04T15:28:40Z</time></trkpt><trkpt lat="46.17141621000259" lon="9.772585634872533"><ele>451.33333333333337</ele><time>2026-04-04T15:28:41Z</time></trkpt><trkpt lat="46.171359653853536" lon="9.772464309737853"><ele>451.5</ele><time>2026-04-04T15:28:42Z</time></trkpt><trkpt lat="46.171325398795524" lon="9.772348102962683"><ele>451.66666666666663</ele><time>2026-04-04T15:28:43Z</time></trkpt><trkpt lat="46.17129418694617" lon="9.772243241243016"><ele>451.8333333333333</ele><time>2026-04-04T15:28:44Z</time></trkpt><trkpt lat="46.17126184867368" lon="9.77215680513382"><ele>452.0</ele><time>2026-04-04T15:28:45Z</time></trkpt><trkpt lat="46.17125755645096" lon="9.772037301313778"><ele>452.0</ele><time>2026-04-04T15:28:46Z</time></trkpt><trkpt lat="46.171234810034676" lon="9.771926699564075"><ele>452.00000000000006</ele><time>2026-04-04T15:28:47Z</time></trkpt><trkpt lat="46.17122074897389" lon="9.771806205463028"><ele>452.00000000000006</ele><time>2026-04-04T15:28:48Z</time></trkpt><trkpt lat="46.17117642207135" lon="9.7716080700262"><ele>452.0</ele><time>2026-04-04T15:28:50Z</time></trkpt><trkpt lat="46.1711652974811" lon="9.771476071109301"><ele>452.0</ele><time>2026-04-04T15:28:51Z</time></trkpt><trkpt lat="46.17116792752468" lon="9.771352708470486"><ele>452.49999999999994</ele><time>2026-04-04T15:28:52Z</time></trkpt><trkpt lat="46.17115551061853" lon="9.771219391467945"><ele>453.0</ele><time>2026-04-04T15:28:53Z</time></trkpt><trkpt lat="46.17112650707532" lon="9.771105591013203"><ele>453.5</ele><time>2026-04-04T15:28:54Z</time></trkpt><trkpt lat="46.171093960210214" lon="9.770984650147335"><ele>454.0</ele><time>2026-04-04T15:28:55Z</time></trkpt><trkpt lat="46.17103929955988" lon="9.77088839100557"><ele>454.49999999999994</ele><time>2026-04-04T15:28:56Z</time></trkpt><trkpt lat="46.17100154942257" lon="9.770798423976341"><ele>455.0</ele><time>2026-04-04T15:28:57Z</time></trkpt><trkpt lat="46.17099665081178" lon="9.770691854209401"><ele>455.0</ele><time>2026-04-04T15:28:58Z</time></trkpt><trkpt lat="46.171013408489635" lon="9.77059995631953"><ele>455.0</ele><time>2026-04-04T15:28:59Z</time></trkpt><trkpt lat="46.17107339037002" lon="9.770481247492853"><ele>455.0</ele><time>2026-04-04T15:29:01Z</time></trkpt><trkpt lat="46.17111046244394" lon="9.770285324670974"><ele>455.0</ele><time>2026-04-04T15:29:03Z</time></trkpt><trkpt lat="46.171161491914766" lon="9.770115872785862"><ele>455.0</ele><time>2026-04-04T15:29:04Z</time></trkpt><trkpt lat="46.17121157105825" lon="9.76997857408104"><ele>454.4</ele><time>2026-04-04T15:29:05Z</time></trkpt><trkpt lat="46.17128403290952" lon="9.76986205391587"><ele>453.8</ele><time>2026-04-04T15:29:07Z</time></trkpt><trkpt lat="46.171342794106266" lon="9.769761525906672"><ele>453.20000000000005</ele><time>2026-04-04T15:30:16Z</time></trkpt><trkpt lat="46.17140361470305" lon="9.769691997531897"><ele>452.6</ele><time>2026-04-04T15:30:18Z</time></trkpt><trkpt lat="46.17145958910865" lon="9.769548236707868"><ele>452.0</ele><time>2026-04-04T15:30:20Z</time></trkpt><trkpt lat="46.171488649161866" lon="9.769452974796243"><ele>451.66666666666663</ele><time>2026-04-04T15:30:21Z</time></trkpt><trkpt lat="46.171514537161556" lon="9.769345786516157"><ele>451.3333333333333</ele><time>2026-04-04T15:30:22Z</time></trkpt><trkpt lat="46.171526567782244" lon="9.769249722562433"><ele>451.0</ele><time>2026-04-04T15:30:23Z</time></trkpt><trkpt lat="46.171534040642136" lon="9.769119581661174"><ele>450.66666666666663</ele><time>2026-04-04T15:30:25Z</time></trkpt><trkpt lat="46.1715168477953" lon="9.769019000827358"><ele>450.3333333333333</ele><time>2026-04-04T15:30:28Z</time></trkpt><trkpt lat="46.17152311050724" lon="9.768913630758954"><ele>450.0</ele><time>2026-04-04T15:30:30Z</time></trkpt><trkpt lat="46.17149733161244" lon="9.768766299123017"><ele>450.0</ele><time>2026-04-04T15:30:32Z</time></trkpt><trkpt lat="46.171472607086855" lon="9.768636986005347"><ele>450.0</ele><time>2026-04-04T15:30:34Z</time></trkpt><trkpt lat="46.1714556813677" lon="9.768519773587666"><ele>450.0</ele><time>2026-04-04T15:30:36Z</time></trkpt><trkpt lat="46.17142972097581" lon="9.768384021565462"><ele>450.0</ele><time>2026-04-04T15:30:38Z</time></trkpt><trkpt lat="46.171404109300205" lon="9.768299691070947"><ele>450.0</ele><time>2026-04-04T15:30:39Z</time></trkpt><trkpt lat="46.17138774472327" lon="9.76820720830452"><ele>450.0</ele><time>2026-04-04T15:30:40Z</time></trkpt><trkpt lat="46.17136908175377" lon="9.768106671477183"><ele>449.8333333333333</ele><time>2026-04-04T15:30:41Z</time></trkpt><trkpt lat="46.171353828852936" lon="9.76799206973901"><ele>449.66666666666663</ele><time>2026-04-04T15:30:42Z</time></trkpt><trkpt lat="46.17134673497097" lon="9.76788164936701"><ele>449.5</ele><time>2026-04-04T15:30:43Z</time></trkpt><trkpt lat="46.171341578934445" lon="9.767773721629046"><ele>449.3333333333333</ele><time>2026-04-04T15:30:44Z</time></trkpt><trkpt lat="46.1713308744357" lon="9.76765452269504"><ele>449.16666666666663</ele><time>2026-04-04T15:30:45Z</time></trkpt><trkpt lat="46.171319276218384" lon="9.767529019952528"><ele>449.0</ele><time>2026-04-04T15:30:46Z</time></trkpt><trkpt lat="46.171317656897905" lon="9.767399532378077"><ele>448.8333333333333</ele><time>2026-04-04T15:30:47Z</time></trkpt><trkpt lat="46.17129136876156" lon="9.7672723493002"><ele>448.66666666666663</ele><time>2026-04-04T15:30:48Z</time></trkpt><trkpt lat="46.17125636621905" lon="9.76713685631003"><ele>448.5</ele><time>2026-04-04T15:30:49Z</time></trkpt><trkpt lat="46.17121432399835" lon="9.767001396049357"><ele>448.33333333333337</ele><time>2026-04-04T15:30:50Z</time></trkpt><trkpt lat="46.17120628294792" lon="9.76690466613029"><ele>448.1666666666667</ele><time>2026-04-04T15:30:51Z</time></trkpt><trkpt lat="46.17121099322843" lon="9.76680595409198"><ele>448.0</ele><time>2026-04-04T15:30:52Z</time></trkpt><trkpt lat="46.17123909605962" lon="9.766694684991299"><ele>448.4</ele><time>2026-04-04T15:30:53Z</time></trkpt><trkpt lat="46.17128191695856" lon="9.76656708540924"><ele>448.79999999999995</ele><time>2026-04-04T15:30:54Z</time></trkpt><trkpt lat="46.17131937869622" lon="9.766432641133063"><ele>449.2</ele><time>2026-04-04T15:30:55Z</time></trkpt><trkpt lat="46.17137199716144" lon="9.766325728325025"><ele>449.6</ele><time>2026-04-04T15:30:56Z</time></trkpt><trkpt lat="46.1714061051555" lon="9.766207271657823"><ele>450.0</ele><time>2026-04-04T15:30:57Z</time></trkpt><trkpt lat="46.17143620895758" lon="9.766100835778346"><ele>450.0</ele><time>2026-04-04T15:30:58Z</time></trkpt><trkpt lat="46.17147626093753" lon="9.766001396916392"><ele>450.0</ele><time>2026-04-04T15:30:59Z</time></trkpt><trkpt lat="46.1715041802273" lon="9.765903706938643"><ele>450.0</ele><time>2026-04-04T15:31:00Z</time></trkpt><trkpt lat="46.17151688539055" lon="9.765784737196567"><ele>450.0</ele><time>2026-04-04T15:31:01Z</time></trkpt><trkpt lat="46.17152569770986" lon="9.7656490287258"><ele>450.0</ele><time>2026-04-04T15:31:02Z</time></trkpt><trkpt lat="46.17152333719373" lon="9.765489039005033"><ele>450.0</ele><time>2026-04-04T15:31:03Z</time></trkpt><trkpt lat="46.17151149506113" lon="9.765332854893478"><ele>448.4</ele><time>2026-04-04T15:31:04Z</time></trkpt><trkpt lat="46.171486826938846" lon="9.765183956673276"><ele>446.8</ele><time>2026-04-04T15:31:05Z</time></trkpt><trkpt lat="46.17146533140254" lon="9.765036407899817"><ele>445.20000000000005</ele><time>2026-04-04T15:31:06Z</time></trkpt><trkpt lat="46.171452987875405" lon="9.76491123030082"><ele>443.6</ele><time>2026-04-04T15:31:07Z</time></trkpt><trkpt lat="46.1714408198608" lon="9.764785102955543"><ele>442.0</ele><time>2026-04-04T15:31:08Z</time></trkpt><trkpt lat="46.171432453336514" lon="9.764676923929246"><ele>442.00000000000006</ele><time>2026-04-04T15:31:09Z</time></trkpt><trkpt lat="46.17144737078206" lon="9.76456912722129"><ele>442.0</ele><time>2026-04-04T15:31:10Z</time></trkpt><trkpt lat="46.17145214902019" lon="9.764452516090959"><ele>442.0</ele><time>2026-04-04T15:31:11Z</time></trkpt><trkpt lat="46.17146682475523" lon="9.764318835740596"><ele>442.0</ele><time>2026-04-04T15:31:12Z</time></trkpt><trkpt lat="46.17148040788619" lon="9.7641896119105"><ele>442.00000000000006</ele><time>2026-04-04T15:31:13Z</time></trkpt><trkpt lat="46.1714986158762" lon="9.764065488700156"><ele>442.0</ele><time>2026-04-04T15:31:14Z</time></trkpt><trkpt lat="46.1715392371632" lon="9.763947612808462"><ele>449.40000000000003</ele><time>2026-04-04T15:31:15Z</time></trkpt><trkpt lat="46.17158876099448" lon="9.763808429027888"><ele>456.80000000000007</ele><time>2026-04-04T15:31:16Z</time></trkpt><trkpt lat="46.171619610646275" lon="9.763675135675651"><ele>464.2</ele><time>2026-04-04T15:31:17Z</time></trkpt><trkpt lat="46.17163645621302" lon="9.763539381725192"><ele>471.6</ele><time>2026-04-04T15:31:18Z</time></trkpt><trkpt lat="46.17165662960559" lon="9.763393208437138"><ele>479.0</ele><time>2026-04-04T15:31:19Z</time></trkpt><trkpt lat="46.17167575636634" lon="9.763227747307416"><ele>479.0</ele><time>2026-04-04T15:31:20Z</time></trkpt><trkpt lat="46.17168650408188" lon="9.763091404894233"><ele>479.0</ele><time>2026-04-04T15:31:21Z</time></trkpt><trkpt lat="46.17167129923946" lon="9.762947421554154"><ele>479.0</ele><time>2026-04-04T15:31:22Z</time></trkpt><trkpt lat="46.171628021648274" lon="9.762843795097961"><ele>479.0</ele><time>2026-04-04T15:31:23Z</time></trkpt><trkpt lat="46.1715964691858" lon="9.76275029017698"><ele>479.0</ele><time>2026-04-04T15:31:24Z</time></trkpt><trkpt lat="46.17167840430568" lon="9.762514894077208"><ele>477.6</ele><time>2026-04-04T15:31:26Z</time></trkpt><trkpt lat="46.17175396781623" lon="9.762346085984463"><ele>476.2</ele><time>2026-04-04T15:31:27Z</time></trkpt><trkpt lat="46.17180189789334" lon="9.762188026771417"><ele>474.80000000000007</ele><time>2026-04-04T15:31:28Z</time></trkpt><trkpt lat="46.17183315805485" lon="9.762043404673788"><ele>473.40000000000003</ele><time>2026-04-04T15:31:29Z</time></trkpt><trkpt lat="46.17186776502904" lon="9.761936233576646"><ele>472.0</ele><time>2026-04-04T15:31:30Z</time></trkpt><trkpt lat="46.17186490966245" lon="9.76184136716534"><ele>470.8</ele><time>2026-04-04T15:31:31Z</time></trkpt><trkpt lat="46.1718399784251" lon="9.761746007568139"><ele>469.6</ele><time>2026-04-04T15:31:34Z</time></trkpt><trkpt lat="46.17184940558654" lon="9.761572197488453"><ele>468.40000000000003</ele><time>2026-04-04T15:31:36Z</time></trkpt><trkpt lat="46.171862486122414" lon="9.761457685076858"><ele>467.20000000000005</ele><time>2026-04-04T15:31:37Z</time></trkpt><trkpt lat="46.171878374151376" lon="9.761335425113492"><ele>466.0</ele><time>2026-04-04T15:31:38Z</time></trkpt><trkpt lat="46.17189775164184" lon="9.761195707561772"><ele>466.0</ele><time>2026-04-04T15:31:39Z</time></trkpt><trkpt lat="46.171913285973375" lon="9.761035747391071"><ele>466.0</ele><time>2026-04-04T15:31:40Z</time></trkpt><trkpt lat="46.17192886189712" lon="9.760892904299777"><ele>466.0</ele><time>2026-04-04T15:31:41Z</time></trkpt><trkpt lat="46.17193750978866" lon="9.760768171927328"><ele>466.0</ele><time>2026-04-04T15:31:42Z</time></trkpt><trkpt lat="46.171934620013346" lon="9.76064035356755"><ele>466.0</ele><time>2026-04-04T15:31:43Z</time></trkpt><trkpt lat="46.17194663774094" lon="9.760529811400568"><ele>465.0</ele><time>2026-04-04T15:31:44Z</time></trkpt><trkpt lat="46.17194577573755" lon="9.760387672485342"><ele>464.0</ele><time>2026-04-04T15:31:45Z</time></trkpt><trkpt lat="46.17198658618412" lon="9.760246929635874"><ele>463.0</ele><time>2026-04-04T15:31:46Z</time></trkpt><trkpt lat="46.17201735413672" lon="9.760122424380926"><ele>462.0</ele><time>2026-04-04T15:31:47Z</time></trkpt><trkpt lat="46.1720325458164" lon="9.76000723573009"><ele>461.0</ele><time>2026-04-04T15:31:48Z</time></trkpt><trkpt lat="46.172033421411435" lon="9.759876323998936"><ele>460.6</ele><time>2026-04-04T15:31:49Z</time></trkpt><trkpt lat="46.17203399481194" lon="9.759757859433048"><ele>460.20000000000005</ele><time>2026-04-04T15:31:50.001Z</time></trkpt><trkpt lat="46.17207484048802" lon="9.759635382118125"><ele>459.79999999999995</ele><time>2026-04-04T15:31:51Z</time></trkpt><trkpt lat="46.17213235635106" lon="9.759513338838788"><ele>459.4</ele><time>2026-04-04T15:31:52Z</time></trkpt><trkpt lat="46.17218384762946" lon="9.759393638662411"><ele>459.0</ele><time>2026-04-04T15:31:53.001Z</time></trkpt><trkpt lat="46.17223522378665" lon="9.75927265190913"><ele>458.1666666666667</ele><time>2026-04-04T15:31:54Z</time></trkpt><trkpt lat="46.17228603511797" lon="9.759175084931915"><ele>457.33333333333337</ele><time>2026-04-04T15:31:55Z</time></trkpt><trkpt lat="46.17231697795517" lon="9.759074394071508"><ele>456.5</ele><time>2026-04-04T15:31:56.001Z</time></trkpt><trkpt lat="46.172295715195986" lon="9.758964336191879"><ele>455.6666666666667</ele><time>2026-04-04T15:31:57Z</time></trkpt><trkpt lat="46.17225895126486" lon="9.758847956288253"><ele>454.83333333333337</ele><time>2026-04-04T15:31:58Z</time></trkpt><trkpt lat="46.17218490163561" lon="9.75872438416048"><ele>454.0</ele><time>2026-04-04T15:31:59.001Z</time></trkpt><trkpt lat="46.17207253298556" lon="9.758595515970743"><ele>454.00000000000006</ele><time>2026-04-04T15:32:00Z</time></trkpt><trkpt lat="46.171992606885794" lon="9.758569175397238"><ele>454.0</ele><time>2026-04-04T15:32:01Z</time></trkpt><trkpt lat="46.171944099163504" lon="9.758505620369851"><ele>454.0</ele><time>2026-04-04T15:32:02Z</time></trkpt><trkpt lat="46.17193657092957" lon="9.758392516760724"><ele>454.0</ele><time>2026-04-04T15:32:03Z</time></trkpt><trkpt lat="46.17193087370838" lon="9.758252395391995"><ele>454.00000000000006</ele><time>2026-04-04T15:32:04Z</time></trkpt><trkpt lat="46.171930900201836" lon="9.75809591396005"><ele>454.0</ele><time>2026-04-04T15:32:05Z</time></trkpt><trkpt lat="46.17192937197583" lon="9.757944189895941"><ele>453.79999999999995</ele><time>2026-04-04T15:32:06Z</time></trkpt><trkpt lat="46.17194294483413" lon="9.757806221821072"><ele>453.59999999999997</ele><time>2026-04-04T15:32:07Z</time></trkpt><trkpt lat="46.17197559283589" lon="9.757684226947804"><ele>453.4</ele><time>2026-04-04T15:32:08Z</time></trkpt><trkpt lat="46.172010057788576" lon="9.757547805351562"><ele>453.2</ele><time>2026-04-04T15:32:09Z</time></trkpt><trkpt lat="46.17204961859924" lon="9.757410052727112"><ele>453.0</ele><time>2026-04-04T15:32:10Z</time></trkpt><trkpt lat="46.172070507386245" lon="9.757274365591304"><ele>453.0</ele><time>2026-04-04T15:32:11Z</time></trkpt><trkpt lat="46.17208934890858" lon="9.75715815491597"><ele>453.0</ele><time>2026-04-04T15:32:12Z</time></trkpt><trkpt lat="46.17210402801713" lon="9.75705186965703"><ele>453.0</ele><time>2026-04-04T15:32:13Z</time></trkpt><trkpt lat="46.17218765637315" lon="9.756964427272202"><ele>453.0</ele><time>2026-04-04T15:32:15Z</time></trkpt><trkpt lat="46.172276458682816" lon="9.756963953649322"><ele>453.0</ele><time>2026-04-04T15:32:16Z</time></trkpt><trkpt lat="46.1723739916397" lon="9.756982094333157"><ele>453.0</ele><time>2026-04-04T15:32:17Z</time></trkpt><trkpt lat="46.172482017770896" lon="9.756945953341134"><ele>452.59999999999997</ele><time>2026-04-04T15:32:19Z</time></trkpt><trkpt lat="46.17249875237101" lon="9.756818334717241"><ele>452.19999999999993</ele><time>2026-04-04T15:32:22Z</time></trkpt><trkpt lat="46.17247832558518" lon="9.756713636292842"><ele>451.8</ele><time>2026-04-04T15:32:23Z</time></trkpt><trkpt lat="46.172429166762086" lon="9.756594119129987"><ele>451.4</ele><time>2026-04-04T15:32:24Z</time></trkpt><trkpt lat="46.17236390633573" lon="9.756441571760185"><ele>451.0</ele><time>2026-04-04T15:32:25Z</time></trkpt><trkpt lat="46.172287478714686" lon="9.756289136468158"><ele>451.0</ele><time>2026-04-04T15:32:26Z</time></trkpt><trkpt lat="46.17220836970387" lon="9.756148359998951"><ele>451.0</ele><time>2026-04-04T15:32:27Z</time></trkpt><trkpt lat="46.1721287519548" lon="9.756068457250482"><ele>451.0</ele><time>2026-04-04T15:32:28Z</time></trkpt><trkpt lat="46.172054699249365" lon="9.755987968241879"><ele>451.0</ele><time>2026-04-04T15:32:29Z</time></trkpt><trkpt lat="46.17199937299179" lon="9.7558973662004"><ele>451.0</ele><time>2026-04-04T15:32:30Z</time></trkpt><trkpt lat="46.17195507825778" lon="9.755812006373505"><ele>450.4</ele><time>2026-04-04T15:32:31Z</time></trkpt><trkpt lat="46.17194078964493" lon="9.755698817113055"><ele>449.8</ele><time>2026-04-04T15:32:32Z</time></trkpt><trkpt lat="46.17194299802291" lon="9.755565066632023"><ele>449.19999999999993</ele><time>2026-04-04T15:32:33Z</time></trkpt><trkpt lat="46.17196870253501" lon="9.755386679521198"><ele>448.59999999999997</ele><time>2026-04-04T15:32:34Z</time></trkpt><trkpt lat="46.17199442678921" lon="9.755203572558623"><ele>448.0</ele><time>2026-04-04T15:32:35Z</time></trkpt><trkpt lat="46.17199775045077" lon="9.755017078052292"><ele>447.0</ele><time>2026-04-04T15:32:36Z</time></trkpt><trkpt lat="46.17200736874489" lon="9.754824399742436"><ele>446.0</ele><time>2026-04-04T15:32:37Z</time></trkpt><trkpt lat="46.1720300113007" lon="9.754666322274849"><ele>445.0</ele><time>2026-04-04T15:32:38Z</time></trkpt><trkpt lat="46.17201242517502" lon="9.754515088074601"><ele>444.0</ele><time>2026-04-04T15:32:39Z</time></trkpt><trkpt lat="46.172020259772005" lon="9.754357835327436"><ele>443.6</ele><time>2026-04-04T15:32:40Z</time></trkpt><trkpt lat="46.17202498856775" lon="9.754226511121017"><ele>443.2</ele><time>2026-04-04T15:32:41Z</time></trkpt><trkpt lat="46.17202942658187" lon="9.754090192647377"><ele>442.80000000000007</ele><time>2026-04-04T15:32:42Z</time></trkpt><trkpt lat="46.172032201017714" lon="9.753967557033121"><ele>442.40000000000003</ele><time>2026-04-04T15:32:43Z</time></trkpt><trkpt lat="46.17203059654684" lon="9.753821130255615"><ele>442.0</ele><time>2026-04-04T15:32:44Z</time></trkpt><trkpt lat="46.1720296533304" lon="9.7536813022589"><ele>441.40000000000003</ele><time>2026-04-04T15:32:45Z</time></trkpt><trkpt lat="46.172044103117365" lon="9.753528895972355"><ele>440.80000000000007</ele><time>2026-04-04T15:32:46Z</time></trkpt><trkpt lat="46.17208688113262" lon="9.753365917691298"><ele>440.2</ele><time>2026-04-04T15:32:47Z</time></trkpt><trkpt lat="46.17211864229201" lon="9.753220046157846"><ele>439.6</ele><time>2026-04-04T15:32:48Z</time></trkpt><trkpt lat="46.17215173229368" lon="9.753071356236257"><ele>439.0</ele><time>2026-04-04T15:32:49Z</time></trkpt><trkpt lat="46.17216683495772" lon="9.752916301567847"><ele>439.0</ele><time>2026-04-04T15:32:50Z</time></trkpt><trkpt lat="46.172172283939815" lon="9.752764303171386"><ele>439.0</ele><time>2026-04-04T15:32:51Z</time></trkpt><trkpt lat="46.172140473338594" lon="9.752606732194787"><ele>439.0</ele><time>2026-04-04T15:32:52Z</time></trkpt><trkpt lat="46.1721179916706" lon="9.752463349708998"><ele>439.0</ele><time>2026-04-04T15:32:53Z</time></trkpt><trkpt lat="46.17210121360068" lon="9.752325965042088"><ele>439.0</ele><time>2026-04-04T15:32:54Z</time></trkpt><trkpt lat="46.17209322517772" lon="9.752216840993672"><ele>439.00000000000006</ele><time>2026-04-04T15:32:55Z</time></trkpt><trkpt lat="46.172067939684084" lon="9.752111277555391"><ele>439.0</ele><time>2026-04-04T15:32:56Z</time></trkpt><trkpt lat="46.17203580448665" lon="9.752009584021863"><ele>439.0</ele><time>2026-04-04T15:32:57Z</time></trkpt><trkpt lat="46.17200481346577" lon="9.75190687799349"><ele>439.0</ele><time>2026-04-04T15:32:58Z</time></trkpt><trkpt lat="46.17197636897856" lon="9.751770130011604"><ele>439.00000000000006</ele><time>2026-04-04T15:32:59Z</time></trkpt><trkpt lat="46.17196810765383" lon="9.751625678881235"><ele>439.0</ele><time>2026-04-04T15:33:00Z</time></trkpt><trkpt lat="46.17195255392505" lon="9.751493464631723"><ele>439.00000000000006</ele><time>2026-04-04T15:33:01Z</time></trkpt><trkpt lat="46.171929804600765" lon="9.75136642701838"><ele>439.0</ele><time>2026-04-04T15:33:02Z</time></trkpt><trkpt lat="46.17196081272096" lon="9.751240876015409"><ele>439.0</ele><time>2026-04-04T15:33:03Z</time></trkpt><trkpt lat="46.171986091198136" lon="9.75112381776652"><ele>439.0</ele><time>2026-04-04T15:33:04Z</time></trkpt><trkpt lat="46.1719902773462" lon="9.751007870742598"><ele>439.00000000000006</ele><time>2026-04-04T15:33:05Z</time></trkpt><trkpt lat="46.17201188446704" lon="9.750891626458563"><ele>439.0</ele><time>2026-04-04T15:33:06Z</time></trkpt><trkpt lat="46.17202512452255" lon="9.750801905369899"><ele>439.0</ele><time>2026-04-04T15:33:07Z</time></trkpt><trkpt lat="46.17204595753137" lon="9.75063883843716"><ele>439.0</ele><time>2026-04-04T15:33:09Z</time></trkpt><trkpt lat="46.17206059331125" lon="9.750511905497914"><ele>439.0</ele><time>2026-04-04T15:33:10Z</time></trkpt><trkpt lat="46.172055163159854" lon="9.750380132457291"><ele>439.0</ele><time>2026-04-04T15:33:11Z</time></trkpt><trkpt lat="46.17204896014832" lon="9.750254492670052"><ele>439.0</ele><time>2026-04-04T15:33:12Z</time></trkpt><trkpt lat="46.17204309075264" lon="9.75009146976951"><ele>439.00000000000006</ele><time>2026-04-04T15:33:14Z</time></trkpt><trkpt lat="46.17204472618336" lon="9.749983809844876"><ele>439.0</ele><time>2026-04-04T15:33:16Z</time></trkpt><trkpt lat="46.17203579863842" lon="9.749881013580497"><ele>439.0</ele><time>2026-04-04T15:33:18Z</time></trkpt><trkpt lat="46.1719920771074" lon="9.75000500484782"><ele>439.0</ele><time>2026-04-04T15:33:22Z</time></trkpt><trkpt lat="46.171989893887115" lon="9.750105440355368"><ele>439.00000000000006</ele><time>2026-04-04T15:33:23Z</time></trkpt><trkpt lat="46.171986001334176" lon="9.75021801076675"><ele>439.0</ele><time>2026-04-04T15:33:24Z</time></trkpt><trkpt lat="46.17196621353954" lon="9.750326175305924"><ele>439.00000000000006</ele><time>2026-04-04T15:33:25Z</time></trkpt><trkpt lat="46.171950210446454" lon="9.750434540187864"><ele>439.0</ele><time>2026-04-04T15:33:26Z</time></trkpt><trkpt lat="46.17192469447396" lon="9.75054611970594"><ele>439.0</ele><time>2026-04-04T15:33:27Z</time></trkpt><trkpt lat="46.17190750103069" lon="9.750654595804123"><ele>439.0</ele><time>2026-04-04T15:33:28Z</time></trkpt><trkpt lat="46.171881625733334" lon="9.750759014184164"><ele>439.00000000000006</ele><time>2026-04-04T15:33:29Z</time></trkpt><trkpt lat="46.171845891154476" lon="9.75089679117137"><ele>439.0</ele><time>2026-04-04T15:33:31Z</time></trkpt><trkpt lat="46.17181235630769" lon="9.75106338917184"><ele>439.00000000000006</ele><time>2026-04-04T15:33:33Z</time></trkpt><trkpt lat="46.17174526546345" lon="9.751064742696162"><ele>439.0</ele><time>2026-04-04T15:33:34Z</time></trkpt><trkpt lat="46.171687646963576" lon="9.75099917297254"><ele>439.0</ele><time>2026-04-04T15:33:35Z</time></trkpt><trkpt lat="46.17165102917107" lon="9.750849713680191"><ele>439.0</ele><time>2026-04-04T15:33:36Z</time></trkpt><trkpt lat="46.171623664815925" lon="9.75070022750837"><ele>439.00000000000006</ele><time>2026-04-04T15:33:37Z</time></trkpt><trkpt lat="46.171589989335615" lon="9.750579861790918"><ele>439.0</ele><time>2026-04-04T15:33:38Z</time></trkpt><trkpt lat="46.171552163709336" lon="9.750474237601322"><ele>434.4</ele><time>2026-04-04T15:33:39Z</time></trkpt><trkpt lat="46.17149090174933" lon="9.750335784196672"><ele>429.79999999999995</ele><time>2026-04-04T15:33:40Z</time></trkpt><trkpt lat="46.1714432860573" lon="9.7502058804939"><ele>425.20000000000005</ele><time>2026-04-04T15:33:41Z</time></trkpt><trkpt lat="46.17144002687664" lon="9.75007708829178"><ele>420.6</ele><time>2026-04-04T15:33:42Z</time></trkpt><trkpt lat="46.17146037715689" lon="9.749968153964662"><ele>416.0</ele><time>2026-04-04T15:33:43Z</time></trkpt><trkpt lat="46.17146613910967" lon="9.749864112193679"><ele>415.8</ele><time>2026-04-04T15:33:45Z</time></trkpt><trkpt lat="46.171364038394586" lon="9.74990397849266"><ele>415.6</ele><time>2026-04-04T15:33:47Z</time></trkpt><trkpt lat="46.17129533408929" lon="9.749973745778075"><ele>415.4</ele><time>2026-04-04T15:33:48Z</time></trkpt><trkpt lat="46.17121275993683" lon="9.7499271951219"><ele>415.2</ele><time>2026-04-04T15:33:50Z</time></trkpt><trkpt lat="46.17120068245877" lon="9.749782532859333"><ele>415.0</ele><time>2026-04-04T15:33:51Z</time></trkpt><trkpt lat="46.171195165037894" lon="9.749637664603497"><ele>415.0</ele><time>2026-04-04T15:33:52Z</time></trkpt><trkpt lat="46.17117257853589" lon="9.749502254332372"><ele>415.0</ele><time>2026-04-04T15:33:53Z</time></trkpt><trkpt lat="46.17113995896734" lon="9.749363771542098"><ele>415.0</ele><time>2026-04-04T15:33:54Z</time></trkpt><trkpt lat="46.17112667993868" lon="9.749232834265122"><ele>415.0</ele><time>2026-04-04T15:33:55Z</time></trkpt><trkpt lat="46.17109455159623" lon="9.749103841631939"><ele>415.0</ele><time>2026-04-04T15:33:56.001Z</time></trkpt><trkpt lat="46.17106250216702" lon="9.748964097684231"><ele>414.4</ele><time>2026-04-04T15:33:57Z</time></trkpt><trkpt lat="46.17103026214083" lon="9.748819049587812"><ele>413.8</ele><time>2026-04-04T15:33:58Z</time></trkpt><trkpt lat="46.170998287027025" lon="9.748667668276081"><ele>413.20000000000005</ele><time>2026-04-04T15:33:59.001Z</time></trkpt><trkpt lat="46.170964343259165" lon="9.748516588463698"><ele>412.6</ele><time>2026-04-04T15:34:00Z</time></trkpt><trkpt lat="46.17093196030242" lon="9.748384803878059"><ele>412.0</ele><time>2026-04-04T15:34:01Z</time></trkpt><trkpt lat="46.17089817722155" lon="9.748280725154196"><ele>411.6</ele><time>2026-04-04T15:34:02.001Z</time></trkpt><trkpt lat="46.17085079165552" lon="9.748176779555761"><ele>411.20000000000005</ele><time>2026-04-04T15:34:03Z</time></trkpt><trkpt lat="46.17079474847275" lon="9.748088809708584"><ele>410.8</ele><time>2026-04-04T15:34:04Z</time></trkpt><trkpt lat="46.17071727577511" lon="9.747998505381487"><ele>410.4</ele><time>2026-04-04T15:34:05Z</time></trkpt><trkpt lat="46.1706205947173" lon="9.747917899407579"><ele>410.0</ele><time>2026-04-04T15:34:06.001Z</time></trkpt><trkpt lat="46.17055445239725" lon="9.747851585934262"><ele>408.4</ele><time>2026-04-04T15:34:07.001Z</time></trkpt><trkpt lat="46.1705047699181" lon="9.747788020371123"><ele>406.8</ele><time>2026-04-04T15:34:08Z</time></trkpt><trkpt lat="46.17042935754372" lon="9.747708610572223"><ele>405.20000000000005</ele><time>2026-04-04T15:34:10.001Z</time></trkpt><trkpt lat="46.170355360428275" lon="9.747630893244414"><ele>403.6</ele><time>2026-04-04T15:34:33Z</time></trkpt><trkpt lat="46.17030475840818" lon="9.747570737651507"><ele>402.0</ele><time>2026-04-04T15:34:34Z</time></trkpt><trkpt lat="46.17022842405923" lon="9.747403117270707"><ele>401.6</ele><time>2026-04-04T15:34:36Z</time></trkpt><trkpt lat="46.170184653769475" lon="9.747276232969009"><ele>401.20000000000005</ele><time>2026-04-04T15:34:37Z</time></trkpt><trkpt lat="46.17016486758751" lon="9.747126299715696"><ele>400.8</ele><time>2026-04-04T15:34:38Z</time></trkpt><trkpt lat="46.17011418519996" lon="9.746995209158507"><ele>400.4</ele><time>2026-04-04T15:34:39Z</time></trkpt><trkpt lat="46.17008771944111" lon="9.746860091493515"><ele>400.0</ele><time>2026-04-04T15:34:40Z</time></trkpt><trkpt lat="46.17005817783155" lon="9.746728611507667"><ele>399.1666666666667</ele><time>2026-04-04T15:34:41Z</time></trkpt><trkpt lat="46.17001794431669" lon="9.746604201395085"><ele>398.33333333333337</ele><time>2026-04-04T15:34:42Z</time></trkpt><trkpt lat="46.16998548100262" lon="9.746475489795621"><ele>397.5</ele><time>2026-04-04T15:34:43Z</time></trkpt><trkpt lat="46.1699695607289" lon="9.746343347979955"><ele>396.66666666666663</ele><time>2026-04-04T15:34:44Z</time></trkpt><trkpt lat="46.16994634035635" lon="9.746233384656419"><ele>395.8333333333333</ele><time>2026-04-04T15:34:45Z</time></trkpt><trkpt lat="46.16992801295736" lon="9.746129848389442"><ele>395.0</ele><time>2026-04-04T15:34:46Z</time></trkpt><trkpt lat="46.169871131748216" lon="9.746035980657307"><ele>393.4</ele><time>2026-04-04T15:34:47Z</time></trkpt><trkpt lat="46.16980150667423" lon="9.745932522593126"><ele>391.8</ele><time>2026-04-04T15:34:48Z</time></trkpt><trkpt lat="46.16973320738608" lon="9.745838937025178"><ele>390.20000000000005</ele><time>2026-04-04T15:34:49Z</time></trkpt><trkpt lat="46.16967485138529" lon="9.745749554554065"><ele>388.6</ele><time>2026-04-04T15:34:50Z</time></trkpt><trkpt lat="46.169609228474975" lon="9.745647854205794"><ele>387.0</ele><time>2026-04-04T15:34:51Z</time></trkpt><trkpt lat="46.1695387881277" lon="9.745547225795281"><ele>387.0</ele><time>2026-04-04T15:34:52Z</time></trkpt><trkpt lat="46.16946066846819" lon="9.745452990364381"><ele>387.0</ele><time>2026-04-04T15:34:53Z</time></trkpt><trkpt lat="46.1693858885223" lon="9.745347265380515"><ele>387.0</ele><time>2026-04-04T15:34:54Z</time></trkpt><trkpt lat="46.16931647338583" lon="9.745232154338186"><ele>387.0</ele><time>2026-04-04T15:34:55Z</time></trkpt><trkpt lat="46.16923802782852" lon="9.745126036182837"><ele>387.0</ele><time>2026-04-04T15:34:56Z</time></trkpt><trkpt lat="46.16916178869229" lon="9.74502618466877"><ele>386.8</ele><time>2026-04-04T15:34:57Z</time></trkpt><trkpt lat="46.16908093841988" lon="9.74493163683207"><ele>386.6</ele><time>2026-04-04T15:34:58Z</time></trkpt><trkpt lat="46.169006055554" lon="9.744835284850154"><ele>386.40000000000003</ele><time>2026-04-04T15:34:59Z</time></trkpt><trkpt lat="46.168926554316414" lon="9.744741159064034"><ele>386.20000000000005</ele><time>2026-04-04T15:35:00Z</time></trkpt><trkpt lat="46.16884705922386" lon="9.744637428244957"><ele>386.0</ele><time>2026-04-04T15:35:01Z</time></trkpt><trkpt lat="46.16878581743602" lon="9.744506300106856"><ele>384.20000000000005</ele><time>2026-04-04T15:35:02Z</time></trkpt><trkpt lat="46.16873223952095" lon="9.744359025093464"><ele>382.40000000000003</ele><time>2026-04-04T15:35:03Z</time></trkpt><trkpt lat="46.168690686620245" lon="9.744218268833244"><ele>380.6</ele><time>2026-04-04T15:35:04Z</time></trkpt><trkpt lat="46.16866940762392" lon="9.74407338733853"><ele>378.8</ele><time>2026-04-04T15:35:05Z</time></trkpt><trkpt lat="46.16865849196773" lon="9.743939242680147"><ele>377.0</ele><time>2026-04-04T15:35:06Z</time></trkpt><trkpt lat="46.16864588836768" lon="9.743806472456559"><ele>377.0</ele><time>2026-04-04T15:35:07Z</time></trkpt><trkpt lat="46.168644658645405" lon="9.743694827617661"><ele>377.0</ele><time>2026-04-04T15:35:08Z</time></trkpt><trkpt lat="46.16866038436287" lon="9.743594052923626"><ele>377.0</ele><time>2026-04-04T15:35:09Z</time></trkpt><trkpt lat="46.16868690870137" lon="9.74347163150109"><ele>377.0</ele><time>2026-04-04T15:35:10Z</time></trkpt><trkpt lat="46.16870864163198" lon="9.743374899213109"><ele>377.0</ele><time>2026-04-04T15:35:11Z</time></trkpt><trkpt lat="46.16874497137774" lon="9.743278628180196"><ele>377.0</ele><time>2026-04-04T15:35:12Z</time></trkpt><trkpt lat="46.168785125962636" lon="9.743185090217818"><ele>376.83333333333337</ele><time>2026-04-04T15:35:13Z</time></trkpt><trkpt lat="46.16881277816706" lon="9.743078789414394"><ele>376.6666666666667</ele><time>2026-04-04T15:35:14Z</time></trkpt><trkpt lat="46.16882345690057" lon="9.742974560783937"><ele>376.5</ele><time>2026-04-04T15:35:15Z</time></trkpt><trkpt lat="46.16883729608302" lon="9.742882672328793"><ele>376.3333333333333</ele><time>2026-04-04T15:35:16Z</time></trkpt><trkpt lat="46.16886620420863" lon="9.742733887041735"><ele>376.16666666666663</ele><time>2026-04-04T15:35:18Z</time></trkpt><trkpt lat="46.16889163968716" lon="9.742645180714279"><ele>376.0</ele><time>2026-04-04T15:35:19Z</time></trkpt><trkpt lat="46.168887245492115" lon="9.74254707888008"><ele>373.0</ele><time>2026-04-04T15:35:20Z</time></trkpt><trkpt lat="46.16894359591027" lon="9.742461334233102"><ele>373.0</ele><time>2026-04-04T15:35:22Z</time></trkpt><trkpt lat="46.16896104198669" lon="9.742334410917431"><ele>373.0</ele><time>2026-04-04T15:36:18Z</time></trkpt><trkpt lat="46.168898903120784" lon="9.74237500419287"><ele>373.0</ele><time>2026-04-04T15:37:03Z</time></trkpt><trkpt lat="46.168819872676885" lon="9.742379068649507"><ele>373.0</ele><time>2026-04-04T15:37:19Z</time></trkpt></trkseg></trk></gpx>